<?xml version='1.0' encoding='UTF-8'?><gpx version="1.1" creator="JPX - https://github.com/jenetics/jpx" xmlns="http://www.topografix.com/GPX/1/1"><trk><trkseg><trkpt lat="42.66254989511613" lon="12.287250611923023"><ele>366.0</ele><time>2026-04-17T14:55:47Z</time></trkpt><trkpt lat="42.66262293784702" lon="12.287244297253865"><ele>366.0</ele><time>2026-04-17T15:12:02Z</time></trkpt><trkpt lat="42.66256847025598" lon="12.287192162486999"><ele>366.0</ele><time>2026-04-17T15:14:00Z</time></trkpt><trkpt lat="42.662499499617596" lon="12.287186575298238"><ele>366.0</ele><time>2026-04-17T15:14:04Z</time></trkpt><trkpt lat="42.66250018331854" lon="12.287297813719427"><ele>366.0</ele><time>2026-04-17T15:15:26Z</time></trkpt><trkpt lat="42.66246143011209" lon="12.2873786645827"><ele>366.0</ele><time>2026-04-17T15:15:56.999Z</time></trkpt><trkpt lat="42.66241354856529" lon="12.28748301412129"><ele>366.25</ele><time>2026-04-17T15:15:57.999Z</time></trkpt><trkpt lat="42.662353437029104" lon="12.287594193064724"><ele>366.5</ele><time>2026-04-17T15:15:58.999Z</time></trkpt><trkpt lat="42.662259522421635" lon="12.287725502919079"><ele>366.75</ele><time>2026-04-17T15:15:59.999Z</time></trkpt><trkpt lat="42.66214468097009" lon="12.287889168868736"><ele>367.0</ele><time>2026-04-17T15:16:00.999Z</time></trkpt><trkpt lat="42.6620241534999" lon="12.28803288442869"><ele>367.25</ele><time>2026-04-17T15:16:01.999Z</time></trkpt><trkpt lat="42.661912296442885" lon="12.288168517612853"><ele>367.5</ele><time>2026-04-17T15:16:02.999Z</time></trkpt><trkpt lat="42.66181192279644" lon="12.288298777346009"><ele>367.75</ele><time>2026-04-17T15:16:03.999Z</time></trkpt><trkpt lat="42.661725433785826" lon="12.288435858296612"><ele>368.0</ele><time>2026-04-17T15:16:04.999Z</time></trkpt><trkpt lat="42.66162588361094" lon="12.288553378278342"><ele>368.0</ele><time>2026-04-17T15:16:05.999Z</time></trkpt><trkpt lat="42.6615249555736" lon="12.28869482241359"><ele>368.0</ele><time>2026-04-17T15:16:06.999Z</time></trkpt><trkpt lat="42.66140738805271" lon="12.288854483979048"><ele>368.0</ele><time>2026-04-17T15:16:07.999Z</time></trkpt><trkpt lat="42.66128198557117" lon="12.289015121943688"><ele>366.6666666666667</ele><time>2026-04-17T15:16:08.999Z</time></trkpt><trkpt lat="42.6611656243768" lon="12.289197036580703"><ele>365.3333333333333</ele><time>2026-04-17T15:16:09.999Z</time></trkpt><trkpt lat="42.6610634730174" lon="12.289401585462675"><ele>364.0</ele><time>2026-04-17T15:16:10.999Z</time></trkpt><trkpt lat="42.66099113778445" lon="12.28958719909258"><ele>365.66666666666663</ele><time>2026-04-17T15:16:11.999Z</time></trkpt><trkpt lat="42.66094293476049" lon="12.289797694333261"><ele>367.3333333333333</ele><time>2026-04-17T15:16:12.999Z</time></trkpt><trkpt lat="42.66092813391049" lon="12.290053016480567"><ele>369.0</ele><time>2026-04-17T15:16:13.999Z</time></trkpt><trkpt lat="42.660925937100025" lon="12.29032103053061"><ele>369.0</ele><time>2026-04-17T15:16:14.999Z</time></trkpt><trkpt lat="42.6609042469565" lon="12.290584758458229"><ele>369.0</ele><time>2026-04-17T15:16:15.999Z</time></trkpt><trkpt lat="42.66086712465209" lon="12.290837775120538"><ele>369.0</ele><time>2026-04-17T15:16:16.999Z</time></trkpt><trkpt lat="42.660815007702446" lon="12.291031698799129"><ele>370.75</ele><time>2026-04-17T15:16:17.999Z</time></trkpt><trkpt lat="42.66075864744835" lon="12.29119384779602"><ele>372.5</ele><time>2026-04-17T15:16:18.999Z</time></trkpt><trkpt lat="42.66069221911523" lon="12.29132170632744"><ele>374.25</ele><time>2026-04-17T15:16:19.999Z</time></trkpt><trkpt lat="42.660607074942824" lon="12.29144275924113"><ele>376.0</ele><time>2026-04-17T15:16:20.999Z</time></trkpt><trkpt lat="42.66049940982232" lon="12.291563677456788"><ele>379.0</ele><time>2026-04-17T15:16:21.999Z</time></trkpt><trkpt lat="42.66039368050729" lon="12.29166354485015"><ele>382.0</ele><time>2026-04-17T15:16:22.999Z</time></trkpt><trkpt lat="42.66028100971505" lon="12.291694720113533"><ele>385.0</ele><time>2026-04-17T15:16:23.999Z</time></trkpt><trkpt lat="42.66018005418854" lon="12.2916658616402"><ele>388.0</ele><time>2026-04-17T15:16:24.999Z</time></trkpt><trkpt lat="42.66005475536036" lon="12.291658042499071"><ele>388.0</ele><time>2026-04-17T15:16:25.999Z</time></trkpt><trkpt lat="42.65990591751698" lon="12.291625223527774"><ele>388.0</ele><time>2026-04-17T15:16:26.999Z</time></trkpt><trkpt lat="42.65978598613141" lon="12.291627193155605"><ele>388.0</ele><time>2026-04-17T15:16:27.999Z</time></trkpt><trkpt lat="42.65967739297546" lon="12.291681866121593"><ele>388.0</ele><time>2026-04-17T15:16:28.999Z</time></trkpt><trkpt lat="42.659584033025766" lon="12.291787304132233"><ele>388.0</ele><time>2026-04-17T15:16:29.999Z</time></trkpt><trkpt lat="42.65948427780129" lon="12.291938607617611"><ele>388.0</ele><time>2026-04-17T15:16:30.999Z</time></trkpt><trkpt lat="42.65934879816429" lon="12.292125203395006"><ele>388.0</ele><time>2026-04-17T15:16:31.999Z</time></trkpt><trkpt lat="42.659164915515014" lon="12.29230946885891"><ele>391.6666666666667</ele><time>2026-04-17T15:16:32.999Z</time></trkpt><trkpt lat="42.65897557640374" lon="12.29247880582733"><ele>395.33333333333337</ele><time>2026-04-17T15:16:33.999Z</time></trkpt><trkpt lat="42.658803767749845" lon="12.292643616136157"><ele>399.0</ele><time>2026-04-17T15:16:34.999Z</time></trkpt><trkpt lat="42.658682649627224" lon="12.292756697443215"><ele>400.0</ele><time>2026-04-17T15:16:35.999Z</time></trkpt><trkpt lat="42.65857341878895" lon="12.292858681398606"><ele>401.0</ele><time>2026-04-17T15:16:36.999Z</time></trkpt><trkpt lat="42.658459682001244" lon="12.292958695410306"><ele>402.0</ele><time>2026-04-17T15:16:37.999Z</time></trkpt><trkpt lat="42.65834636285974" lon="12.293054042043458"><ele>403.0</ele><time>2026-04-17T15:16:38.999Z</time></trkpt><trkpt lat="42.65823130035655" lon="12.293150827608414"><ele>403.0</ele><time>2026-04-17T15:16:39.999Z</time></trkpt><trkpt lat="42.65812680295556" lon="12.293267679250864"><ele>403.0</ele><time>2026-04-17T15:16:40.999Z</time></trkpt><trkpt lat="42.65801508466921" lon="12.293362877853635"><ele>403.0</ele><time>2026-04-17T15:16:41.999Z</time></trkpt><trkpt lat="42.657920413596365" lon="12.293453736210285"><ele>403.0</ele><time>2026-04-17T15:16:42.999Z</time></trkpt><trkpt lat="42.65783916563812" lon="12.29355480405733"><ele>402.00000000000006</ele><time>2026-04-17T15:16:43.999Z</time></trkpt><trkpt lat="42.65773314082327" lon="12.29362260694704"><ele>401.0</ele><time>2026-04-17T15:16:44.999Z</time></trkpt><trkpt lat="42.657667866598345" lon="12.293673368598334"><ele>400.0</ele><time>2026-04-17T15:16:45.999Z</time></trkpt><trkpt lat="42.65759691999859" lon="12.293704883085217"><ele>399.0</ele><time>2026-04-17T15:16:46.999Z</time></trkpt><trkpt lat="42.657504951580066" lon="12.293738413147755"><ele>398.00000000000006</ele><time>2026-04-17T15:16:48.999Z</time></trkpt><trkpt lat="42.65742341432321" lon="12.293759927622553"><ele>397.0</ele><time>2026-04-17T15:17:16Z</time></trkpt><trkpt lat="42.65737613686402" lon="12.293881418819845"><ele>397.40000000000003</ele><time>2026-04-17T15:17:19Z</time></trkpt><trkpt lat="42.657346603710685" lon="12.29398188874999"><ele>397.8</ele><time>2026-04-17T15:17:21Z</time></trkpt><trkpt lat="42.65730272964065" lon="12.294095777291691"><ele>398.2</ele><time>2026-04-17T15:17:23Z</time></trkpt><trkpt lat="42.657249210784336" lon="12.294210530737631"><ele>398.6</ele><time>2026-04-17T15:17:25Z</time></trkpt><trkpt lat="42.65717433975936" lon="12.294341438470804"><ele>399.0</ele><time>2026-04-17T15:17:27Z</time></trkpt><trkpt lat="42.65714174359938" lon="12.294428040876065"><ele>399.0</ele><time>2026-04-17T15:17:28Z</time></trkpt><trkpt lat="42.65708476693584" lon="12.294495641005296"><ele>399.0</ele><time>2026-04-17T15:17:29Z</time></trkpt><trkpt lat="42.657035145287274" lon="12.294572227602826"><ele>399.0</ele><time>2026-04-17T15:17:30Z</time></trkpt><trkpt lat="42.6569783575444" lon="12.294649471406775"><ele>399.0</ele><time>2026-04-17T15:17:31Z</time></trkpt><trkpt lat="42.65692116195965" lon="12.294720131109907"><ele>399.0</ele><time>2026-04-17T15:17:32Z</time></trkpt><trkpt lat="42.65686404777044" lon="12.294788174513121"><ele>399.0</ele><time>2026-04-17T15:17:33Z</time></trkpt><trkpt lat="42.65680231777037" lon="12.29485707024677"><ele>395.85714285714283</ele><time>2026-04-17T15:17:34Z</time></trkpt><trkpt lat="42.65674941857443" lon="12.294923380820268"><ele>392.7142857142857</ele><time>2026-04-17T15:17:35Z</time></trkpt><trkpt lat="42.65669583452263" lon="12.294990431128655"><ele>389.57142857142856</ele><time>2026-04-17T15:17:36Z</time></trkpt><trkpt lat="42.65663746810028" lon="12.29505316218487"><ele>386.42857142857144</ele><time>2026-04-17T15:17:37Z</time></trkpt><trkpt lat="42.65658712417318" lon="12.29512196817441"><ele>383.2857142857143</ele><time>2026-04-17T15:17:38Z</time></trkpt><trkpt lat="42.65653353925297" lon="12.295178888691822"><ele>380.1428571428571</ele><time>2026-04-17T15:17:39Z</time></trkpt><trkpt lat="42.656481278203714" lon="12.29524466023882"><ele>377.0</ele><time>2026-04-17T15:17:40Z</time></trkpt><trkpt lat="42.65643342706443" lon="12.295314422251431"><ele>377.0</ele><time>2026-04-17T15:17:40.998Z</time></trkpt><trkpt lat="42.65637165652156" lon="12.29538619597353"><ele>377.0</ele><time>2026-04-17T15:17:41.998Z</time></trkpt><trkpt lat="42.65629368853351" lon="12.295453894447236"><ele>377.0</ele><time>2026-04-17T15:17:42.998Z</time></trkpt><trkpt lat="42.65619833175517" lon="12.295524663298247"><ele>377.0</ele><time>2026-04-17T15:17:43.998Z</time></trkpt><trkpt lat="42.65606229564241" lon="12.295596782946614"><ele>377.0</ele><time>2026-04-17T15:17:44.998Z</time></trkpt><trkpt lat="42.655952848096895" lon="12.295671660171628"><ele>375.20000000000005</ele><time>2026-04-17T15:17:45.998Z</time></trkpt><trkpt lat="42.65586065758637" lon="12.295726187878252"><ele>373.4</ele><time>2026-04-17T15:17:46.998Z</time></trkpt><trkpt lat="42.65576930127152" lon="12.295769669629218"><ele>371.6</ele><time>2026-04-17T15:17:47.998Z</time></trkpt><trkpt lat="42.65567272590729" lon="12.295807317043762"><ele>369.79999999999995</ele><time>2026-04-17T15:17:48.998Z</time></trkpt><trkpt lat="42.6555750293225" lon="12.29583369640604"><ele>368.0</ele><time>2026-04-17T15:17:49.998Z</time></trkpt><trkpt lat="42.655474257271685" lon="12.295848665552846"><ele>368.0</ele><time>2026-04-17T15:17:50.998Z</time></trkpt><trkpt lat="42.65537871683473" lon="12.2958510792352"><ele>368.0</ele><time>2026-04-17T15:17:51.998Z</time></trkpt><trkpt lat="42.65527966560964" lon="12.295871190256515"><ele>368.0</ele><time>2026-04-17T15:17:52.998Z</time></trkpt><trkpt lat="42.65517778062048" lon="12.295855365720527"><ele>368.0</ele><time>2026-04-17T15:17:53.998Z</time></trkpt><trkpt lat="42.65507077321669" lon="12.295824797791319"><ele>368.0</ele><time>2026-04-17T15:17:54.998Z</time></trkpt><trkpt lat="42.65496358943906" lon="12.295828428783784"><ele>368.5</ele><time>2026-04-17T15:17:55.998Z</time></trkpt><trkpt lat="42.654856539738574" lon="12.295816013984439"><ele>369.0</ele><time>2026-04-17T15:17:56.998Z</time></trkpt><trkpt lat="42.65474774716443" lon="12.29580952051312"><ele>369.5</ele><time>2026-04-17T15:17:57.998Z</time></trkpt><trkpt lat="42.65461332257828" lon="12.295818550177009"><ele>370.0</ele><time>2026-04-17T15:17:58.998Z</time></trkpt><trkpt lat="42.654468662428265" lon="12.295846050913203"><ele>371.25</ele><time>2026-04-17T15:17:59.998Z</time></trkpt><trkpt lat="42.654311324100924" lon="12.295894676580152"><ele>372.5</ele><time>2026-04-17T15:18:00.998Z</time></trkpt><trkpt lat="42.65417652880408" lon="12.295944954360106"><ele>373.75</ele><time>2026-04-17T15:18:01.999Z</time></trkpt><trkpt lat="42.65407406002192" lon="12.295994865915105"><ele>375.0</ele><time>2026-04-17T15:18:02.999Z</time></trkpt><trkpt lat="42.65399031099972" lon="12.296059478331744"><ele>375.0</ele><time>2026-04-17T15:18:03.999Z</time></trkpt><trkpt lat="42.653908659612966" lon="12.296126540157628"><ele>375.0</ele><time>2026-04-17T15:18:04.999Z</time></trkpt><trkpt lat="42.65383516392982" lon="12.296209842651079"><ele>375.0</ele><time>2026-04-17T15:18:05.999Z</time></trkpt><trkpt lat="42.65376326210526" lon="12.296325674409275"><ele>375.0</ele><time>2026-04-17T15:18:06.999Z</time></trkpt><trkpt lat="42.65370312805972" lon="12.296441266112417"><ele>375.0</ele><time>2026-04-17T15:18:07.999Z</time></trkpt><trkpt lat="42.65364887192055" lon="12.296549931912901"><ele>376.2</ele><time>2026-04-17T15:18:08.999Z</time></trkpt><trkpt lat="42.65360225528446" lon="12.296634745082256"><ele>377.4</ele><time>2026-04-17T15:18:09.999Z</time></trkpt><trkpt lat="42.65354102484491" lon="12.296748914594769"><ele>378.6</ele><time>2026-04-17T15:18:10.999Z</time></trkpt><trkpt lat="42.65346589579137" lon="12.296884391424255"><ele>379.8</ele><time>2026-04-17T15:18:11.999Z</time></trkpt><trkpt lat="42.653404065985065" lon="12.297008687270948"><ele>381.0</ele><time>2026-04-17T15:18:12.999Z</time></trkpt><trkpt lat="42.653345870963406" lon="12.29712203442862"><ele>381.0</ele><time>2026-04-17T15:18:13.999Z</time></trkpt><trkpt lat="42.65328947063039" lon="12.297230434636875"><ele>381.0</ele><time>2026-04-17T15:18:14.999Z</time></trkpt><trkpt lat="42.653222854235935" lon="12.297332683234858"><ele>381.0</ele><time>2026-04-17T15:18:15.999Z</time></trkpt><trkpt lat="42.653156488594355" lon="12.297410893991177"><ele>381.0</ele><time>2026-04-17T15:18:16.999Z</time></trkpt><trkpt lat="42.65306895025325" lon="12.297495636980926"><ele>381.0</ele><time>2026-04-17T15:18:17.999Z</time></trkpt><trkpt lat="42.65298913178939" lon="12.297575502441804"><ele>381.0</ele><time>2026-04-17T15:18:18.999Z</time></trkpt><trkpt lat="42.65291097081977" lon="12.297660216975961"><ele>381.0</ele><time>2026-04-17T15:18:19.999Z</time></trkpt><trkpt lat="42.65283606357592" lon="12.29774627865528"><ele>381.0</ele><time>2026-04-17T15:18:20.999Z</time></trkpt><trkpt lat="42.65275690224052" lon="12.297829322003517"><ele>381.0</ele><time>2026-04-17T15:18:21.999Z</time></trkpt><trkpt lat="42.6526902994024" lon="12.297922088129859"><ele>381.0</ele><time>2026-04-17T15:18:22.999Z</time></trkpt><trkpt lat="42.652625958171804" lon="12.298009245256313"><ele>381.20000000000005</ele><time>2026-04-17T15:18:23.999Z</time></trkpt><trkpt lat="42.652563821061925" lon="12.298087867248018"><ele>381.40000000000003</ele><time>2026-04-17T15:18:24.999Z</time></trkpt><trkpt lat="42.65247916134049" lon="12.298144484264698"><ele>381.6</ele><time>2026-04-17T15:18:25.999Z</time></trkpt><trkpt lat="42.65240172681243" lon="12.29819016098648"><ele>381.8</ele><time>2026-04-17T15:18:26.999Z</time></trkpt><trkpt lat="42.65231431544969" lon="12.298243790230613"><ele>382.0</ele><time>2026-04-17T15:18:27.999Z</time></trkpt><trkpt lat="42.65222562123463" lon="12.298318863350808"><ele>382.0</ele><time>2026-04-17T15:18:28.999Z</time></trkpt><trkpt lat="42.65213867303061" lon="12.298368507704307"><ele>382.0</ele><time>2026-04-17T15:18:29.999Z</time></trkpt><trkpt lat="42.65205896904251" lon="12.2984232163489"><ele>382.0</ele><time>2026-04-17T15:18:30.999Z</time></trkpt><trkpt lat="42.651986411153125" lon="12.298498928529506"><ele>382.0</ele><time>2026-04-17T15:18:31.999Z</time></trkpt><trkpt lat="42.651900828719135" lon="12.298572914697253"><ele>382.0</ele><time>2026-04-17T15:18:32.999Z</time></trkpt><trkpt lat="42.651824165882374" lon="12.298642551656235"><ele>382.8333333333333</ele><time>2026-04-17T15:18:33.999Z</time></trkpt><trkpt lat="42.65175791397782" lon="12.298706421168063"><ele>383.66666666666663</ele><time>2026-04-17T15:18:34.999Z</time></trkpt><trkpt lat="42.65170059841618" lon="12.298789963349646"><ele>384.5</ele><time>2026-04-17T15:18:35.999Z</time></trkpt><trkpt lat="42.65164389749148" lon="12.298887491004438"><ele>385.3333333333333</ele><time>2026-04-17T15:18:36.999Z</time></trkpt><trkpt lat="42.651603066507434" lon="12.298994600245486"><ele>386.1666666666667</ele><time>2026-04-17T15:18:37.999Z</time></trkpt><trkpt lat="42.6515594648676" lon="12.299084368987087"><ele>387.0</ele><time>2026-04-17T15:18:38.999Z</time></trkpt><trkpt lat="42.65151860203579" lon="12.299170476793131"><ele>387.1666666666667</ele><time>2026-04-17T15:18:39.999Z</time></trkpt><trkpt lat="42.651463738372414" lon="12.299238932728946"><ele>387.33333333333337</ele><time>2026-04-17T15:18:40.999Z</time></trkpt><trkpt lat="42.65140546852904" lon="12.2992876050989"><ele>387.5</ele><time>2026-04-17T15:18:41.999Z</time></trkpt><trkpt lat="42.65135105572659" lon="12.299353877937309"><ele>387.6666666666667</ele><time>2026-04-17T15:18:44Z</time></trkpt><trkpt lat="42.651293058174865" lon="12.299211591972329"><ele>387.83333333333337</ele><time>2026-04-17T15:18:47Z</time></trkpt><trkpt lat="42.65124350208428" lon="12.29907605949201"><ele>388.0</ele><time>2026-04-17T15:18:49Z</time></trkpt><trkpt lat="42.65115024369461" lon="12.299031538466817"><ele>388.1666666666667</ele><time>2026-04-17T15:18:51Z</time></trkpt><trkpt lat="42.651072851550836" lon="12.299045509761406"><ele>388.33333333333337</ele><time>2026-04-17T15:18:53Z</time></trkpt><trkpt lat="42.65099817016461" lon="12.299028402883353"><ele>388.5</ele><time>2026-04-17T15:18:56Z</time></trkpt><trkpt lat="42.65092297186293" lon="12.29900280696342"><ele>388.66666666666663</ele><time>2026-04-17T15:18:58Z</time></trkpt><trkpt lat="42.65088263605369" lon="12.29890424323272"><ele>388.8333333333333</ele><time>2026-04-17T15:19:02Z</time></trkpt><trkpt lat="42.650887942952636" lon="12.298790529628366"><ele>389.0</ele><time>2026-04-17T15:19:04Z</time></trkpt><trkpt lat="42.65091699362086" lon="12.298707104529216"><ele>388.6</ele><time>2026-04-17T15:19:05Z</time></trkpt><trkpt lat="42.65096281759837" lon="12.29863463877012"><ele>388.2</ele><time>2026-04-17T15:19:06Z</time></trkpt><trkpt lat="42.65105608752262" lon="12.298509136389818"><ele>387.8</ele><time>2026-04-17T15:19:08Z</time></trkpt><trkpt lat="42.65109100334715" lon="12.298428586024945"><ele>387.40000000000003</ele><time>2026-04-17T15:19:09Z</time></trkpt><trkpt lat="42.65115655691863" lon="12.29828688885288"><ele>387.0</ele><time>2026-04-17T15:19:11Z</time></trkpt><trkpt lat="42.65121042611597" lon="12.298147110572804"><ele>388.1666666666667</ele><time>2026-04-17T15:19:13Z</time></trkpt><trkpt lat="42.65126499658899" lon="12.29799950691436"><ele>389.33333333333337</ele><time>2026-04-17T15:19:15Z</time></trkpt><trkpt lat="42.65127767183935" lon="12.297905278194682"><ele>390.5</ele><time>2026-04-17T15:19:16Z</time></trkpt><trkpt lat="42.65131896012403" lon="12.297815920756115"><ele>391.6666666666667</ele><time>2026-04-17T15:19:17Z</time></trkpt><trkpt lat="42.65135383237315" lon="12.297721155244005"><ele>392.83333333333337</ele><time>2026-04-17T15:19:18Z</time></trkpt><trkpt lat="42.65138953590779" lon="12.297624614963942"><ele>394.0</ele><time>2026-04-17T15:19:19Z</time></trkpt><trkpt lat="42.65142145425073" lon="12.29753493084776"><ele>394.00000000000006</ele><time>2026-04-17T15:19:20Z</time></trkpt><trkpt lat="42.65148879526381" lon="12.2974052755754"><ele>394.0</ele><time>2026-04-17T15:19:22Z</time></trkpt><trkpt lat="42.65153038526989" lon="12.297332257024754"><ele>394.0</ele><time>2026-04-17T15:19:23Z</time></trkpt><trkpt lat="42.65157063056226" lon="12.297254775935157"><ele>394.0</ele><time>2026-04-17T15:19:24Z</time></trkpt><trkpt lat="42.65161325547865" lon="12.297184075502487"><ele>394.00000000000006</ele><time>2026-04-17T15:19:25Z</time></trkpt><trkpt lat="42.65168239953139" lon="12.297073665340632"><ele>394.0</ele><time>2026-04-17T15:19:27Z</time></trkpt><trkpt lat="42.65173115630035" lon="12.29693439800852"><ele>394.2</ele><time>2026-04-17T15:19:29Z</time></trkpt><trkpt lat="42.65174148173133" lon="12.296831522913617"><ele>394.4</ele><time>2026-04-17T15:19:30Z</time></trkpt><trkpt lat="42.65174481536879" lon="12.296734337381388"><ele>394.6</ele><time>2026-04-17T15:19:31Z</time></trkpt><trkpt lat="42.651747309462166" lon="12.296640164947094"><ele>394.8</ele><time>2026-04-17T15:19:32Z</time></trkpt><trkpt lat="42.65175827172536" lon="12.296486532353741"><ele>395.0</ele><time>2026-04-17T15:19:34Z</time></trkpt><trkpt lat="42.65172946473043" lon="12.29632095703224"><ele>394.99999999999994</ele><time>2026-04-17T15:19:36Z</time></trkpt><trkpt lat="42.651671509964174" lon="12.296186433546222"><ele>395.0</ele><time>2026-04-17T15:19:38Z</time></trkpt><trkpt lat="42.65161948616623" lon="12.296073426752782"><ele>395.0</ele><time>2026-04-17T15:19:40Z</time></trkpt><trkpt lat="42.651572402870464" lon="12.2959764394699"><ele>395.0</ele><time>2026-04-17T15:19:42Z</time></trkpt><trkpt lat="42.6515333269284" lon="12.295895946678211"><ele>394.99999999999994</ele><time>2026-04-17T15:19:44Z</time></trkpt><trkpt lat="42.65149175077235" lon="12.295809859622938"><ele>395.0</ele><time>2026-04-17T15:19:46Z</time></trkpt><trkpt lat="42.65144209133172" lon="12.295742783786638"><ele>394.99999999999994</ele><time>2026-04-17T15:19:47.998Z</time></trkpt><trkpt lat="42.65140723226954" lon="12.295644174363188"><ele>395.0</ele><time>2026-04-17T15:19:49.998Z</time></trkpt><trkpt lat="42.651358174500295" lon="12.29553062926422"><ele>395.0</ele><time>2026-04-17T15:19:51.998Z</time></trkpt><trkpt lat="42.651290424722895" lon="12.295404793244742"><ele>395.0</ele><time>2026-04-17T15:19:53.998Z</time></trkpt><trkpt lat="42.65124555339647" lon="12.295338369174436"><ele>394.99999999999994</ele><time>2026-04-17T15:19:54.998Z</time></trkpt><trkpt lat="42.65119368514475" lon="12.295262829862368"><ele>395.0</ele><time>2026-04-17T15:19:55.998Z</time></trkpt><trkpt lat="42.65114560455418" lon="12.295197697684511"><ele>394.66666666666663</ele><time>2026-04-17T15:19:56.998Z</time></trkpt><trkpt lat="42.6511066344321" lon="12.295113907747012"><ele>394.3333333333333</ele><time>2026-04-17T15:19:57.998Z</time></trkpt><trkpt lat="42.65105953327711" lon="12.29505500099857"><ele>394.0</ele><time>2026-04-17T15:19:58.998Z</time></trkpt><trkpt lat="42.650964857810656" lon="12.294945960800048"><ele>393.66666666666663</ele><time>2026-04-17T15:20:00.998Z</time></trkpt><trkpt lat="42.650909849436275" lon="12.294887471441228"><ele>393.3333333333333</ele><time>2026-04-17T15:20:01.999Z</time></trkpt><trkpt lat="42.65085202071992" lon="12.294827198943793"><ele>393.0</ele><time>2026-04-17T15:20:02.999Z</time></trkpt><trkpt lat="42.650787139717316" lon="12.294766040317908"><ele>391.1666666666667</ele><time>2026-04-17T15:20:03.999Z</time></trkpt><trkpt lat="42.65073176960307" lon="12.294713968526615"><ele>389.3333333333333</ele><time>2026-04-17T15:20:04.999Z</time></trkpt><trkpt lat="42.65066821477788" lon="12.29465419988931"><ele>387.5</ele><time>2026-04-17T15:20:05.999Z</time></trkpt><trkpt lat="42.6506072626058" lon="12.29459687871652"><ele>385.66666666666663</ele><time>2026-04-17T15:20:06.999Z</time></trkpt><trkpt lat="42.65054841369182" lon="12.294541535549703"><ele>383.8333333333333</ele><time>2026-04-17T15:20:07.999Z</time></trkpt><trkpt lat="42.65048437121394" lon="12.294480032264097"><ele>382.0</ele><time>2026-04-17T15:20:08.999Z</time></trkpt><trkpt lat="42.6504182768936" lon="12.294416062308429"><ele>382.0</ele><time>2026-04-17T15:20:09.999Z</time></trkpt><trkpt lat="42.650344950739665" lon="12.29436871142265"><ele>382.0</ele><time>2026-04-17T15:20:10.999Z</time></trkpt><trkpt lat="42.6502704326518" lon="12.294283177813748"><ele>382.0</ele><time>2026-04-17T15:20:11.999Z</time></trkpt><trkpt lat="42.650213840533446" lon="12.294174250867547"><ele>382.0</ele><time>2026-04-17T15:20:12.999Z</time></trkpt><trkpt lat="42.65015651827253" lon="12.294083229098788"><ele>382.0</ele><time>2026-04-17T15:20:13.999Z</time></trkpt><trkpt lat="42.6500909428976" lon="12.293986352929004"><ele>380.8</ele><time>2026-04-17T15:20:14.999Z</time></trkpt><trkpt lat="42.650008137369355" lon="12.29389692325813"><ele>379.6</ele><time>2026-04-17T15:20:15.999Z</time></trkpt><trkpt lat="42.649944652812714" lon="12.293802231487891"><ele>378.40000000000003</ele><time>2026-04-17T15:20:16.999Z</time></trkpt><trkpt lat="42.649880435683414" lon="12.293729695048725"><ele>377.20000000000005</ele><time>2026-04-17T15:20:17.999Z</time></trkpt><trkpt lat="42.64982655279916" lon="12.293643755415353"><ele>376.0</ele><time>2026-04-17T15:20:18.999Z</time></trkpt><trkpt lat="42.649780996586465" lon="12.293544154768771"><ele>376.0</ele><time>2026-04-17T15:20:19.999Z</time></trkpt><trkpt lat="42.64976540726663" lon="12.293439057838228"><ele>376.0</ele><time>2026-04-17T15:20:20.999Z</time></trkpt><trkpt lat="42.64974277463763" lon="12.293335957708747"><ele>376.0</ele><time>2026-04-17T15:20:21.999Z</time></trkpt><trkpt lat="42.64972822946865" lon="12.293246403402753"><ele>376.0</ele><time>2026-04-17T15:20:22.999Z</time></trkpt><trkpt lat="42.649694468600856" lon="12.29309214879368"><ele>376.0</ele><time>2026-04-17T15:20:24.999Z</time></trkpt><trkpt lat="42.64970580459076" lon="12.293007847708456"><ele>376.0</ele><time>2026-04-17T15:20:25.999Z</time></trkpt><trkpt lat="42.64972823024118" lon="12.292921147535449"><ele>376.0</ele><time>2026-04-17T15:20:27Z</time></trkpt><trkpt lat="42.64976103335451" lon="12.292840957967135"><ele>376.0</ele><time>2026-04-17T15:20:28Z</time></trkpt><trkpt lat="42.64980220932947" lon="12.292757319662735"><ele>376.0</ele><time>2026-04-17T15:20:29Z</time></trkpt><trkpt lat="42.64985118673005" lon="12.292671794213048"><ele>376.0</ele><time>2026-04-17T15:20:30Z</time></trkpt><trkpt lat="42.649902785146" lon="12.292592001904787"><ele>376.0</ele><time>2026-04-17T15:20:31Z</time></trkpt><trkpt lat="42.6499685685637" lon="12.292520328376936"><ele>376.0</ele><time>2026-04-17T15:20:32Z</time></trkpt><trkpt lat="42.65003527746674" lon="12.292446908802647"><ele>376.0</ele><time>2026-04-17T15:20:33Z</time></trkpt><trkpt lat="42.65008990045688" lon="12.292390404482228"><ele>376.0</ele><time>2026-04-17T15:20:34Z</time></trkpt><trkpt lat="42.650203230707476" lon="12.292324681151452"><ele>376.0</ele><time>2026-04-17T15:20:36Z</time></trkpt><trkpt lat="42.65027996070163" lon="12.292209782600455"><ele>376.0</ele><time>2026-04-17T15:20:38Z</time></trkpt><trkpt lat="42.65028447927991" lon="12.292118410410641"><ele>376.0</ele><time>2026-04-17T15:20:39Z</time></trkpt><trkpt lat="42.65029626463632" lon="12.29196396027314"><ele>376.4</ele><time>2026-04-17T15:20:41Z</time></trkpt><trkpt lat="42.6502874668795" lon="12.29182926179817"><ele>376.8</ele><time>2026-04-17T15:20:43Z</time></trkpt><trkpt lat="42.65022329726325" lon="12.291689990782048"><ele>377.2</ele><time>2026-04-17T15:20:45Z</time></trkpt><trkpt lat="42.65015284000509" lon="12.291613424176925"><ele>377.59999999999997</ele><time>2026-04-17T15:20:46Z</time></trkpt><trkpt lat="42.65007928080655" lon="12.291537105911337"><ele>378.0</ele><time>2026-04-17T15:20:47Z</time></trkpt><trkpt lat="42.64999688485709" lon="12.291428449215983"><ele>375.0</ele><time>2026-04-17T15:20:48Z</time></trkpt><trkpt lat="42.64991557900327" lon="12.291324099275014"><ele>372.0</ele><time>2026-04-17T15:20:49Z</time></trkpt><trkpt lat="42.64982052015273" lon="12.29121979787966"><ele>369.0</ele><time>2026-04-17T15:20:50Z</time></trkpt><trkpt lat="42.6497162741885" lon="12.291140149370355"><ele>366.0</ele><time>2026-04-17T15:20:51Z</time></trkpt><trkpt lat="42.64963665805951" lon="12.291041312411902"><ele>366.0</ele><time>2026-04-17T15:20:52Z</time></trkpt><trkpt lat="42.64956499287641" lon="12.290965541085255"><ele>366.0</ele><time>2026-04-17T15:20:53Z</time></trkpt><trkpt lat="42.64950898696289" lon="12.29088663648967"><ele>366.0</ele><time>2026-04-17T15:20:54Z</time></trkpt><trkpt lat="42.649453969279236" lon="12.290785605629821"><ele>366.0</ele><time>2026-04-17T15:20:55Z</time></trkpt><trkpt lat="42.649396414300014" lon="12.290688798879255"><ele>366.0</ele><time>2026-04-17T15:20:56Z</time></trkpt><trkpt lat="42.649277422872046" lon="12.290620294657348"><ele>368.20000000000005</ele><time>2026-04-17T15:20:57Z</time></trkpt><trkpt lat="42.64917345483943" lon="12.29053740909853"><ele>370.40000000000003</ele><time>2026-04-17T15:20:58Z</time></trkpt><trkpt lat="42.64908297099946" lon="12.290468948894457"><ele>372.6</ele><time>2026-04-17T15:20:59Z</time></trkpt><trkpt lat="42.64899898017538" lon="12.29042794675898"><ele>374.8</ele><time>2026-04-17T15:21:00Z</time></trkpt><trkpt lat="42.64893604394901" lon="12.29037827963564"><ele>377.0</ele><time>2026-04-17T15:21:01Z</time></trkpt><trkpt lat="42.648879725388774" lon="12.290314690878867"><ele>377.0</ele><time>2026-04-17T15:21:02Z</time></trkpt><trkpt lat="42.64884483252884" lon="12.290238237972131"><ele>377.0</ele><time>2026-04-17T15:21:03Z</time></trkpt><trkpt lat="42.64888996415078" lon="12.290092264620753"><ele>377.0</ele><time>2026-04-17T15:21:05Z</time></trkpt><trkpt lat="42.648928564222615" lon="12.289975975171709"><ele>377.0</ele><time>2026-04-17T15:21:06Z</time></trkpt><trkpt lat="42.649002591828214" lon="12.289851073864414"><ele>377.0</ele><time>2026-04-17T15:21:07Z</time></trkpt><trkpt lat="42.649082449601806" lon="12.28971649071965"><ele>378.40000000000003</ele><time>2026-04-17T15:21:08Z</time></trkpt><trkpt lat="42.64915977308919" lon="12.28962060421383"><ele>379.8</ele><time>2026-04-17T15:21:09Z</time></trkpt><trkpt lat="42.649188866344325" lon="12.289531563874347"><ele>381.2</ele><time>2026-04-17T15:21:10Z</time></trkpt><trkpt lat="42.64923482182144" lon="12.289468381257752"><ele>382.6</ele><time>2026-04-17T15:21:11Z</time></trkpt><trkpt lat="42.649290039520935" lon="12.289330914903077"><ele>384.0</ele><time>2026-04-17T15:21:13Z</time></trkpt><trkpt lat="42.64920025341875" lon="12.289167903918809"><ele>384.0</ele><time>2026-04-17T15:21:14Z</time></trkpt><trkpt lat="42.649181061410424" lon="12.289045434680308"><ele>384.0</ele><time>2026-04-17T15:21:15Z</time></trkpt><trkpt lat="42.649164908502804" lon="12.288923594086718"><ele>384.0</ele><time>2026-04-17T15:21:16Z</time></trkpt><trkpt lat="42.64916675935871" lon="12.288828107796766"><ele>384.0</ele><time>2026-04-17T15:21:17Z</time></trkpt><trkpt lat="42.64914615248246" lon="12.288715994316508"><ele>384.0</ele><time>2026-04-17T15:21:19Z</time></trkpt><trkpt lat="42.64913535263285" lon="12.28860344252448"><ele>384.0</ele><time>2026-04-17T15:21:21Z</time></trkpt><trkpt lat="42.649051556108915" lon="12.288474443713161"><ele>384.1666666666667</ele><time>2026-04-17T15:21:23.001Z</time></trkpt><trkpt lat="42.64899678114495" lon="12.288338356715865"><ele>384.33333333333337</ele><time>2026-04-17T15:21:25.001Z</time></trkpt><trkpt lat="42.6489730710509" lon="12.288241072698101"><ele>384.5</ele><time>2026-04-17T15:21:26.001Z</time></trkpt><trkpt lat="42.64895381508983" lon="12.288135256870893"><ele>384.6666666666667</ele><time>2026-04-17T15:21:27.001Z</time></trkpt><trkpt lat="42.64893438462724" lon="12.288020247612067"><ele>384.83333333333337</ele><time>2026-04-17T15:21:28.001Z</time></trkpt><trkpt lat="42.648902656164175" lon="12.28790184920974"><ele>385.0</ele><time>2026-04-17T15:21:29.001Z</time></trkpt><trkpt lat="42.648880038700455" lon="12.287782894447387"><ele>385.00000000000006</ele><time>2026-04-17T15:21:30.001Z</time></trkpt><trkpt lat="42.648855119805134" lon="12.287689334891425"><ele>385.0</ele><time>2026-04-17T15:21:31.001Z</time></trkpt><trkpt lat="42.64881046991875" lon="12.28758806418597"><ele>385.0</ele><time>2026-04-17T15:21:32.001Z</time></trkpt><trkpt lat="42.64879500317439" lon="12.287477876171105"><ele>385.0</ele><time>2026-04-17T15:21:33.001Z</time></trkpt><trkpt lat="42.64876154379371" lon="12.287367731627446"><ele>385.00000000000006</ele><time>2026-04-17T15:21:34.001Z</time></trkpt><trkpt lat="42.648718701810864" lon="12.287265551731798"><ele>385.0</ele><time>2026-04-17T15:21:35.001Z</time></trkpt><trkpt lat="42.648686621378594" lon="12.287159285458168"><ele>384.33333333333337</ele><time>2026-04-17T15:21:36.001Z</time></trkpt><trkpt lat="42.648660290070865" lon="12.287057153217386"><ele>383.6666666666667</ele><time>2026-04-17T15:21:37.001Z</time></trkpt><trkpt lat="42.64862588741061" lon="12.286943370496013"><ele>383.0</ele><time>2026-04-17T15:21:38.001Z</time></trkpt><trkpt lat="42.648592959776366" lon="12.286834912842199"><ele>382.33333333333337</ele><time>2026-04-17T15:21:39.001Z</time></trkpt><trkpt lat="42.64856703916888" lon="12.28674709239443"><ele>381.6666666666667</ele><time>2026-04-17T15:21:40.001Z</time></trkpt><trkpt lat="42.6485383592854" lon="12.28664588232994"><ele>381.0</ele><time>2026-04-17T15:21:41.001Z</time></trkpt><trkpt lat="42.64850733808601" lon="12.28654477744314"><ele>385.6666666666667</ele><time>2026-04-17T15:21:42.001Z</time></trkpt><trkpt lat="42.64849865317404" lon="12.286451953540734"><ele>390.33333333333337</ele><time>2026-04-17T15:21:43.001Z</time></trkpt><trkpt lat="42.64847589435717" lon="12.28635636554587"><ele>395.0</ele><time>2026-04-17T15:21:44.001Z</time></trkpt><trkpt lat="42.648454650893974" lon="12.286243033331044"><ele>399.6666666666667</ele><time>2026-04-17T15:21:46.001Z</time></trkpt><trkpt lat="42.64845689330303" lon="12.286088530229296"><ele>404.33333333333337</ele><time>2026-04-17T15:21:48.001Z</time></trkpt><trkpt lat="42.64847036568115" lon="12.285992966582441"><ele>409.0</ele><time>2026-04-17T15:21:49.001Z</time></trkpt><trkpt lat="42.64847763942504" lon="12.285898985666359"><ele>409.0</ele><time>2026-04-17T15:21:50.001Z</time></trkpt><trkpt lat="42.648487566848736" lon="12.285801407187224"><ele>409.0</ele><time>2026-04-17T15:21:51.001Z</time></trkpt><trkpt lat="42.64848387404248" lon="12.285712444517827"><ele>409.0</ele><time>2026-04-17T15:21:52.001Z</time></trkpt><trkpt lat="42.648486816190406" lon="12.28562681455669"><ele>409.0</ele><time>2026-04-17T15:21:52.999Z</time></trkpt><trkpt lat="42.648435801290965" lon="12.285547610506132"><ele>409.0</ele><time>2026-04-17T15:21:53.999Z</time></trkpt><trkpt lat="42.648403671998295" lon="12.285469051453939"><ele>409.0</ele><time>2026-04-17T15:21:54.999Z</time></trkpt><trkpt lat="42.64836776226107" lon="12.285370116581724"><ele>409.0</ele><time>2026-04-17T15:21:55.999Z</time></trkpt><trkpt lat="42.648316529280876" lon="12.285281351046182"><ele>408.33333333333337</ele><time>2026-04-17T15:21:56.999Z</time></trkpt><trkpt lat="42.64825487289003" lon="12.285215022758397"><ele>407.6666666666667</ele><time>2026-04-17T15:21:57.999Z</time></trkpt><trkpt lat="42.64819520367811" lon="12.285138739735464"><ele>407.0</ele><time>2026-04-17T15:21:58.999Z</time></trkpt><trkpt lat="42.648131561688544" lon="12.285053421613862"><ele>406.33333333333337</ele><time>2026-04-17T15:21:59.999Z</time></trkpt><trkpt lat="42.64807705299568" lon="12.284949009037827"><ele>405.6666666666667</ele><time>2026-04-17T15:22:00.999Z</time></trkpt><trkpt lat="42.648011612649725" lon="12.284888854520872"><ele>405.0</ele><time>2026-04-17T15:22:01.999Z</time></trkpt><trkpt lat="42.64796087278429" lon="12.284815855728358"><ele>406.0</ele><time>2026-04-17T15:22:02.999Z</time></trkpt><trkpt lat="42.64792563056307" lon="12.284736553890696"><ele>407.0</ele><time>2026-04-17T15:22:03.999Z</time></trkpt><trkpt lat="42.6478721655267" lon="12.284661336503879"><ele>408.0</ele><time>2026-04-17T15:22:04.999Z</time></trkpt><trkpt lat="42.64782740701591" lon="12.28459836799929"><ele>409.0</ele><time>2026-04-17T15:22:05.999Z</time></trkpt><trkpt lat="42.64772805038573" lon="12.28447421204773"><ele>410.0</ele><time>2026-04-17T15:22:07.999Z</time></trkpt><trkpt lat="42.64767225425931" lon="12.284398565574703"><ele>411.0</ele><time>2026-04-17T15:22:08.999Z</time></trkpt><trkpt lat="42.64760251882841" lon="12.284285057216199"><ele>411.0</ele><time>2026-04-17T15:22:10.999Z</time></trkpt><trkpt lat="42.647540730217585" lon="12.284168512964294"><ele>411.0</ele><time>2026-04-17T15:22:12.999Z</time></trkpt><trkpt lat="42.64749575378173" lon="12.284086251141947"><ele>411.0</ele><time>2026-04-17T15:22:13.999Z</time></trkpt><trkpt lat="42.647437828595706" lon="12.284021684089387"><ele>411.0</ele><time>2026-04-17T15:22:14.999Z</time></trkpt><trkpt lat="42.647373443481804" lon="12.283932438777244"><ele>411.0</ele><time>2026-04-17T15:22:15.999Z</time></trkpt><trkpt lat="42.647323174690044" lon="12.2838598537636"><ele>411.0</ele><time>2026-04-17T15:22:17Z</time></trkpt><trkpt lat="42.64727765499296" lon="12.283788127909702"><ele>408.7142857142857</ele><time>2026-04-17T15:22:18Z</time></trkpt><trkpt lat="42.64723108485998" lon="12.283722111261662"><ele>406.42857142857144</ele><time>2026-04-17T15:22:19Z</time></trkpt><trkpt lat="42.64716907235545" lon="12.283684973179469"><ele>404.1428571428571</ele><time>2026-04-17T15:22:20Z</time></trkpt><trkpt lat="42.64711706742519" lon="12.283633596898431"><ele>401.8571428571429</ele><time>2026-04-17T15:22:21Z</time></trkpt><trkpt lat="42.647052839265626" lon="12.283570017478953"><ele>399.5714285714286</ele><time>2026-04-17T15:22:22Z</time></trkpt><trkpt lat="42.64699133655376" lon="12.283531378413574"><ele>397.2857142857143</ele><time>2026-04-17T15:22:23Z</time></trkpt><trkpt lat="42.64689935080907" lon="12.28347441866677"><ele>395.0</ele><time>2026-04-17T15:22:25Z</time></trkpt><trkpt lat="42.646802049388356" lon="12.283421641626795"><ele>395.0</ele><time>2026-04-17T15:22:27Z</time></trkpt><trkpt lat="42.6466959848466" lon="12.283383117125561"><ele>395.0</ele><time>2026-04-17T15:22:29Z</time></trkpt><trkpt lat="42.64658830651721" lon="12.283363788890124"><ele>395.0</ele><time>2026-04-17T15:22:31Z</time></trkpt><trkpt lat="42.64644499512183" lon="12.283358336107124"><ele>395.0</ele><time>2026-04-17T15:22:33Z</time></trkpt><trkpt lat="42.64635274319629" lon="12.283379651083168"><ele>394.99999999999994</ele><time>2026-04-17T15:22:34Z</time></trkpt><trkpt lat="42.64627037253056" lon="12.283375499337643"><ele>395.0</ele><time>2026-04-17T15:22:35Z</time></trkpt><trkpt lat="42.64619722315996" lon="12.283407095549787"><ele>395.0</ele><time>2026-04-17T15:22:36Z</time></trkpt><trkpt lat="42.646125600078435" lon="12.283398334715129"><ele>395.0</ele><time>2026-04-17T15:22:37Z</time></trkpt><trkpt lat="42.64605247457579" lon="12.283431331042642"><ele>394.99999999999994</ele><time>2026-04-17T15:22:38Z</time></trkpt><trkpt lat="42.64598016160629" lon="12.283444023993706"><ele>395.0</ele><time>2026-04-17T15:22:39Z</time></trkpt><trkpt lat="42.645905621938866" lon="12.283466000287556"><ele>393.2857142857143</ele><time>2026-04-17T15:22:40Z</time></trkpt><trkpt lat="42.645829300655315" lon="12.283482266826981"><ele>391.5714285714286</ele><time>2026-04-17T15:22:41Z</time></trkpt><trkpt lat="42.6457539342783" lon="12.28348210750733"><ele>389.8571428571429</ele><time>2026-04-17T15:22:42Z</time></trkpt><trkpt lat="42.64568375351158" lon="12.283501765053053"><ele>388.1428571428571</ele><time>2026-04-17T15:22:43Z</time></trkpt><trkpt lat="42.64561725238179" lon="12.283518162896938"><ele>386.42857142857144</ele><time>2026-04-17T15:22:44Z</time></trkpt><trkpt lat="42.64554846037493" lon="12.283529327673085"><ele>384.7142857142857</ele><time>2026-04-17T15:22:45Z</time></trkpt><trkpt lat="42.64547409034095" lon="12.28353532345756"><ele>383.0</ele><time>2026-04-17T15:22:46Z</time></trkpt><trkpt lat="42.64540267812866" lon="12.283564133458901"><ele>383.0</ele><time>2026-04-17T15:22:47Z</time></trkpt><trkpt lat="42.645331881322996" lon="12.283576398621522"><ele>383.0</ele><time>2026-04-17T15:22:48Z</time></trkpt><trkpt lat="42.64525149156679" lon="12.283595375031746"><ele>383.0</ele><time>2026-04-17T15:22:49Z</time></trkpt><trkpt lat="42.645167724752355" lon="12.283629584750058"><ele>383.0</ele><time>2026-04-17T15:22:50Z</time></trkpt><trkpt lat="42.64508630342282" lon="12.283656081062254"><ele>383.0</ele><time>2026-04-17T15:22:51Z</time></trkpt><trkpt lat="42.645016518874925" lon="12.283671313487702"><ele>383.0</ele><time>2026-04-17T15:22:52Z</time></trkpt><trkpt lat="42.64494137289885" lon="12.283702863797277"><ele>384.79999999999995</ele><time>2026-04-17T15:22:53Z</time></trkpt><trkpt lat="42.64487202632123" lon="12.283712087079623"><ele>386.6</ele><time>2026-04-17T15:22:54Z</time></trkpt><trkpt lat="42.64478921514124" lon="12.283746370035034"><ele>388.4</ele><time>2026-04-17T15:22:55Z</time></trkpt><trkpt lat="42.64472183677494" lon="12.283825238522882"><ele>390.20000000000005</ele><time>2026-04-17T15:22:56Z</time></trkpt><trkpt lat="42.6446210555194" lon="12.283889801987902"><ele>392.0</ele><time>2026-04-17T15:22:57Z</time></trkpt><trkpt lat="42.64450292573003" lon="12.283952957682514"><ele>388.6</ele><time>2026-04-17T15:22:58Z</time></trkpt><trkpt lat="42.64441794205896" lon="12.284035558413565"><ele>385.20000000000005</ele><time>2026-04-17T15:22:59Z</time></trkpt><trkpt lat="42.644328617668684" lon="12.284095819602898"><ele>381.8</ele><time>2026-04-17T15:23:00.001Z</time></trkpt><trkpt lat="42.64422537687038" lon="12.284151640787925"><ele>378.4</ele><time>2026-04-17T15:23:01.001Z</time></trkpt><trkpt lat="42.64414601498459" lon="12.28423313489002"><ele>375.0</ele><time>2026-04-17T15:23:02.001Z</time></trkpt><trkpt lat="42.64405674956472" lon="12.284290015934406"><ele>375.0</ele><time>2026-04-17T15:23:03.001Z</time></trkpt><trkpt lat="42.64397594276341" lon="12.284348207658834"><ele>375.0</ele><time>2026-04-17T15:23:04.001Z</time></trkpt><trkpt lat="42.64390169355486" lon="12.284404683929555"><ele>375.0</ele><time>2026-04-17T15:23:05.001Z</time></trkpt><trkpt lat="42.64383411948285" lon="12.284456136047003"><ele>375.0</ele><time>2026-04-17T15:23:06.001Z</time></trkpt><trkpt lat="42.643768488759925" lon="12.28450492092873"><ele>375.0</ele><time>2026-04-17T15:23:07.001Z</time></trkpt><trkpt lat="42.64370211307245" lon="12.284557540958737"><ele>375.0</ele><time>2026-04-17T15:23:08.001Z</time></trkpt><trkpt lat="42.64363309444789" lon="12.284594752627664"><ele>372.5</ele><time>2026-04-17T15:23:09.001Z</time></trkpt><trkpt lat="42.64356692151504" lon="12.284636864516571"><ele>370.0</ele><time>2026-04-17T15:23:10.001Z</time></trkpt><trkpt lat="42.64350379650385" lon="12.284673500733852"><ele>367.5</ele><time>2026-04-17T15:23:11.001Z</time></trkpt><trkpt lat="42.64341658097077" lon="12.284700845409745"><ele>365.0</ele><time>2026-04-17T15:23:13.001Z</time></trkpt><trkpt lat="42.643352308011" lon="12.284729356209136"><ele>362.5</ele><time>2026-04-17T15:23:16.001Z</time></trkpt><trkpt lat="42.64340268306291" lon="12.284660013721442"><ele>360.0</ele><time>2026-04-17T15:23:19.001Z</time></trkpt><trkpt lat="42.64352482245717" lon="12.284541380763509"><ele>360.0</ele><time>2026-04-17T15:23:21.001Z</time></trkpt><trkpt lat="42.64359913395048" lon="12.284448227633296"><ele>360.0</ele><time>2026-04-17T15:23:22.001Z</time></trkpt><trkpt lat="42.64368413241792" lon="12.28437216122477"><ele>360.0</ele><time>2026-04-17T15:23:23.001Z</time></trkpt><trkpt lat="42.64376896240369" lon="12.284302177967032"><ele>360.0</ele><time>2026-04-17T15:23:24.001Z</time></trkpt><trkpt lat="42.64384674029297" lon="12.284237805205263"><ele>360.0</ele><time>2026-04-17T15:23:25.001Z</time></trkpt><trkpt lat="42.64392664964365" lon="12.284158004165073"><ele>358.25</ele><time>2026-04-17T15:23:26.001Z</time></trkpt><trkpt lat="42.64402181537488" lon="12.284056841137915"><ele>356.5</ele><time>2026-04-17T15:23:27.001Z</time></trkpt><trkpt lat="42.64411673750659" lon="12.283963622432784"><ele>354.75</ele><time>2026-04-17T15:23:28.001Z</time></trkpt><trkpt lat="42.64421103360644" lon="12.283900037443898"><ele>353.0</ele><time>2026-04-17T15:23:29.001Z</time></trkpt><trkpt lat="42.644301545271794" lon="12.28380182901006"><ele>353.0</ele><time>2026-04-17T15:23:30.001Z</time></trkpt><trkpt lat="42.64439580853451" lon="12.283722511930794"><ele>353.0</ele><time>2026-04-17T15:23:31.001Z</time></trkpt><trkpt lat="42.644492338613276" lon="12.283652113192982"><ele>353.0</ele><time>2026-04-17T15:23:32.001Z</time></trkpt><trkpt lat="42.644586847156404" lon="12.283566995792919"><ele>353.0</ele><time>2026-04-17T15:23:33.001Z</time></trkpt><trkpt lat="42.64469679909903" lon="12.283510810938173"><ele>357.0</ele><time>2026-04-17T15:23:34.001Z</time></trkpt><trkpt lat="42.644800169194326" lon="12.283426190074243"><ele>361.0</ele><time>2026-04-17T15:23:35.001Z</time></trkpt><trkpt lat="42.6449017123626" lon="12.283359215605076"><ele>365.0</ele><time>2026-04-17T15:23:36.001Z</time></trkpt><trkpt lat="42.645008753296835" lon="12.283284126226565"><ele>369.0</ele><time>2026-04-17T15:23:37.001Z</time></trkpt><trkpt lat="42.64511868795106" lon="12.283211037982474"><ele>369.0</ele><time>2026-04-17T15:23:38.001Z</time></trkpt><trkpt lat="42.645229789345294" lon="12.283140098176165"><ele>369.0</ele><time>2026-04-17T15:23:39.001Z</time></trkpt><trkpt lat="42.64533985661342" lon="12.283061521646415"><ele>369.0</ele><time>2026-04-17T15:23:40.001Z</time></trkpt><trkpt lat="42.645450429809124" lon="12.282980077311692"><ele>369.0</ele><time>2026-04-17T15:23:41.001Z</time></trkpt><trkpt lat="42.64555856952762" lon="12.282906323990742"><ele>367.25</ele><time>2026-04-17T15:23:42.001Z</time></trkpt><trkpt lat="42.64566515886628" lon="12.282832953669658"><ele>365.5</ele><time>2026-04-17T15:23:43.001Z</time></trkpt><trkpt lat="42.645772352867134" lon="12.282756993275063"><ele>363.75</ele><time>2026-04-17T15:23:44.001Z</time></trkpt><trkpt lat="42.64587640772349" lon="12.28268473682696"><ele>362.0</ele><time>2026-04-17T15:23:45.001Z</time></trkpt><trkpt lat="42.645977674545094" lon="12.282617505514782"><ele>362.0</ele><time>2026-04-17T15:23:46.001Z</time></trkpt><trkpt lat="42.64607573951686" lon="12.282551284950205"><ele>362.0</ele><time>2026-04-17T15:23:47.001Z</time></trkpt><trkpt lat="42.64617451687291" lon="12.282482059973937"><ele>362.0</ele><time>2026-04-17T15:23:48.001Z</time></trkpt><trkpt lat="42.646271922198935" lon="12.282414614319686"><ele>362.0</ele><time>2026-04-17T15:23:49.001Z</time></trkpt><trkpt lat="42.64637042194322" lon="12.28234482010142"><ele>362.0</ele><time>2026-04-17T15:23:50.001Z</time></trkpt><trkpt lat="42.64646706357559" lon="12.282277068496517"><ele>360.83333333333337</ele><time>2026-04-17T15:23:51.001Z</time></trkpt><trkpt lat="42.646558369617004" lon="12.282214929659524"><ele>359.6666666666667</ele><time>2026-04-17T15:23:52.001Z</time></trkpt><trkpt lat="42.64664181867781" lon="12.282158541033981"><ele>358.5</ele><time>2026-04-17T15:23:53.002Z</time></trkpt><trkpt lat="42.64672017028164" lon="12.282104522235946"><ele>357.3333333333333</ele><time>2026-04-17T15:23:54.002Z</time></trkpt><trkpt lat="42.64679299190923" lon="12.28205316595968"><ele>356.16666666666663</ele><time>2026-04-17T15:23:55.002Z</time></trkpt><trkpt lat="42.64685894510166" lon="12.282013812174487"><ele>355.0</ele><time>2026-04-17T15:23:56.002Z</time></trkpt><trkpt lat="42.64695848964773" lon="12.281965006003936"><ele>355.0</ele><time>2026-04-17T15:23:58.002Z</time></trkpt><trkpt lat="42.64688747282339" lon="12.281823939858388"><ele>355.0</ele><time>2026-04-17T15:24:02Z</time></trkpt><trkpt lat="42.64681908932627" lon="12.281786701136932"><ele>355.0</ele><time>2026-04-17T15:24:03Z</time></trkpt><trkpt lat="42.6467514479086" lon="12.281760435953903"><ele>355.0</ele><time>2026-04-17T15:24:04Z</time></trkpt><trkpt lat="42.64668375066441" lon="12.281740489049053"><ele>355.0</ele><time>2026-04-17T15:24:05Z</time></trkpt><trkpt lat="42.646582119070864" lon="12.281757443376412"><ele>355.0</ele><time>2026-04-17T15:24:07Z</time></trkpt><trkpt lat="42.64649391619741" lon="12.281750076556001"><ele>355.0</ele><time>2026-04-17T15:24:10Z</time></trkpt><trkpt lat="42.646475685887786" lon="12.281656269925502"><ele>355.0</ele><time>2026-04-17T15:24:12Z</time></trkpt><trkpt lat="42.6465341646981" lon="12.281553067301514"><ele>355.0</ele><time>2026-04-17T15:24:14Z</time></trkpt><trkpt lat="42.646637907171446" lon="12.281490133302109"><ele>355.0</ele><time>2026-04-17T15:24:16Z</time></trkpt><trkpt lat="42.64673982561432" lon="12.281412248614169"><ele>355.0</ele><time>2026-04-17T15:24:18Z</time></trkpt><trkpt lat="42.6468485375128" lon="12.281365719703285"><ele>350.6</ele><time>2026-04-17T15:24:20Z</time></trkpt><trkpt lat="42.646967193099485" lon="12.281345754625802"><ele>346.2</ele><time>2026-04-17T15:24:22Z</time></trkpt><trkpt lat="42.64707113309988" lon="12.281284966576258"><ele>341.79999999999995</ele><time>2026-04-17T15:24:24Z</time></trkpt><trkpt lat="42.64719138705344" lon="12.28126334865095"><ele>337.4</ele><time>2026-04-17T15:24:26Z</time></trkpt><trkpt lat="42.64726996961534" lon="12.281252750970959"><ele>333.0</ele><time>2026-04-17T15:24:27Z</time></trkpt><trkpt lat="42.647349853347514" lon="12.281258890852815"><ele>333.0</ele><time>2026-04-17T15:24:28Z</time></trkpt><trkpt lat="42.647430532742945" lon="12.28126748093672"><ele>333.0</ele><time>2026-04-17T15:24:29Z</time></trkpt><trkpt lat="42.64750682547688" lon="12.28127594648286"><ele>333.0</ele><time>2026-04-17T15:24:30Z</time></trkpt><trkpt lat="42.6475853411795" lon="12.281273875508214"><ele>333.0</ele><time>2026-04-17T15:24:31Z</time></trkpt><trkpt lat="42.647662666814426" lon="12.281293490612477"><ele>333.0</ele><time>2026-04-17T15:24:32Z</time></trkpt><trkpt lat="42.64773492606545" lon="12.28130548029883"><ele>333.0</ele><time>2026-04-17T15:24:33Z</time></trkpt><trkpt lat="42.64780397417176" lon="12.281313980960345"><ele>334.8333333333333</ele><time>2026-04-17T15:24:34Z</time></trkpt><trkpt lat="42.64786935121869" lon="12.281357453725077"><ele>336.6666666666667</ele><time>2026-04-17T15:24:35Z</time></trkpt><trkpt lat="42.64794276446933" lon="12.281378791033486"><ele>338.5</ele><time>2026-04-17T15:24:36Z</time></trkpt><trkpt lat="42.64800496402386" lon="12.281426156804939"><ele>340.33333333333337</ele><time>2026-04-17T15:24:37Z</time></trkpt><trkpt lat="42.648065495244396" lon="12.281486636255996"><ele>342.1666666666667</ele><time>2026-04-17T15:24:38Z</time></trkpt><trkpt lat="42.64812852123735" lon="12.281553258527644"><ele>344.0</ele><time>2026-04-17T15:24:39Z</time></trkpt><trkpt lat="42.6482012035275" lon="12.281614502953499"><ele>344.0</ele><time>2026-04-17T15:24:40Z</time></trkpt><trkpt lat="42.64828158782074" lon="12.281687631692005"><ele>344.0</ele><time>2026-04-17T15:24:41Z</time></trkpt><trkpt lat="42.64836233818743" lon="12.281764558484031"><ele>344.0</ele><time>2026-04-17T15:24:42Z</time></trkpt><trkpt lat="42.648445499507545" lon="12.28182859031661"><ele>344.0</ele><time>2026-04-17T15:24:43Z</time></trkpt><trkpt lat="42.648515254480145" lon="12.28190483759437"><ele>344.0</ele><time>2026-04-17T15:24:44Z</time></trkpt><trkpt lat="42.64858603518993" lon="12.281988060120991"><ele>340.79999999999995</ele><time>2026-04-17T15:24:45Z</time></trkpt><trkpt lat="42.64864909808562" lon="12.282034955248973"><ele>337.59999999999997</ele><time>2026-04-17T15:24:46Z</time></trkpt><trkpt lat="42.64870522508641" lon="12.282098110063428"><ele>334.4</ele><time>2026-04-17T15:24:47Z</time></trkpt><trkpt lat="42.648796370989594" lon="12.282167061343095"><ele>331.2</ele><time>2026-04-17T15:24:49.001Z</time></trkpt><trkpt lat="42.648779250043475" lon="12.281988458260203"><ele>328.0</ele><time>2026-04-17T15:24:55.001Z</time></trkpt><trkpt lat="42.64867236921244" lon="12.281853545404363"><ele>326.0</ele><time>2026-04-17T15:24:56.001Z</time></trkpt><trkpt lat="42.64858410641379" lon="12.281746581525315"><ele>324.0</ele><time>2026-04-17T15:24:57.001Z</time></trkpt><trkpt lat="42.648494955041265" lon="12.28164083515915"><ele>322.0</ele><time>2026-04-17T15:24:58.001Z</time></trkpt><trkpt lat="42.6484068326637" lon="12.2815354344291"><ele>320.0</ele><time>2026-04-17T15:24:59.001Z</time></trkpt><trkpt lat="42.648322728025484" lon="12.281427425883308"><ele>320.0</ele><time>2026-04-17T15:25:00.001Z</time></trkpt><trkpt lat="42.64823625674342" lon="12.281313481766839"><ele>320.0</ele><time>2026-04-17T15:25:01.001Z</time></trkpt><trkpt lat="42.648140042451644" lon="12.281213889133914"><ele>320.0</ele><time>2026-04-17T15:25:02.001Z</time></trkpt><trkpt lat="42.648053633780385" lon="12.281090332253179"><ele>320.0</ele><time>2026-04-17T15:25:03.001Z</time></trkpt><trkpt lat="42.64793385344408" lon="12.281017200563582"><ele>320.0</ele><time>2026-04-17T15:25:04.001Z</time></trkpt><trkpt lat="42.64783581215914" lon="12.280913907018817"><ele>320.0</ele><time>2026-04-17T15:25:05.001Z</time></trkpt><trkpt lat="42.64773800522913" lon="12.280836818713244"><ele>320.0</ele><time>2026-04-17T15:25:06.001Z</time></trkpt><trkpt lat="42.647633194571334" lon="12.280779068217816"><ele>320.0</ele><time>2026-04-17T15:25:07.001Z</time></trkpt><trkpt lat="42.64753527790384" lon="12.280699625286188"><ele>323.25</ele><time>2026-04-17T15:25:08.001Z</time></trkpt><trkpt lat="42.647423602963116" lon="12.280637863479585"><ele>326.5</ele><time>2026-04-17T15:25:09.001Z</time></trkpt><trkpt lat="42.64730881995184" lon="12.280587538534387"><ele>329.75</ele><time>2026-04-17T15:25:10.001Z</time></trkpt><trkpt lat="42.6471839831524" lon="12.280561314842364"><ele>333.0</ele><time>2026-04-17T15:25:11.001Z</time></trkpt><trkpt lat="42.64704889959484" lon="12.280521460952984"><ele>327.0</ele><time>2026-04-17T15:25:12.001Z</time></trkpt><trkpt lat="42.646927103096644" lon="12.280507821527777"><ele>321.0</ele><time>2026-04-17T15:25:13.001Z</time></trkpt><trkpt lat="42.646827845994" lon="12.280507940412363"><ele>315.0</ele><time>2026-04-17T15:25:14.001Z</time></trkpt><trkpt lat="42.64670159700579" lon="12.280464945190092"><ele>309.0</ele><time>2026-04-17T15:25:15.001Z</time></trkpt><trkpt lat="42.64658199291168" lon="12.280446775809704"><ele>309.0</ele><time>2026-04-17T15:25:16.001Z</time></trkpt><trkpt lat="42.64645900738054" lon="12.280418610413356"><ele>309.0</ele><time>2026-04-17T15:25:17.001Z</time></trkpt><trkpt lat="42.64632977786005" lon="12.280437190300892"><ele>309.0</ele><time>2026-04-17T15:25:18.001Z</time></trkpt><trkpt lat="42.64621788064808" lon="12.280478289827881"><ele>309.0</ele><time>2026-04-17T15:25:19.001Z</time></trkpt><trkpt lat="42.64612339208826" lon="12.28049623651671"><ele>308.5</ele><time>2026-04-17T15:25:20.001Z</time></trkpt><trkpt lat="42.64604643524693" lon="12.28050803860155"><ele>308.0</ele><time>2026-04-17T15:25:21.001Z</time></trkpt><trkpt lat="42.64597922837861" lon="12.280522964037276"><ele>307.5</ele><time>2026-04-17T15:25:22.001Z</time></trkpt><trkpt lat="42.645876817302174" lon="12.280541705662765"><ele>307.0</ele><time>2026-04-17T15:25:24.001Z</time></trkpt><trkpt lat="42.645880302766244" lon="12.280445497973556"><ele>306.5</ele><time>2026-04-17T15:25:29.001Z</time></trkpt><trkpt lat="42.6459578800413" lon="12.280345995695546"><ele>306.0</ele><time>2026-04-17T15:25:30.001Z</time></trkpt><trkpt lat="42.646053075184106" lon="12.280274959325522"><ele>306.75</ele><time>2026-04-17T15:25:31.001Z</time></trkpt><trkpt lat="42.64616669950988" lon="12.280199676426538"><ele>307.5</ele><time>2026-04-17T15:25:32.001Z</time></trkpt><trkpt lat="42.64630111436339" lon="12.280124126540695"><ele>308.25</ele><time>2026-04-17T15:25:33.001Z</time></trkpt><trkpt lat="42.64645302289285" lon="12.280035659113407"><ele>309.0</ele><time>2026-04-17T15:25:34.001Z</time></trkpt><trkpt lat="42.6465957252677" lon="12.27995773802642"><ele>309.0</ele><time>2026-04-17T15:25:35.001Z</time></trkpt><trkpt lat="42.6467418703736" lon="12.279880572666492"><ele>309.0</ele><time>2026-04-17T15:25:36.001Z</time></trkpt><trkpt lat="42.64688948572708" lon="12.279809018744924"><ele>309.0</ele><time>2026-04-17T15:25:37.001Z</time></trkpt><trkpt lat="42.64704332467329" lon="12.279749310359126"><ele>302.0</ele><time>2026-04-17T15:25:38.002Z</time></trkpt><trkpt lat="42.64720550031526" lon="12.279708241026663"><ele>295.0</ele><time>2026-04-17T15:25:39.002Z</time></trkpt><trkpt lat="42.647374726058665" lon="12.27968343435077"><ele>288.0</ele><time>2026-04-17T15:25:40.002Z</time></trkpt><trkpt lat="42.64754750804751" lon="12.279661553081668"><ele>288.0</ele><time>2026-04-17T15:25:41.002Z</time></trkpt><trkpt lat="42.647720589126216" lon="12.279639695263427"><ele>288.0</ele><time>2026-04-17T15:25:42.002Z</time></trkpt><trkpt lat="42.647884571991845" lon="12.279618676784791"><ele>288.0</ele><time>2026-04-17T15:25:43.002Z</time></trkpt><trkpt lat="42.64804200191915" lon="12.279603046902837"><ele>288.75</ele><time>2026-04-17T15:25:44.002Z</time></trkpt><trkpt lat="42.64818749870866" lon="12.279590076463748"><ele>289.5</ele><time>2026-04-17T15:25:45.002Z</time></trkpt><trkpt lat="42.64831725594123" lon="12.279558399825307"><ele>290.25</ele><time>2026-04-17T15:25:46.002Z</time></trkpt><trkpt lat="42.64843445691257" lon="12.279509400471932"><ele>291.0</ele><time>2026-04-17T15:25:47.002Z</time></trkpt><trkpt lat="42.64853477092737" lon="12.279426048894445"><ele>291.0</ele><time>2026-04-17T15:25:48.002Z</time></trkpt><trkpt lat="42.6486112645573" lon="12.279300620996484"><ele>291.0</ele><time>2026-04-17T15:25:49.002Z</time></trkpt><trkpt lat="42.64865346992303" lon="12.279117494351174"><ele>291.0</ele><time>2026-04-17T15:25:50.002Z</time></trkpt><trkpt lat="42.648666333167675" lon="12.278903700113942"><ele>291.0</ele><time>2026-04-17T15:25:51.002Z</time></trkpt><trkpt lat="42.648678551911864" lon="12.278684924694984"><ele>289.75</ele><time>2026-04-17T15:25:52.002Z</time></trkpt><trkpt lat="42.6487188592745" lon="12.27850015019417"><ele>288.5</ele><time>2026-04-17T15:25:53.002Z</time></trkpt><trkpt lat="42.64878003362386" lon="12.278337335940584"><ele>287.25</ele><time>2026-04-17T15:25:54.002Z</time></trkpt><trkpt lat="42.64883574335752" lon="12.278178773287518"><ele>286.0</ele><time>2026-04-17T15:25:55.002Z</time></trkpt><trkpt lat="42.6488860611829" lon="12.278048589923944"><ele>286.0</ele><time>2026-04-17T15:25:56.002Z</time></trkpt><trkpt lat="42.64893524408065" lon="12.277941785811178"><ele>286.0</ele><time>2026-04-17T15:25:57.002Z</time></trkpt><trkpt lat="42.648998430025664" lon="12.277821906622547"><ele>286.0</ele><time>2026-04-17T15:25:59.002Z</time></trkpt><trkpt lat="42.64904664884282" lon="12.277731503230765"><ele>286.0</ele><time>2026-04-17T15:26:02.002Z</time></trkpt><trkpt lat="42.648993461659465" lon="12.277850468425049"><ele>286.0</ele><time>2026-04-17T15:26:14Z</time></trkpt><trkpt lat="42.64895734902702" lon="12.277928616220995"><ele>286.0</ele><time>2026-04-17T15:26:15Z</time></trkpt><trkpt lat="42.648918961438895" lon="12.278010836648887"><ele>286.0</ele><time>2026-04-17T15:26:16Z</time></trkpt><trkpt lat="42.64888106160038" lon="12.278091092101876"><ele>286.0</ele><time>2026-04-17T15:26:17Z</time></trkpt><trkpt lat="42.64884431287527" lon="12.278168907254681"><ele>286.0</ele><time>2026-04-17T15:26:18Z</time></trkpt><trkpt lat="42.64878627485278" lon="12.278306521384431"><ele>286.0</ele><time>2026-04-17T15:26:20Z</time></trkpt><trkpt lat="42.64872777775081" lon="12.27846134867391"><ele>282.0</ele><time>2026-04-17T15:26:22Z</time></trkpt><trkpt lat="42.648051030619" lon="12.278353719101853"><ele>282.0</ele><time>2026-04-17T15:26:27Z</time></trkpt><trkpt lat="42.64798492283126" lon="12.278346806959297"><ele>282.0</ele><time>2026-04-17T15:26:28Z</time></trkpt><trkpt lat="42.647873660796186" lon="12.278375694443856"><ele>282.0</ele><time>2026-04-17T15:26:30Z</time></trkpt><trkpt lat="42.64780270697259" lon="12.27839032599285"><ele>282.0</ele><time>2026-04-17T15:26:32Z</time></trkpt><trkpt lat="42.647716563839566" lon="12.278187900732535"><ele>282.0</ele><time>2026-04-17T15:26:35Z</time></trkpt><trkpt lat="42.64765422838519" lon="12.278034536193058"><ele>277.4</ele><time>2026-04-17T15:26:37Z</time></trkpt><trkpt lat="42.64760639601279" lon="12.277929668441333"><ele>272.79999999999995</ele><time>2026-04-17T15:26:38Z</time></trkpt><trkpt lat="42.64755916305382" lon="12.27782646252971"><ele>268.2</ele><time>2026-04-17T15:26:39Z</time></trkpt><trkpt lat="42.64751491308713" lon="12.277716820871257"><ele>263.59999999999997</ele><time>2026-04-17T15:26:40Z</time></trkpt><trkpt lat="42.64747884246105" lon="12.277596714210116"><ele>259.0</ele><time>2026-04-17T15:26:41Z</time></trkpt><trkpt lat="42.6474409689337" lon="12.27748379966363"><ele>259.0</ele><time>2026-04-17T15:26:42Z</time></trkpt><trkpt lat="42.64740169545934" lon="12.277362110623448"><ele>259.0</ele><time>2026-04-17T15:26:43Z</time></trkpt><trkpt lat="42.64736262569331" lon="12.277244701258466"><ele>259.0</ele><time>2026-04-17T15:26:44.001Z</time></trkpt><trkpt lat="42.64733093482299" lon="12.27713953295282"><ele>259.0</ele><time>2026-04-17T15:26:45.001Z</time></trkpt><trkpt lat="42.647293445944754" lon="12.277043880913052"><ele>259.0</ele><time>2026-04-17T15:26:46.001Z</time></trkpt><trkpt lat="42.64726039809888" lon="12.276940215567834"><ele>259.0</ele><time>2026-04-17T15:26:47.001Z</time></trkpt><trkpt lat="42.64722129227711" lon="12.276832955265247"><ele>256.8333333333333</ele><time>2026-04-17T15:26:48.001Z</time></trkpt><trkpt lat="42.647181046654154" lon="12.27672904588156"><ele>254.66666666666666</ele><time>2026-04-17T15:26:49.001Z</time></trkpt><trkpt lat="42.64713815116765" lon="12.276631918172832"><ele>252.5</ele><time>2026-04-17T15:26:50.001Z</time></trkpt><trkpt lat="42.64707487417574" lon="12.27654508472281"><ele>250.33333333333331</ele><time>2026-04-17T15:26:51.001Z</time></trkpt><trkpt lat="42.64700183398991" lon="12.276470174217845"><ele>248.16666666666666</ele><time>2026-04-17T15:26:52.001Z</time></trkpt><trkpt lat="42.64694056550107" lon="12.276392457996032"><ele>246.0</ele><time>2026-04-17T15:26:53.001Z</time></trkpt><trkpt lat="42.64689314442923" lon="12.276326689257134"><ele>244.0</ele><time>2026-04-17T15:26:54.001Z</time></trkpt><trkpt lat="42.64683866604251" lon="12.276267028573708"><ele>242.0</ele><time>2026-04-17T15:26:55.001Z</time></trkpt><trkpt lat="42.64677171020177" lon="12.276220624103313"><ele>240.0</ele><time>2026-04-17T15:26:56.001Z</time></trkpt><trkpt lat="42.646676631576064" lon="12.276165190684802"><ele>238.0</ele><time>2026-04-17T15:26:58.001Z</time></trkpt><trkpt lat="42.64661053586712" lon="12.276112228805292"><ele>236.0</ele><time>2026-04-17T15:27:01.001Z</time></trkpt><trkpt lat="42.64657833784598" lon="12.275993668226885"><ele>234.0</ele><time>2026-04-17T15:27:04.001Z</time></trkpt><trkpt lat="42.646610035325345" lon="12.275877199435298"><ele>234.0</ele><time>2026-04-17T15:27:06.001Z</time></trkpt><trkpt lat="42.646652420441725" lon="12.275791711000085"><ele>234.0</ele><time>2026-04-17T15:27:08.001Z</time></trkpt><trkpt lat="42.64674951005074" lon="12.275780649014033"><ele>234.0</ele><time>2026-04-17T15:27:10.001Z</time></trkpt><trkpt lat="42.64683437755366" lon="12.275766904718848"><ele>234.0</ele><time>2026-04-17T15:27:11.001Z</time></trkpt><trkpt lat="42.64690230041052" lon="12.275690621031755"><ele>234.0</ele><time>2026-04-17T15:27:12.001Z</time></trkpt><trkpt lat="42.64697392431678" lon="12.27564429533829"><ele>234.0</ele><time>2026-04-17T15:27:13.001Z</time></trkpt><trkpt lat="42.64705760743884" lon="12.275603904782956"><ele>234.0</ele><time>2026-04-17T15:27:14.001Z</time></trkpt><trkpt lat="42.64715730107663" lon="12.275566940780557"><ele>234.0</ele><time>2026-04-17T15:27:15.001Z</time></trkpt><trkpt lat="42.64723386953904" lon="12.275548135157887"><ele>234.0</ele><time>2026-04-17T15:27:16.001Z</time></trkpt><trkpt lat="42.64730932262692" lon="12.275555494767985"><ele>234.0</ele><time>2026-04-17T15:27:17.001Z</time></trkpt><trkpt lat="42.64738881281831" lon="12.275574147518473"><ele>234.0</ele><time>2026-04-17T15:27:18.001Z</time></trkpt><trkpt lat="42.647460683897606" lon="12.275593270178371"><ele>234.0</ele><time>2026-04-17T15:27:19.001Z</time></trkpt><trkpt lat="42.64752743677403" lon="12.275615880036453"><ele>234.0</ele><time>2026-04-17T15:27:20.001Z</time></trkpt><trkpt lat="42.6475880440723" lon="12.275644220510303"><ele>234.0</ele><time>2026-04-17T15:27:21.001Z</time></trkpt><trkpt lat="42.6476652441957" lon="12.27563679541706"><ele>234.0</ele><time>2026-04-17T15:27:22.001Z</time></trkpt><trkpt lat="42.647730137459874" lon="12.275586520664508"><ele>234.0</ele><time>2026-04-17T15:27:23.001Z</time></trkpt><trkpt lat="42.64776749501051" lon="12.275499918087423"><ele>234.0</ele><time>2026-04-17T15:27:24.001Z</time></trkpt><trkpt lat="42.64781680711531" lon="12.275405815261744"><ele>234.0</ele><time>2026-04-17T15:27:25.001Z</time></trkpt><trkpt lat="42.64775224799586" lon="12.275284368311578"><ele>231.83333333333334</ele><time>2026-04-17T15:27:26.001Z</time></trkpt><trkpt lat="42.64773474747178" lon="12.275175630803316"><ele>229.66666666666669</ele><time>2026-04-17T15:27:27.001Z</time></trkpt><trkpt lat="42.64772852980786" lon="12.275058903000488"><ele>227.5</ele><time>2026-04-17T15:27:28.001Z</time></trkpt><trkpt lat="42.64773954274521" lon="12.274919171928065"><ele>225.33333333333334</ele><time>2026-04-17T15:27:29.001Z</time></trkpt><trkpt lat="42.64774646778828" lon="12.2747951994273"><ele>223.16666666666669</ele><time>2026-04-17T15:27:30.001Z</time></trkpt><trkpt lat="42.647755768085375" lon="12.27468235192015"><ele>221.0</ele><time>2026-04-17T15:27:31.001Z</time></trkpt><trkpt lat="42.647763188967104" lon="12.274576903625942"><ele>219.33333333333334</ele><time>2026-04-17T15:27:32.002Z</time></trkpt><trkpt lat="42.64776428079471" lon="12.274471907443127"><ele>217.66666666666669</ele><time>2026-04-17T15:27:33.002Z</time></trkpt><trkpt lat="42.64775871553571" lon="12.274368802302888"><ele>216.0</ele><time>2026-04-17T15:27:34.002Z</time></trkpt><trkpt lat="42.64774999192995" lon="12.274249979698121"><ele>214.33333333333331</ele><time>2026-04-17T15:27:35.002Z</time></trkpt><trkpt lat="42.64771772463354" lon="12.274143711882815"><ele>212.66666666666666</ele><time>2026-04-17T15:27:36.002Z</time></trkpt><trkpt lat="42.64766430324812" lon="12.274063361274584"><ele>211.0</ele><time>2026-04-17T15:27:37.002Z</time></trkpt><trkpt lat="42.64760775874603" lon="12.27399808874313"><ele>210.99999999999997</ele><time>2026-04-17T15:27:38.002Z</time></trkpt><trkpt lat="42.64755229272254" lon="12.273941075390427"><ele>211.0</ele><time>2026-04-17T15:27:39.002Z</time></trkpt><trkpt lat="42.64749739458481" lon="12.273879950576182"><ele>211.0</ele><time>2026-04-17T15:27:40.002Z</time></trkpt><trkpt lat="42.64744179628721" lon="12.27381783132285"><ele>211.0</ele><time>2026-04-17T15:27:41.002Z</time></trkpt><trkpt lat="42.647392500774636" lon="12.273733064084412"><ele>210.99999999999997</ele><time>2026-04-17T15:27:42.002Z</time></trkpt><trkpt lat="42.64733533440169" lon="12.273591484266737"><ele>211.0</ele><time>2026-04-17T15:27:44.002Z</time></trkpt><trkpt lat="42.647300219849946" lon="12.27351812825995"><ele>210.16666666666666</ele><time>2026-04-17T15:27:45.002Z</time></trkpt><trkpt lat="42.64722756280784" lon="12.273379465228535"><ele>209.33333333333331</ele><time>2026-04-17T15:27:47.002Z</time></trkpt><trkpt lat="42.647180993764856" lon="12.273311438000786"><ele>208.5</ele><time>2026-04-17T15:27:48.002Z</time></trkpt><trkpt lat="42.64713341045534" lon="12.273238654914678"><ele>207.66666666666669</ele><time>2026-04-17T15:27:49.002Z</time></trkpt><trkpt lat="42.647080640845125" lon="12.27315706716427"><ele>206.83333333333334</ele><time>2026-04-17T15:27:50.002Z</time></trkpt><trkpt lat="42.647024451384546" lon="12.273065738244936"><ele>206.0</ele><time>2026-04-17T15:27:51.002Z</time></trkpt><trkpt lat="42.64696984581511" lon="12.272969302539055"><ele>206.00000000000003</ele><time>2026-04-17T15:27:52.002Z</time></trkpt><trkpt lat="42.64692978896982" lon="12.272875981934456"><ele>206.0</ele><time>2026-04-17T15:27:53.002Z</time></trkpt><trkpt lat="42.64690276358483" lon="12.272786672635307"><ele>206.0</ele><time>2026-04-17T15:27:54.002Z</time></trkpt><trkpt lat="42.646879475712645" lon="12.272699569191822"><ele>206.0</ele><time>2026-04-17T15:27:55.002Z</time></trkpt><trkpt lat="42.64685745202322" lon="12.272537636463067"><ele>206.00000000000003</ele><time>2026-04-17T15:27:57.002Z</time></trkpt><trkpt lat="42.64682759933829" lon="12.272453511714327"><ele>206.0</ele><time>2026-04-17T15:27:58.002Z</time></trkpt><trkpt lat="42.646838644278716" lon="12.272363044438489"><ele>206.0</ele><time>2026-04-17T15:27:59.002Z</time></trkpt><trkpt lat="42.64689706588537" lon="12.272177472169282"><ele>206.0</ele><time>2026-04-17T15:28:01.002Z</time></trkpt><trkpt lat="42.6469306784503" lon="12.272075350234234"><ele>206.0</ele><time>2026-04-17T15:28:02.002Z</time></trkpt><trkpt lat="42.64696222062247" lon="12.271979083521435"><ele>206.0</ele><time>2026-04-17T15:28:03.002Z</time></trkpt><trkpt lat="42.646997002576015" lon="12.271874309235601"><ele>206.0</ele><time>2026-04-17T15:28:04.002Z</time></trkpt><trkpt lat="42.647035944380896" lon="12.271760012040907"><ele>204.66666666666669</ele><time>2026-04-17T15:28:05.002Z</time></trkpt><trkpt lat="42.64706890013203" lon="12.271649005942313"><ele>203.33333333333334</ele><time>2026-04-17T15:28:06.002Z</time></trkpt><trkpt lat="42.64710628888629" lon="12.271540431647654"><ele>202.0</ele><time>2026-04-17T15:28:07.002Z</time></trkpt><trkpt lat="42.64713199734689" lon="12.271422303097442"><ele>200.66666666666669</ele><time>2026-04-17T15:28:08.002Z</time></trkpt><trkpt lat="42.647165300545616" lon="12.271307394272196"><ele>199.33333333333334</ele><time>2026-04-17T15:28:09.002Z</time></trkpt><trkpt lat="42.64719112250714" lon="12.271207243420907"><ele>198.0</ele><time>2026-04-17T15:28:10.002Z</time></trkpt><trkpt lat="42.64721079203169" lon="12.27111004881268"><ele>198.0</ele><time>2026-04-17T15:28:10.999Z</time></trkpt><trkpt lat="42.647228797488346" lon="12.271013889490902"><ele>198.0</ele><time>2026-04-17T15:28:11.999Z</time></trkpt><trkpt lat="42.64724029389264" lon="12.270918295860485"><ele>198.0</ele><time>2026-04-17T15:28:12.999Z</time></trkpt><trkpt lat="42.6472299350229" lon="12.270743942399664"><ele>198.0</ele><time>2026-04-17T15:28:14.999Z</time></trkpt><trkpt lat="42.64720925188218" lon="12.270637415545313"><ele>198.0</ele><time>2026-04-17T15:28:16Z</time></trkpt><trkpt lat="42.64718536628837" lon="12.270551918503557"><ele>198.0</ele><time>2026-04-17T15:28:17Z</time></trkpt><trkpt lat="42.647128453258304" lon="12.270410361695689"><ele>197.42857142857144</ele><time>2026-04-17T15:28:19Z</time></trkpt><trkpt lat="42.647109585995246" lon="12.27032745388357"><ele>196.85714285714283</ele><time>2026-04-17T15:28:20Z</time></trkpt><trkpt lat="42.647104702539174" lon="12.27022362011112"><ele>196.28571428571428</ele><time>2026-04-17T15:28:21Z</time></trkpt><trkpt lat="42.6470999909312" lon="12.270121065111507"><ele>195.71428571428572</ele><time>2026-04-17T15:28:22Z</time></trkpt><trkpt lat="42.6471126902264" lon="12.270017450465934"><ele>195.14285714285717</ele><time>2026-04-17T15:28:23Z</time></trkpt><trkpt lat="42.647099940790284" lon="12.269925353858307"><ele>194.57142857142856</ele><time>2026-04-17T15:28:24Z</time></trkpt><trkpt lat="42.64710513874088" lon="12.269835074918573"><ele>194.0</ele><time>2026-04-17T15:28:25Z</time></trkpt><trkpt lat="42.64711382188232" lon="12.2697356522503"><ele>194.00000000000003</ele><time>2026-04-17T15:28:26Z</time></trkpt><trkpt lat="42.64712225970851" lon="12.269635455144142"><ele>194.0</ele><time>2026-04-17T15:28:27Z</time></trkpt><trkpt lat="42.64712993195255" lon="12.269532126002746"><ele>194.0</ele><time>2026-04-17T15:28:28Z</time></trkpt><trkpt lat="42.64714097169246" lon="12.269426285409631"><ele>194.0</ele><time>2026-04-17T15:28:29Z</time></trkpt><trkpt lat="42.64715508548242" lon="12.269314997164495"><ele>194.00000000000003</ele><time>2026-04-17T15:28:30Z</time></trkpt><trkpt lat="42.64716664102895" lon="12.26921272515156"><ele>194.0</ele><time>2026-04-17T15:28:31Z</time></trkpt><trkpt lat="42.64718584087161" lon="12.26911953797201"><ele>194.00000000000003</ele><time>2026-04-17T15:28:32Z</time></trkpt><trkpt lat="42.647229359906895" lon="12.26903061796466"><ele>194.0</ele><time>2026-04-17T15:28:33Z</time></trkpt><trkpt lat="42.64729700337061" lon="12.268965957239404"><ele>194.0</ele><time>2026-04-17T15:28:34Z</time></trkpt><trkpt lat="42.64733817440164" lon="12.268873784810397"><ele>194.0</ele><time>2026-04-17T15:28:35Z</time></trkpt><trkpt lat="42.647375524862326" lon="12.26878604137389"><ele>194.00000000000003</ele><time>2026-04-17T15:28:36Z</time></trkpt><trkpt lat="42.64739952189015" lon="12.268659364846258"><ele>194.0</ele><time>2026-04-17T15:28:37Z</time></trkpt><trkpt lat="42.64743084591671" lon="12.268527406590675"><ele>193.5</ele><time>2026-04-17T15:28:38Z</time></trkpt><trkpt lat="42.64745396070328" lon="12.268375554677077"><ele>193.0</ele><time>2026-04-17T15:28:39Z</time></trkpt><trkpt lat="42.64745758053411" lon="12.268205332192762"><ele>192.5</ele><time>2026-04-17T15:28:40Z</time></trkpt><trkpt lat="42.64748193815568" lon="12.268041651211426"><ele>192.0</ele><time>2026-04-17T15:28:41Z</time></trkpt><trkpt lat="42.64749744043051" lon="12.267878791422817"><ele>192.0</ele><time>2026-04-17T15:28:42Z</time></trkpt><trkpt lat="42.64751996462468" lon="12.267709537724746"><ele>192.0</ele><time>2026-04-17T15:28:43Z</time></trkpt><trkpt lat="42.647547308280636" lon="12.267546258711121"><ele>192.0</ele><time>2026-04-17T15:28:44Z</time></trkpt><trkpt lat="42.647576812256446" lon="12.267390901031128"><ele>192.0</ele><time>2026-04-17T15:28:45Z</time></trkpt><trkpt lat="42.647610534127395" lon="12.26723935473339"><ele>191.75</ele><time>2026-04-17T15:28:46Z</time></trkpt><trkpt lat="42.64765360382555" lon="12.267079139548148"><ele>191.5</ele><time>2026-04-17T15:28:47Z</time></trkpt><trkpt lat="42.647713611901374" lon="12.266911290598618"><ele>191.25</ele><time>2026-04-17T15:28:48Z</time></trkpt><trkpt lat="42.64778385201948" lon="12.266751986444048"><ele>191.0</ele><time>2026-04-17T15:28:49Z</time></trkpt><trkpt lat="42.64785789473629" lon="12.26661076862029"><ele>193.25</ele><time>2026-04-17T15:28:50Z</time></trkpt><trkpt lat="42.64794335855233" lon="12.26648411152067"><ele>195.5</ele><time>2026-04-17T15:28:51Z</time></trkpt><trkpt lat="42.6480441172026" lon="12.266348511152934"><ele>197.75</ele><time>2026-04-17T15:28:52Z</time></trkpt><trkpt lat="42.648134481862144" lon="12.266218883711561"><ele>200.0</ele><time>2026-04-17T15:28:53Z</time></trkpt><trkpt lat="42.64820220882347" lon="12.26611398012701"><ele>200.0</ele><time>2026-04-17T15:28:54Z</time></trkpt><trkpt lat="42.64825961474513" lon="12.266024191320172"><ele>200.0</ele><time>2026-04-17T15:28:55Z</time></trkpt><trkpt lat="42.64832536676788" lon="12.265938128056519"><ele>200.0</ele><time>2026-04-17T15:28:56Z</time></trkpt><trkpt lat="42.648413265481565" lon="12.26585686802548"><ele>200.0</ele><time>2026-04-17T15:28:57.001Z</time></trkpt><trkpt lat="42.64850519532165" lon="12.265808460366523"><ele>200.0</ele><time>2026-04-17T15:28:58.001Z</time></trkpt><trkpt lat="42.648585328554404" lon="12.265783384941516"><ele>199.0</ele><time>2026-04-17T15:28:59.001Z</time></trkpt><trkpt lat="42.64864613442959" lon="12.265741738149353"><ele>198.0</ele><time>2026-04-17T15:29:00.001Z</time></trkpt><trkpt lat="42.64868859899482" lon="12.265567203761877"><ele>197.0</ele><time>2026-04-17T15:29:02.001Z</time></trkpt><trkpt lat="42.648700427704846" lon="12.265430200276176"><ele>196.0</ele><time>2026-04-17T15:29:03.001Z</time></trkpt><trkpt lat="42.648699461925176" lon="12.26527538586307"><ele>195.0</ele><time>2026-04-17T15:29:04.001Z</time></trkpt><trkpt lat="42.64869800719214" lon="12.265112100406284"><ele>195.0</ele><time>2026-04-17T15:29:05.001Z</time></trkpt><trkpt lat="42.64869575396911" lon="12.264972338135875"><ele>195.0</ele><time>2026-04-17T15:29:06.001Z</time></trkpt><trkpt lat="42.64869300552536" lon="12.264864755961986"><ele>195.0</ele><time>2026-04-17T15:29:07.001Z</time></trkpt><trkpt lat="42.64867476739556" lon="12.264766660990645"><ele>195.0</ele><time>2026-04-17T15:29:08.001Z</time></trkpt><trkpt lat="42.64867484390268" lon="12.264666142035429"><ele>195.0</ele><time>2026-04-17T15:29:09.001Z</time></trkpt><trkpt lat="42.648656406195734" lon="12.264564620178895"><ele>195.0</ele><time>2026-04-17T15:29:10.001Z</time></trkpt><trkpt lat="42.64863948931236" lon="12.264456186814042"><ele>197.25</ele><time>2026-04-17T15:29:11.001Z</time></trkpt><trkpt lat="42.64855116588783" lon="12.264381664115646"><ele>199.5</ele><time>2026-04-17T15:29:12.001Z</time></trkpt><trkpt lat="42.64846953090749" lon="12.264324063625068"><ele>201.75</ele><time>2026-04-17T15:29:13.001Z</time></trkpt><trkpt lat="42.648361180847736" lon="12.264219188542295"><ele>204.0</ele><time>2026-04-17T15:29:14.001Z</time></trkpt><trkpt lat="42.64822361220481" lon="12.26413024860276"><ele>204.0</ele><time>2026-04-17T15:29:15.001Z</time></trkpt><trkpt lat="42.648107513074315" lon="12.26409857233102"><ele>204.0</ele><time>2026-04-17T15:29:16.001Z</time></trkpt><trkpt lat="42.64802737552679" lon="12.264030522732416"><ele>204.0</ele><time>2026-04-17T15:29:17.001Z</time></trkpt><trkpt lat="42.64793499945081" lon="12.263967999978659"><ele>204.0</ele><time>2026-04-17T15:29:18.001Z</time></trkpt><trkpt lat="42.64783008418544" lon="12.263913951095843"><ele>204.0</ele><time>2026-04-17T15:29:19.001Z</time></trkpt><trkpt lat="42.64773512594829" lon="12.263837121858838"><ele>202.25</ele><time>2026-04-17T15:29:20.001Z</time></trkpt><trkpt lat="42.64763417545984" lon="12.263771853347002"><ele>200.5</ele><time>2026-04-17T15:29:21.001Z</time></trkpt><trkpt lat="42.647523132057664" lon="12.263725552711682"><ele>198.75</ele><time>2026-04-17T15:29:22.001Z</time></trkpt><trkpt lat="42.6473984460261" lon="12.263697509234195"><ele>197.0</ele><time>2026-04-17T15:29:23.001Z</time></trkpt><trkpt lat="42.64727151091452" lon="12.263669946629372"><ele>197.0</ele><time>2026-04-17T15:29:24.001Z</time></trkpt><trkpt lat="42.6471526093729" lon="12.263650385448834"><ele>197.0</ele><time>2026-04-17T15:29:25.001Z</time></trkpt><trkpt lat="42.64705140901594" lon="12.263627288324793"><ele>197.0</ele><time>2026-04-17T15:29:26.001Z</time></trkpt><trkpt lat="42.646956288384" lon="12.263605848213118"><ele>197.0</ele><time>2026-04-17T15:29:27.001Z</time></trkpt><trkpt lat="42.64686048870901" lon="12.263593117835205"><ele>197.0</ele><time>2026-04-17T15:29:28.001Z</time></trkpt><trkpt lat="42.64678330560739" lon="12.263581035683675"><ele>196.66666666666669</ele><time>2026-04-17T15:29:29.001Z</time></trkpt><trkpt lat="42.646715193739446" lon="12.263573310885096"><ele>196.33333333333334</ele><time>2026-04-17T15:29:30.001Z</time></trkpt><trkpt lat="42.64659011347841" lon="12.263574915095736"><ele>196.0</ele><time>2026-04-17T15:29:32.001Z</time></trkpt><trkpt lat="42.64652474031859" lon="12.263585806653289"><ele>195.66666666666669</ele><time>2026-04-17T15:29:33.001Z</time></trkpt><trkpt lat="42.646457549735835" lon="12.263602686619503"><ele>195.33333333333334</ele><time>2026-04-17T15:29:34.001Z</time></trkpt><trkpt lat="42.64639025313627" lon="12.263618539826977"><ele>195.0</ele><time>2026-04-17T15:29:35.001Z</time></trkpt><trkpt lat="42.6462907988938" lon="12.263632155745203"><ele>195.0</ele><time>2026-04-17T15:29:37.001Z</time></trkpt><trkpt lat="42.646197993596644" lon="12.263657730819038"><ele>195.0</ele><time>2026-04-17T15:29:39.001Z</time></trkpt><trkpt lat="42.646083635081794" lon="12.263551505605724"><ele>195.0</ele><time>2026-04-17T15:29:41.002Z</time></trkpt><trkpt lat="42.646021585104975" lon="12.263459345491578"><ele>195.0</ele><time>2026-04-17T15:29:42.002Z</time></trkpt><trkpt lat="42.64593238009756" lon="12.263345753085764"><ele>195.0</ele><time>2026-04-17T15:29:43.002Z</time></trkpt><trkpt lat="42.64585652365399" lon="12.26321696026812"><ele>193.0</ele><time>2026-04-17T15:29:44.002Z</time></trkpt><trkpt lat="42.64578263372462" lon="12.263095380512778"><ele>191.0</ele><time>2026-04-17T15:29:45.002Z</time></trkpt><trkpt lat="42.64571678263189" lon="12.262982730204525"><ele>189.0</ele><time>2026-04-17T15:29:46.002Z</time></trkpt><trkpt lat="42.64566487851864" lon="12.262880145451549"><ele>187.0</ele><time>2026-04-17T15:29:47.002Z</time></trkpt><trkpt lat="42.645615945799015" lon="12.262781876390981"><ele>185.0</ele><time>2026-04-17T15:29:48.002Z</time></trkpt><trkpt lat="42.64555937903106" lon="12.262678733449887"><ele>185.0</ele><time>2026-04-17T15:29:49.002Z</time></trkpt><trkpt lat="42.64550696714416" lon="12.262577642313902"><ele>185.0</ele><time>2026-04-17T15:29:50.002Z</time></trkpt><trkpt lat="42.64543684441187" lon="12.262452706357411"><ele>185.0</ele><time>2026-04-17T15:29:51.002Z</time></trkpt><trkpt lat="42.645375718043475" lon="12.26234269124722"><ele>185.0</ele><time>2026-04-17T15:29:52.002Z</time></trkpt><trkpt lat="42.64531894057667" lon="12.262225727231536"><ele>185.0</ele><time>2026-04-17T15:29:53.002Z</time></trkpt><trkpt lat="42.64525395586931" lon="12.262112476997366"><ele>183.6</ele><time>2026-04-17T15:29:54.002Z</time></trkpt><trkpt lat="42.6452052168945" lon="12.26201394694665"><ele>182.2</ele><time>2026-04-17T15:29:55.002Z</time></trkpt><trkpt lat="42.64515894718179" lon="12.26192553495429"><ele>180.8</ele><time>2026-04-17T15:29:56.002Z</time></trkpt><trkpt lat="42.64510543362423" lon="12.261825878727153"><ele>179.4</ele><time>2026-04-17T15:29:57.002Z</time></trkpt><trkpt lat="42.64504679529753" lon="12.261729985141242"><ele>178.0</ele><time>2026-04-17T15:29:58.002Z</time></trkpt><trkpt lat="42.644976804751735" lon="12.261618599090486"><ele>178.0</ele><time>2026-04-17T15:29:59.002Z</time></trkpt><trkpt lat="42.64490628366744" lon="12.261523912304385"><ele>178.0</ele><time>2026-04-17T15:30:00.002Z</time></trkpt><trkpt lat="42.64484848980407" lon="12.261445907072057"><ele>178.0</ele><time>2026-04-17T15:30:01.002Z</time></trkpt><trkpt lat="42.644797735162" lon="12.261367065426295"><ele>178.0</ele><time>2026-04-17T15:30:02.002Z</time></trkpt><trkpt lat="42.64474986068769" lon="12.261303609290037"><ele>178.0</ele><time>2026-04-17T15:30:03.002Z</time></trkpt><trkpt lat="42.64470863137814" lon="12.261235794922563"><ele>178.0</ele><time>2026-04-17T15:30:04.002Z</time></trkpt><trkpt lat="42.64462240845321" lon="12.261111013744639"><ele>176.33333333333334</ele><time>2026-04-17T15:30:06.002Z</time></trkpt><trkpt lat="42.64457267865187" lon="12.261058068843397"><ele>174.66666666666669</ele><time>2026-04-17T15:30:07.002Z</time></trkpt><trkpt lat="42.6445174515973" lon="12.260998229329157"><ele>173.0</ele><time>2026-04-17T15:30:08.002Z</time></trkpt><trkpt lat="42.644455909462366" lon="12.26094331739232"><ele>171.33333333333334</ele><time>2026-04-17T15:30:09.002Z</time></trkpt><trkpt lat="42.6443896685905" lon="12.260883612087058"><ele>169.66666666666666</ele><time>2026-04-17T15:30:10.002Z</time></trkpt><trkpt lat="42.644314764010566" lon="12.260828586194148"><ele>168.0</ele><time>2026-04-17T15:30:11.002Z</time></trkpt><trkpt lat="42.644246329743254" lon="12.260766480616192"><ele>168.0</ele><time>2026-04-17T15:30:12.002Z</time></trkpt><trkpt lat="42.64418064065616" lon="12.260712148876895"><ele>168.0</ele><time>2026-04-17T15:30:13.002Z</time></trkpt><trkpt lat="42.64410906762678" lon="12.260650213606196"><ele>168.0</ele><time>2026-04-17T15:30:14.002Z</time></trkpt><trkpt lat="42.644043582982704" lon="12.260587286727064"><ele>168.0</ele><time>2026-04-17T15:30:15.002Z</time></trkpt><trkpt lat="42.643995448261606" lon="12.260530190905975"><ele>168.0</ele><time>2026-04-17T15:30:16.002Z</time></trkpt><trkpt lat="42.64393649072881" lon="12.260471437552768"><ele>168.0</ele><time>2026-04-17T15:30:17Z</time></trkpt><trkpt lat="42.64387931608245" lon="12.26040648405035"><ele>166.60000000000002</ele><time>2026-04-17T15:30:18Z</time></trkpt><trkpt lat="42.6438254656412" lon="12.260324931297365"><ele>165.20000000000002</ele><time>2026-04-17T15:30:19Z</time></trkpt><trkpt lat="42.64376722411607" lon="12.260258407790035"><ele>163.8</ele><time>2026-04-17T15:30:20Z</time></trkpt><trkpt lat="42.64371272888436" lon="12.260194083079867"><ele>162.4</ele><time>2026-04-17T15:30:21Z</time></trkpt><trkpt lat="42.643632501441" lon="12.260094441822892"><ele>161.0</ele><time>2026-04-17T15:30:22Z</time></trkpt><trkpt lat="42.64354649188901" lon="12.259986330696014"><ele>160.0</ele><time>2026-04-17T15:30:23Z</time></trkpt><trkpt lat="42.643462981973194" lon="12.259879707462384"><ele>159.0</ele><time>2026-04-17T15:30:24Z</time></trkpt><trkpt lat="42.643377885322266" lon="12.25977105933291"><ele>158.0</ele><time>2026-04-17T15:30:25Z</time></trkpt><trkpt lat="42.643303053564956" lon="12.259673274735166"><ele>157.0</ele><time>2026-04-17T15:30:26Z</time></trkpt><trkpt lat="42.64322881717578" lon="12.259573858154761"><ele>156.0</ele><time>2026-04-17T15:30:27Z</time></trkpt><trkpt lat="42.64315798297602" lon="12.259478998038484"><ele>155.6</ele><time>2026-04-17T15:30:28Z</time></trkpt><trkpt lat="42.64308742631953" lon="12.259380732058194"><ele>155.2</ele><time>2026-04-17T15:30:29Z</time></trkpt><trkpt lat="42.643010664896785" lon="12.259290793389841"><ele>154.8</ele><time>2026-04-17T15:30:30Z</time></trkpt><trkpt lat="42.64295704018465" lon="12.259184137110703"><ele>154.4</ele><time>2026-04-17T15:30:31Z</time></trkpt><trkpt lat="42.64289922379822" lon="12.259073298612233"><ele>154.0</ele><time>2026-04-17T15:30:32Z</time></trkpt><trkpt lat="42.64283517009264" lon="12.258966396570171"><ele>152.4</ele><time>2026-04-17T15:30:33Z</time></trkpt><trkpt lat="42.642763704203865" lon="12.258886428808227"><ele>150.8</ele><time>2026-04-17T15:30:34Z</time></trkpt><trkpt lat="42.642699816599134" lon="12.258802305706276"><ele>149.2</ele><time>2026-04-17T15:30:35Z</time></trkpt><trkpt lat="42.64263534772801" lon="12.25871204249447"><ele>147.6</ele><time>2026-04-17T15:30:36Z</time></trkpt><trkpt lat="42.64255331146821" lon="12.258640617790244"><ele>146.0</ele><time>2026-04-17T15:30:37Z</time></trkpt><trkpt lat="42.64246785505976" lon="12.258550302450915"><ele>146.0</ele><time>2026-04-17T15:30:38Z</time></trkpt><trkpt lat="42.64237327586436" lon="12.258472532430005"><ele>146.0</ele><time>2026-04-17T15:30:39Z</time></trkpt><trkpt lat="42.64228258457348" lon="12.258380898461864"><ele>146.0</ele><time>2026-04-17T15:30:40Z</time></trkpt><trkpt lat="42.64218703793818" lon="12.258291732561784"><ele>146.0</ele><time>2026-04-17T15:30:41Z</time></trkpt><trkpt lat="42.64210923659507" lon="12.25817557932618"><ele>145.0</ele><time>2026-04-17T15:30:42Z</time></trkpt><trkpt lat="42.642002550050584" lon="12.258067487993468"><ele>144.0</ele><time>2026-04-17T15:30:43Z</time></trkpt><trkpt lat="42.64189938176639" lon="12.257949702626124"><ele>143.0</ele><time>2026-04-17T15:30:44Z</time></trkpt><trkpt lat="42.64179695757604" lon="12.257846758591267"><ele>142.0</ele><time>2026-04-17T15:30:45Z</time></trkpt><trkpt lat="42.6416960193953" lon="12.257745220393925"><ele>141.5</ele><time>2026-04-17T15:30:46Z</time></trkpt><trkpt lat="42.64159782673063" lon="12.257649475876665"><ele>141.0</ele><time>2026-04-17T15:30:47Z</time></trkpt><trkpt lat="42.641501486434144" lon="12.257552336617493"><ele>140.5</ele><time>2026-04-17T15:30:48Z</time></trkpt><trkpt lat="42.64141313269218" lon="12.257450237930048"><ele>140.0</ele><time>2026-04-17T15:30:49Z</time></trkpt><trkpt lat="42.64132657517408" lon="12.257350333999737"><ele>139.25</ele><time>2026-04-17T15:30:50Z</time></trkpt><trkpt lat="42.641236137209454" lon="12.25724564409229"><ele>138.5</ele><time>2026-04-17T15:30:51Z</time></trkpt><trkpt lat="42.64114901392647" lon="12.257147320803913"><ele>137.75</ele><time>2026-04-17T15:30:52Z</time></trkpt><trkpt lat="42.64105788675245" lon="12.257052729927647"><ele>137.0</ele><time>2026-04-17T15:30:53Z</time></trkpt><trkpt lat="42.64097320529551" lon="12.256958942438795"><ele>137.0</ele><time>2026-04-17T15:30:54Z</time></trkpt><trkpt lat="42.640905511568924" lon="12.256869946143627"><ele>137.0</ele><time>2026-04-17T15:30:55.001Z</time></trkpt><trkpt lat="42.64083865352403" lon="12.256779368145372"><ele>137.0</ele><time>2026-04-17T15:30:56.001Z</time></trkpt><trkpt lat="42.640762431127754" lon="12.25665845886976"><ele>137.0</ele><time>2026-04-17T15:30:57.001Z</time></trkpt><trkpt lat="42.640711050795574" lon="12.256489452742201"><ele>137.0</ele><time>2026-04-17T15:30:58.001Z</time></trkpt><trkpt lat="42.64064200992399" lon="12.256325331395692"><ele>136.33333333333331</ele><time>2026-04-17T15:30:59.001Z</time></trkpt><trkpt lat="42.640615676236244" lon="12.256143883606379"><ele>135.66666666666666</ele><time>2026-04-17T15:31:00.001Z</time></trkpt><trkpt lat="42.640558407572655" lon="12.255953913120644"><ele>135.0</ele><time>2026-04-17T15:31:01.001Z</time></trkpt><trkpt lat="42.640482773731094" lon="12.255754095836906"><ele>134.33333333333334</ele><time>2026-04-17T15:31:02.001Z</time></trkpt><trkpt lat="42.64041365370628" lon="12.255555506779999"><ele>133.66666666666669</ele><time>2026-04-17T15:31:03.001Z</time></trkpt><trkpt lat="42.640341737658744" lon="12.255380094865645"><ele>133.0</ele><time>2026-04-17T15:31:04.001Z</time></trkpt><trkpt lat="42.64024229638383" lon="12.255200971795999"><ele>130.33333333333334</ele><time>2026-04-17T15:31:05.001Z</time></trkpt><trkpt lat="42.64013881371899" lon="12.255014111472613"><ele>127.66666666666666</ele><time>2026-04-17T15:31:06.001Z</time></trkpt><trkpt lat="42.64003380495031" lon="12.254841659227125"><ele>125.0</ele><time>2026-04-17T15:31:07.001Z</time></trkpt><trkpt lat="42.63995052025302" lon="12.254679133777426"><ele>124.25</ele><time>2026-04-17T15:31:08.001Z</time></trkpt><trkpt lat="42.63985093552912" lon="12.254558671815385"><ele>123.5</ele><time>2026-04-17T15:31:09.001Z</time></trkpt><trkpt lat="42.63976464878409" lon="12.254413669182968"><ele>122.75</ele><time>2026-04-17T15:31:10.001Z</time></trkpt><trkpt lat="42.63967519133569" lon="12.254306247056618"><ele>122.0</ele><time>2026-04-17T15:31:11.001Z</time></trkpt><trkpt lat="42.63960625331039" lon="12.254224251673914"><ele>122.0</ele><time>2026-04-17T15:31:12.001Z</time></trkpt><trkpt lat="42.63953271425952" lon="12.254168577215049"><ele>121.99999999999999</ele><time>2026-04-17T15:31:13.001Z</time></trkpt><trkpt lat="42.63947362638034" lon="12.25409421034042"><ele>121.99999999999999</ele><time>2026-04-17T15:31:14.001Z</time></trkpt><trkpt lat="42.639380097303025" lon="12.254071131750555"><ele>122.0</ele><time>2026-04-17T15:31:15.001Z</time></trkpt><trkpt lat="42.639272532183035" lon="12.254012216760167"><ele>122.0</ele><time>2026-04-17T15:31:16.001Z</time></trkpt><trkpt lat="42.63915013414505" lon="12.253968582636345"><ele>120.16666666666666</ele><time>2026-04-17T15:31:17.001Z</time></trkpt><trkpt lat="42.63904475161498" lon="12.253937773597624"><ele>118.33333333333333</ele><time>2026-04-17T15:31:18.001Z</time></trkpt><trkpt lat="42.638963727214964" lon="12.253928211473445"><ele>116.5</ele><time>2026-04-17T15:31:19.001Z</time></trkpt><trkpt lat="42.638900285668285" lon="12.253900500547436"><ele>114.66666666666666</ele><time>2026-04-17T15:31:20.001Z</time></trkpt><trkpt lat="42.63884518946059" lon="12.25382897805779"><ele>112.83333333333333</ele><time>2026-04-17T15:31:22.001Z</time></trkpt><trkpt lat="42.63877710019009" lon="12.25382101974295"><ele>111.0</ele><time>2026-04-17T15:31:24.001Z</time></trkpt><trkpt lat="42.63868984645484" lon="12.253778398809994"><ele>108.33333333333333</ele><time>2026-04-17T15:31:26.001Z</time></trkpt><trkpt lat="42.63858785565526" lon="12.25369429698103"><ele>105.66666666666667</ele><time>2026-04-17T15:31:28.001Z</time></trkpt><trkpt lat="42.63851902012564" lon="12.25365547805227"><ele>103.0</ele><time>2026-04-17T15:31:29.001Z</time></trkpt><trkpt lat="42.6384529249377" lon="12.253623459673573"><ele>100.33333333333334</ele><time>2026-04-17T15:31:30.001Z</time></trkpt><trkpt lat="42.63836967456853" lon="12.253597212085442"><ele>97.66666666666667</ele><time>2026-04-17T15:31:31.001Z</time></trkpt><trkpt lat="42.638293676160345" lon="12.253563463667883"><ele>95.0</ele><time>2026-04-17T15:31:32.001Z</time></trkpt><trkpt lat="42.63822628734099" lon="12.253490960158105"><ele>95.0</ele><time>2026-04-17T15:31:34.001Z</time></trkpt><trkpt lat="42.63820976386175" lon="12.253391291523666"><ele>95.0</ele><time>2026-04-17T15:31:37.001Z</time></trkpt><trkpt lat="42.63818272793245" lon="12.253301112683596"><ele>95.0</ele><time>2026-04-17T15:31:45.002Z</time></trkpt><trkpt lat="42.63814395378284" lon="12.253211431761374"><ele>95.0</ele><time>2026-04-17T15:31:48.002Z</time></trkpt><trkpt lat="42.63808333995995" lon="12.253146360385157"><ele>95.0</ele><time>2026-04-17T15:31:55.002Z</time></trkpt><trkpt lat="42.63803005184156" lon="12.253077439546527"><ele>95.0</ele><time>2026-04-17T15:31:59.002Z</time></trkpt><trkpt lat="42.63796964409129" lon="12.253031202753686"><ele>95.0</ele><time>2026-04-17T15:32:03.002Z</time></trkpt><trkpt lat="42.63802176390397" lon="12.252855371841678"><ele>94.5</ele><time>2026-04-17T15:32:06.002Z</time></trkpt><trkpt lat="42.638058887642615" lon="12.252735890679567"><ele>94.0</ele><time>2026-04-17T15:32:07.002Z</time></trkpt><trkpt lat="42.638105048526974" lon="12.252591527694324"><ele>93.5</ele><time>2026-04-17T15:32:08.002Z</time></trkpt><trkpt lat="42.63815933136772" lon="12.252392693070377"><ele>93.0</ele><time>2026-04-17T15:32:09.002Z</time></trkpt><trkpt lat="42.63822187135748" lon="12.252151499342563"><ele>93.0</ele><time>2026-04-17T15:32:10.002Z</time></trkpt><trkpt lat="42.63829895692621" lon="12.251899299923169"><ele>93.0</ele><time>2026-04-17T15:32:11.002Z</time></trkpt><trkpt lat="42.63838997336809" lon="12.251597291102659"><ele>93.0</ele><time>2026-04-17T15:32:12.002Z</time></trkpt><trkpt lat="42.638483244212836" lon="12.251284511635278"><ele>94.0</ele><time>2026-04-17T15:32:13.002Z</time></trkpt><trkpt lat="42.63856967904524" lon="12.250999818757657"><ele>95.0</ele><time>2026-04-17T15:32:14.002Z</time></trkpt><trkpt lat="42.63864739197954" lon="12.250735857434076"><ele>96.0</ele><time>2026-04-17T15:32:15.002Z</time></trkpt><trkpt lat="42.63872375938767" lon="12.250483414688588"><ele>96.0</ele><time>2026-04-17T15:32:16.002Z</time></trkpt><trkpt lat="42.638795180642546" lon="12.250231176738097"><ele>96.0</ele><time>2026-04-17T15:32:17.002Z</time></trkpt><trkpt lat="42.638862658528886" lon="12.249994102321306"><ele>96.0</ele><time>2026-04-17T15:32:18.002Z</time></trkpt><trkpt lat="42.638931233801245" lon="12.249767547070748"><ele>93.33333333333333</ele><time>2026-04-17T15:32:19.002Z</time></trkpt><trkpt lat="42.63900524412785" lon="12.249549581897968"><ele>90.66666666666666</ele><time>2026-04-17T15:32:20.002Z</time></trkpt><trkpt lat="42.63909163820472" lon="12.249345076859228"><ele>88.0</ele><time>2026-04-17T15:32:21.002Z</time></trkpt><trkpt lat="42.639184794587344" lon="12.24914582095701"><ele>87.33333333333333</ele><time>2026-04-17T15:32:22.002Z</time></trkpt><trkpt lat="42.639281862027495" lon="12.248948778026042"><ele>86.66666666666667</ele><time>2026-04-17T15:32:23Z</time></trkpt><trkpt lat="42.63938200246083" lon="12.248748343608245"><ele>86.0</ele><time>2026-04-17T15:32:24Z</time></trkpt><trkpt lat="42.63947983332604" lon="12.248541304717643"><ele>87.0</ele><time>2026-04-17T15:32:25Z</time></trkpt><trkpt lat="42.63958983658669" lon="12.248343329840065"><ele>88.0</ele><time>2026-04-17T15:32:26Z</time></trkpt><trkpt lat="42.63973418751904" lon="12.24817215409885"><ele>89.0</ele><time>2026-04-17T15:32:27Z</time></trkpt><trkpt lat="42.63991518970369" lon="12.247997257060394"><ele>89.0</ele><time>2026-04-17T15:32:28Z</time></trkpt><trkpt lat="42.64010551010661" lon="12.247808250247584"><ele>89.0</ele><time>2026-04-17T15:32:29Z</time></trkpt><trkpt lat="42.640271259029646" lon="12.247639237958998"><ele>89.0</ele><time>2026-04-17T15:32:30Z</time></trkpt><trkpt lat="42.64042743417038" lon="12.247475328541729"><ele>88.66666666666667</ele><time>2026-04-17T15:32:31Z</time></trkpt><trkpt lat="42.64057503586836" lon="12.247323006293216"><ele>88.33333333333333</ele><time>2026-04-17T15:32:32Z</time></trkpt><trkpt lat="42.64072191021141" lon="12.247175766956289"><ele>88.0</ele><time>2026-04-17T15:32:33Z</time></trkpt><trkpt lat="42.640870737049404" lon="12.247024204225193"><ele>88.0</ele><time>2026-04-17T15:32:34Z</time></trkpt><trkpt lat="42.64102543205956" lon="12.246861557722527"><ele>88.0</ele><time>2026-04-17T15:32:35Z</time></trkpt><trkpt lat="42.64119639502949" lon="12.246707933780346"><ele>88.0</ele><time>2026-04-17T15:32:36Z</time></trkpt><trkpt lat="42.64135094323523" lon="12.24652203070612"><ele>88.0</ele><time>2026-04-17T15:32:37Z</time></trkpt><trkpt lat="42.641525004583826" lon="12.246370408917242"><ele>88.0</ele><time>2026-04-17T15:32:38Z</time></trkpt><trkpt lat="42.64167914657922" lon="12.246212110045697"><ele>88.0</ele><time>2026-04-17T15:32:39Z</time></trkpt><trkpt lat="42.64181324162328" lon="12.24605311202727"><ele>88.0</ele><time>2026-04-17T15:32:40Z</time></trkpt><trkpt lat="42.641946655393774" lon="12.24592051395111"><ele>88.0</ele><time>2026-04-17T15:32:41Z</time></trkpt><trkpt lat="42.64206692894208" lon="12.245765579266529"><ele>88.0</ele><time>2026-04-17T15:32:42Z</time></trkpt><trkpt lat="42.64218446623875" lon="12.245597695610416"><ele>88.0</ele><time>2026-04-17T15:32:43Z</time></trkpt><trkpt lat="42.64228010862263" lon="12.245414618434246"><ele>88.0</ele><time>2026-04-17T15:32:44Z</time></trkpt><trkpt lat="42.642367786499264" lon="12.245241520796778"><ele>88.0</ele><time>2026-04-17T15:32:45Z</time></trkpt><trkpt lat="42.64245147189532" lon="12.245071658981736"><ele>88.0</ele><time>2026-04-17T15:32:46Z</time></trkpt><trkpt lat="42.64252908539781" lon="12.244901129118347"><ele>88.0</ele><time>2026-04-17T15:32:47Z</time></trkpt><trkpt lat="42.642625123909184" lon="12.244763537783593"><ele>88.0</ele><time>2026-04-17T15:32:48Z</time></trkpt><trkpt lat="42.642737096578244" lon="12.244674067229846"><ele>88.0</ele><time>2026-04-17T15:32:49Z</time></trkpt><trkpt lat="42.642870411481866" lon="12.244637532259329"><ele>86.66666666666666</ele><time>2026-04-17T15:32:50Z</time></trkpt><trkpt lat="42.64301200063609" lon="12.244641138049317"><ele>85.33333333333333</ele><time>2026-04-17T15:32:51Z</time></trkpt><trkpt lat="42.643161214860065" lon="12.244683042913456"><ele>84.0</ele><time>2026-04-17T15:32:52Z</time></trkpt><trkpt lat="42.64331706550372" lon="12.244749998386578"><ele>86.33333333333333</ele><time>2026-04-17T15:32:53Z</time></trkpt><trkpt lat="42.6434638562892" lon="12.24481800855971"><ele>88.66666666666666</ele><time>2026-04-17T15:32:54Z</time></trkpt><trkpt lat="42.64361183031932" lon="12.244831582465117"><ele>91.0</ele><time>2026-04-17T15:32:55Z</time></trkpt><trkpt lat="42.64376382724294" lon="12.24480058237454"><ele>89.66666666666666</ele><time>2026-04-17T15:32:56Z</time></trkpt><trkpt lat="42.64393063667937" lon="12.244731427101307"><ele>88.33333333333333</ele><time>2026-04-17T15:32:57.001Z</time></trkpt><trkpt lat="42.64409609202765" lon="12.24462543670558"><ele>87.0</ele><time>2026-04-17T15:32:58.001Z</time></trkpt><trkpt lat="42.64425512552134" lon="12.244507535774105"><ele>87.0</ele><time>2026-04-17T15:32:59.001Z</time></trkpt><trkpt lat="42.64440953400418" lon="12.24437918487689"><ele>87.0</ele><time>2026-04-17T15:33:00.001Z</time></trkpt><trkpt lat="42.64455264943314" lon="12.244236988919958"><ele>87.0</ele><time>2026-04-17T15:33:01.001Z</time></trkpt><trkpt lat="42.64468284907168" lon="12.244077618070216"><ele>89.0</ele><time>2026-04-17T15:33:02.001Z</time></trkpt><trkpt lat="42.64480960079168" lon="12.24391348340315"><ele>91.0</ele><time>2026-04-17T15:33:03.001Z</time></trkpt><trkpt lat="42.64493845721717" lon="12.243758658173482"><ele>93.0</ele><time>2026-04-17T15:33:04.001Z</time></trkpt><trkpt lat="42.64506236649161" lon="12.243609102009971"><ele>93.0</ele><time>2026-04-17T15:33:05.001Z</time></trkpt><trkpt lat="42.64517840695859" lon="12.24346803359037"><ele>93.0</ele><time>2026-04-17T15:33:06.001Z</time></trkpt><trkpt lat="42.64528736853163" lon="12.24333679127631"><ele>93.0</ele><time>2026-04-17T15:33:07.001Z</time></trkpt><trkpt lat="42.64539288654951" lon="12.243206403075094"><ele>93.0</ele><time>2026-04-17T15:33:08.001Z</time></trkpt><trkpt lat="42.645498262103075" lon="12.24308053642326"><ele>95.0</ele><time>2026-04-17T15:33:09.001Z</time></trkpt><trkpt lat="42.645603009753856" lon="12.242949299450473"><ele>97.0</ele><time>2026-04-17T15:33:10.001Z</time></trkpt><trkpt lat="42.64571345098036" lon="12.242799736977238"><ele>99.0</ele><time>2026-04-17T15:33:11.001Z</time></trkpt><trkpt lat="42.645829145119855" lon="12.242638796476843"><ele>99.0</ele><time>2026-04-17T15:33:12.001Z</time></trkpt><trkpt lat="42.645943393994294" lon="12.24247070219157"><ele>99.0</ele><time>2026-04-17T15:33:13.001Z</time></trkpt><trkpt lat="42.64606565153569" lon="12.242322573830123"><ele>99.0</ele><time>2026-04-17T15:33:14.001Z</time></trkpt><trkpt lat="42.64617294458272" lon="12.242166516293665"><ele>99.33333333333334</ele><time>2026-04-17T15:33:15.001Z</time></trkpt><trkpt lat="42.64628417733367" lon="12.242005413621063"><ele>99.66666666666667</ele><time>2026-04-17T15:33:16.001Z</time></trkpt><trkpt lat="42.64639623576864" lon="12.241843615971105"><ele>100.0</ele><time>2026-04-17T15:33:17.001Z</time></trkpt><trkpt lat="42.646509962461515" lon="12.241683342570136"><ele>100.0</ele><time>2026-04-17T15:33:18.001Z</time></trkpt><trkpt lat="42.64662332915627" lon="12.241525632178261"><ele>100.0</ele><time>2026-04-17T15:33:19.001Z</time></trkpt><trkpt lat="42.64672528127371" lon="12.241357273379457"><ele>100.0</ele><time>2026-04-17T15:33:20.001Z</time></trkpt><trkpt lat="42.64685180706826" lon="12.24122855444997"><ele>101.0</ele><time>2026-04-17T15:33:21.001Z</time></trkpt><trkpt lat="42.64696172898749" lon="12.241063136394024"><ele>102.0</ele><time>2026-04-17T15:33:22.001Z</time></trkpt><trkpt lat="42.64708786197829" lon="12.240910734427857"><ele>103.0</ele><time>2026-04-17T15:33:23.001Z</time></trkpt><trkpt lat="42.647215278390945" lon="12.240754739352873"><ele>98.66666666666667</ele><time>2026-04-17T15:33:24.001Z</time></trkpt><trkpt lat="42.64734292247693" lon="12.240604506988166"><ele>94.33333333333334</ele><time>2026-04-17T15:33:25.001Z</time></trkpt><trkpt lat="42.64747912028633" lon="12.240464130415171"><ele>90.0</ele><time>2026-04-17T15:33:26.001Z</time></trkpt><trkpt lat="42.647621719620616" lon="12.240336089491139"><ele>90.0</ele><time>2026-04-17T15:33:27.001Z</time></trkpt><trkpt lat="42.6477841961956" lon="12.2402051462725"><ele>90.0</ele><time>2026-04-17T15:33:28.001Z</time></trkpt><trkpt lat="42.647970384457956" lon="12.240062713423713"><ele>90.0</ele><time>2026-04-17T15:33:29.001Z</time></trkpt><trkpt lat="42.64816509789776" lon="12.239907985079563"><ele>88.66666666666667</ele><time>2026-04-17T15:33:30.001Z</time></trkpt><trkpt lat="42.64834665193873" lon="12.239763751669292"><ele>87.33333333333334</ele><time>2026-04-17T15:33:31.001Z</time></trkpt><trkpt lat="42.6485092589019" lon="12.239636976683805"><ele>86.0</ele><time>2026-04-17T15:33:32.001Z</time></trkpt><trkpt lat="42.64866673711183" lon="12.239513456616523"><ele>93.33333333333334</ele><time>2026-04-17T15:33:33.001Z</time></trkpt><trkpt lat="42.64882646073628" lon="12.239390216267484"><ele>100.66666666666667</ele><time>2026-04-17T15:33:34.001Z</time></trkpt><trkpt lat="42.64897110243132" lon="12.239271047890357"><ele>108.0</ele><time>2026-04-17T15:33:35.001Z</time></trkpt><trkpt lat="42.64911535212717" lon="12.239158004149822"><ele>108.0</ele><time>2026-04-17T15:33:36.001Z</time></trkpt><trkpt lat="42.6492598792734" lon="12.239052770275672"><ele>108.0</ele><time>2026-04-17T15:33:37.001Z</time></trkpt><trkpt lat="42.64940659203067" lon="12.238952206725363"><ele>108.0</ele><time>2026-04-17T15:33:38.001Z</time></trkpt><trkpt lat="42.6495539513592" lon="12.238844770237963"><ele>104.33333333333334</ele><time>2026-04-17T15:33:39.001Z</time></trkpt><trkpt lat="42.649702290385285" lon="12.238735273345103"><ele>100.66666666666667</ele><time>2026-04-17T15:33:40.001Z</time></trkpt><trkpt lat="42.64984820440571" lon="12.238622795869189"><ele>97.0</ele><time>2026-04-17T15:33:41.001Z</time></trkpt><trkpt lat="42.649994556979586" lon="12.238511675318904"><ele>97.0</ele><time>2026-04-17T15:33:42.002Z</time></trkpt><trkpt lat="42.65014103309978" lon="12.238401816662266"><ele>97.0</ele><time>2026-04-17T15:33:43.002Z</time></trkpt><trkpt lat="42.65028606737491" lon="12.23828978841766"><ele>97.0</ele><time>2026-04-17T15:33:44.002Z</time></trkpt><trkpt lat="42.650442942413136" lon="12.23815700630741"><ele>97.0</ele><time>2026-04-17T15:33:45.002Z</time></trkpt><trkpt lat="42.6506114099353" lon="12.237991483539062"><ele>97.0</ele><time>2026-04-17T15:33:46.002Z</time></trkpt><trkpt lat="42.65078884416127" lon="12.237771199812574"><ele>97.0</ele><time>2026-04-17T15:33:47.002Z</time></trkpt><trkpt lat="42.650963991383804" lon="12.23749680581651"><ele>94.5</ele><time>2026-04-17T15:33:48.002Z</time></trkpt><trkpt lat="42.651151155302536" lon="12.237200491691649"><ele>92.0</ele><time>2026-04-17T15:33:49.002Z</time></trkpt><trkpt lat="42.651339859007855" lon="12.236895672866089"><ele>92.0</ele><time>2026-04-17T15:33:50.002Z</time></trkpt><trkpt lat="42.65151181691736" lon="12.236614436336552"><ele>92.0</ele><time>2026-04-17T15:33:51.002Z</time></trkpt><trkpt lat="42.65169647834344" lon="12.236348523026539"><ele>91.5</ele><time>2026-04-17T15:33:52.002Z</time></trkpt><trkpt lat="42.65185546251745" lon="12.236073445814666"><ele>91.0</ele><time>2026-04-17T15:33:53.002Z</time></trkpt><trkpt lat="42.65197373496095" lon="12.235794358559128"><ele>90.75</ele><time>2026-04-17T15:33:54.002Z</time></trkpt><trkpt lat="42.65207001251632" lon="12.235596231956158"><ele>90.5</ele><time>2026-04-17T15:33:55.002Z</time></trkpt><trkpt lat="42.65214190618989" lon="12.235434979659178"><ele>90.25</ele><time>2026-04-17T15:33:56.002Z</time></trkpt><trkpt lat="42.652203569084236" lon="12.23530255884915"><ele>90.0</ele><time>2026-04-17T15:33:57.002Z</time></trkpt><trkpt lat="42.65225153657731" lon="12.235192809509819"><ele>90.0</ele><time>2026-04-17T15:33:58.002Z</time></trkpt><trkpt lat="42.6522869216079" lon="12.235119239282193"><ele>90.0</ele><time>2026-04-17T15:33:59.002Z</time></trkpt><trkpt lat="42.652321201866314" lon="12.235039008444744"><ele>90.0</ele><time>2026-04-17T15:34:00.002Z</time></trkpt><trkpt lat="42.652385786589704" lon="12.23492907697658"><ele>90.0</ele><time>2026-04-17T15:34:02.002Z</time></trkpt><trkpt lat="42.65229617344808" lon="12.234765828336656"><ele>90.0</ele><time>2026-04-17T15:34:05.002Z</time></trkpt><trkpt lat="42.65222768922919" lon="12.234699602871894"><ele>90.4</ele><time>2026-04-17T15:34:07.002Z</time></trkpt><trkpt lat="42.652145104893904" lon="12.234583636013987"><ele>90.8</ele><time>2026-04-17T15:34:09.002Z</time></trkpt><trkpt lat="42.652095798445366" lon="12.234484567586241"><ele>91.19999999999999</ele><time>2026-04-17T15:34:10.002Z</time></trkpt><trkpt lat="42.65203738374342" lon="12.234372205810269"><ele>91.6</ele><time>2026-04-17T15:34:11.002Z</time></trkpt><trkpt lat="42.65196917680857" lon="12.234272402184523"><ele>92.0</ele><time>2026-04-17T15:34:12.002Z</time></trkpt><trkpt lat="42.65188330101932" lon="12.234163549688015"><ele>89.75</ele><time>2026-04-17T15:34:13.002Z</time></trkpt><trkpt lat="42.65179354444965" lon="12.234043146927"><ele>87.5</ele><time>2026-04-17T15:34:14.002Z</time></trkpt><trkpt lat="42.65169490047714" lon="12.233924173334033"><ele>85.25</ele><time>2026-04-17T15:34:15.002Z</time></trkpt><trkpt lat="42.65159302886261" lon="12.233758076147465"><ele>83.0</ele><time>2026-04-17T15:34:16.002Z</time></trkpt><trkpt lat="42.65145418669354" lon="12.233590218112743"><ele>83.0</ele><time>2026-04-17T15:34:17.002Z</time></trkpt><trkpt lat="42.65135473652269" lon="12.233459829876946"><ele>83.0</ele><time>2026-04-17T15:34:18.002Z</time></trkpt><trkpt lat="42.65128963727076" lon="12.233368399105093"><ele>83.0</ele><time>2026-04-17T15:34:19.002Z</time></trkpt><trkpt lat="42.651232623468" lon="12.233289570926086"><ele>83.0</ele><time>2026-04-17T15:34:20.002Z</time></trkpt><trkpt lat="42.65117918567373" lon="12.23321886542553"><ele>83.0</ele><time>2026-04-17T15:34:21.002Z</time></trkpt><trkpt lat="42.65113392292814" lon="12.233155824602651"><ele>84.28571428571428</ele><time>2026-04-17T15:34:22.002Z</time></trkpt><trkpt lat="42.65108801485842" lon="12.233092420502187"><ele>85.57142857142858</ele><time>2026-04-17T15:34:23.002Z</time></trkpt><trkpt lat="42.651038570169455" lon="12.233022532130558"><ele>86.85714285714286</ele><time>2026-04-17T15:34:24.002Z</time></trkpt><trkpt lat="42.65098717222403" lon="12.232952835501209"><ele>88.14285714285714</ele><time>2026-04-17T15:34:25.002Z</time></trkpt><trkpt lat="42.65093636825844" lon="12.232881720042935"><ele>89.42857142857142</ele><time>2026-04-17T15:34:26.003Z</time></trkpt><trkpt lat="42.650886693793964" lon="12.232817509068472"><ele>90.71428571428572</ele><time>2026-04-17T15:34:27.003Z</time></trkpt><trkpt lat="42.650831738312625" lon="12.232747451596461"><ele>92.0</ele><time>2026-04-17T15:34:28.003Z</time></trkpt><trkpt lat="42.650754027985" lon="12.232649484396111"><ele>92.0</ele><time>2026-04-17T15:34:29Z</time></trkpt><trkpt lat="42.650670248032974" lon="12.232547784433242"><ele>92.0</ele><time>2026-04-17T15:34:30Z</time></trkpt><trkpt lat="42.65059535335429" lon="12.232439995780327"><ele>92.0</ele><time>2026-04-17T15:34:31Z</time></trkpt><trkpt lat="42.650522773989316" lon="12.232343210717078"><ele>92.0</ele><time>2026-04-17T15:34:32Z</time></trkpt><trkpt lat="42.65044772090551" lon="12.232241520287662"><ele>92.0</ele><time>2026-04-17T15:34:33Z</time></trkpt><trkpt lat="42.65037849212343" lon="12.232141779662356"><ele>93.0</ele><time>2026-04-17T15:34:34Z</time></trkpt><trkpt lat="42.650313354961156" lon="12.232052200341354"><ele>94.0</ele><time>2026-04-17T15:34:35Z</time></trkpt><trkpt lat="42.65024772540745" lon="12.231965161588299"><ele>95.0</ele><time>2026-04-17T15:34:36Z</time></trkpt><trkpt lat="42.650195217081716" lon="12.231876789651661"><ele>96.0</ele><time>2026-04-17T15:34:37Z</time></trkpt><trkpt lat="42.650126256949136" lon="12.231789370840586"><ele>97.0</ele><time>2026-04-17T15:34:38Z</time></trkpt><trkpt lat="42.650062026679656" lon="12.231697296910781"><ele>97.33333333333334</ele><time>2026-04-17T15:34:39Z</time></trkpt><trkpt lat="42.6500028335275" lon="12.231614517215261"><ele>97.66666666666667</ele><time>2026-04-17T15:34:40Z</time></trkpt><trkpt lat="42.64994555042094" lon="12.231540472708287"><ele>98.0</ele><time>2026-04-17T15:34:41Z</time></trkpt><trkpt lat="42.649892348331214" lon="12.231478030474435"><ele>98.33333333333334</ele><time>2026-04-17T15:34:42Z</time></trkpt><trkpt lat="42.64981218931485" lon="12.231389385228612"><ele>98.66666666666667</ele><time>2026-04-17T15:34:44Z</time></trkpt><trkpt lat="42.64977483811518" lon="12.231306215715493"><ele>99.0</ele><time>2026-04-17T15:34:46Z</time></trkpt><trkpt lat="42.6498253967002" lon="12.231156962272184"><ele>99.5</ele><time>2026-04-17T15:34:48Z</time></trkpt><trkpt lat="42.649871279903884" lon="12.2310311692877"><ele>100.0</ele><time>2026-04-17T15:34:49Z</time></trkpt><trkpt lat="42.6499341527534" lon="12.230858797448764"><ele>100.5</ele><time>2026-04-17T15:34:50Z</time></trkpt><trkpt lat="42.65000093881798" lon="12.230655151061304"><ele>101.0</ele><time>2026-04-17T15:34:51.001Z</time></trkpt><trkpt lat="42.650083732306484" lon="12.230447955915173"><ele>102.33333333333333</ele><time>2026-04-17T15:34:52.001Z</time></trkpt><trkpt lat="42.65016331729412" lon="12.23022058730496"><ele>103.66666666666666</ele><time>2026-04-17T15:34:53.001Z</time></trkpt><trkpt lat="42.65024357348951" lon="12.229993513877277"><ele>105.0</ele><time>2026-04-17T15:34:54.001Z</time></trkpt><trkpt lat="42.65031993637775" lon="12.22977926120867"><ele>107.66666666666666</ele><time>2026-04-17T15:34:55.001Z</time></trkpt><trkpt lat="42.65039744971512" lon="12.229564819106633"><ele>110.33333333333333</ele><time>2026-04-17T15:34:56.001Z</time></trkpt><trkpt lat="42.65048487060183" lon="12.22933012864746"><ele>113.0</ele><time>2026-04-17T15:34:57.001Z</time></trkpt><trkpt lat="42.65057544189674" lon="12.229075966230386"><ele>115.66666666666666</ele><time>2026-04-17T15:34:58.001Z</time></trkpt><trkpt lat="42.65066509422081" lon="12.228817359632897"><ele>118.33333333333334</ele><time>2026-04-17T15:34:59.001Z</time></trkpt><trkpt lat="42.6507481344328" lon="12.228588135081488"><ele>121.0</ele><time>2026-04-17T15:35:00.001Z</time></trkpt><trkpt lat="42.65082319849261" lon="12.22838310171672"><ele>121.0</ele><time>2026-04-17T15:35:01.001Z</time></trkpt><trkpt lat="42.65088947616849" lon="12.228196432253394"><ele>121.0</ele><time>2026-04-17T15:35:02.001Z</time></trkpt><trkpt lat="42.650946997778654" lon="12.228033718845332"><ele>121.0</ele><time>2026-04-17T15:35:03.001Z</time></trkpt><trkpt lat="42.650999056434635" lon="12.227894517602293"><ele>121.0</ele><time>2026-04-17T15:35:04.001Z</time></trkpt><trkpt lat="42.65104925468069" lon="12.227756515031414"><ele>121.19999999999999</ele><time>2026-04-17T15:35:05.001Z</time></trkpt><trkpt lat="42.65109864345157" lon="12.227625760307504"><ele>121.39999999999999</ele><time>2026-04-17T15:35:06.001Z</time></trkpt><trkpt lat="42.651151181596056" lon="12.227485401711506"><ele>121.6</ele><time>2026-04-17T15:35:07.001Z</time></trkpt><trkpt lat="42.65120259010753" lon="12.227348475282273"><ele>121.8</ele><time>2026-04-17T15:35:08.001Z</time></trkpt><trkpt lat="42.65123339986846" lon="12.227202710801551"><ele>122.0</ele><time>2026-04-17T15:35:09.001Z</time></trkpt><trkpt lat="42.65124995931846" lon="12.22705100077464"><ele>122.5</ele><time>2026-04-17T15:35:10.001Z</time></trkpt><trkpt lat="42.651237783035604" lon="12.226887514257927"><ele>123.0</ele><time>2026-04-17T15:35:11.001Z</time></trkpt><trkpt lat="42.65119651343986" lon="12.226701155928566"><ele>123.5</ele><time>2026-04-17T15:35:12.001Z</time></trkpt><trkpt lat="42.651136996789745" lon="12.226514811608533"><ele>124.0</ele><time>2026-04-17T15:35:13.001Z</time></trkpt><trkpt lat="42.65109271023712" lon="12.226342829358593"><ele>124.25</ele><time>2026-04-17T15:35:14.001Z</time></trkpt><trkpt lat="42.65105065716131" lon="12.226169627087172"><ele>124.5</ele><time>2026-04-17T15:35:15.001Z</time></trkpt><trkpt lat="42.65100792544517" lon="12.22599224297295"><ele>124.75</ele><time>2026-04-17T15:35:16.001Z</time></trkpt><trkpt lat="42.65096061040697" lon="12.225808803271175"><ele>125.0</ele><time>2026-04-17T15:35:17.001Z</time></trkpt><trkpt lat="42.650912531112276" lon="12.225611567439978"><ele>125.0</ele><time>2026-04-17T15:35:18.001Z</time></trkpt><trkpt lat="42.650864847390764" lon="12.225410007321015"><ele>125.0</ele><time>2026-04-17T15:35:19.001Z</time></trkpt><trkpt lat="42.65081563486172" lon="12.225206804590831"><ele>125.0</ele><time>2026-04-17T15:35:20.001Z</time></trkpt><trkpt lat="42.65076270045068" lon="12.22499549512428"><ele>125.66666666666666</ele><time>2026-04-17T15:35:21.001Z</time></trkpt><trkpt lat="42.65070913936735" lon="12.22478314957607"><ele>126.33333333333334</ele><time>2026-04-17T15:35:22.001Z</time></trkpt><trkpt lat="42.650655974328615" lon="12.224573114451552"><ele>127.0</ele><time>2026-04-17T15:35:23.001Z</time></trkpt><trkpt lat="42.65060406265579" lon="12.224359829507502"><ele>127.0</ele><time>2026-04-17T15:35:24.001Z</time></trkpt><trkpt lat="42.65055801567285" lon="12.224162323848896"><ele>127.0</ele><time>2026-04-17T15:35:25.001Z</time></trkpt><trkpt lat="42.65051345899328" lon="12.223964360524073"><ele>127.0</ele><time>2026-04-17T15:35:26.001Z</time></trkpt><trkpt lat="42.650461450896046" lon="12.223737789071626"><ele>127.33333333333334</ele><time>2026-04-17T15:35:27.001Z</time></trkpt><trkpt lat="42.6504003480736" lon="12.223483371455519"><ele>127.66666666666666</ele><time>2026-04-17T15:35:28.001Z</time></trkpt><trkpt lat="42.65032373240981" lon="12.223190796082138"><ele>128.0</ele><time>2026-04-17T15:35:29.001Z</time></trkpt><trkpt lat="42.65024021511262" lon="12.222860915834117"><ele>128.0</ele><time>2026-04-17T15:35:30.001Z</time></trkpt><trkpt lat="42.650153188246925" lon="12.22252085290028"><ele>128.0</ele><time>2026-04-17T15:35:31.001Z</time></trkpt><trkpt lat="42.650075311116325" lon="12.222222712258453"><ele>128.66666666666666</ele><time>2026-04-17T15:35:32.001Z</time></trkpt><trkpt lat="42.65000689403072" lon="12.221941676478638"><ele>129.33333333333334</ele><time>2026-04-17T15:35:33.001Z</time></trkpt><trkpt lat="42.649943301731916" lon="12.22167380440069"><ele>130.0</ele><time>2026-04-17T15:35:34.001Z</time></trkpt><trkpt lat="42.64988482735431" lon="12.221429488572818"><ele>130.33333333333334</ele><time>2026-04-17T15:35:35.001Z</time></trkpt><trkpt lat="42.64982554041451" lon="12.221191492166575"><ele>130.66666666666666</ele><time>2026-04-17T15:35:36.001Z</time></trkpt><trkpt lat="42.64976273489987" lon="12.22095768380094"><ele>131.0</ele><time>2026-04-17T15:35:37.001Z</time></trkpt><trkpt lat="42.64970466857938" lon="12.220737193524078"><ele>131.33333333333331</ele><time>2026-04-17T15:35:38.001Z</time></trkpt><trkpt lat="42.64965865322808" lon="12.220533996363628"><ele>131.66666666666666</ele><time>2026-04-17T15:35:39.001Z</time></trkpt><trkpt lat="42.64961103480407" lon="12.220323837986761"><ele>132.0</ele><time>2026-04-17T15:35:40.001Z</time></trkpt><trkpt lat="42.649564088285686" lon="12.220136636263954"><ele>132.0</ele><time>2026-04-17T15:35:41.001Z</time></trkpt><trkpt lat="42.649517018795564" lon="12.219957217646572"><ele>132.0</ele><time>2026-04-17T15:35:42.001Z</time></trkpt><trkpt lat="42.64946739622428" lon="12.21975976221934"><ele>132.0</ele><time>2026-04-17T15:35:43.002Z</time></trkpt><trkpt lat="42.64941577093514" lon="12.219550149628224"><ele>132.66666666666666</ele><time>2026-04-17T15:35:44.002Z</time></trkpt><trkpt lat="42.64936280745791" lon="12.219349212749885"><ele>133.33333333333331</ele><time>2026-04-17T15:35:45.002Z</time></trkpt><trkpt lat="42.64930736401805" lon="12.219140024162353"><ele>134.0</ele><time>2026-04-17T15:35:46.002Z</time></trkpt><trkpt lat="42.649252511068234" lon="12.218923146373115"><ele>134.33333333333331</ele><time>2026-04-17T15:35:47.002Z</time></trkpt><trkpt lat="42.64919991888866" lon="12.218718280780374"><ele>134.66666666666666</ele><time>2026-04-17T15:35:48.002Z</time></trkpt><trkpt lat="42.64914673291522" lon="12.218535880006662"><ele>135.0</ele><time>2026-04-17T15:35:49.002Z</time></trkpt><trkpt lat="42.64909398030704" lon="12.218340556454681"><ele>136.0</ele><time>2026-04-17T15:35:50.002Z</time></trkpt><trkpt lat="42.64902927880071" lon="12.218145602987693"><ele>137.0</ele><time>2026-04-17T15:35:51.002Z</time></trkpt><trkpt lat="42.6489818835425" lon="12.2179321255385"><ele>138.0</ele><time>2026-04-17T15:35:52.002Z</time></trkpt><trkpt lat="42.64890803556243" lon="12.217724975893066"><ele>138.0</ele><time>2026-04-17T15:35:53.002Z</time></trkpt><trkpt lat="42.64885359045257" lon="12.217533463027918"><ele>138.0</ele><time>2026-04-17T15:35:54.002Z</time></trkpt><trkpt lat="42.64880167831805" lon="12.217357353800304"><ele>138.0</ele><time>2026-04-17T15:35:55.002Z</time></trkpt><trkpt lat="42.64876006858582" lon="12.217191690607235"><ele>138.0</ele><time>2026-04-17T15:35:56.002Z</time></trkpt><trkpt lat="42.6487200410984" lon="12.217032839798396"><ele>138.0</ele><time>2026-04-17T15:35:57.002Z</time></trkpt><trkpt lat="42.648670024988384" lon="12.216866267688705"><ele>138.0</ele><time>2026-04-17T15:35:58.002Z</time></trkpt><trkpt lat="42.64861649918741" lon="12.216687479722452"><ele>138.0</ele><time>2026-04-17T15:35:59.002Z</time></trkpt><trkpt lat="42.64856774200385" lon="12.21652415177351"><ele>138.0</ele><time>2026-04-17T15:36:00.002Z</time></trkpt><trkpt lat="42.64852243389661" lon="12.216368539159852"><ele>138.0</ele><time>2026-04-17T15:36:01.002Z</time></trkpt><trkpt lat="42.648461578163385" lon="12.216212838830895"><ele>138.0</ele><time>2026-04-17T15:36:02.002Z</time></trkpt><trkpt lat="42.64841037120181" lon="12.216037086356856"><ele>138.0</ele><time>2026-04-17T15:36:03.002Z</time></trkpt><trkpt lat="42.64835419370755" lon="12.215844254144995"><ele>138.0</ele><time>2026-04-17T15:36:04.002Z</time></trkpt><trkpt lat="42.648295310864135" lon="12.215636781566547"><ele>138.5</ele><time>2026-04-17T15:36:05.002Z</time></trkpt><trkpt lat="42.64824044930904" lon="12.215448684140652"><ele>139.0</ele><time>2026-04-17T15:36:06.002Z</time></trkpt><trkpt lat="42.64818539870273" lon="12.21526795663904"><ele>139.5</ele><time>2026-04-17T15:36:07.002Z</time></trkpt><trkpt lat="42.6481306318079" lon="12.215078398837074"><ele>140.0</ele><time>2026-04-17T15:36:08.002Z</time></trkpt><trkpt lat="42.648091840882714" lon="12.214872304358959"><ele>141.25</ele><time>2026-04-17T15:36:09.002Z</time></trkpt><trkpt lat="42.648039691558054" lon="12.214695342064024"><ele>142.5</ele><time>2026-04-17T15:36:10.002Z</time></trkpt><trkpt lat="42.6479857505528" lon="12.214513435784927"><ele>143.75</ele><time>2026-04-17T15:36:11.002Z</time></trkpt><trkpt lat="42.64793595024562" lon="12.21432313955702"><ele>145.0</ele><time>2026-04-17T15:36:12.002Z</time></trkpt><trkpt lat="42.64789618892263" lon="12.214138437202354"><ele>146.25</ele><time>2026-04-17T15:36:13.002Z</time></trkpt><trkpt lat="42.647871326606136" lon="12.213961528798041"><ele>147.5</ele><time>2026-04-17T15:36:14.002Z</time></trkpt><trkpt lat="42.64785567498573" lon="12.213786889850889"><ele>148.75</ele><time>2026-04-17T15:36:15.002Z</time></trkpt><trkpt lat="42.64784378672986" lon="12.213596246739115"><ele>150.0</ele><time>2026-04-17T15:36:16.002Z</time></trkpt><trkpt lat="42.647820891594705" lon="12.213405783899521"><ele>150.0</ele><time>2026-04-17T15:36:17.002Z</time></trkpt><trkpt lat="42.647811546119655" lon="12.213179468216037"><ele>150.0</ele><time>2026-04-17T15:36:18.002Z</time></trkpt><trkpt lat="42.64779197138227" lon="12.21291468089533"><ele>150.0</ele><time>2026-04-17T15:36:19.002Z</time></trkpt><trkpt lat="42.64777501865998" lon="12.212672038695102"><ele>150.5</ele><time>2026-04-17T15:36:20.002Z</time></trkpt><trkpt lat="42.647760793608754" lon="12.21246682729858"><ele>151.0</ele><time>2026-04-17T15:36:21.002Z</time></trkpt><trkpt lat="42.64774516217661" lon="12.212274570312735"><ele>151.5</ele><time>2026-04-17T15:36:22.002Z</time></trkpt><trkpt lat="42.64773420419685" lon="12.212087837944024"><ele>152.0</ele><time>2026-04-17T15:36:23.002Z</time></trkpt><trkpt lat="42.647722471448986" lon="12.211903272925886"><ele>152.0</ele><time>2026-04-17T15:36:24.002Z</time></trkpt><trkpt lat="42.64771151373651" lon="12.211721781997129"><ele>152.0</ele><time>2026-04-17T15:36:25.002Z</time></trkpt><trkpt lat="42.64769485960927" lon="12.211546800356782"><ele>152.0</ele><time>2026-04-17T15:36:26.002Z</time></trkpt><trkpt lat="42.647677914862136" lon="12.211369969896566"><ele>152.0</ele><time>2026-04-17T15:36:27.002Z</time></trkpt><trkpt lat="42.64766500568124" lon="12.211203984668701"><ele>152.79999999999998</ele><time>2026-04-17T15:36:28.002Z</time></trkpt><trkpt lat="42.64764951750199" lon="12.21104990140257"><ele>153.6</ele><time>2026-04-17T15:36:29.002Z</time></trkpt><trkpt lat="42.64762761351124" lon="12.210910067029449"><ele>154.39999999999998</ele><time>2026-04-17T15:36:30.003Z</time></trkpt><trkpt lat="42.64760392841565" lon="12.210773991416021"><ele>155.2</ele><time>2026-04-17T15:36:31.003Z</time></trkpt><trkpt lat="42.64758116918237" lon="12.21064644757232"><ele>156.0</ele><time>2026-04-17T15:36:32.003Z</time></trkpt><trkpt lat="42.64756489991829" lon="12.2105169258123"><ele>156.8</ele><time>2026-04-17T15:36:33.003Z</time></trkpt><trkpt lat="42.64754447553056" lon="12.2103869784491"><ele>157.6</ele><time>2026-04-17T15:36:34.003Z</time></trkpt><trkpt lat="42.64753081976675" lon="12.210276806276404"><ele>158.4</ele><time>2026-04-17T15:36:35.001Z</time></trkpt><trkpt lat="42.647519279421815" lon="12.210192125712762"><ele>159.2</ele><time>2026-04-17T15:36:36.001Z</time></trkpt><trkpt lat="42.647518105598834" lon="12.210072101913113"><ele>160.0</ele><time>2026-04-17T15:36:38.001Z</time></trkpt><trkpt lat="42.64749774008798" lon="12.209897431513987"><ele>161.0</ele><time>2026-04-17T15:36:40.001Z</time></trkpt><trkpt lat="42.64758120738419" lon="12.209768421112095"><ele>162.0</ele><time>2026-04-17T15:36:41.001Z</time></trkpt><trkpt lat="42.6476134283245" lon="12.209628952804845"><ele>163.0</ele><time>2026-04-17T15:36:42.001Z</time></trkpt><trkpt lat="42.64764943817561" lon="12.209468325694978"><ele>164.0</ele><time>2026-04-17T15:36:43.001Z</time></trkpt><trkpt lat="42.64768954984538" lon="12.209293260601136"><ele>164.0</ele><time>2026-04-17T15:36:44.001Z</time></trkpt><trkpt lat="42.64773571264652" lon="12.209099450727873"><ele>164.0</ele><time>2026-04-17T15:36:45.001Z</time></trkpt><trkpt lat="42.6477882149328" lon="12.20888510199375"><ele>164.0</ele><time>2026-04-17T15:36:46.001Z</time></trkpt><trkpt lat="42.64783140748418" lon="12.208671772078365"><ele>166.75</ele><time>2026-04-17T15:36:47.001Z</time></trkpt><trkpt lat="42.64788343562418" lon="12.208475467718337"><ele>169.5</ele><time>2026-04-17T15:36:48.001Z</time></trkpt><trkpt lat="42.647940468745155" lon="12.208296710777384"><ele>172.25</ele><time>2026-04-17T15:36:49.001Z</time></trkpt><trkpt lat="42.64801845333694" lon="12.20813344325434"><ele>175.0</ele><time>2026-04-17T15:36:50.001Z</time></trkpt><trkpt lat="42.64813930757505" lon="12.20800130866412"><ele>177.5</ele><time>2026-04-17T15:36:51.001Z</time></trkpt><trkpt lat="42.648267423355904" lon="12.207908914971837"><ele>180.0</ele><time>2026-04-17T15:36:52.001Z</time></trkpt><trkpt lat="42.64840634990228" lon="12.207874113783117"><ele>182.5</ele><time>2026-04-17T15:36:53.001Z</time></trkpt><trkpt lat="42.64853575488295" lon="12.207900046933796"><ele>185.0</ele><time>2026-04-17T15:36:54.001Z</time></trkpt><trkpt lat="42.64866485638452" lon="12.207966980681444"><ele>185.66666666666666</ele><time>2026-04-17T15:36:55.001Z</time></trkpt><trkpt lat="42.64879367955239" lon="12.208099266617186"><ele>186.33333333333334</ele><time>2026-04-17T15:36:56.001Z</time></trkpt><trkpt lat="42.6489231357001" lon="12.208285919218042"><ele>187.0</ele><time>2026-04-17T15:36:57.001Z</time></trkpt><trkpt lat="42.64905037539808" lon="12.208478406564188"><ele>187.0</ele><time>2026-04-17T15:36:58.001Z</time></trkpt><trkpt lat="42.64917375475805" lon="12.2086570147419"><ele>187.0</ele><time>2026-04-17T15:36:59.001Z</time></trkpt><trkpt lat="42.64929405917846" lon="12.208820548447596"><ele>187.0</ele><time>2026-04-17T15:37:00.001Z</time></trkpt><trkpt lat="42.64940242870176" lon="12.208971410213852"><ele>191.25</ele><time>2026-04-17T15:37:01.001Z</time></trkpt><trkpt lat="42.64949624863217" lon="12.209103839230785"><ele>195.5</ele><time>2026-04-17T15:37:02.001Z</time></trkpt><trkpt lat="42.64958580851397" lon="12.209232467900096"><ele>199.75</ele><time>2026-04-17T15:37:03.001Z</time></trkpt><trkpt lat="42.64968187057969" lon="12.209350635219234"><ele>204.0</ele><time>2026-04-17T15:37:04.001Z</time></trkpt><trkpt lat="42.64979876007185" lon="12.209435604892631"><ele>204.0</ele><time>2026-04-17T15:37:05.001Z</time></trkpt><trkpt lat="42.649924188223395" lon="12.209465314654167"><ele>204.0</ele><time>2026-04-17T15:37:06.001Z</time></trkpt><trkpt lat="42.650041903948676" lon="12.209442098299784"><ele>204.0</ele><time>2026-04-17T15:37:07.001Z</time></trkpt><trkpt lat="42.65013837850259" lon="12.20936479973985"><ele>204.0</ele><time>2026-04-17T15:37:08.001Z</time></trkpt><trkpt lat="42.65022026588277" lon="12.209249414412646"><ele>204.0</ele><time>2026-04-17T15:37:09.001Z</time></trkpt><trkpt lat="42.650281790422596" lon="12.209083421403724"><ele>204.0</ele><time>2026-04-17T15:37:10.001Z</time></trkpt><trkpt lat="42.65030796995785" lon="12.208891809928625"><ele>204.0</ele><time>2026-04-17T15:37:11.001Z</time></trkpt><trkpt lat="42.65032067708433" lon="12.208705414247362"><ele>204.0</ele><time>2026-04-17T15:37:12.001Z</time></trkpt><trkpt lat="42.650349067096464" lon="12.208519306596937"><ele>207.25</ele><time>2026-04-17T15:37:13.001Z</time></trkpt><trkpt lat="42.65041288218684" lon="12.208352790593548"><ele>210.5</ele><time>2026-04-17T15:37:14.001Z</time></trkpt><trkpt lat="42.65049437676485" lon="12.208210877918408"><ele>213.75</ele><time>2026-04-17T15:37:15.001Z</time></trkpt><trkpt lat="42.65058519740224" lon="12.208076576239305"><ele>217.0</ele><time>2026-04-17T15:37:16.001Z</time></trkpt><trkpt lat="42.65069463402024" lon="12.207977501204354"><ele>217.5</ele><time>2026-04-17T15:37:17.001Z</time></trkpt><trkpt lat="42.65081428295978" lon="12.207891919071194"><ele>218.0</ele><time>2026-04-17T15:37:18.001Z</time></trkpt><trkpt lat="42.65094376445364" lon="12.20781863675168"><ele>218.5</ele><time>2026-04-17T15:37:19.001Z</time></trkpt><trkpt lat="42.651072436767635" lon="12.207738524937499"><ele>219.0</ele><time>2026-04-17T15:37:20.001Z</time></trkpt><trkpt lat="42.65122396518043" lon="12.207640287914607"><ele>222.0</ele><time>2026-04-17T15:37:21.001Z</time></trkpt><trkpt lat="42.65135313617876" lon="12.207564529113936"><ele>225.0</ele><time>2026-04-17T15:37:22.001Z</time></trkpt><trkpt lat="42.65147339787789" lon="12.207492825549224"><ele>228.0</ele><time>2026-04-17T15:37:23.001Z</time></trkpt><trkpt lat="42.651592953805164" lon="12.207419500698451"><ele>231.0</ele><time>2026-04-17T15:37:24.001Z</time></trkpt><trkpt lat="42.65171073637706" lon="12.20734328695121"><ele>231.25</ele><time>2026-04-17T15:37:25.001Z</time></trkpt><trkpt lat="42.651831377535764" lon="12.207266076651615"><ele>231.5</ele><time>2026-04-17T15:37:26.001Z</time></trkpt><trkpt lat="42.65195082241203" lon="12.207185569462697"><ele>231.75</ele><time>2026-04-17T15:37:27.001Z</time></trkpt><trkpt lat="42.652067583622895" lon="12.20711319208398"><ele>232.0</ele><time>2026-04-17T15:37:28.001Z</time></trkpt><trkpt lat="42.65217864130556" lon="12.207023265730404"><ele>233.25</ele><time>2026-04-17T15:37:29.001Z</time></trkpt><trkpt lat="42.652287401004436" lon="12.206931624200777"><ele>234.5</ele><time>2026-04-17T15:37:30.001Z</time></trkpt><trkpt lat="42.65238399867437" lon="12.20681793768059"><ele>235.75</ele><time>2026-04-17T15:37:31.001Z</time></trkpt><trkpt lat="42.652464899541606" lon="12.206699136393002"><ele>237.0</ele><time>2026-04-17T15:37:32.001Z</time></trkpt><trkpt lat="42.652534669300024" lon="12.206581304713845"><ele>237.33333333333334</ele><time>2026-04-17T15:37:33.001Z</time></trkpt><trkpt lat="42.65259273642616" lon="12.20646703449891"><ele>237.66666666666669</ele><time>2026-04-17T15:37:34.001Z</time></trkpt><trkpt lat="42.65263774134114" lon="12.20635386284697"><ele>238.0</ele><time>2026-04-17T15:37:35.001Z</time></trkpt><trkpt lat="42.65266735406885" lon="12.206248577905686"><ele>238.33333333333334</ele><time>2026-04-17T15:37:36.001Z</time></trkpt><trkpt lat="42.65268632426329" lon="12.206159941855672"><ele>238.66666666666669</ele><time>2026-04-17T15:37:37.001Z</time></trkpt><trkpt lat="42.65270179823364" lon="12.20606086404482"><ele>239.0</ele><time>2026-04-17T15:37:38.001Z</time></trkpt><trkpt lat="42.652721429812544" lon="12.205935769068793"><ele>239.0</ele><time>2026-04-17T15:37:39.001Z</time></trkpt><trkpt lat="42.65273517539321" lon="12.205790301870072"><ele>238.99999999999997</ele><time>2026-04-17T15:37:40.001Z</time></trkpt><trkpt lat="42.652739974423554" lon="12.205643639987912"><ele>238.99999999999997</ele><time>2026-04-17T15:37:41.001Z</time></trkpt><trkpt lat="42.65274104078054" lon="12.205497978072826"><ele>239.0</ele><time>2026-04-17T15:37:42.001Z</time></trkpt><trkpt lat="42.65273123598123" lon="12.2053512879239"><ele>239.0</ele><time>2026-04-17T15:37:43.001Z</time></trkpt><trkpt lat="42.65272176657456" lon="12.205207360522316"><ele>240.0</ele><time>2026-04-17T15:37:44.001Z</time></trkpt><trkpt lat="42.65271270727234" lon="12.205059320102055"><ele>240.99999999999997</ele><time>2026-04-17T15:37:45.001Z</time></trkpt><trkpt lat="42.652705253541654" lon="12.204908481786564"><ele>241.99999999999997</ele><time>2026-04-17T15:37:46.001Z</time></trkpt><trkpt lat="42.65269809880179" lon="12.204756235676458"><ele>243.0</ele><time>2026-04-17T15:37:47.002Z</time></trkpt><trkpt lat="42.65268770257353" lon="12.204609066238486"><ele>244.0</ele><time>2026-04-17T15:37:48.002Z</time></trkpt><trkpt lat="42.652679584519824" lon="12.204460574228527"><ele>245.25</ele><time>2026-04-17T15:37:49.002Z</time></trkpt><trkpt lat="42.65267084783985" lon="12.204304819566815"><ele>246.5</ele><time>2026-04-17T15:37:50.002Z</time></trkpt><trkpt lat="42.65266137944591" lon="12.20414085248803"><ele>247.75</ele><time>2026-04-17T15:37:51.002Z</time></trkpt><trkpt lat="42.65265886797855" lon="12.203974305446495"><ele>249.0</ele><time>2026-04-17T15:37:52.002Z</time></trkpt><trkpt lat="42.65265159806871" lon="12.203808750304812"><ele>249.79999999999998</ele><time>2026-04-17T15:37:53.002Z</time></trkpt><trkpt lat="42.65264133265861" lon="12.203645704419085"><ele>250.59999999999997</ele><time>2026-04-17T15:37:54.002Z</time></trkpt><trkpt lat="42.652634568684455" lon="12.203500630497002"><ele>251.4</ele><time>2026-04-17T15:37:55.002Z</time></trkpt><trkpt lat="42.652622894811124" lon="12.203381981376262"><ele>252.2</ele><time>2026-04-17T15:37:56.002Z</time></trkpt><trkpt lat="42.652614007678764" lon="12.203283138828251"><ele>253.0</ele><time>2026-04-17T15:37:57.002Z</time></trkpt><trkpt lat="42.65260711076555" lon="12.203190898466387"><ele>253.49999999999997</ele><time>2026-04-17T15:37:58.002Z</time></trkpt><trkpt lat="42.6526238377304" lon="12.20310792899781"><ele>254.0</ele><time>2026-04-17T15:37:59.002Z</time></trkpt><trkpt lat="42.65261525048108" lon="12.20295516650133"><ele>254.5</ele><time>2026-04-17T15:38:01.002Z</time></trkpt><trkpt lat="42.65259372965487" lon="12.202867310918473"><ele>255.0</ele><time>2026-04-17T15:38:02.002Z</time></trkpt><trkpt lat="42.652596191524445" lon="12.202766227613889"><ele>255.49999999999997</ele><time>2026-04-17T15:38:03.002Z</time></trkpt><trkpt lat="42.65258997062938" lon="12.202661649710269"><ele>256.0</ele><time>2026-04-17T15:38:04.002Z</time></trkpt><trkpt lat="42.65258082345454" lon="12.20254654818023"><ele>256.0</ele><time>2026-04-17T15:38:05.002Z</time></trkpt><trkpt lat="42.65257277803739" lon="12.202426455357571"><ele>256.0</ele><time>2026-04-17T15:38:06.002Z</time></trkpt><trkpt lat="42.652566065800826" lon="12.202299931233012"><ele>256.0</ele><time>2026-04-17T15:38:07.002Z</time></trkpt><trkpt lat="42.65256054976661" lon="12.202163977913711"><ele>256.0</ele><time>2026-04-17T15:38:08.002Z</time></trkpt><trkpt lat="42.65255344331188" lon="12.20203039940076"><ele>256.0</ele><time>2026-04-17T15:38:09.002Z</time></trkpt><trkpt lat="42.652542909464074" lon="12.201900861816416"><ele>256.0</ele><time>2026-04-17T15:38:10.002Z</time></trkpt><trkpt lat="42.65254818074022" lon="12.201748438031714"><ele>256.0</ele><time>2026-04-17T15:38:11.002Z</time></trkpt><trkpt lat="42.652538612173785" lon="12.201565369992371"><ele>256.0</ele><time>2026-04-17T15:38:12.002Z</time></trkpt><trkpt lat="42.652514937212125" lon="12.201359777157824"><ele>256.0</ele><time>2026-04-17T15:38:13.002Z</time></trkpt><trkpt lat="42.65250848870262" lon="12.201147481281929"><ele>255.4</ele><time>2026-04-17T15:38:14.002Z</time></trkpt><trkpt lat="42.652498052601466" lon="12.200976417349416"><ele>254.8</ele><time>2026-04-17T15:38:15.002Z</time></trkpt><trkpt lat="42.65248688032425" lon="12.200823672358776"><ele>254.20000000000002</ele><time>2026-04-17T15:38:16.002Z</time></trkpt><trkpt lat="42.652472319953326" lon="12.200696877203885"><ele>253.60000000000002</ele><time>2026-04-17T15:38:17.002Z</time></trkpt><trkpt lat="42.65248489306345" lon="12.200589943844802"><ele>253.0</ele><time>2026-04-17T15:38:18.002Z</time></trkpt><trkpt lat="42.65248014389781" lon="12.200503059028666"><ele>252.60000000000002</ele><time>2026-04-17T15:38:19.002Z</time></trkpt><trkpt lat="42.6524824468322" lon="12.200407504891835"><ele>252.20000000000002</ele><time>2026-04-17T15:38:20.002Z</time></trkpt><trkpt lat="42.65248959106298" lon="12.200307258930268"><ele>251.8</ele><time>2026-04-17T15:38:21.002Z</time></trkpt><trkpt lat="42.65249876316743" lon="12.200220817819195"><ele>251.4</ele><time>2026-04-17T15:38:22.002Z</time></trkpt><trkpt lat="42.652347264915264" lon="12.200146925007648"><ele>251.0</ele><time>2026-04-17T15:38:24.002Z</time></trkpt><trkpt lat="42.65224560019984" lon="12.200163898009446"><ele>251.00000000000003</ele><time>2026-04-17T15:38:26.002Z</time></trkpt><trkpt lat="42.65216775743631" lon="12.200176746542724"><ele>251.0</ele><time>2026-04-17T15:38:28.002Z</time></trkpt><trkpt lat="42.65210324597937" lon="12.200166810660988"><ele>251.0</ele><time>2026-04-17T15:38:30.002Z</time></trkpt><trkpt lat="42.652005836602676" lon="12.200215836600895"><ele>251.0</ele><time>2026-04-17T15:38:36.002Z</time></trkpt><trkpt lat="42.65193976479358" lon="12.200272131043713"><ele>251.00000000000003</ele><time>2026-04-17T15:38:39.002Z</time></trkpt><trkpt lat="42.65184513155344" lon="12.200331076483675"><ele>251.0</ele><time>2026-04-17T15:38:42.001Z</time></trkpt><trkpt lat="42.65178044697627" lon="12.200376652603833"><ele>250.8</ele><time>2026-04-17T15:38:43.001Z</time></trkpt><trkpt lat="42.651712484556114" lon="12.200412339186176"><ele>250.60000000000002</ele><time>2026-04-17T15:38:44.001Z</time></trkpt><trkpt lat="42.651630164500276" lon="12.200428304677907"><ele>250.4</ele><time>2026-04-17T15:38:46.001Z</time></trkpt><trkpt lat="42.65170219907373" lon="12.20037005379815"><ele>250.2</ele><time>2026-04-17T15:39:00.001Z</time></trkpt><trkpt lat="42.65183374956208" lon="12.20029029464575"><ele>250.0</ele><time>2026-04-17T15:39:01.001Z</time></trkpt><trkpt lat="42.65191891351763" lon="12.200225288137299"><ele>250.16666666666666</ele><time>2026-04-17T15:39:02.001Z</time></trkpt><trkpt lat="42.651978403117006" lon="12.200192772568432"><ele>250.33333333333331</ele><time>2026-04-17T15:39:03.001Z</time></trkpt><trkpt lat="42.65207034973639" lon="12.200169588176351"><ele>250.5</ele><time>2026-04-17T15:39:05.001Z</time></trkpt><trkpt lat="42.65209167126881" lon="12.20026661099441"><ele>250.66666666666669</ele><time>2026-04-17T15:39:08.001Z</time></trkpt><trkpt lat="42.65203492241879" lon="12.20037213320545"><ele>250.83333333333334</ele><time>2026-04-17T15:39:11.001Z</time></trkpt><trkpt lat="42.65201359747465" lon="12.200453661162223"><ele>251.0</ele><time>2026-04-17T15:39:13.001Z</time></trkpt><trkpt lat="42.65197076868429" lon="12.200545454902484"><ele>250.8</ele><time>2026-04-17T15:39:16.001Z</time></trkpt><trkpt lat="42.651898111720826" lon="12.20063957687765"><ele>250.60000000000002</ele><time>2026-04-17T15:39:19.001Z</time></trkpt><trkpt lat="42.65185584128937" lon="12.200707403282967"><ele>250.4</ele><time>2026-04-17T15:39:20.001Z</time></trkpt><trkpt lat="42.651794114325966" lon="12.200823323314603"><ele>250.2</ele><time>2026-04-17T15:39:22.001Z</time></trkpt><trkpt lat="42.6517165287106" lon="12.20093094176285"><ele>250.0</ele><time>2026-04-17T15:39:24.001Z</time></trkpt><trkpt lat="42.651760895964586" lon="12.201071741478472"><ele>249.6</ele><time>2026-04-17T15:39:26.001Z</time></trkpt><trkpt lat="42.651855842169915" lon="12.201179732826299"><ele>249.2</ele><time>2026-04-17T15:39:28.001Z</time></trkpt><trkpt lat="42.6519075502908" lon="12.201262355804344"><ele>248.8</ele><time>2026-04-17T15:39:30.001Z</time></trkpt><trkpt lat="42.65184377449064" lon="12.201438498862704"><ele>248.4</ele><time>2026-04-17T15:39:34.001Z</time></trkpt><trkpt lat="42.65178216475499" lon="12.201505333295813"><ele>248.0</ele><time>2026-04-17T15:39:35.001Z</time></trkpt><trkpt lat="42.651719255535546" lon="12.201582346273042"><ele>249.0</ele><time>2026-04-17T15:39:36.001Z</time></trkpt><trkpt lat="42.651643986920135" lon="12.201669913567004"><ele>250.0</ele><time>2026-04-17T15:39:37.001Z</time></trkpt><trkpt lat="42.65156165654723" lon="12.201748726739645"><ele>251.0</ele><time>2026-04-17T15:39:38.001Z</time></trkpt><trkpt lat="42.65147282888308" lon="12.201816148594943"><ele>252.0</ele><time>2026-04-17T15:39:39.001Z</time></trkpt><trkpt lat="42.65138107161095" lon="12.201879936618292"><ele>253.0</ele><time>2026-04-17T15:39:40.001Z</time></trkpt><trkpt lat="42.651290420496345" lon="12.201950660566958"><ele>252.99999999999997</ele><time>2026-04-17T15:39:41.001Z</time></trkpt><trkpt lat="42.65119936236919" lon="12.20201423131198"><ele>253.0</ele><time>2026-04-17T15:39:42.001Z</time></trkpt><trkpt lat="42.651119868553124" lon="12.202068803739403"><ele>253.0</ele><time>2026-04-17T15:39:43.001Z</time></trkpt><trkpt lat="42.651045972696764" lon="12.202118485133433"><ele>253.0</ele><time>2026-04-17T15:39:44.001Z</time></trkpt><trkpt lat="42.65097603362655" lon="12.202169866776641"><ele>252.99999999999997</ele><time>2026-04-17T15:39:45.001Z</time></trkpt><trkpt lat="42.65091137221662" lon="12.202224195017296"><ele>253.0</ele><time>2026-04-17T15:39:46.001Z</time></trkpt><trkpt lat="42.65084614710725" lon="12.202292772164249"><ele>253.42857142857144</ele><time>2026-04-17T15:39:47.001Z</time></trkpt><trkpt lat="42.65078418926166" lon="12.202353562271547"><ele>253.85714285714286</ele><time>2026-04-17T15:39:48.001Z</time></trkpt><trkpt lat="42.650726055913154" lon="12.20241255273725"><ele>254.28571428571428</ele><time>2026-04-17T15:39:49.001Z</time></trkpt><trkpt lat="42.65066660930805" lon="12.20246856669279"><ele>254.71428571428572</ele><time>2026-04-17T15:39:50.001Z</time></trkpt><trkpt lat="42.65059727158649" lon="12.202495655569086"><ele>255.1428571428571</ele><time>2026-04-17T15:39:51.001Z</time></trkpt><trkpt lat="42.65053331352094" lon="12.202517545772809"><ele>255.57142857142856</ele><time>2026-04-17T15:39:52.001Z</time></trkpt><trkpt lat="42.650461839162524" lon="12.202554727061157"><ele>256.0</ele><time>2026-04-17T15:39:53.001Z</time></trkpt><trkpt lat="42.65037101095527" lon="12.202568193333736"><ele>255.16666666666666</ele><time>2026-04-17T15:39:54.001Z</time></trkpt><trkpt lat="42.650280758620895" lon="12.202578672668636"><ele>254.33333333333331</ele><time>2026-04-17T15:39:55.001Z</time></trkpt><trkpt lat="42.65019084806767" lon="12.202581814475636"><ele>253.5</ele><time>2026-04-17T15:39:56.001Z</time></trkpt><trkpt lat="42.65010154194312" lon="12.20257901420819"><ele>252.66666666666669</ele><time>2026-04-17T15:39:57.001Z</time></trkpt><trkpt lat="42.650012671317825" lon="12.202576647382646"><ele>251.83333333333334</ele><time>2026-04-17T15:39:58.001Z</time></trkpt><trkpt lat="42.64992343137617" lon="12.202586442993384"><ele>251.0</ele><time>2026-04-17T15:39:59.001Z</time></trkpt><trkpt lat="42.64982697371354" lon="12.202597160350372"><ele>251.00000000000003</ele><time>2026-04-17T15:40:00.002Z</time></trkpt><trkpt lat="42.649737234944986" lon="12.20260012488343"><ele>251.0</ele><time>2026-04-17T15:40:01.002Z</time></trkpt><trkpt lat="42.64965227536881" lon="12.202601257116573"><ele>251.0</ele><time>2026-04-17T15:40:02.002Z</time></trkpt><trkpt lat="42.64957052790703" lon="12.202613408169357"><ele>251.0</ele><time>2026-04-17T15:40:03.002Z</time></trkpt><trkpt lat="42.649488234627405" lon="12.202624272105941"><ele>251.00000000000003</ele><time>2026-04-17T15:40:04.002Z</time></trkpt><trkpt lat="42.649404503212416" lon="12.202635852030076"><ele>251.0</ele><time>2026-04-17T15:40:05.002Z</time></trkpt><trkpt lat="42.64931471028838" lon="12.202663168564678"><ele>250.0</ele><time>2026-04-17T15:40:06.002Z</time></trkpt><trkpt lat="42.6492218643118" lon="12.202700294519586"><ele>249.00000000000003</ele><time>2026-04-17T15:40:07.002Z</time></trkpt><trkpt lat="42.64913453108638" lon="12.202742349965238"><ele>248.00000000000003</ele><time>2026-04-17T15:40:08.002Z</time></trkpt><trkpt lat="42.64904596879992" lon="12.202787236585888"><ele>247.0</ele><time>2026-04-17T15:40:09.002Z</time></trkpt><trkpt lat="42.64896057899492" lon="12.202840545451876"><ele>246.0</ele><time>2026-04-17T15:40:10.002Z</time></trkpt><trkpt lat="42.64887146208321" lon="12.202893396233506"><ele>246.0</ele><time>2026-04-17T15:40:11.002Z</time></trkpt><trkpt lat="42.648783574116095" lon="12.202946533628014"><ele>246.00000000000003</ele><time>2026-04-17T15:40:12.002Z</time></trkpt><trkpt lat="42.64870067910923" lon="12.202996248422291"><ele>246.00000000000003</ele><time>2026-04-17T15:40:13.002Z</time></trkpt><trkpt lat="42.64861608608848" lon="12.203049458710224"><ele>246.0</ele><time>2026-04-17T15:40:14.002Z</time></trkpt><trkpt lat="42.64853220247871" lon="12.203093126237048"><ele>246.0</ele><time>2026-04-17T15:40:15.002Z</time></trkpt><trkpt lat="42.64845361363581" lon="12.203135330158874"><ele>246.00000000000003</ele><time>2026-04-17T15:40:16.002Z</time></trkpt><trkpt lat="42.64837409561508" lon="12.20317757740389"><ele>246.0</ele><time>2026-04-17T15:40:17.002Z</time></trkpt><trkpt lat="42.6482982188204" lon="12.203217686245527"><ele>246.00000000000003</ele><time>2026-04-17T15:40:18.002Z</time></trkpt><trkpt lat="42.648229574085114" lon="12.203260992634506"><ele>246.00000000000003</ele><time>2026-04-17T15:40:19.002Z</time></trkpt><trkpt lat="42.648166548684486" lon="12.203307832778513"><ele>246.0</ele><time>2026-04-17T15:40:20.002Z</time></trkpt><trkpt lat="42.648107714172426" lon="12.203352342171293"><ele>246.00000000000003</ele><time>2026-04-17T15:40:21.002Z</time></trkpt><trkpt lat="42.64804962658772" lon="12.203398668388209"><ele>246.00000000000003</ele><time>2026-04-17T15:40:22.002Z</time></trkpt><trkpt lat="42.64799434297949" lon="12.203445491171706"><ele>246.0</ele><time>2026-04-17T15:40:23.002Z</time></trkpt><trkpt lat="42.64788534197778" lon="12.203501128902314"><ele>246.0</ele><time>2026-04-17T15:40:25.002Z</time></trkpt><trkpt lat="42.64776778635884" lon="12.203561911088077"><ele>246.0</ele><time>2026-04-17T15:40:27.002Z</time></trkpt><trkpt lat="42.64764297061169" lon="12.20363872615518"><ele>246.0</ele><time>2026-04-17T15:40:29.002Z</time></trkpt><trkpt lat="42.64751265394336" lon="12.203705880275976"><ele>245.16666666666666</ele><time>2026-04-17T15:40:31.002Z</time></trkpt><trkpt lat="42.64744507213229" lon="12.203737132580123"><ele>244.33333333333331</ele><time>2026-04-17T15:40:32.002Z</time></trkpt><trkpt lat="42.64737594772119" lon="12.203757919679774"><ele>243.5</ele><time>2026-04-17T15:40:33.002Z</time></trkpt><trkpt lat="42.647307757223686" lon="12.203772060694229"><ele>242.66666666666666</ele><time>2026-04-17T15:40:34.002Z</time></trkpt><trkpt lat="42.64719674239278" lon="12.203786589269912"><ele>241.83333333333331</ele><time>2026-04-17T15:40:36.002Z</time></trkpt><trkpt lat="42.64713075937144" lon="12.203799425907032"><ele>241.0</ele><time>2026-04-17T15:40:38.002Z</time></trkpt><trkpt lat="42.64705735994816" lon="12.20382398151533"><ele>241.0</ele><time>2026-04-17T15:40:40.002Z</time></trkpt><trkpt lat="42.64696996312996" lon="12.203827046572517"><ele>241.00000000000003</ele><time>2026-04-17T15:40:42.002Z</time></trkpt><trkpt lat="42.64687423301357" lon="12.203832223672979"><ele>241.00000000000003</ele><time>2026-04-17T15:40:44.002Z</time></trkpt><trkpt lat="42.64678372650169" lon="12.203841017766589"><ele>241.0</ele><time>2026-04-17T15:40:46.002Z</time></trkpt><trkpt lat="42.64669067419846" lon="12.203859654062798"><ele>241.0</ele><time>2026-04-17T15:40:48Z</time></trkpt><trkpt lat="42.64660126252769" lon="12.203872437755436"><ele>239.60000000000002</ele><time>2026-04-17T15:40:50Z</time></trkpt><trkpt lat="42.64650912529739" lon="12.203885297291729"><ele>238.20000000000002</ele><time>2026-04-17T15:40:52Z</time></trkpt><trkpt lat="42.646413922195386" lon="12.20390236960241"><ele>236.79999999999998</ele><time>2026-04-17T15:40:54Z</time></trkpt><trkpt lat="42.64631337008469" lon="12.20390232339725"><ele>235.39999999999998</ele><time>2026-04-17T15:40:56Z</time></trkpt><trkpt lat="42.646217758470634" lon="12.20390070638116"><ele>234.0</ele><time>2026-04-17T15:40:58Z</time></trkpt><trkpt lat="42.64609303241431" lon="12.203924180119246"><ele>232.5</ele><time>2026-04-17T15:41:00Z</time></trkpt><trkpt lat="42.64600473217605" lon="12.203942597654269"><ele>231.0</ele><time>2026-04-17T15:41:01Z</time></trkpt><trkpt lat="42.64592521810124" lon="12.203952691496983"><ele>229.5</ele><time>2026-04-17T15:41:02Z</time></trkpt><trkpt lat="42.64584671531935" lon="12.203961585942153"><ele>228.0</ele><time>2026-04-17T15:41:03Z</time></trkpt><trkpt lat="42.64577101487259" lon="12.203969534379029"><ele>226.5</ele><time>2026-04-17T15:41:04Z</time></trkpt><trkpt lat="42.64569813402097" lon="12.20397357597118"><ele>225.0</ele><time>2026-04-17T15:41:05Z</time></trkpt><trkpt lat="42.645622048721236" lon="12.203970969421823"><ele>225.0</ele><time>2026-04-17T15:41:06Z</time></trkpt><trkpt lat="42.64555242507205" lon="12.203976688525886"><ele>225.0</ele><time>2026-04-17T15:41:07Z</time></trkpt><trkpt lat="42.645427107711576" lon="12.204012630684813"><ele>225.0</ele><time>2026-04-17T15:41:09Z</time></trkpt><trkpt lat="42.64531574975951" lon="12.204024907860997"><ele>225.0</ele><time>2026-04-17T15:41:11Z</time></trkpt><trkpt lat="42.64520585798702" lon="12.204002058961352"><ele>225.0</ele><time>2026-04-17T15:41:13Z</time></trkpt><trkpt lat="42.645091580651126" lon="12.203994771859069"><ele>224.5</ele><time>2026-04-17T15:41:15Z</time></trkpt><trkpt lat="42.64502678359551" lon="12.20402730917415"><ele>224.0</ele><time>2026-04-17T15:41:16Z</time></trkpt><trkpt lat="42.64495942064367" lon="12.204035088017948"><ele>223.5</ele><time>2026-04-17T15:41:17Z</time></trkpt><trkpt lat="42.644865654045255" lon="12.204089260871207"><ele>223.0</ele><time>2026-04-17T15:41:19Z</time></trkpt><trkpt lat="42.64450861271328" lon="12.20419832310765"><ele>223.0</ele><time>2026-04-17T15:41:22Z</time></trkpt><trkpt lat="42.64450461824737" lon="12.204307612330549"><ele>223.0</ele><time>2026-04-17T15:41:24.001Z</time></trkpt><trkpt lat="42.64452938358798" lon="12.204391106149716"><ele>223.0</ele><time>2026-04-17T15:41:29.001Z</time></trkpt><trkpt lat="42.64476633224528" lon="12.204403938089206"><ele>223.0</ele><time>2026-04-17T15:41:33.001Z</time></trkpt><trkpt lat="42.644821762177806" lon="12.20444686860684"><ele>223.0</ele><time>2026-04-17T15:42:09.001Z</time></trkpt><trkpt lat="42.645269024191805" lon="12.204172555568743"><ele>222.99999999999997</ele><time>2026-04-17T15:42:34.002Z</time></trkpt><trkpt lat="42.64527178610503" lon="12.204260248817729"><ele>223.0</ele><time>2026-04-17T15:42:35.002Z</time></trkpt><trkpt lat="42.645264625664815" lon="12.204386365811876"><ele>223.0</ele><time>2026-04-17T15:42:36.002Z</time></trkpt><trkpt lat="42.645292064692356" lon="12.204518988065615"><ele>223.0</ele><time>2026-04-17T15:42:37.002Z</time></trkpt><trkpt lat="42.645283522673594" lon="12.204626563353461"><ele>222.99999999999997</ele><time>2026-04-17T15:42:38.002Z</time></trkpt><trkpt lat="42.645293183941604" lon="12.204711164720552"><ele>223.0</ele><time>2026-04-17T15:42:39.002Z</time></trkpt><trkpt lat="42.645279790983004" lon="12.204827004403404"><ele>223.0</ele><time>2026-04-17T15:42:41.002Z</time></trkpt><trkpt lat="42.64515057614093" lon="12.204769801179994"><ele>223.0</ele><time>2026-04-17T15:42:43.002Z</time></trkpt><trkpt lat="42.64504900566179" lon="12.204701582145088"><ele>223.0</ele><time>2026-04-17T15:42:45.002Z</time></trkpt><trkpt lat="42.64493409631116" lon="12.204646119814747"><ele>223.0</ele><time>2026-04-17T15:42:47.002Z</time></trkpt><trkpt lat="42.64486892419301" lon="12.204611223974306"><ele>223.0</ele><time>2026-04-17T15:42:48.002Z</time></trkpt><trkpt lat="42.64478444616912" lon="12.204594444043892"><ele>223.0</ele><time>2026-04-17T15:42:49.002Z</time></trkpt><trkpt lat="42.64469823809267" lon="12.20458876803479"><ele>223.0</ele><time>2026-04-17T15:42:50.002Z</time></trkpt><trkpt lat="42.64460649251674" lon="12.20457600585049"><ele>223.0</ele><time>2026-04-17T15:42:51.002Z</time></trkpt><trkpt lat="42.64451455890223" lon="12.204559830979376"><ele>223.0</ele><time>2026-04-17T15:42:52.002Z</time></trkpt><trkpt lat="42.644422243422675" lon="12.2045492451678"><ele>223.0</ele><time>2026-04-17T15:42:52.999Z</time></trkpt><trkpt lat="42.64433598861411" lon="12.204548416827397"><ele>220.99999999999997</ele><time>2026-04-17T15:42:53.999Z</time></trkpt><trkpt lat="42.64423414185737" lon="12.204596969112414"><ele>219.0</ele><time>2026-04-17T15:42:54.999Z</time></trkpt><trkpt lat="42.64414036092299" lon="12.204605835386532"><ele>217.0</ele><time>2026-04-17T15:42:55.999Z</time></trkpt><trkpt lat="42.64405615909858" lon="12.204613283005584"><ele>215.0</ele><time>2026-04-17T15:42:56.999Z</time></trkpt><trkpt lat="42.64399297176268" lon="12.204635485257253"><ele>212.99999999999997</ele><time>2026-04-17T15:42:57.999Z</time></trkpt><trkpt lat="42.64392563061023" lon="12.204656986533333"><ele>211.0</ele><time>2026-04-17T15:42:58.999Z</time></trkpt><trkpt lat="42.64381931808353" lon="12.204669239842536"><ele>210.99999999999997</ele><time>2026-04-17T15:43:00.999Z</time></trkpt><trkpt lat="42.643745225061195" lon="12.204616910998382"><ele>211.0</ele><time>2026-04-17T15:43:02.999Z</time></trkpt><trkpt lat="42.64368068374752" lon="12.204588549450186"><ele>211.0</ele><time>2026-04-17T15:43:07Z</time></trkpt><trkpt lat="42.6436595383644" lon="12.204729040271314"><ele>211.0</ele><time>2026-04-17T15:43:10Z</time></trkpt><trkpt lat="42.64370664777962" lon="12.204832184829916"><ele>210.99999999999997</ele><time>2026-04-17T15:43:11Z</time></trkpt><trkpt lat="42.64372157608521" lon="12.20492902286256"><ele>211.0</ele><time>2026-04-17T15:43:12Z</time></trkpt><trkpt lat="42.643739250531944" lon="12.205011533981295"><ele>208.49999999999997</ele><time>2026-04-17T15:43:13Z</time></trkpt><trkpt lat="42.643752640543326" lon="12.205100700360589"><ele>206.0</ele><time>2026-04-17T15:43:14Z</time></trkpt><trkpt lat="42.64376649062701" lon="12.20524144616987"><ele>203.5</ele><time>2026-04-17T15:43:16Z</time></trkpt><trkpt lat="42.64385313523514" lon="12.20534895061468"><ele>201.0</ele><time>2026-04-17T15:43:18Z</time></trkpt><trkpt lat="42.64390418127106" lon="12.205425276462085"><ele>198.49999999999997</ele><time>2026-04-17T15:43:20Z</time></trkpt><trkpt lat="42.6439484632254" lon="12.20551907419461"><ele>196.0</ele><time>2026-04-17T15:43:41Z</time></trkpt><trkpt lat="42.643996621605545" lon="12.205650706235"><ele>192.60000000000002</ele><time>2026-04-17T15:43:43Z</time></trkpt><trkpt lat="42.64405692993156" lon="12.205792667695716"><ele>189.2</ele><time>2026-04-17T15:43:45Z</time></trkpt><trkpt lat="42.64408494860307" lon="12.20587646007028"><ele>185.8</ele><time>2026-04-17T15:43:46Z</time></trkpt><trkpt lat="42.64411090578058" lon="12.20599462923592"><ele>182.39999999999998</ele><time>2026-04-17T15:43:47Z</time></trkpt><trkpt lat="42.64413162893296" lon="12.206110688823651"><ele>179.0</ele><time>2026-04-17T15:43:48Z</time></trkpt><trkpt lat="42.64415077141313" lon="12.206227129876345"><ele>179.0</ele><time>2026-04-17T15:43:49Z</time></trkpt><trkpt lat="42.64416981469769" lon="12.20634846952184"><ele>179.0</ele><time>2026-04-17T15:43:50Z</time></trkpt><trkpt lat="42.64418821959567" lon="12.206465741256883"><ele>179.0</ele><time>2026-04-17T15:43:51.001Z</time></trkpt><trkpt lat="42.64420227958183" lon="12.206584414698922"><ele>179.0</ele><time>2026-04-17T15:43:52.001Z</time></trkpt><trkpt lat="42.64422545799444" lon="12.206703452047769"><ele>179.0</ele><time>2026-04-17T15:43:53.001Z</time></trkpt><trkpt lat="42.64422355000562" lon="12.206833287946552"><ele>176.5</ele><time>2026-04-17T15:43:54.001Z</time></trkpt><trkpt lat="42.6442108503431" lon="12.206963682747434"><ele>174.0</ele><time>2026-04-17T15:43:55.001Z</time></trkpt><trkpt lat="42.64419412816214" lon="12.20708018060944"><ele>171.5</ele><time>2026-04-17T15:43:56.001Z</time></trkpt><trkpt lat="42.64417968997358" lon="12.20717922462279"><ele>169.0</ele><time>2026-04-17T15:43:57.001Z</time></trkpt><trkpt lat="42.64420431722311" lon="12.207335161661025"><ele>166.5</ele><time>2026-04-17T15:43:59.001Z</time></trkpt><trkpt lat="42.644247616507506" lon="12.207408948550286"><ele>164.0</ele><time>2026-04-17T15:44:00.001Z</time></trkpt><trkpt lat="42.64428851534127" lon="12.207546377878316"><ele>163.75</ele><time>2026-04-17T15:44:01.001Z</time></trkpt><trkpt lat="42.64436183238033" lon="12.207729268917246"><ele>163.5</ele><time>2026-04-17T15:44:02.001Z</time></trkpt><trkpt lat="42.64444652753507" lon="12.207884052354006"><ele>163.25</ele><time>2026-04-17T15:44:03.001Z</time></trkpt><trkpt lat="42.64450767373534" lon="12.208039846664896"><ele>163.0</ele><time>2026-04-17T15:44:04.001Z</time></trkpt><trkpt lat="42.64454708256277" lon="12.208209212531985"><ele>161.66666666666669</ele><time>2026-04-17T15:44:05.001Z</time></trkpt><trkpt lat="42.644587479624796" lon="12.208356858311603"><ele>160.33333333333334</ele><time>2026-04-17T15:44:06.001Z</time></trkpt><trkpt lat="42.64461663833861" lon="12.208471540561572"><ele>159.0</ele><time>2026-04-17T15:44:07.001Z</time></trkpt><trkpt lat="42.64464699473478" lon="12.208577404918337"><ele>157.66666666666666</ele><time>2026-04-17T15:44:08.001Z</time></trkpt><trkpt lat="42.64469363481834" lon="12.208659951562984"><ele>156.33333333333331</ele><time>2026-04-17T15:44:09.001Z</time></trkpt><trkpt lat="42.64472111264316" lon="12.208750636746393"><ele>155.0</ele><time>2026-04-17T15:44:10.001Z</time></trkpt><trkpt lat="42.64476375301766" lon="12.20883034326527"><ele>155.0</ele><time>2026-04-17T15:44:11.001Z</time></trkpt><trkpt lat="42.644801041621506" lon="12.208902877560936"><ele>155.0</ele><time>2026-04-17T15:44:12.001Z</time></trkpt><trkpt lat="42.64483731573677" lon="12.208983999544772"><ele>155.0</ele><time>2026-04-17T15:44:13.001Z</time></trkpt><trkpt lat="42.64485864127997" lon="12.209115464848047"><ele>155.0</ele><time>2026-04-17T15:44:14.001Z</time></trkpt><trkpt lat="42.64484194659653" lon="12.209289462558797"><ele>155.0</ele><time>2026-04-17T15:44:15.001Z</time></trkpt><trkpt lat="42.64484475991716" lon="12.209471887405552"><ele>154.0</ele><time>2026-04-17T15:44:16.001Z</time></trkpt><trkpt lat="42.64483434799355" lon="12.209625945128336"><ele>153.0</ele><time>2026-04-17T15:44:17.001Z</time></trkpt><trkpt lat="42.64483134003733" lon="12.20975002305182"><ele>152.0</ele><time>2026-04-17T15:44:18.001Z</time></trkpt><trkpt lat="42.644827021341534" lon="12.20984250380605"><ele>151.0</ele><time>2026-04-17T15:44:19.001Z</time></trkpt><trkpt lat="42.64482133787392" lon="12.20994787903621"><ele>150.0</ele><time>2026-04-17T15:44:21.001Z</time></trkpt><trkpt lat="42.64481201966974" lon="12.210038018677121"><ele>149.0</ele><time>2026-04-17T15:44:33.001Z</time></trkpt><trkpt lat="42.64499254957581" lon="12.210073481921574"><ele>148.83333333333331</ele><time>2026-04-17T15:44:35.001Z</time></trkpt><trkpt lat="42.64507043585497" lon="12.210095447238315"><ele>148.66666666666666</ele><time>2026-04-17T15:44:36.001Z</time></trkpt><trkpt lat="42.645150845199545" lon="12.21011660017045"><ele>148.5</ele><time>2026-04-17T15:44:37.001Z</time></trkpt><trkpt lat="42.64524695320397" lon="12.210137312018702"><ele>148.33333333333334</ele><time>2026-04-17T15:44:38.001Z</time></trkpt><trkpt lat="42.64533349361673" lon="12.210154909370956"><ele>148.16666666666669</ele><time>2026-04-17T15:44:39.001Z</time></trkpt><trkpt lat="42.645422872432505" lon="12.21017226692228"><ele>148.0</ele><time>2026-04-17T15:44:40.001Z</time></trkpt><trkpt lat="42.645522449063" lon="12.210197470151497"><ele>148.0</ele><time>2026-04-17T15:44:41.001Z</time></trkpt><trkpt lat="42.645635589319376" lon="12.210217561064967"><ele>148.0</ele><time>2026-04-17T15:44:42.001Z</time></trkpt><trkpt lat="42.64576429888293" lon="12.210238680721714"><ele>148.0</ele><time>2026-04-17T15:44:43.001Z</time></trkpt><trkpt lat="42.645895501829294" lon="12.21027385353991"><ele>148.0</ele><time>2026-04-17T15:44:44.001Z</time></trkpt><trkpt lat="42.646022429349216" lon="12.21029916832665"><ele>149.25</ele><time>2026-04-17T15:44:45.001Z</time></trkpt><trkpt lat="42.646155054664405" lon="12.210327636937235"><ele>150.5</ele><time>2026-04-17T15:44:46.001Z</time></trkpt><trkpt lat="42.64629778537052" lon="12.210353613354018"><ele>151.75</ele><time>2026-04-17T15:44:47.001Z</time></trkpt><trkpt lat="42.646441479332736" lon="12.210381589425294"><ele>153.0</ele><time>2026-04-17T15:44:48.002Z</time></trkpt><trkpt lat="42.64658618318935" lon="12.210410086314527"><ele>153.0</ele><time>2026-04-17T15:44:49.002Z</time></trkpt><trkpt lat="42.646735756918495" lon="12.210447148625212"><ele>153.0</ele><time>2026-04-17T15:44:50.002Z</time></trkpt><trkpt lat="42.64687038239585" lon="12.21047426938445"><ele>153.0</ele><time>2026-04-17T15:44:51.002Z</time></trkpt><trkpt lat="42.64698304079308" lon="12.210488904304476"><ele>153.0</ele><time>2026-04-17T15:44:52.002Z</time></trkpt><trkpt lat="42.647088967071916" lon="12.21047442540866"><ele>154.16666666666666</ele><time>2026-04-17T15:44:53.002Z</time></trkpt><trkpt lat="42.64718022520691" lon="12.21043640536136"><ele>155.33333333333334</ele><time>2026-04-17T15:44:54.002Z</time></trkpt><trkpt lat="42.647265580630005" lon="12.210383126420531"><ele>156.5</ele><time>2026-04-17T15:44:55.002Z</time></trkpt><trkpt lat="42.6473317232587" lon="12.210324731133236"><ele>157.66666666666669</ele><time>2026-04-17T15:44:56.002Z</time></trkpt><trkpt lat="42.647386212374755" lon="12.210265627220432"><ele>158.83333333333334</ele><time>2026-04-17T15:44:57.002Z</time></trkpt><trkpt lat="42.64743069843702" lon="12.210194459522167"><ele>160.0</ele><time>2026-04-17T15:44:58.002Z</time></trkpt><trkpt lat="42.647463459272245" lon="12.210107124053849"><ele>160.0</ele><time>2026-04-17T15:44:59Z</time></trkpt><trkpt lat="42.64749518081008" lon="12.210003233857424"><ele>160.0</ele><time>2026-04-17T15:45:00Z</time></trkpt><trkpt lat="42.647530955883624" lon="12.209896246753502"><ele>160.0</ele><time>2026-04-17T15:45:01Z</time></trkpt><trkpt lat="42.64756755422883" lon="12.209766880183683"><ele>160.0</ele><time>2026-04-17T15:45:02Z</time></trkpt><trkpt lat="42.647602899858576" lon="12.209625300033588"><ele>160.0</ele><time>2026-04-17T15:45:03Z</time></trkpt><trkpt lat="42.64764240805602" lon="12.20946315227499"><ele>161.0</ele><time>2026-04-17T15:45:04Z</time></trkpt><trkpt lat="42.647677129592694" lon="12.209301039014177"><ele>162.0</ele><time>2026-04-17T15:45:05Z</time></trkpt><trkpt lat="42.64771625537387" lon="12.209137880003459"><ele>163.0</ele><time>2026-04-17T15:45:06Z</time></trkpt><trkpt lat="42.64775794797635" lon="12.208973300989523"><ele>164.0</ele><time>2026-04-17T15:45:07Z</time></trkpt><trkpt lat="42.64780277899593" lon="12.208792727938123"><ele>166.75</ele><time>2026-04-17T15:45:08Z</time></trkpt><trkpt lat="42.64784468176695" lon="12.208629003726038"><ele>169.5</ele><time>2026-04-17T15:45:09Z</time></trkpt><trkpt lat="42.64788518587706" lon="12.208464402756565"><ele>172.25</ele><time>2026-04-17T15:45:10Z</time></trkpt><trkpt lat="42.647933691503326" lon="12.208311209570955"><ele>175.0</ele><time>2026-04-17T15:45:11Z</time></trkpt><trkpt lat="42.64799018005657" lon="12.208193278424437"><ele>177.0</ele><time>2026-04-17T15:45:12Z</time></trkpt><trkpt lat="42.648055821588" lon="12.20809718076379"><ele>179.0</ele><time>2026-04-17T15:45:13Z</time></trkpt><trkpt lat="42.648126894158736" lon="12.208015151264904"><ele>181.0</ele><time>2026-04-17T15:45:14Z</time></trkpt><trkpt lat="42.648206048480276" lon="12.207952280885854"><ele>183.0</ele><time>2026-04-17T15:45:15Z</time></trkpt><trkpt lat="42.64829117666261" lon="12.207916389924096"><ele>185.0</ele><time>2026-04-17T15:45:16Z</time></trkpt><trkpt lat="42.64837704702162" lon="12.207897669965657"><ele>185.0</ele><time>2026-04-17T15:45:17Z</time></trkpt><trkpt lat="42.648456352950525" lon="12.207890863394555"><ele>185.0</ele><time>2026-04-17T15:45:18Z</time></trkpt><trkpt lat="42.64852824348664" lon="12.20790665796674"><ele>185.0</ele><time>2026-04-17T15:45:19Z</time></trkpt><trkpt lat="42.6485944106766" lon="12.20794139845469"><ele>185.0</ele><time>2026-04-17T15:45:20Z</time></trkpt><trkpt lat="42.64865767084397" lon="12.207990337346423"><ele>185.0</ele><time>2026-04-17T15:45:21Z</time></trkpt><trkpt lat="42.64872238306532" lon="12.208045582958418"><ele>185.0</ele><time>2026-04-17T15:45:22Z</time></trkpt><trkpt lat="42.64878410536156" lon="12.208118199634546"><ele>185.33333333333331</ele><time>2026-04-17T15:45:23Z</time></trkpt><trkpt lat="42.6488446427376" lon="12.208199510355957"><ele>185.66666666666666</ele><time>2026-04-17T15:45:24Z</time></trkpt><trkpt lat="42.64890204983172" lon="12.20828915439495"><ele>186.0</ele><time>2026-04-17T15:45:25Z</time></trkpt><trkpt lat="42.6489648233186" lon="12.208379813354952"><ele>186.33333333333334</ele><time>2026-04-17T15:45:26Z</time></trkpt><trkpt lat="42.649029137327986" lon="12.208469286476104"><ele>186.66666666666669</ele><time>2026-04-17T15:45:27Z</time></trkpt><trkpt lat="42.649092678871945" lon="12.208555681271765"><ele>187.0</ele><time>2026-04-17T15:45:28Z</time></trkpt><trkpt lat="42.6491608236759" lon="12.208647130968576"><ele>187.0</ele><time>2026-04-17T15:45:29Z</time></trkpt><trkpt lat="42.649231119376765" lon="12.208745873028553"><ele>187.0</ele><time>2026-04-17T15:45:30Z</time></trkpt><trkpt lat="42.649308201755645" lon="12.208852491566118"><ele>187.0</ele><time>2026-04-17T15:45:31Z</time></trkpt><trkpt lat="42.649394013764" lon="12.208972276919477"><ele>187.0</ele><time>2026-04-17T15:45:32Z</time></trkpt><trkpt lat="42.649479346803375" lon="12.209093733761113"><ele>191.25</ele><time>2026-04-17T15:45:33Z</time></trkpt><trkpt lat="42.64956333235271" lon="12.209211231819994"><ele>195.5</ele><time>2026-04-17T15:45:34Z</time></trkpt><trkpt lat="42.64964565453097" lon="12.209318952331612"><ele>199.75</ele><time>2026-04-17T15:45:35Z</time></trkpt><trkpt lat="42.64973909065468" lon="12.209409379050728"><ele>204.0</ele><time>2026-04-17T15:45:36Z</time></trkpt><trkpt lat="42.649872198815764" lon="12.209454246536996"><ele>204.0</ele><time>2026-04-17T15:45:37Z</time></trkpt><trkpt lat="42.64999575840316" lon="12.209459979547518"><ele>204.0</ele><time>2026-04-17T15:45:38Z</time></trkpt><trkpt lat="42.650109840029955" lon="12.209398283657421"><ele>204.0</ele><time>2026-04-17T15:45:39Z</time></trkpt><trkpt lat="42.65020008407121" lon="12.20928670202672"><ele>204.0</ele><time>2026-04-17T15:45:40Z</time></trkpt><trkpt lat="42.65027075768393" lon="12.209138205854853"><ele>208.33333333333331</ele><time>2026-04-17T15:45:41Z</time></trkpt><trkpt lat="42.650293075924566" lon="12.20893854103902"><ele>212.66666666666666</ele><time>2026-04-17T15:45:42Z</time></trkpt><trkpt lat="42.65031497510943" lon="12.208727284304153"><ele>217.0</ele><time>2026-04-17T15:45:43Z</time></trkpt><trkpt lat="42.65035433062144" lon="12.208518632702571"><ele>217.0</ele><time>2026-04-17T15:45:44.001Z</time></trkpt><trkpt lat="42.65043446612276" lon="12.20831797010541"><ele>217.0</ele><time>2026-04-17T15:45:45.001Z</time></trkpt><trkpt lat="42.65054398106832" lon="12.208135621487335"><ele>217.0</ele><time>2026-04-17T15:45:46.001Z</time></trkpt><trkpt lat="42.650655077925336" lon="12.208005296482163"><ele>217.5</ele><time>2026-04-17T15:45:47.001Z</time></trkpt><trkpt lat="42.65078336557833" lon="12.207908722564211"><ele>218.0</ele><time>2026-04-17T15:45:48.001Z</time></trkpt><trkpt lat="42.650915949520424" lon="12.207822532953175"><ele>218.5</ele><time>2026-04-17T15:45:49.001Z</time></trkpt><trkpt lat="42.651044184646516" lon="12.207746137273919"><ele>219.0</ele><time>2026-04-17T15:45:50.001Z</time></trkpt><trkpt lat="42.65116770237422" lon="12.207670916345988"><ele>222.0</ele><time>2026-04-17T15:45:51.001Z</time></trkpt><trkpt lat="42.6512911746944" lon="12.207595688103696"><ele>225.0</ele><time>2026-04-17T15:45:52.001Z</time></trkpt><trkpt lat="42.651409190799" lon="12.207529201879234"><ele>228.0</ele><time>2026-04-17T15:45:53.001Z</time></trkpt><trkpt lat="42.651523466219665" lon="12.207458598158116"><ele>231.0</ele><time>2026-04-17T15:45:54.001Z</time></trkpt><trkpt lat="42.65163916479867" lon="12.207384885695935"><ele>231.25</ele><time>2026-04-17T15:45:55.001Z</time></trkpt><trkpt lat="42.65175819911078" lon="12.207307085011934"><ele>231.5</ele><time>2026-04-17T15:45:56.001Z</time></trkpt><trkpt lat="42.651872188211705" lon="12.20723265961263"><ele>231.75</ele><time>2026-04-17T15:45:57.001Z</time></trkpt><trkpt lat="42.65198393882356" lon="12.207161376893408"><ele>232.0</ele><time>2026-04-17T15:45:58.001Z</time></trkpt><trkpt lat="42.652092589723104" lon="12.207092692375616"><ele>233.25</ele><time>2026-04-17T15:45:59.001Z</time></trkpt><trkpt lat="42.65219785863727" lon="12.207030198472683"><ele>234.5</ele><time>2026-04-17T15:46:00.001Z</time></trkpt><trkpt lat="42.652290575451225" lon="12.206935423387923"><ele>235.75</ele><time>2026-04-17T15:46:01.001Z</time></trkpt><trkpt lat="42.65237795404741" lon="12.206839343958697"><ele>237.0</ele><time>2026-04-17T15:46:02.001Z</time></trkpt><trkpt lat="42.65245258018436" lon="12.206732199776665"><ele>237.0</ele><time>2026-04-17T15:46:03.001Z</time></trkpt><trkpt lat="42.65252019415689" lon="12.206628086154822"><ele>237.0</ele><time>2026-04-17T15:46:04.001Z</time></trkpt><trkpt lat="42.65257744429426" lon="12.206521985722711"><ele>237.0</ele><time>2026-04-17T15:46:05.001Z</time></trkpt><trkpt lat="42.65262670844084" lon="12.20641278143399"><ele>237.0</ele><time>2026-04-17T15:46:06.001Z</time></trkpt><trkpt lat="42.65266597362811" lon="12.206302914211474"><ele>237.0</ele><time>2026-04-17T15:46:07.001Z</time></trkpt><trkpt lat="42.65268647556386" lon="12.206213827949073"><ele>237.39999999999998</ele><time>2026-04-17T15:46:08.001Z</time></trkpt><trkpt lat="42.65271929760293" lon="12.206076885370278"><ele>237.79999999999998</ele><time>2026-04-17T15:46:10.001Z</time></trkpt><trkpt lat="42.65274303550331" lon="12.205933863738604"><ele>238.2</ele><time>2026-04-17T15:46:12.001Z</time></trkpt><trkpt lat="42.65275750653363" lon="12.205762373900402"><ele>238.6</ele><time>2026-04-17T15:46:14.001Z</time></trkpt><trkpt lat="42.652759343465036" lon="12.205670893842317"><ele>239.0</ele><time>2026-04-17T15:46:15.001Z</time></trkpt><trkpt lat="42.65275809432099" lon="12.205578774250498"><ele>239.83333333333334</ele><time>2026-04-17T15:46:16.001Z</time></trkpt><trkpt lat="42.65275314331822" lon="12.2054918831409"><ele>240.66666666666669</ele><time>2026-04-17T15:46:17.001Z</time></trkpt><trkpt lat="42.65274132964906" lon="12.205315622752579"><ele>241.5</ele><time>2026-04-17T15:46:19.001Z</time></trkpt><trkpt lat="42.65273529341001" lon="12.205228682524796"><ele>242.33333333333331</ele><time>2026-04-17T15:46:20.001Z</time></trkpt><trkpt lat="42.652729719352266" lon="12.205132069577001"><ele>243.16666666666666</ele><time>2026-04-17T15:46:21.001Z</time></trkpt><trkpt lat="42.65272196812314" lon="12.20503352894525"><ele>244.0</ele><time>2026-04-17T15:46:22.001Z</time></trkpt><trkpt lat="42.65271599955114" lon="12.204926967341434"><ele>245.0</ele><time>2026-04-17T15:46:23.001Z</time></trkpt><trkpt lat="42.65270868751547" lon="12.204818140110362"><ele>245.99999999999997</ele><time>2026-04-17T15:46:24.001Z</time></trkpt><trkpt lat="42.652705912249694" lon="12.204685253862086"><ele>246.99999999999997</ele><time>2026-04-17T15:46:25.001Z</time></trkpt><trkpt lat="42.65269762664787" lon="12.204529956572195"><ele>248.0</ele><time>2026-04-17T15:46:26.001Z</time></trkpt><trkpt lat="42.652687084102666" lon="12.204368614835605"><ele>249.0</ele><time>2026-04-17T15:46:27.001Z</time></trkpt><trkpt lat="42.65267783081901" lon="12.204204542426098"><ele>249.0</ele><time>2026-04-17T15:46:28.001Z</time></trkpt><trkpt lat="42.65266577536717" lon="12.204048594575578"><ele>249.0</ele><time>2026-04-17T15:46:29.001Z</time></trkpt><trkpt lat="42.652655353497806" lon="12.203883134400106"><ele>249.0</ele><time>2026-04-17T15:46:30.001Z</time></trkpt><trkpt lat="42.65265209254845" lon="12.20371203518641"><ele>249.0</ele><time>2026-04-17T15:46:31.001Z</time></trkpt><trkpt lat="42.6526382792046" lon="12.2035227130893"><ele>250.0</ele><time>2026-04-17T15:46:32.001Z</time></trkpt><trkpt lat="42.65262682309172" lon="12.203331169868866"><ele>251.0</ele><time>2026-04-17T15:46:33.001Z</time></trkpt><trkpt lat="42.65262224155406" lon="12.203140534251029"><ele>252.0</ele><time>2026-04-17T15:46:34.001Z</time></trkpt><trkpt lat="42.652611432800946" lon="12.20295241501176"><ele>253.0</ele><time>2026-04-17T15:46:35.001Z</time></trkpt><trkpt lat="42.652602194276255" lon="12.202767412450289"><ele>253.75</ele><time>2026-04-17T15:46:36.001Z</time></trkpt><trkpt lat="42.65259303387707" lon="12.202583411916612"><ele>254.5</ele><time>2026-04-17T15:46:37.001Z</time></trkpt><trkpt lat="42.65258093521573" lon="12.202404533206485"><ele>255.25</ele><time>2026-04-17T15:46:38.001Z</time></trkpt><trkpt lat="42.65256864958574" lon="12.202227345170927"><ele>256.0</ele><time>2026-04-17T15:46:39.001Z</time></trkpt><trkpt lat="42.65255648561512" lon="12.202042571488985"><ele>256.0</ele><time>2026-04-17T15:46:40.002Z</time></trkpt><trkpt lat="42.652546268848575" lon="12.20185346472393"><ele>256.0</ele><time>2026-04-17T15:46:41.002Z</time></trkpt><trkpt lat="42.65253442481726" lon="12.20165730759384"><ele>256.0</ele><time>2026-04-17T15:46:42.002Z</time></trkpt><trkpt lat="42.65252568624671" lon="12.201469739160075"><ele>256.0</ele><time>2026-04-17T15:46:43.002Z</time></trkpt><trkpt lat="42.65251710437754" lon="12.20129595393459"><ele>255.4</ele><time>2026-04-17T15:46:44.002Z</time></trkpt><trkpt lat="42.65250428016921" lon="12.201128092451793"><ele>254.8</ele><time>2026-04-17T15:46:45.002Z</time></trkpt><trkpt lat="42.65249401640571" lon="12.200966939286173"><ele>254.20000000000002</ele><time>2026-04-17T15:46:46.002Z</time></trkpt><trkpt lat="42.652485042747415" lon="12.200828943361472"><ele>253.60000000000002</ele><time>2026-04-17T15:46:47.002Z</time></trkpt><trkpt lat="42.65249128790543" lon="12.200706933131038"><ele>253.0</ele><time>2026-04-17T15:46:48.002Z</time></trkpt><trkpt lat="42.65248631452864" lon="12.200615948726874"><ele>253.0</ele><time>2026-04-17T15:46:49.002Z</time></trkpt><trkpt lat="42.652481025828926" lon="12.200519193831774"><ele>253.0</ele><time>2026-04-17T15:46:51.002Z</time></trkpt><trkpt lat="42.65234252598572" lon="12.200599962646328"><ele>253.0</ele><time>2026-04-17T15:46:54.002Z</time></trkpt><trkpt lat="42.6523230293543" lon="12.200689507790297"><ele>253.0</ele><time>2026-04-17T15:48:08.001Z</time></trkpt><trkpt lat="42.65235893224785" lon="12.20061368380541"><ele>253.0</ele><time>2026-04-17T15:48:13.001Z</time></trkpt><trkpt lat="42.652435822002836" lon="12.200528677840175"><ele>252.66666666666666</ele><time>2026-04-17T15:48:18.001Z</time></trkpt><trkpt lat="42.652505930439986" lon="12.200365395839567"><ele>252.33333333333331</ele><time>2026-04-17T15:48:31.001Z</time></trkpt><trkpt lat="42.65249487307189" lon="12.200261947567967"><ele>252.0</ele><time>2026-04-17T15:50:01.001Z</time></trkpt><trkpt lat="42.65251410446655" lon="12.200176458060229"><ele>251.66666666666669</ele><time>2026-04-17T15:50:04.001Z</time></trkpt><trkpt lat="42.65251877283957" lon="12.200067514900969"><ele>251.33333333333334</ele><time>2026-04-17T15:52:07.001Z</time></trkpt><trkpt lat="42.6525380724917" lon="12.199964929565706"><ele>251.0</ele><time>2026-04-17T15:52:09.001Z</time></trkpt><trkpt lat="42.65256676668605" lon="12.199845325645555"><ele>251.8</ele><time>2026-04-17T15:52:11.001Z</time></trkpt><trkpt lat="42.65260952331145" lon="12.199685504553424"><ele>252.60000000000002</ele><time>2026-04-17T15:52:13.001Z</time></trkpt><trkpt lat="42.6526362079291" lon="12.199581816805868"><ele>253.4</ele><time>2026-04-17T15:52:14.001Z</time></trkpt><trkpt lat="42.65266391411742" lon="12.199467452368117"><ele>254.2</ele><time>2026-04-17T15:52:15.001Z</time></trkpt><trkpt lat="42.65269377909613" lon="12.199348881100983"><ele>255.0</ele><time>2026-04-17T15:52:16.001Z</time></trkpt><trkpt lat="42.6527272096287" lon="12.199223406353473"><ele>255.0</ele><time>2026-04-17T15:52:17.001Z</time></trkpt><trkpt lat="42.65276114563814" lon="12.19909643433997"><ele>255.0</ele><time>2026-04-17T15:52:18.001Z</time></trkpt><trkpt lat="42.65279478586336" lon="12.198963005766617"><ele>255.0</ele><time>2026-04-17T15:52:19.001Z</time></trkpt><trkpt lat="42.65283011058477" lon="12.19882034097653"><ele>255.0</ele><time>2026-04-17T15:52:20.001Z</time></trkpt><trkpt lat="42.652867589672645" lon="12.198671118815275"><ele>255.0</ele><time>2026-04-17T15:52:21.001Z</time></trkpt><trkpt lat="42.65291003065052" lon="12.198521940299843"><ele>254.0</ele><time>2026-04-17T15:52:22.001Z</time></trkpt><trkpt lat="42.652955343392975" lon="12.198365261451185"><ele>253.0</ele><time>2026-04-17T15:52:23.001Z</time></trkpt><trkpt lat="42.653000255001466" lon="12.198201619981617"><ele>252.0</ele><time>2026-04-17T15:52:24.001Z</time></trkpt><trkpt lat="42.653043482758" lon="12.198032691141906"><ele>251.0</ele><time>2026-04-17T15:52:25.001Z</time></trkpt><trkpt lat="42.65308836723271" lon="12.197860940251916"><ele>251.0</ele><time>2026-04-17T15:52:26.001Z</time></trkpt><trkpt lat="42.653136020888994" lon="12.197686628000715"><ele>251.0</ele><time>2026-04-17T15:52:27.001Z</time></trkpt><trkpt lat="42.65318306134201" lon="12.19751522628499"><ele>251.0</ele><time>2026-04-17T15:52:28.001Z</time></trkpt><trkpt lat="42.653230249763986" lon="12.197345672736782"><ele>251.0</ele><time>2026-04-17T15:52:29.001Z</time></trkpt><trkpt lat="42.65327845285644" lon="12.197176149742404"><ele>252.0</ele><time>2026-04-17T15:52:30.001Z</time></trkpt><trkpt lat="42.65332983699489" lon="12.196997101622745"><ele>253.0</ele><time>2026-04-17T15:52:31.001Z</time></trkpt><trkpt lat="42.65339014641691" lon="12.19681893579277"><ele>254.0</ele><time>2026-04-17T15:52:32.001Z</time></trkpt><trkpt lat="42.65345915229959" lon="12.19664123215456"><ele>255.0</ele><time>2026-04-17T15:52:33.001Z</time></trkpt><trkpt lat="42.65353630671501" lon="12.19646501601706"><ele>255.33333333333331</ele><time>2026-04-17T15:52:34.001Z</time></trkpt><trkpt lat="42.65362180557003" lon="12.196293441802357"><ele>255.66666666666666</ele><time>2026-04-17T15:52:35.001Z</time></trkpt><trkpt lat="42.6537147653868" lon="12.196120347711306"><ele>256.0</ele><time>2026-04-17T15:52:36.001Z</time></trkpt><trkpt lat="42.65380944411282" lon="12.195944808991703"><ele>256.0</ele><time>2026-04-17T15:52:37.001Z</time></trkpt><trkpt lat="42.65390725669025" lon="12.195768918975054"><ele>256.0</ele><time>2026-04-17T15:52:38.001Z</time></trkpt><trkpt lat="42.654012900664235" lon="12.195593538489131"><ele>256.0</ele><time>2026-04-17T15:52:39.001Z</time></trkpt><trkpt lat="42.65413087287031" lon="12.19542227191234"><ele>255.66666666666666</ele><time>2026-04-17T15:52:40.001Z</time></trkpt><trkpt lat="42.65425395903688" lon="12.195270593799375"><ele>255.33333333333331</ele><time>2026-04-17T15:52:41.001Z</time></trkpt><trkpt lat="42.65437949264273" lon="12.195136000509407"><ele>255.0</ele><time>2026-04-17T15:52:42.001Z</time></trkpt><trkpt lat="42.65451348116557" lon="12.195012728787887"><ele>256.3333333333333</ele><time>2026-04-17T15:52:43.001Z</time></trkpt><trkpt lat="42.654656007510866" lon="12.194898911935367"><ele>257.66666666666663</ele><time>2026-04-17T15:52:44.002Z</time></trkpt><trkpt lat="42.65479354659977" lon="12.19479320460694"><ele>259.0</ele><time>2026-04-17T15:52:45.002Z</time></trkpt><trkpt lat="42.65493101431785" lon="12.194685887875432"><ele>259.0</ele><time>2026-04-17T15:52:46.002Z</time></trkpt><trkpt lat="42.65508004948754" lon="12.194577443657654"><ele>259.0</ele><time>2026-04-17T15:52:47.002Z</time></trkpt><trkpt lat="42.6552398317717" lon="12.194473564941122"><ele>259.0</ele><time>2026-04-17T15:52:48.002Z</time></trkpt><trkpt lat="42.65540974960028" lon="12.194381070450149"><ele>261.0</ele><time>2026-04-17T15:52:49.002Z</time></trkpt><trkpt lat="42.65558353315204" lon="12.194295553482483"><ele>263.0</ele><time>2026-04-17T15:52:50.002Z</time></trkpt><trkpt lat="42.65576681248806" lon="12.194228032414468"><ele>265.0</ele><time>2026-04-17T15:52:51.002Z</time></trkpt><trkpt lat="42.65595070429279" lon="12.194149504055794"><ele>268.0</ele><time>2026-04-17T15:52:52.002Z</time></trkpt><trkpt lat="42.65613715686023" lon="12.194078629243739"><ele>271.0</ele><time>2026-04-17T15:52:53.002Z</time></trkpt><trkpt lat="42.65632306919328" lon="12.194031491614759"><ele>274.0</ele><time>2026-04-17T15:52:54.002Z</time></trkpt><trkpt lat="42.65650849147305" lon="12.193962850708788"><ele>274.0</ele><time>2026-04-17T15:52:55.002Z</time></trkpt><trkpt lat="42.656697655812636" lon="12.193891588655479"><ele>274.0</ele><time>2026-04-17T15:52:56.002Z</time></trkpt><trkpt lat="42.65688554746892" lon="12.193818768134532"><ele>274.0</ele><time>2026-04-17T15:52:57.002Z</time></trkpt><trkpt lat="42.65707255166913" lon="12.193741404270334"><ele>274.66666666666663</ele><time>2026-04-17T15:52:58.002Z</time></trkpt><trkpt lat="42.65726470824862" lon="12.193644200783849"><ele>275.3333333333333</ele><time>2026-04-17T15:52:59.002Z</time></trkpt><trkpt lat="42.65745905860239" lon="12.193528247395157"><ele>276.0</ele><time>2026-04-17T15:53:00.002Z</time></trkpt><trkpt lat="42.65764420002138" lon="12.193388867208144"><ele>277.0</ele><time>2026-04-17T15:53:01.002Z</time></trkpt><trkpt lat="42.657824631404765" lon="12.193252768984578"><ele>278.0</ele><time>2026-04-17T15:53:02.002Z</time></trkpt><trkpt lat="42.65800458816855" lon="12.193114548389335"><ele>279.0</ele><time>2026-04-17T15:53:03.002Z</time></trkpt><trkpt lat="42.6581943268395" lon="12.192966285112565"><ele>279.0</ele><time>2026-04-17T15:53:04.002Z</time></trkpt><trkpt lat="42.65837400627961" lon="12.192791188922772"><ele>279.0</ele><time>2026-04-17T15:53:05.002Z</time></trkpt><trkpt lat="42.65855311487021" lon="12.192636404646773"><ele>279.0</ele><time>2026-04-17T15:53:06.002Z</time></trkpt><trkpt lat="42.658725825538966" lon="12.192477974751116"><ele>280.6666666666667</ele><time>2026-04-17T15:53:07.002Z</time></trkpt><trkpt lat="42.658891197071924" lon="12.192322612575664"><ele>282.33333333333337</ele><time>2026-04-17T15:53:08.002Z</time></trkpt><trkpt lat="42.65904758074825" lon="12.192158905631459"><ele>284.0</ele><time>2026-04-17T15:53:09.002Z</time></trkpt><trkpt lat="42.659198778177085" lon="12.191998688698934"><ele>284.0</ele><time>2026-04-17T15:53:10.002Z</time></trkpt><trkpt lat="42.65934618073464" lon="12.191839995475442"><ele>284.0</ele><time>2026-04-17T15:53:11.002Z</time></trkpt><trkpt lat="42.6594776384385" lon="12.191694920606638"><ele>284.0</ele><time>2026-04-17T15:53:12.002Z</time></trkpt><trkpt lat="42.65960550760583" lon="12.191547936663198"><ele>285.6666666666667</ele><time>2026-04-17T15:53:13.002Z</time></trkpt><trkpt lat="42.65973794879314" lon="12.191402390097167"><ele>287.3333333333333</ele><time>2026-04-17T15:53:14.002Z</time></trkpt><trkpt lat="42.65987813364909" lon="12.191252994200347"><ele>289.0</ele><time>2026-04-17T15:53:15.002Z</time></trkpt><trkpt lat="42.6600201558051" lon="12.1911021175396"><ele>289.0</ele><time>2026-04-17T15:53:16.002Z</time></trkpt><trkpt lat="42.660167539918156" lon="12.190941328708753"><ele>289.0</ele><time>2026-04-17T15:53:17.002Z</time></trkpt><trkpt lat="42.66031712918205" lon="12.190774115173527"><ele>289.0</ele><time>2026-04-17T15:53:18.002Z</time></trkpt><trkpt lat="42.66047021202324" lon="12.190601637751053"><ele>292.3333333333333</ele><time>2026-04-17T15:53:19.002Z</time></trkpt><trkpt lat="42.660626263910366" lon="12.19042971456023"><ele>295.6666666666667</ele><time>2026-04-17T15:53:20.002Z</time></trkpt><trkpt lat="42.66078192496312" lon="12.190261612148632"><ele>299.0</ele><time>2026-04-17T15:53:21.002Z</time></trkpt><trkpt lat="42.660934202266915" lon="12.190094588959878"><ele>299.0</ele><time>2026-04-17T15:53:22.001Z</time></trkpt><trkpt lat="42.66108823038942" lon="12.189927557012826"><ele>299.0</ele><time>2026-04-17T15:53:23.001Z</time></trkpt><trkpt lat="42.661236916056424" lon="12.18976999225648"><ele>299.0</ele><time>2026-04-17T15:53:24.001Z</time></trkpt><trkpt lat="42.66136903074197" lon="12.18962997640374"><ele>301.0</ele><time>2026-04-17T15:53:25.001Z</time></trkpt><trkpt lat="42.66149786315137" lon="12.189496317129304"><ele>303.0</ele><time>2026-04-17T15:53:26.001Z</time></trkpt><trkpt lat="42.66163281773632" lon="12.18936433993825"><ele>305.0</ele><time>2026-04-17T15:53:27.001Z</time></trkpt><trkpt lat="42.661769680785916" lon="12.189232149545889"><ele>305.0</ele><time>2026-04-17T15:53:28Z</time></trkpt><trkpt lat="42.66190742903182" lon="12.189110283199096"><ele>305.0</ele><time>2026-04-17T15:53:29Z</time></trkpt><trkpt lat="42.66204285688808" lon="12.189008644146716"><ele>305.0</ele><time>2026-04-17T15:53:30Z</time></trkpt><trkpt lat="42.66218047859852" lon="12.18892640447185"><ele>305.6666666666667</ele><time>2026-04-17T15:53:31Z</time></trkpt><trkpt lat="42.66234005528372" lon="12.188826590874191"><ele>306.3333333333333</ele><time>2026-04-17T15:53:32Z</time></trkpt><trkpt lat="42.662490013411926" lon="12.18872485830589"><ele>307.0</ele><time>2026-04-17T15:53:33Z</time></trkpt><trkpt lat="42.662673167117006" lon="12.188634485546803"><ele>304.0</ele><time>2026-04-17T15:53:34Z</time></trkpt><trkpt lat="42.66285349473917" lon="12.188509833624654"><ele>301.0</ele><time>2026-04-17T15:53:35Z</time></trkpt><trkpt lat="42.66302753834948" lon="12.188410042394391"><ele>298.0</ele><time>2026-04-17T15:53:36Z</time></trkpt><trkpt lat="42.663199439124156" lon="12.188302556028443"><ele>298.0</ele><time>2026-04-17T15:53:37Z</time></trkpt><trkpt lat="42.663372118136586" lon="12.188182435703121"><ele>298.0</ele><time>2026-04-17T15:53:38Z</time></trkpt><trkpt lat="42.66354371943747" lon="12.188041296753518"><ele>298.0</ele><time>2026-04-17T15:53:39Z</time></trkpt><trkpt lat="42.663708099604506" lon="12.187899909085875"><ele>296.66666666666663</ele><time>2026-04-17T15:53:40Z</time></trkpt><trkpt lat="42.66386970807309" lon="12.187749660563973"><ele>295.3333333333333</ele><time>2026-04-17T15:53:41Z</time></trkpt><trkpt lat="42.66402703179818" lon="12.187606707666747"><ele>294.0</ele><time>2026-04-17T15:53:42Z</time></trkpt><trkpt lat="42.66419096429497" lon="12.187459861131561"><ele>292.0</ele><time>2026-04-17T15:53:43Z</time></trkpt><trkpt lat="42.664355406544544" lon="12.187305856625853"><ele>290.0</ele><time>2026-04-17T15:53:44Z</time></trkpt><trkpt lat="42.664521207835996" lon="12.187147918152332"><ele>288.0</ele><time>2026-04-17T15:53:45Z</time></trkpt><trkpt lat="42.664689488892634" lon="12.186994689726069"><ele>288.0</ele><time>2026-04-17T15:53:46Z</time></trkpt><trkpt lat="42.66486268466427" lon="12.186841727786563"><ele>288.0</ele><time>2026-04-17T15:53:47Z</time></trkpt><trkpt lat="42.66503740471799" lon="12.18668826362897"><ele>288.0</ele><time>2026-04-17T15:53:48Z</time></trkpt><trkpt lat="42.66521458439038" lon="12.186524711731762"><ele>289.0</ele><time>2026-04-17T15:53:49Z</time></trkpt><trkpt lat="42.66540340896419" lon="12.186356481035178"><ele>290.0</ele><time>2026-04-17T15:53:50Z</time></trkpt><trkpt lat="42.66559318472376" lon="12.186187145868534"><ele>290.0</ele><time>2026-04-17T15:53:51Z</time></trkpt><trkpt lat="42.66578228238107" lon="12.186019399424342"><ele>290.0</ele><time>2026-04-17T15:53:52Z</time></trkpt><trkpt lat="42.66597114752847" lon="12.185846828480383"><ele>292.0</ele><time>2026-04-17T15:53:53Z</time></trkpt><trkpt lat="42.66615572468031" lon="12.18567845455705"><ele>294.0</ele><time>2026-04-17T15:53:54Z</time></trkpt><trkpt lat="42.66633752023006" lon="12.18551229587155"><ele>296.0</ele><time>2026-04-17T15:53:55Z</time></trkpt><trkpt lat="42.66651764264899" lon="12.185346950289615"><ele>296.0</ele><time>2026-04-17T15:53:56Z</time></trkpt><trkpt lat="42.66669702602266" lon="12.185178037041373"><ele>296.0</ele><time>2026-04-17T15:53:57Z</time></trkpt><trkpt lat="42.66687239580197" lon="12.184998175234478"><ele>296.0</ele><time>2026-04-17T15:53:58.001Z</time></trkpt><trkpt lat="42.667041515893594" lon="12.184800433868956"><ele>298.0</ele><time>2026-04-17T15:53:59.001Z</time></trkpt><trkpt lat="42.66719659359289" lon="12.184569226917093"><ele>300.0</ele><time>2026-04-17T15:54:00.001Z</time></trkpt><trkpt lat="42.66734338645273" lon="12.184315932163356"><ele>300.0</ele><time>2026-04-17T15:54:01.001Z</time></trkpt><trkpt lat="42.667491678776216" lon="12.184067380485063"><ele>300.0</ele><time>2026-04-17T15:54:02.001Z</time></trkpt><trkpt lat="42.667623583835436" lon="12.183841063496857"><ele>300.0</ele><time>2026-04-17T15:54:03.001Z</time></trkpt><trkpt lat="42.66774780004985" lon="12.183604087118901"><ele>299.6666666666667</ele><time>2026-04-17T15:54:04.001Z</time></trkpt><trkpt lat="42.667867723108465" lon="12.183357437643553"><ele>299.33333333333337</ele><time>2026-04-17T15:54:05.001Z</time></trkpt><trkpt lat="42.66798545174333" lon="12.183103015932804"><ele>299.0</ele><time>2026-04-17T15:54:06.001Z</time></trkpt><trkpt lat="42.66810318897337" lon="12.182849427692341"><ele>299.6666666666667</ele><time>2026-04-17T15:54:07.001Z</time></trkpt><trkpt lat="42.668222233798545" lon="12.182601822935641"><ele>300.3333333333333</ele><time>2026-04-17T15:54:08.001Z</time></trkpt><trkpt lat="42.66834198520153" lon="12.182367311250829"><ele>301.0</ele><time>2026-04-17T15:54:09.001Z</time></trkpt><trkpt lat="42.668474010121216" lon="12.182143317196449"><ele>301.66666666666663</ele><time>2026-04-17T15:54:10.001Z</time></trkpt><trkpt lat="42.66862375565049" lon="12.181930313800637"><ele>302.3333333333333</ele><time>2026-04-17T15:54:11.001Z</time></trkpt><trkpt lat="42.668795274944095" lon="12.181725671376059"><ele>303.0</ele><time>2026-04-17T15:54:12.001Z</time></trkpt><trkpt lat="42.66898795777307" lon="12.181531648922277"><ele>304.5</ele><time>2026-04-17T15:54:13.001Z</time></trkpt><trkpt lat="42.66917923401864" lon="12.181341860937213"><ele>306.0</ele><time>2026-04-17T15:54:14.001Z</time></trkpt><trkpt lat="42.669358254829284" lon="12.18114737576321"><ele>306.6666666666667</ele><time>2026-04-17T15:54:15.001Z</time></trkpt><trkpt lat="42.669522374048654" lon="12.180970598543032"><ele>307.33333333333337</ele><time>2026-04-17T15:54:16.001Z</time></trkpt><trkpt lat="42.669677511421035" lon="12.180802456652891"><ele>308.0</ele><time>2026-04-17T15:54:17.001Z</time></trkpt><trkpt lat="42.66983090652048" lon="12.18063350269527"><ele>308.0</ele><time>2026-04-17T15:54:18.001Z</time></trkpt><trkpt lat="42.66998332018367" lon="12.180461019504369"><ele>308.0</ele><time>2026-04-17T15:54:19.001Z</time></trkpt><trkpt lat="42.67013547577233" lon="12.180289147798437"><ele>308.0</ele><time>2026-04-17T15:54:20.001Z</time></trkpt><trkpt lat="42.670280447785615" lon="12.180126345068905"><ele>309.6666666666667</ele><time>2026-04-17T15:54:21.001Z</time></trkpt><trkpt lat="42.67041718505285" lon="12.17997624074119"><ele>311.3333333333333</ele><time>2026-04-17T15:54:22.001Z</time></trkpt><trkpt lat="42.67055129838713" lon="12.179845537421194"><ele>313.0</ele><time>2026-04-17T15:54:23.001Z</time></trkpt><trkpt lat="42.67069363464225" lon="12.179766485925198"><ele>313.0</ele><time>2026-04-17T15:54:24.001Z</time></trkpt><trkpt lat="42.670814482825875" lon="12.179663240345693"><ele>313.0</ele><time>2026-04-17T15:54:25.001Z</time></trkpt><trkpt lat="42.67093354446707" lon="12.17959066314693"><ele>313.0</ele><time>2026-04-17T15:54:26.001Z</time></trkpt><trkpt lat="42.67104514454301" lon="12.179522088897361"><ele>313.0</ele><time>2026-04-17T15:54:27.001Z</time></trkpt><trkpt lat="42.67114504864668" lon="12.179457500042428"><ele>314.5</ele><time>2026-04-17T15:54:28.001Z</time></trkpt><trkpt lat="42.67123175675539" lon="12.179399723956951"><ele>316.0</ele><time>2026-04-17T15:54:29.001Z</time></trkpt><trkpt lat="42.67130377902118" lon="12.179374766165823"><ele>317.5</ele><time>2026-04-17T15:54:30.001Z</time></trkpt><trkpt lat="42.671249054793655" lon="12.179142128554947"><ele>319.0</ele><time>2026-04-17T15:54:32.001Z</time></trkpt><trkpt lat="42.67117584837325" lon="12.179037632761363"><ele>318.25</ele><time>2026-04-17T15:54:33.001Z</time></trkpt><trkpt lat="42.6711085539401" lon="12.17895457702723"><ele>317.5</ele><time>2026-04-17T15:54:34.001Z</time></trkpt><trkpt lat="42.671044640079984" lon="12.17885008533057"><ele>316.75</ele><time>2026-04-17T15:54:35.001Z</time></trkpt><trkpt lat="42.6709637825373" lon="12.17871557239814"><ele>316.0</ele><time>2026-04-17T15:54:36.001Z</time></trkpt><trkpt lat="42.67087983251292" lon="12.17856468687732"><ele>315.3333333333333</ele><time>2026-04-17T15:54:37.001Z</time></trkpt><trkpt lat="42.67080230326802" lon="12.178394882926389"><ele>314.6666666666667</ele><time>2026-04-17T15:54:38.001Z</time></trkpt><trkpt lat="42.670748233963145" lon="12.17819909153628"><ele>314.0</ele><time>2026-04-17T15:54:39.001Z</time></trkpt><trkpt lat="42.67071759315359" lon="12.177969189557876"><ele>313.0</ele><time>2026-04-17T15:54:40.001Z</time></trkpt><trkpt lat="42.67071197764251" lon="12.177725256830634"><ele>312.0</ele><time>2026-04-17T15:54:41.001Z</time></trkpt><trkpt lat="42.67072434679565" lon="12.177470904206148"><ele>311.0</ele><time>2026-04-17T15:54:42.001Z</time></trkpt><trkpt lat="42.670736293047916" lon="12.177208760421356"><ele>310.0</ele><time>2026-04-17T15:54:43.001Z</time></trkpt><trkpt lat="42.670748385266734" lon="12.176941888646759"><ele>309.0</ele><time>2026-04-17T15:54:44.001Z</time></trkpt><trkpt lat="42.67075770330776" lon="12.17668643860829"><ele>308.0</ele><time>2026-04-17T15:54:45.001Z</time></trkpt><trkpt lat="42.670762914557464" lon="12.17643542871678"><ele>308.0</ele><time>2026-04-17T15:54:46.001Z</time></trkpt><trkpt lat="42.670774744614405" lon="12.17616838006853"><ele>308.0</ele><time>2026-04-17T15:54:47.001Z</time></trkpt><trkpt lat="42.6707867194028" lon="12.175905122829283"><ele>308.0</ele><time>2026-04-17T15:54:48.001Z</time></trkpt><trkpt lat="42.67079657821596" lon="12.1756383717497"><ele>308.0</ele><time>2026-04-17T15:54:49.001Z</time></trkpt><trkpt lat="42.67080590872872" lon="12.175368516757914"><ele>308.0</ele><time>2026-04-17T15:54:50.001Z</time></trkpt><trkpt lat="42.6708139799481" lon="12.17510404295987"><ele>308.0</ele><time>2026-04-17T15:54:51.001Z</time></trkpt><trkpt lat="42.67082995777459" lon="12.17484182601574"><ele>307.33333333333337</ele><time>2026-04-17T15:54:52.001Z</time></trkpt><trkpt lat="42.67083739264587" lon="12.174577991981028"><ele>306.6666666666667</ele><time>2026-04-17T15:54:53.001Z</time></trkpt><trkpt lat="42.67084516152402" lon="12.174315087757206"><ele>306.0</ele><time>2026-04-17T15:54:54.001Z</time></trkpt><trkpt lat="42.67085416247885" lon="12.174061649254076"><ele>307.0</ele><time>2026-04-17T15:54:55.001Z</time></trkpt><trkpt lat="42.67086562692952" lon="12.17382077297496"><ele>308.0</ele><time>2026-04-17T15:54:56.001Z</time></trkpt><trkpt lat="42.67087510601833" lon="12.173587099002168"><ele>309.0</ele><time>2026-04-17T15:54:57.001Z</time></trkpt><trkpt lat="42.67088299237102" lon="12.173341684231627"><ele>308.6666666666667</ele><time>2026-04-17T15:54:58.001Z</time></trkpt><trkpt lat="42.670882236782454" lon="12.173092109881177"><ele>308.33333333333337</ele><time>2026-04-17T15:54:59.001Z</time></trkpt><trkpt lat="42.6708695169292" lon="12.172833844663158"><ele>308.0</ele><time>2026-04-17T15:55:00.001Z</time></trkpt><trkpt lat="42.670839918015076" lon="12.172576638854066"><ele>308.6666666666667</ele><time>2026-04-17T15:55:01.001Z</time></trkpt><trkpt lat="42.670793044752614" lon="12.172329675716387"><ele>309.3333333333333</ele><time>2026-04-17T15:55:02.001Z</time></trkpt><trkpt lat="42.67073334104813" lon="12.172088101228779"><ele>310.0</ele><time>2026-04-17T15:55:03.001Z</time></trkpt><trkpt lat="42.67067786493481" lon="12.171848991213723"><ele>310.0</ele><time>2026-04-17T15:55:04.001Z</time></trkpt><trkpt lat="42.67062657432523" lon="12.17162198474346"><ele>310.0</ele><time>2026-04-17T15:55:05.001Z</time></trkpt><trkpt lat="42.670574612624975" lon="12.171395652596424"><ele>310.0</ele><time>2026-04-17T15:55:06.001Z</time></trkpt><trkpt lat="42.67052467752104" lon="12.171163411303775"><ele>311.0</ele><time>2026-04-17T15:55:07.001Z</time></trkpt><trkpt lat="42.670474495494446" lon="12.170928949197876"><ele>312.0</ele><time>2026-04-17T15:55:08.001Z</time></trkpt><trkpt lat="42.67042221853573" lon="12.170698342946338"><ele>313.0</ele><time>2026-04-17T15:55:09.001Z</time></trkpt><trkpt lat="42.67036775773484" lon="12.170474509318037"><ele>313.66666666666663</ele><time>2026-04-17T15:55:10.001Z</time></trkpt><trkpt lat="42.670312988236326" lon="12.170248959279993"><ele>314.3333333333333</ele><time>2026-04-17T15:55:11.001Z</time></trkpt><trkpt lat="42.670261106840044" lon="12.170030099596936"><ele>315.0</ele><time>2026-04-17T15:55:12.001Z</time></trkpt><trkpt lat="42.670208634767235" lon="12.169814135816726"><ele>315.3333333333333</ele><time>2026-04-17T15:55:13.001Z</time></trkpt><trkpt lat="42.67015960739233" lon="12.169599040255997"><ele>315.66666666666663</ele><time>2026-04-17T15:55:14.001Z</time></trkpt><trkpt lat="42.670103984394764" lon="12.16938116571576"><ele>316.0</ele><time>2026-04-17T15:55:15.001Z</time></trkpt><trkpt lat="42.67005045424767" lon="12.169172596143303"><ele>315.0</ele><time>2026-04-17T15:55:16.001Z</time></trkpt><trkpt lat="42.670010379902095" lon="12.168973022373414"><ele>314.0</ele><time>2026-04-17T15:55:17.001Z</time></trkpt><trkpt lat="42.66999050000545" lon="12.168783902629086"><ele>313.0</ele><time>2026-04-17T15:55:18.001Z</time></trkpt><trkpt lat="42.670003473951" lon="12.168596722533866"><ele>312.0</ele><time>2026-04-17T15:55:19.001Z</time></trkpt><trkpt lat="42.67002446656404" lon="12.168410618554308"><ele>312.0</ele><time>2026-04-17T15:55:20.001Z</time></trkpt><trkpt lat="42.67005134867759" lon="12.16822320936347"><ele>312.0</ele><time>2026-04-17T15:55:21.001Z</time></trkpt><trkpt lat="42.67009424506915" lon="12.168046405659805"><ele>312.0</ele><time>2026-04-17T15:55:22.001Z</time></trkpt><trkpt lat="42.67013826649867" lon="12.167866562409667"><ele>312.0</ele><time>2026-04-17T15:55:23.001Z</time></trkpt><trkpt lat="42.67018669668749" lon="12.167686369609141"><ele>311.0</ele><time>2026-04-17T15:55:24.002Z</time></trkpt><trkpt lat="42.67022354247361" lon="12.167494104595907"><ele>310.0</ele><time>2026-04-17T15:55:25.002Z</time></trkpt><trkpt lat="42.67024779792909" lon="12.167286338271857"><ele>309.0</ele><time>2026-04-17T15:55:26.002Z</time></trkpt><trkpt lat="42.670246336326564" lon="12.167056156253512"><ele>309.0</ele><time>2026-04-17T15:55:27.002Z</time></trkpt><trkpt lat="42.6702114729172" lon="12.16679737313947"><ele>309.0</ele><time>2026-04-17T15:55:27.999Z</time></trkpt><trkpt lat="42.67017431561756" lon="12.166516487703593"><ele>309.0</ele><time>2026-04-17T15:55:28.999Z</time></trkpt><trkpt lat="42.6701260494516" lon="12.166219064445631"><ele>309.3333333333333</ele><time>2026-04-17T15:55:29.999Z</time></trkpt><trkpt lat="42.670070387673256" lon="12.165925165015473"><ele>309.66666666666663</ele><time>2026-04-17T15:55:30.999Z</time></trkpt><trkpt lat="42.67005120655244" lon="12.165654087834344"><ele>310.0</ele><time>2026-04-17T15:55:31.999Z</time></trkpt><trkpt lat="42.67003653508879" lon="12.165402020220508"><ele>310.66666666666663</ele><time>2026-04-17T15:55:32.999Z</time></trkpt><trkpt lat="42.670020351107446" lon="12.165166089179833"><ele>311.3333333333333</ele><time>2026-04-17T15:55:33.999Z</time></trkpt><trkpt lat="42.669995576638634" lon="12.1649147630232"><ele>312.0</ele><time>2026-04-17T15:55:34.999Z</time></trkpt><trkpt lat="42.669953577192885" lon="12.164651303202985"><ele>313.3333333333333</ele><time>2026-04-17T15:55:35.999Z</time></trkpt><trkpt lat="42.66989965963636" lon="12.164386832545489"><ele>314.66666666666663</ele><time>2026-04-17T15:55:36.999Z</time></trkpt><trkpt lat="42.66983938321744" lon="12.16412206075994"><ele>316.0</ele><time>2026-04-17T15:55:37.999Z</time></trkpt><trkpt lat="42.6697781142994" lon="12.16384523108599"><ele>317.3333333333333</ele><time>2026-04-17T15:55:39Z</time></trkpt><trkpt lat="42.669718336686735" lon="12.16357239389133"><ele>318.6666666666667</ele><time>2026-04-17T15:55:40Z</time></trkpt><trkpt lat="42.66966222350748" lon="12.16330249936443"><ele>320.0</ele><time>2026-04-17T15:55:41Z</time></trkpt><trkpt lat="42.669608526026" lon="12.16303973841958"><ele>320.33333333333337</ele><time>2026-04-17T15:55:42Z</time></trkpt><trkpt lat="42.66955576049215" lon="12.162785890427738"><ele>320.6666666666667</ele><time>2026-04-17T15:55:43Z</time></trkpt><trkpt lat="42.66950312333264" lon="12.162554535901556"><ele>321.0</ele><time>2026-04-17T15:55:44Z</time></trkpt><trkpt lat="42.66944966208511" lon="12.162343217755543"><ele>322.6666666666667</ele><time>2026-04-17T15:55:45Z</time></trkpt><trkpt lat="42.66937703629457" lon="12.162141746407823"><ele>324.33333333333337</ele><time>2026-04-17T15:55:46Z</time></trkpt><trkpt lat="42.66927776076867" lon="12.161952689421694"><ele>326.0</ele><time>2026-04-17T15:55:47Z</time></trkpt><trkpt lat="42.66916209819897" lon="12.161802504560077"><ele>326.0</ele><time>2026-04-17T15:55:48Z</time></trkpt><trkpt lat="42.66903668066434" lon="12.161682419319995"><ele>326.0</ele><time>2026-04-17T15:55:49Z</time></trkpt><trkpt lat="42.66889289487104" lon="12.161599230049527"><ele>326.0</ele><time>2026-04-17T15:55:50Z</time></trkpt><trkpt lat="42.66872413149645" lon="12.161527436751093"><ele>327.25</ele><time>2026-04-17T15:55:51Z</time></trkpt><trkpt lat="42.66858024685797" lon="12.161428617471735"><ele>328.5</ele><time>2026-04-17T15:55:52Z</time></trkpt><trkpt lat="42.668446758137144" lon="12.161346617278035"><ele>329.75</ele><time>2026-04-17T15:55:53Z</time></trkpt><trkpt lat="42.66832630198837" lon="12.161252954156847"><ele>331.0</ele><time>2026-04-17T15:55:54Z</time></trkpt><trkpt lat="42.66824835329075" lon="12.16110484849614"><ele>331.0</ele><time>2026-04-17T15:55:55Z</time></trkpt><trkpt lat="42.66820926407936" lon="12.160935156689696"><ele>331.0</ele><time>2026-04-17T15:55:56Z</time></trkpt><trkpt lat="42.668207661386745" lon="12.160763849137947"><ele>331.0</ele><time>2026-04-17T15:55:57Z</time></trkpt><trkpt lat="42.668251478736686" lon="12.160606905061593"><ele>331.0</ele><time>2026-04-17T15:55:58Z</time></trkpt><trkpt lat="42.6683225771332" lon="12.160449007902745"><ele>333.75</ele><time>2026-04-17T15:55:59Z</time></trkpt><trkpt lat="42.66842046012011" lon="12.160294218187053"><ele>336.5</ele><time>2026-04-17T15:56:00Z</time></trkpt><trkpt lat="42.66851162085006" lon="12.16012779592136"><ele>339.25</ele><time>2026-04-17T15:56:01Z</time></trkpt><trkpt lat="42.668586197967535" lon="12.1599673171987"><ele>342.0</ele><time>2026-04-17T15:56:02Z</time></trkpt><trkpt lat="42.668639584354" lon="12.159800566195416"><ele>342.5</ele><time>2026-04-17T15:56:03Z</time></trkpt><trkpt lat="42.66865911144273" lon="12.159617979429838"><ele>343.0</ele><time>2026-04-17T15:56:04Z</time></trkpt><trkpt lat="42.668643816704666" lon="12.159420062543655"><ele>343.5</ele><time>2026-04-17T15:56:05Z</time></trkpt><trkpt lat="42.66858475516725" lon="12.159253434927885"><ele>344.0</ele><time>2026-04-17T15:56:06Z</time></trkpt><trkpt lat="42.66848911714521" lon="12.159116428543442"><ele>345.6666666666667</ele><time>2026-04-17T15:56:07Z</time></trkpt><trkpt lat="42.66836489134324" lon="12.158990869972722"><ele>347.3333333333333</ele><time>2026-04-17T15:56:08Z</time></trkpt><trkpt lat="42.6682300376276" lon="12.158852830091417"><ele>349.0</ele><time>2026-04-17T15:56:09Z</time></trkpt><trkpt lat="42.66810727720186" lon="12.158710419998314"><ele>349.0</ele><time>2026-04-17T15:56:10Z</time></trkpt><trkpt lat="42.66799053275696" lon="12.158584521495422"><ele>349.0</ele><time>2026-04-17T15:56:11Z</time></trkpt><trkpt lat="42.66787732188756" lon="12.158461429972817"><ele>349.0</ele><time>2026-04-17T15:56:12Z</time></trkpt><trkpt lat="42.66775979770069" lon="12.158331508748018"><ele>349.0</ele><time>2026-04-17T15:56:13Z</time></trkpt><trkpt lat="42.667643595803796" lon="12.15820831887527"><ele>350.66666666666663</ele><time>2026-04-17T15:56:14Z</time></trkpt><trkpt lat="42.66753023322236" lon="12.15807779388881"><ele>352.3333333333333</ele><time>2026-04-17T15:56:15Z</time></trkpt><trkpt lat="42.66741176034874" lon="12.157943730668277"><ele>354.0</ele><time>2026-04-17T15:56:16Z</time></trkpt><trkpt lat="42.6672871542708" lon="12.157806485708207"><ele>354.0</ele><time>2026-04-17T15:56:17Z</time></trkpt><trkpt lat="42.66716717425984" lon="12.157673489697167"><ele>354.0</ele><time>2026-04-17T15:56:18Z</time></trkpt><trkpt lat="42.66705437364488" lon="12.157549194550063"><ele>354.0</ele><time>2026-04-17T15:56:19Z</time></trkpt><trkpt lat="42.66693530306385" lon="12.1574151010004"><ele>355.0</ele><time>2026-04-17T15:56:20Z</time></trkpt><trkpt lat="42.66680644864186" lon="12.157272161579916"><ele>356.0</ele><time>2026-04-17T15:56:21Z</time></trkpt><trkpt lat="42.666676855442034" lon="12.157128957530752"><ele>357.0</ele><time>2026-04-17T15:56:22Z</time></trkpt><trkpt lat="42.666540480122435" lon="12.156983791274174"><ele>357.0</ele><time>2026-04-17T15:56:23Z</time></trkpt><trkpt lat="42.66640540590437" lon="12.156837887157696"><ele>357.0</ele><time>2026-04-17T15:56:24Z</time></trkpt><trkpt lat="42.66627059266764" lon="12.156693191674018"><ele>357.0</ele><time>2026-04-17T15:56:25Z</time></trkpt><trkpt lat="42.666133098908816" lon="12.156546838784191"><ele>357.0</ele><time>2026-04-17T15:56:26Z</time></trkpt><trkpt lat="42.66599220459346" lon="12.156394182280124"><ele>357.0</ele><time>2026-04-17T15:56:27Z</time></trkpt><trkpt lat="42.665847339012686" lon="12.156228450518395"><ele>357.0</ele><time>2026-04-17T15:56:28Z</time></trkpt><trkpt lat="42.66569116088472" lon="12.156062406697293"><ele>357.0</ele><time>2026-04-17T15:56:29Z</time></trkpt><trkpt lat="42.66553146707743" lon="12.155888224419964"><ele>357.0</ele><time>2026-04-17T15:56:30Z</time></trkpt><trkpt lat="42.665362160635134" lon="12.155696396991702"><ele>357.0</ele><time>2026-04-17T15:56:31Z</time></trkpt><trkpt lat="42.665196025741785" lon="12.155511778916518"><ele>357.3333333333333</ele><time>2026-04-17T15:56:32Z</time></trkpt><trkpt lat="42.66502993743549" lon="12.15532880476853"><ele>357.66666666666663</ele><time>2026-04-17T15:56:33Z</time></trkpt><trkpt lat="42.664866280315884" lon="12.155153320469928"><ele>358.0</ele><time>2026-04-17T15:56:34Z</time></trkpt><trkpt lat="42.66470406049773" lon="12.154978522256446"><ele>358.3333333333333</ele><time>2026-04-17T15:56:35Z</time></trkpt><trkpt lat="42.66454597042557" lon="12.154805790113555"><ele>358.6666666666667</ele><time>2026-04-17T15:56:36Z</time></trkpt><trkpt lat="42.664393170538666" lon="12.154634462581775"><ele>359.0</ele><time>2026-04-17T15:56:37Z</time></trkpt><trkpt lat="42.66423942724933" lon="12.154465136023097"><ele>359.6666666666667</ele><time>2026-04-17T15:56:38Z</time></trkpt><trkpt lat="42.664086373790326" lon="12.154296292710203"><ele>360.3333333333333</ele><time>2026-04-17T15:56:39.001Z</time></trkpt><trkpt lat="42.66393593804248" lon="12.15412760603629"><ele>361.0</ele><time>2026-04-17T15:56:40.001Z</time></trkpt><trkpt lat="42.663781807853184" lon="12.153956831640727"><ele>361.0</ele><time>2026-04-17T15:56:41.001Z</time></trkpt><trkpt lat="42.66362460561407" lon="12.15378481461792"><ele>361.0</ele><time>2026-04-17T15:56:42.001Z</time></trkpt><trkpt lat="42.66346852151217" lon="12.153608563095428"><ele>361.0</ele><time>2026-04-17T15:56:43.001Z</time></trkpt><trkpt lat="42.66331977376161" lon="12.153441600747376"><ele>361.3333333333333</ele><time>2026-04-17T15:56:44.001Z</time></trkpt><trkpt lat="42.66317023429101" lon="12.15327784928012"><ele>361.6666666666667</ele><time>2026-04-17T15:56:45.001Z</time></trkpt><trkpt lat="42.66301856458945" lon="12.15310681202503"><ele>362.0</ele><time>2026-04-17T15:56:46.001Z</time></trkpt><trkpt lat="42.66286760207353" lon="12.152937121219034"><ele>362.33333333333337</ele><time>2026-04-17T15:56:47.001Z</time></trkpt><trkpt lat="42.66271415682276" lon="12.152765977145034"><ele>362.6666666666667</ele><time>2026-04-17T15:56:48.001Z</time></trkpt><trkpt lat="42.6625598597813" lon="12.152593146354304"><ele>363.0</ele><time>2026-04-17T15:56:49.001Z</time></trkpt><trkpt lat="42.662406727564246" lon="12.152423070483069"><ele>363.0</ele><time>2026-04-17T15:56:50.001Z</time></trkpt><trkpt lat="42.662251328028624" lon="12.152253080450821"><ele>363.0</ele><time>2026-04-17T15:56:51.001Z</time></trkpt><trkpt lat="42.66209707987848" lon="12.152082200561255"><ele>363.0</ele><time>2026-04-17T15:56:52.001Z</time></trkpt><trkpt lat="42.66194441796836" lon="12.151910383936595"><ele>363.6666666666667</ele><time>2026-04-17T15:56:53.001Z</time></trkpt><trkpt lat="42.66179383476888" lon="12.151739485091964"><ele>364.33333333333337</ele><time>2026-04-17T15:56:54.001Z</time></trkpt><trkpt lat="42.66164311401822" lon="12.151568190185202"><ele>365.0</ele><time>2026-04-17T15:56:55.001Z</time></trkpt><trkpt lat="42.661489897842486" lon="12.151393426710214"><ele>365.0</ele><time>2026-04-17T15:56:56.001Z</time></trkpt><trkpt lat="42.66133623845165" lon="12.151223572229066"><ele>365.0</ele><time>2026-04-17T15:56:57.001Z</time></trkpt><trkpt lat="42.661179159460126" lon="12.151056655869374"><ele>365.0</ele><time>2026-04-17T15:56:58.001Z</time></trkpt><trkpt lat="42.66103103788949" lon="12.150871981293097"><ele>364.0</ele><time>2026-04-17T15:56:59.001Z</time></trkpt><trkpt lat="42.66086552116085" lon="12.150705317542537"><ele>363.0</ele><time>2026-04-17T15:57:00.001Z</time></trkpt><trkpt lat="42.6606882626829" lon="12.150564590998503"><ele>362.0</ele><time>2026-04-17T15:57:01.001Z</time></trkpt><trkpt lat="42.66051838751342" lon="12.15040414219715"><ele>362.0</ele><time>2026-04-17T15:57:02.001Z</time></trkpt><trkpt lat="42.66034763224307" lon="12.150245807450554"><ele>362.0</ele><time>2026-04-17T15:57:03.001Z</time></trkpt><trkpt lat="42.660173873472985" lon="12.150082841550978"><ele>362.0</ele><time>2026-04-17T15:57:04.001Z</time></trkpt><trkpt lat="42.66000090426796" lon="12.149926867485124"><ele>361.0</ele><time>2026-04-17T15:57:05.001Z</time></trkpt><trkpt lat="42.65983589837289" lon="12.149772930845304"><ele>360.0</ele><time>2026-04-17T15:57:06.001Z</time></trkpt><trkpt lat="42.65967517241978" lon="12.149627966099919"><ele>359.0</ele><time>2026-04-17T15:57:07.001Z</time></trkpt><trkpt lat="42.65952454703965" lon="12.149489034870177"><ele>362.33333333333337</ele><time>2026-04-17T15:57:08.001Z</time></trkpt><trkpt lat="42.65937139225436" lon="12.149351030914262"><ele>365.6666666666667</ele><time>2026-04-17T15:57:09.001Z</time></trkpt><trkpt lat="42.65921798319459" lon="12.149209528501284"><ele>369.0</ele><time>2026-04-17T15:57:10.001Z</time></trkpt><trkpt lat="42.65906042423546" lon="12.149066354823512"><ele>370.3333333333333</ele><time>2026-04-17T15:57:11.001Z</time></trkpt><trkpt lat="42.658906124273294" lon="12.148923821773353"><ele>371.66666666666663</ele><time>2026-04-17T15:57:12.001Z</time></trkpt><trkpt lat="42.658747935893885" lon="12.148777773978278"><ele>373.0</ele><time>2026-04-17T15:57:13.001Z</time></trkpt><trkpt lat="42.65859451136395" lon="12.148631719650288"><ele>373.0</ele><time>2026-04-17T15:57:14.001Z</time></trkpt><trkpt lat="42.65843532386692" lon="12.148491467708967"><ele>373.0</ele><time>2026-04-17T15:57:15.001Z</time></trkpt><trkpt lat="42.658279935641715" lon="12.148351134540064"><ele>373.0</ele><time>2026-04-17T15:57:16.001Z</time></trkpt><trkpt lat="42.65813492204203" lon="12.14821226866083"><ele>372.3333333333333</ele><time>2026-04-17T15:57:17.001Z</time></trkpt><trkpt lat="42.657989714474915" lon="12.148059159969309"><ele>371.6666666666667</ele><time>2026-04-17T15:57:18.001Z</time></trkpt><trkpt lat="42.65785221075544" lon="12.147877443431861"><ele>371.0</ele><time>2026-04-17T15:57:19.001Z</time></trkpt><trkpt lat="42.65772195537236" lon="12.14768050359816"><ele>372.6666666666667</ele><time>2026-04-17T15:57:20.001Z</time></trkpt><trkpt lat="42.65759058229402" lon="12.147464447263987"><ele>374.3333333333333</ele><time>2026-04-17T15:57:21.001Z</time></trkpt><trkpt lat="42.65746415231027" lon="12.147251639871467"><ele>376.0</ele><time>2026-04-17T15:57:22.001Z</time></trkpt><trkpt lat="42.65734253361893" lon="12.14703353524818"><ele>376.3333333333333</ele><time>2026-04-17T15:57:23.001Z</time></trkpt><trkpt lat="42.6572225064624" lon="12.146799717580311"><ele>376.6666666666667</ele><time>2026-04-17T15:57:24.001Z</time></trkpt><trkpt lat="42.657111458621685" lon="12.146561068447191"><ele>377.0</ele><time>2026-04-17T15:57:25.001Z</time></trkpt><trkpt lat="42.657010248790186" lon="12.146328281775354"><ele>377.6666666666667</ele><time>2026-04-17T15:57:26.001Z</time></trkpt><trkpt lat="42.656915292418" lon="12.146104696429989"><ele>378.3333333333333</ele><time>2026-04-17T15:57:27.001Z</time></trkpt><trkpt lat="42.65682098946567" lon="12.145893882224364"><ele>379.0</ele><time>2026-04-17T15:57:28.001Z</time></trkpt><trkpt lat="42.656722744874976" lon="12.145691455050871"><ele>379.0</ele><time>2026-04-17T15:57:29.001Z</time></trkpt><trkpt lat="42.65660838259319" lon="12.145492532385036"><ele>379.0</ele><time>2026-04-17T15:57:30.001Z</time></trkpt><trkpt lat="42.656473934113635" lon="12.145315310740239"><ele>379.0</ele><time>2026-04-17T15:57:31.001Z</time></trkpt><trkpt lat="42.6563198222262" lon="12.14514892225073"><ele>379.0</ele><time>2026-04-17T15:57:32.001Z</time></trkpt><trkpt lat="42.656155728786096" lon="12.144985505192487"><ele>379.0</ele><time>2026-04-17T15:57:33.001Z</time></trkpt><trkpt lat="42.655989562264025" lon="12.144800064839306"><ele>379.0</ele><time>2026-04-17T15:57:34Z</time></trkpt><trkpt lat="42.65582597617506" lon="12.144590474296635"><ele>379.5</ele><time>2026-04-17T15:57:35Z</time></trkpt><trkpt lat="42.65564191551074" lon="12.14441084524996"><ele>380.0</ele><time>2026-04-17T15:57:36Z</time></trkpt><trkpt lat="42.655465924679675" lon="12.144205966769402"><ele>381.5</ele><time>2026-04-17T15:57:37Z</time></trkpt><trkpt lat="42.65528658606021" lon="12.144000377125591"><ele>383.0</ele><time>2026-04-17T15:57:38Z</time></trkpt><trkpt lat="42.65510163631685" lon="12.143794435887955"><ele>383.0</ele><time>2026-04-17T15:57:39Z</time></trkpt><trkpt lat="42.65491456307825" lon="12.14358576729413"><ele>383.0</ele><time>2026-04-17T15:57:40Z</time></trkpt><trkpt lat="42.65472584912583" lon="12.143373216646465"><ele>382.5</ele><time>2026-04-17T15:57:41Z</time></trkpt><trkpt lat="42.65453919117477" lon="12.14316245567122"><ele>382.0</ele><time>2026-04-17T15:57:42Z</time></trkpt><trkpt lat="42.65436645274798" lon="12.142968893842383"><ele>383.0</ele><time>2026-04-17T15:57:43Z</time></trkpt><trkpt lat="42.65420274666237" lon="12.142782552568098"><ele>384.0</ele><time>2026-04-17T15:57:44Z</time></trkpt><trkpt lat="42.65404047228933" lon="12.142599362608166"><ele>385.0</ele><time>2026-04-17T15:57:45Z</time></trkpt><trkpt lat="42.65387385546433" lon="12.14241510687509"><ele>384.6666666666667</ele><time>2026-04-17T15:57:46Z</time></trkpt><trkpt lat="42.65371062703167" lon="12.14223575870127"><ele>384.33333333333337</ele><time>2026-04-17T15:57:47Z</time></trkpt><trkpt lat="42.653548313848695" lon="12.142056204536994"><ele>384.0</ele><time>2026-04-17T15:57:48Z</time></trkpt><trkpt lat="42.65339037562285" lon="12.141876894322158"><ele>383.6666666666667</ele><time>2026-04-17T15:57:49Z</time></trkpt><trkpt lat="42.65323759854959" lon="12.14169765315213"><ele>383.33333333333337</ele><time>2026-04-17T15:57:50Z</time></trkpt><trkpt lat="42.65308024361127" lon="12.141516865648779"><ele>383.0</ele><time>2026-04-17T15:57:51Z</time></trkpt><trkpt lat="42.6529288137361" lon="12.141346712900532"><ele>384.6666666666667</ele><time>2026-04-17T15:57:52Z</time></trkpt><trkpt lat="42.65277782952936" lon="12.14118138733659"><ele>386.33333333333337</ele><time>2026-04-17T15:57:53Z</time></trkpt><trkpt lat="42.65262267428244" lon="12.141016755255365"><ele>388.0</ele><time>2026-04-17T15:57:54Z</time></trkpt><trkpt lat="42.65246818620162" lon="12.140846196721467"><ele>388.6666666666667</ele><time>2026-04-17T15:57:55Z</time></trkpt><trkpt lat="42.65231536087545" lon="12.140680201467752"><ele>389.33333333333337</ele><time>2026-04-17T15:57:56Z</time></trkpt><trkpt lat="42.6521697972005" lon="12.140516951917343"><ele>390.0</ele><time>2026-04-17T15:57:57Z</time></trkpt><trkpt lat="42.65203219269424" lon="12.140358827703048"><ele>390.33333333333337</ele><time>2026-04-17T15:57:58Z</time></trkpt><trkpt lat="42.651896191260455" lon="12.140192064253139"><ele>390.6666666666667</ele><time>2026-04-17T15:57:59Z</time></trkpt><trkpt lat="42.65176963313467" lon="12.140018339707193"><ele>391.0</ele><time>2026-04-17T15:58:00Z</time></trkpt><trkpt lat="42.65165033900643" lon="12.139831323511311"><ele>391.6666666666667</ele><time>2026-04-17T15:58:01Z</time></trkpt><trkpt lat="42.65153595439801" lon="12.139629049449832"><ele>392.33333333333337</ele><time>2026-04-17T15:58:02Z</time></trkpt><trkpt lat="42.65141976663402" lon="12.139420641801623"><ele>393.0</ele><time>2026-04-17T15:58:03Z</time></trkpt><trkpt lat="42.651302669258065" lon="12.139213749571418"><ele>393.0</ele><time>2026-04-17T15:58:04Z</time></trkpt><trkpt lat="42.65118726734339" lon="12.139015438166668"><ele>393.0</ele><time>2026-04-17T15:58:05Z</time></trkpt><trkpt lat="42.6510678959381" lon="12.13881064319732"><ele>393.0</ele><time>2026-04-17T15:58:06Z</time></trkpt><trkpt lat="42.65094598270574" lon="12.138591261244569"><ele>393.0</ele><time>2026-04-17T15:58:07Z</time></trkpt><trkpt lat="42.65081412515504" lon="12.138355387920859"><ele>393.0</ele><time>2026-04-17T15:58:08Z</time></trkpt><trkpt lat="42.65067012210159" lon="12.138105056768397"><ele>393.0</ele><time>2026-04-17T15:58:09Z</time></trkpt><trkpt lat="42.650520965176526" lon="12.137854700661986"><ele>393.0</ele><time>2026-04-17T15:58:10Z</time></trkpt><trkpt lat="42.65037282978941" lon="12.137604181636535"><ele>393.0</ele><time>2026-04-17T15:58:11Z</time></trkpt><trkpt lat="42.65023516018141" lon="12.137366525405252"><ele>393.0</ele><time>2026-04-17T15:58:12Z</time></trkpt><trkpt lat="42.650106949248354" lon="12.13713383546446"><ele>393.0</ele><time>2026-04-17T15:58:13Z</time></trkpt><trkpt lat="42.64997857397061" lon="12.136902464810232"><ele>393.0</ele><time>2026-04-17T15:58:14Z</time></trkpt><trkpt lat="42.649855186694694" lon="12.136687931679708"><ele>393.0</ele><time>2026-04-17T15:58:15Z</time></trkpt><trkpt lat="42.649732249826634" lon="12.136482144595098"><ele>393.0</ele><time>2026-04-17T15:58:16Z</time></trkpt><trkpt lat="42.6496195843181" lon="12.136284045283153"><ele>393.66666666666663</ele><time>2026-04-17T15:58:17Z</time></trkpt><trkpt lat="42.64950782683529" lon="12.136092194261012"><ele>394.3333333333333</ele><time>2026-04-17T15:58:18Z</time></trkpt><trkpt lat="42.64940198729182" lon="12.135899809035747"><ele>395.0</ele><time>2026-04-17T15:58:19Z</time></trkpt><trkpt lat="42.649296175903245" lon="12.135709073027815"><ele>395.66666666666663</ele><time>2026-04-17T15:58:20Z</time></trkpt><trkpt lat="42.649193643385516" lon="12.135529779388527"><ele>396.33333333333337</ele><time>2026-04-17T15:58:21Z</time></trkpt><trkpt lat="42.64908523045015" lon="12.135369129830483"><ele>397.0</ele><time>2026-04-17T15:58:22Z</time></trkpt><trkpt lat="42.648946462958165" lon="12.135254804270938"><ele>397.0</ele><time>2026-04-17T15:58:23Z</time></trkpt><trkpt lat="42.64877560854533" lon="12.135191530328141"><ele>397.0</ele><time>2026-04-17T15:58:24.001Z</time></trkpt><trkpt lat="42.64858866062459" lon="12.135176983038182"><ele>397.0</ele><time>2026-04-17T15:58:25.001Z</time></trkpt><trkpt lat="42.6484158634939" lon="12.135121295629713"><ele>397.6666666666667</ele><time>2026-04-17T15:58:26.001Z</time></trkpt><trkpt lat="42.64826426793876" lon="12.13497116425992"><ele>398.33333333333337</ele><time>2026-04-17T15:58:27.001Z</time></trkpt><trkpt lat="42.648125570900845" lon="12.134757954198433"><ele>399.0</ele><time>2026-04-17T15:58:28.001Z</time></trkpt><trkpt lat="42.64798887976578" lon="12.134545740216362"><ele>399.0</ele><time>2026-04-17T15:58:29.001Z</time></trkpt><trkpt lat="42.64785640512524" lon="12.134360949978163"><ele>399.0</ele><time>2026-04-17T15:58:30.001Z</time></trkpt><trkpt lat="42.64772820742911" lon="12.134178259303413"><ele>399.0</ele><time>2026-04-17T15:58:31.001Z</time></trkpt><trkpt lat="42.64759989972162" lon="12.133996847297523"><ele>399.33333333333337</ele><time>2026-04-17T15:58:32.001Z</time></trkpt><trkpt lat="42.647467166176895" lon="12.133811932182677"><ele>399.6666666666667</ele><time>2026-04-17T15:58:33.001Z</time></trkpt><trkpt lat="42.64733707526461" lon="12.133632074945906"><ele>400.0</ele><time>2026-04-17T15:58:34.001Z</time></trkpt><trkpt lat="42.647203926108176" lon="12.133450768390032"><ele>400.0</ele><time>2026-04-17T15:58:35.001Z</time></trkpt><trkpt lat="42.647073715875656" lon="12.133269865060665"><ele>400.0</ele><time>2026-04-17T15:58:36.001Z</time></trkpt><trkpt lat="42.646946575027286" lon="12.133095375151632"><ele>400.0</ele><time>2026-04-17T15:58:37.001Z</time></trkpt><trkpt lat="42.64681969566862" lon="12.132922707352085"><ele>401.0</ele><time>2026-04-17T15:58:38.001Z</time></trkpt><trkpt lat="42.64669120640332" lon="12.132751618694163"><ele>402.0</ele><time>2026-04-17T15:58:39.001Z</time></trkpt><trkpt lat="42.64656105991053" lon="12.132577216908528"><ele>403.0</ele><time>2026-04-17T15:58:40.001Z</time></trkpt><trkpt lat="42.64643190900225" lon="12.132393007780871"><ele>403.6666666666667</ele><time>2026-04-17T15:58:41.001Z</time></trkpt><trkpt lat="42.646305745084234" lon="12.13220280731768"><ele>404.33333333333337</ele><time>2026-04-17T15:58:42.001Z</time></trkpt><trkpt lat="42.6461818262676" lon="12.13200951884864"><ele>405.0</ele><time>2026-04-17T15:58:43.001Z</time></trkpt><trkpt lat="42.64605651194411" lon="12.131822317317589"><ele>406.0</ele><time>2026-04-17T15:58:44.001Z</time></trkpt><trkpt lat="42.64592801045657" lon="12.131632074517226"><ele>407.0</ele><time>2026-04-17T15:58:45.001Z</time></trkpt><trkpt lat="42.6457982096285" lon="12.131436822953987"><ele>408.0</ele><time>2026-04-17T15:58:46.001Z</time></trkpt><trkpt lat="42.64566371332728" lon="12.131241205017252"><ele>408.33333333333337</ele><time>2026-04-17T15:58:47.001Z</time></trkpt><trkpt lat="42.64553147396268" lon="12.131050080086201"><ele>408.6666666666667</ele><time>2026-04-17T15:58:48.001Z</time></trkpt><trkpt lat="42.64541156780795" lon="12.13086691708238"><ele>409.0</ele><time>2026-04-17T15:58:49.001Z</time></trkpt><trkpt lat="42.645294716031366" lon="12.130684436335928"><ele>410.33333333333337</ele><time>2026-04-17T15:58:50.001Z</time></trkpt><trkpt lat="42.64518617958298" lon="12.130522396280577"><ele>411.66666666666663</ele><time>2026-04-17T15:58:51.001Z</time></trkpt><trkpt lat="42.64507561313502" lon="12.130361991156622"><ele>413.0</ele><time>2026-04-17T15:58:52.001Z</time></trkpt><trkpt lat="42.644968447596135" lon="12.13020109983141"><ele>413.0</ele><time>2026-04-17T15:58:53.001Z</time></trkpt><trkpt lat="42.644859190000645" lon="12.13004082144532"><ele>413.0</ele><time>2026-04-17T15:58:54.001Z</time></trkpt><trkpt lat="42.64475524343675" lon="12.129887774631165"><ele>413.0</ele><time>2026-04-17T15:58:55.001Z</time></trkpt><trkpt lat="42.644651748336926" lon="12.129727765242615"><ele>412.66666666666663</ele><time>2026-04-17T15:58:56.001Z</time></trkpt><trkpt lat="42.64454577460814" lon="12.129546103138436"><ele>412.33333333333337</ele><time>2026-04-17T15:58:57.001Z</time></trkpt><trkpt lat="42.64444021867549" lon="12.129351518123253"><ele>412.0</ele><time>2026-04-17T15:58:58.001Z</time></trkpt><trkpt lat="42.64433899461166" lon="12.129160629036706"><ele>414.33333333333337</ele><time>2026-04-17T15:58:59.001Z</time></trkpt><trkpt lat="42.644235381327206" lon="12.128974206065557"><ele>416.66666666666663</ele><time>2026-04-17T15:59:00.001Z</time></trkpt><trkpt lat="42.64413273692043" lon="12.128792703649125"><ele>419.0</ele><time>2026-04-17T15:59:01.001Z</time></trkpt><trkpt lat="42.64402555470542" lon="12.128605849029332"><ele>419.0</ele><time>2026-04-17T15:59:02.001Z</time></trkpt><trkpt lat="42.64391688026029" lon="12.128416001838161"><ele>419.0</ele><time>2026-04-17T15:59:03.001Z</time></trkpt><trkpt lat="42.64380842279025" lon="12.128223468292111"><ele>419.0</ele><time>2026-04-17T15:59:04.001Z</time></trkpt><trkpt lat="42.64370884177963" lon="12.128019425906302"><ele>419.3333333333333</ele><time>2026-04-17T15:59:05.001Z</time></trkpt><trkpt lat="42.64360666173003" lon="12.127831088672504"><ele>419.66666666666663</ele><time>2026-04-17T15:59:06.001Z</time></trkpt><trkpt lat="42.64351551566426" lon="12.127650537901424"><ele>420.0</ele><time>2026-04-17T15:59:07.001Z</time></trkpt><trkpt lat="42.64341456100389" lon="12.12745691817227"><ele>420.66666666666663</ele><time>2026-04-17T15:59:08.001Z</time></trkpt><trkpt lat="42.643321248115676" lon="12.127259970183706"><ele>421.3333333333333</ele><time>2026-04-17T15:59:09.001Z</time></trkpt><trkpt lat="42.643225224453325" lon="12.127063074838034"><ele>422.0</ele><time>2026-04-17T15:59:10.001Z</time></trkpt><trkpt lat="42.6431302230964" lon="12.126874300406252"><ele>422.0</ele><time>2026-04-17T15:59:11.001Z</time></trkpt><trkpt lat="42.643036892446766" lon="12.126688096707033"><ele>422.0</ele><time>2026-04-17T15:59:12.001Z</time></trkpt><trkpt lat="42.642941930835605" lon="12.126502297803999"><ele>422.0</ele><time>2026-04-17T15:59:13.001Z</time></trkpt><trkpt lat="42.6428462954534" lon="12.126312381983396"><ele>423.0</ele><time>2026-04-17T15:59:14.001Z</time></trkpt><trkpt lat="42.642749416361774" lon="12.126118736127987"><ele>424.0</ele><time>2026-04-17T15:59:15.001Z</time></trkpt><trkpt lat="42.64265350847805" lon="12.12592729478755"><ele>425.0</ele><time>2026-04-17T15:59:16.001Z</time></trkpt><trkpt lat="42.64255790373786" lon="12.125740023777956"><ele>425.66666666666663</ele><time>2026-04-17T15:59:17.001Z</time></trkpt><trkpt lat="42.642469952447456" lon="12.125557420620368"><ele>426.33333333333337</ele><time>2026-04-17T15:59:18.001Z</time></trkpt><trkpt lat="42.64240673684737" lon="12.12536705710498"><ele>427.0</ele><time>2026-04-17T15:59:19.001Z</time></trkpt><trkpt lat="42.642370622817914" lon="12.125149535829427"><ele>427.0</ele><time>2026-04-17T15:59:20.001Z</time></trkpt><trkpt lat="42.6423455815096" lon="12.124916872467919"><ele>427.0</ele><time>2026-04-17T15:59:21.001Z</time></trkpt><trkpt lat="42.64233101207739" lon="12.124679617047006"><ele>427.0</ele><time>2026-04-17T15:59:22.001Z</time></trkpt><trkpt lat="42.642322812432596" lon="12.12443710278722"><ele>428.0</ele><time>2026-04-17T15:59:23.001Z</time></trkpt><trkpt lat="42.64231296977319" lon="12.124204195990627"><ele>429.0</ele><time>2026-04-17T15:59:24.001Z</time></trkpt><trkpt lat="42.64229722067749" lon="12.123964255807003"><ele>430.0</ele><time>2026-04-17T15:59:25.001Z</time></trkpt><trkpt lat="42.642280395758064" lon="12.123720567147581"><ele>431.0</ele><time>2026-04-17T15:59:26.001Z</time></trkpt><trkpt lat="42.642269429178185" lon="12.12347891612916"><ele>432.0</ele><time>2026-04-17T15:59:27.001Z</time></trkpt><trkpt lat="42.642252344240624" lon="12.123251464971641"><ele>433.0</ele><time>2026-04-17T15:59:28.001Z</time></trkpt><trkpt lat="42.642239392214684" lon="12.123009925078936"><ele>434.0</ele><time>2026-04-17T15:59:29.001Z</time></trkpt><trkpt lat="42.64222361369732" lon="12.122780109057643"><ele>435.0</ele><time>2026-04-17T15:59:30.001Z</time></trkpt><trkpt lat="42.642209332446555" lon="12.122542163910092"><ele>436.0</ele><time>2026-04-17T15:59:31.001Z</time></trkpt><trkpt lat="42.64220112503786" lon="12.122303433749677"><ele>436.33333333333337</ele><time>2026-04-17T15:59:32.001Z</time></trkpt><trkpt lat="42.642188973395655" lon="12.122063176030402"><ele>436.66666666666663</ele><time>2026-04-17T15:59:33.001Z</time></trkpt><trkpt lat="42.64217346171008" lon="12.12181265733317"><ele>437.0</ele><time>2026-04-17T15:59:34.001Z</time></trkpt><trkpt lat="42.64215757727716" lon="12.121558221500065"><ele>437.0</ele><time>2026-04-17T15:59:35.001Z</time></trkpt><trkpt lat="42.64213833966058" lon="12.121306136412121"><ele>437.0</ele><time>2026-04-17T15:59:36.002Z</time></trkpt><trkpt lat="42.642115986853156" lon="12.121058510747446"><ele>437.0</ele><time>2026-04-17T15:59:37.002Z</time></trkpt><trkpt lat="42.642086182648754" lon="12.12082036120889"><ele>437.66666666666663</ele><time>2026-04-17T15:59:38.002Z</time></trkpt><trkpt lat="42.64203920066459" lon="12.120588123736134"><ele>438.33333333333337</ele><time>2026-04-17T15:59:39.002Z</time></trkpt><trkpt lat="42.64197706345075" lon="12.120361513034062"><ele>439.0</ele><time>2026-04-17T15:59:40Z</time></trkpt><trkpt lat="42.64190138170134" lon="12.120143205313406"><ele>440.0</ele><time>2026-04-17T15:59:41Z</time></trkpt><trkpt lat="42.64182288905472" lon="12.119934774470815"><ele>441.0</ele><time>2026-04-17T15:59:42Z</time></trkpt><trkpt lat="42.64174623917934" lon="12.119728541290609"><ele>442.0</ele><time>2026-04-17T15:59:43Z</time></trkpt><trkpt lat="42.641672066672434" lon="12.119522888401956"><ele>442.33333333333337</ele><time>2026-04-17T15:59:44Z</time></trkpt><trkpt lat="42.64160292577703" lon="12.11932458093489"><ele>442.66666666666663</ele><time>2026-04-17T15:59:45Z</time></trkpt><trkpt lat="42.641531676858186" lon="12.119128424931336"><ele>443.0</ele><time>2026-04-17T15:59:46Z</time></trkpt><trkpt lat="42.64146085398224" lon="12.118940643862164"><ele>443.25</ele><time>2026-04-17T15:59:47Z</time></trkpt><trkpt lat="42.64140105759794" lon="12.118784336084344"><ele>443.5</ele><time>2026-04-17T15:59:48Z</time></trkpt><trkpt lat="42.64134690664658" lon="12.11863719107807"><ele>443.75</ele><time>2026-04-17T15:59:49Z</time></trkpt><trkpt lat="42.64129366688331" lon="12.118491484951539"><ele>444.0</ele><time>2026-04-17T15:59:50Z</time></trkpt><trkpt lat="42.641239501788775" lon="12.118344227341558"><ele>444.5</ele><time>2026-04-17T15:59:51Z</time></trkpt><trkpt lat="42.64118762634142" lon="12.11819304019245"><ele>445.0</ele><time>2026-04-17T15:59:52Z</time></trkpt><trkpt lat="42.64113743305714" lon="12.1180516193184"><ele>445.5</ele><time>2026-04-17T15:59:53Z</time></trkpt><trkpt lat="42.64110231456104" lon="12.117914362054504"><ele>446.0</ele><time>2026-04-17T15:59:54Z</time></trkpt><trkpt lat="42.64109899145406" lon="12.117766487767405"><ele>446.0</ele><time>2026-04-17T15:59:55Z</time></trkpt><trkpt lat="42.64105306313901" lon="12.11765822740209"><ele>446.0</ele><time>2026-04-17T15:59:56Z</time></trkpt><trkpt lat="42.64117335371848" lon="12.117447797275902"><ele>446.0</ele><time>2026-04-17T15:59:57Z</time></trkpt><trkpt lat="42.64124421379018" lon="12.117289393792982"><ele>446.0</ele><time>2026-04-17T15:59:58Z</time></trkpt><trkpt lat="42.641316123083506" lon="12.117141170051303"><ele>446.5</ele><time>2026-04-17T15:59:59Z</time></trkpt><trkpt lat="42.641385149996516" lon="12.116993061018226"><ele>447.0</ele><time>2026-04-17T16:00:00Z</time></trkpt><trkpt lat="42.641450813895545" lon="12.116832167936497"><ele>447.5</ele><time>2026-04-17T16:00:01Z</time></trkpt><trkpt lat="42.64150648109955" lon="12.116654799818177"><ele>448.0</ele><time>2026-04-17T16:00:02Z</time></trkpt><trkpt lat="42.64154158728628" lon="12.116455385343986"><ele>448.6666666666667</ele><time>2026-04-17T16:00:03Z</time></trkpt><trkpt lat="42.641564133038216" lon="12.116238857949417"><ele>449.33333333333337</ele><time>2026-04-17T16:00:04Z</time></trkpt><trkpt lat="42.641584414931565" lon="12.116014982877507"><ele>450.0</ele><time>2026-04-17T16:00:05Z</time></trkpt><trkpt lat="42.64160644125251" lon="12.115812728897616"><ele>451.0</ele><time>2026-04-17T16:00:06Z</time></trkpt><trkpt lat="42.64163728644805" lon="12.115623625716541"><ele>452.0</ele><time>2026-04-17T16:00:07Z</time></trkpt><trkpt lat="42.64169674937296" lon="12.115444935152526"><ele>453.0</ele><time>2026-04-17T16:00:08Z</time></trkpt><trkpt lat="42.641753036551464" lon="12.11523015480104"><ele>453.0</ele><time>2026-04-17T16:00:09.001Z</time></trkpt><trkpt lat="42.641851186049216" lon="12.115026529436143"><ele>453.0</ele><time>2026-04-17T16:00:10.001Z</time></trkpt><trkpt lat="42.641931997586504" lon="12.114829475852313"><ele>453.0</ele><time>2026-04-17T16:00:11.001Z</time></trkpt><trkpt lat="42.64199643511532" lon="12.114648726970383"><ele>452.5</ele><time>2026-04-17T16:00:12.001Z</time></trkpt><trkpt lat="42.64204456908074" lon="12.11447370766865"><ele>452.0</ele><time>2026-04-17T16:00:13.001Z</time></trkpt><trkpt lat="42.64206387561379" lon="12.114283114192798"><ele>451.5</ele><time>2026-04-17T16:00:14.001Z</time></trkpt><trkpt lat="42.642047091184864" lon="12.114071924008925"><ele>451.0</ele><time>2026-04-17T16:00:15.001Z</time></trkpt><trkpt lat="42.64199827599228" lon="12.113838986269206"><ele>452.6666666666667</ele><time>2026-04-17T16:00:16.001Z</time></trkpt><trkpt lat="42.64193274529559" lon="12.11359774284791"><ele>454.33333333333337</ele><time>2026-04-17T16:00:17.001Z</time></trkpt><trkpt lat="42.64186424062908" lon="12.113369146809855"><ele>456.0</ele><time>2026-04-17T16:00:18.001Z</time></trkpt><trkpt lat="42.64179059727753" lon="12.113156650776787"><ele>456.33333333333337</ele><time>2026-04-17T16:00:19.001Z</time></trkpt><trkpt lat="42.64171492186711" lon="12.112965469944314"><ele>456.6666666666667</ele><time>2026-04-17T16:00:20.001Z</time></trkpt><trkpt lat="42.64164115293594" lon="12.11278517965933"><ele>457.0</ele><time>2026-04-17T16:00:21.001Z</time></trkpt><trkpt lat="42.64157933814956" lon="12.112587938648039"><ele>457.33333333333337</ele><time>2026-04-17T16:00:22.001Z</time></trkpt><trkpt lat="42.64156326238644" lon="12.112357352270138"><ele>457.66666666666663</ele><time>2026-04-17T16:00:23.001Z</time></trkpt><trkpt lat="42.641546252464515" lon="12.112117070605363"><ele>458.0</ele><time>2026-04-17T16:00:24.001Z</time></trkpt><trkpt lat="42.64152803723291" lon="12.111860444477628"><ele>458.0</ele><time>2026-04-17T16:00:25.001Z</time></trkpt><trkpt lat="42.64152192161222" lon="12.111597391097723"><ele>458.0</ele><time>2026-04-17T16:00:26.001Z</time></trkpt><trkpt lat="42.641510250359694" lon="12.111322748152006"><ele>458.0</ele><time>2026-04-17T16:00:27.001Z</time></trkpt><trkpt lat="42.64149648881701" lon="12.111042354156751"><ele>458.66666666666663</ele><time>2026-04-17T16:00:28.001Z</time></trkpt><trkpt lat="42.64147958078612" lon="12.110755754892779"><ele>459.33333333333337</ele><time>2026-04-17T16:00:29.001Z</time></trkpt><trkpt lat="42.641461817410786" lon="12.1104706606515"><ele>460.0</ele><time>2026-04-17T16:00:30.001Z</time></trkpt><trkpt lat="42.64144912072778" lon="12.110198846154454"><ele>461.33333333333337</ele><time>2026-04-17T16:00:31.001Z</time></trkpt><trkpt lat="42.64144050466412" lon="12.109938804711332"><ele>462.66666666666663</ele><time>2026-04-17T16:00:32.001Z</time></trkpt><trkpt lat="42.641429392834105" lon="12.109678546458714"><ele>464.0</ele><time>2026-04-17T16:00:33.001Z</time></trkpt><trkpt lat="42.64142166652859" lon="12.109405158873114"><ele>464.0</ele><time>2026-04-17T16:00:34.001Z</time></trkpt><trkpt lat="42.64140915083036" lon="12.10913542789372"><ele>464.0</ele><time>2026-04-17T16:00:35.001Z</time></trkpt><trkpt lat="42.6413917421626" lon="12.10885163147833"><ele>464.0</ele><time>2026-04-17T16:00:36.001Z</time></trkpt><trkpt lat="42.641382351907716" lon="12.108591152301093"><ele>464.66666666666663</ele><time>2026-04-17T16:00:37.001Z</time></trkpt><trkpt lat="42.64137298407188" lon="12.108333784218697"><ele>465.33333333333337</ele><time>2026-04-17T16:00:38.001Z</time></trkpt><trkpt lat="42.64136242112282" lon="12.108070898525263"><ele>466.0</ele><time>2026-04-17T16:00:39.001Z</time></trkpt><trkpt lat="42.64135003236285" lon="12.107797891001963"><ele>466.33333333333337</ele><time>2026-04-17T16:00:40.001Z</time></trkpt><trkpt lat="42.6413360625075" lon="12.107522867161661"><ele>466.66666666666663</ele><time>2026-04-17T16:00:41.001Z</time></trkpt><trkpt lat="42.64131730500851" lon="12.10724421479995"><ele>467.0</ele><time>2026-04-17T16:00:42.001Z</time></trkpt><trkpt lat="42.64129456565712" lon="12.10697584689078"><ele>467.66666666666663</ele><time>2026-04-17T16:00:43.001Z</time></trkpt><trkpt lat="42.64126890277304" lon="12.10673133036779"><ele>468.33333333333337</ele><time>2026-04-17T16:00:44.001Z</time></trkpt><trkpt lat="42.64123812872632" lon="12.106502339219503"><ele>469.0</ele><time>2026-04-17T16:00:45.001Z</time></trkpt><trkpt lat="42.64120729348051" lon="12.106283612740274"><ele>469.6666666666667</ele><time>2026-04-17T16:00:46.001Z</time></trkpt><trkpt lat="42.64117779623316" lon="12.10607716349522"><ele>470.33333333333337</ele><time>2026-04-17T16:00:47.001Z</time></trkpt><trkpt lat="42.64114661086057" lon="12.105869062701247"><ele>471.0</ele><time>2026-04-17T16:00:48.001Z</time></trkpt><trkpt lat="42.64112139403221" lon="12.105641089263507"><ele>471.33333333333337</ele><time>2026-04-17T16:00:49.001Z</time></trkpt><trkpt lat="42.64110059051652" lon="12.10541402311216"><ele>471.6666666666667</ele><time>2026-04-17T16:00:50.001Z</time></trkpt><trkpt lat="42.64109396143602" lon="12.10516975648995"><ele>472.0</ele><time>2026-04-17T16:00:51.001Z</time></trkpt><trkpt lat="42.64110255247341" lon="12.10492735712379"><ele>472.0</ele><time>2026-04-17T16:00:52.001Z</time></trkpt><trkpt lat="42.641115091005894" lon="12.104688441525786"><ele>472.0</ele><time>2026-04-17T16:00:53.001Z</time></trkpt><trkpt lat="42.641132250420476" lon="12.104452443652198"><ele>472.0</ele><time>2026-04-17T16:00:54.001Z</time></trkpt><trkpt lat="42.641147551799975" lon="12.104200544886629"><ele>472.33333333333337</ele><time>2026-04-17T16:00:55.001Z</time></trkpt><trkpt lat="42.64116156100738" lon="12.103942009836056"><ele>472.66666666666663</ele><time>2026-04-17T16:00:56.001Z</time></trkpt><trkpt lat="42.64117933193311" lon="12.103683158255992"><ele>473.0</ele><time>2026-04-17T16:00:57.001Z</time></trkpt><trkpt lat="42.64119508627563" lon="12.103423365406695"><ele>473.3333333333333</ele><time>2026-04-17T16:00:58.001Z</time></trkpt><trkpt lat="42.64121096569945" lon="12.103164975152131"><ele>473.66666666666663</ele><time>2026-04-17T16:00:59.001Z</time></trkpt><trkpt lat="42.64122376271826" lon="12.102900359360952"><ele>474.0</ele><time>2026-04-17T16:01:00.001Z</time></trkpt><trkpt lat="42.64122216556183" lon="12.102650592101455"><ele>474.0</ele><time>2026-04-17T16:01:01.001Z</time></trkpt><trkpt lat="42.64120947900807" lon="12.102416796084766"><ele>474.0</ele><time>2026-04-17T16:01:02.001Z</time></trkpt><trkpt lat="42.64119384579408" lon="12.102195160442456"><ele>474.0</ele><time>2026-04-17T16:01:03.001Z</time></trkpt><trkpt lat="42.641172537308606" lon="12.101973847358899"><ele>475.0</ele><time>2026-04-17T16:01:04.001Z</time></trkpt><trkpt lat="42.64114480663396" lon="12.101746528588004"><ele>476.0</ele><time>2026-04-17T16:01:05.001Z</time></trkpt><trkpt lat="42.641110981190984" lon="12.101523626607912"><ele>477.0</ele><time>2026-04-17T16:01:06.001Z</time></trkpt><trkpt lat="42.641063889172884" lon="12.10129893129019"><ele>478.33333333333337</ele><time>2026-04-17T16:01:07.001Z</time></trkpt><trkpt lat="42.641021702077886" lon="12.101074240470949"><ele>479.6666666666667</ele><time>2026-04-17T16:01:08.001Z</time></trkpt><trkpt lat="42.64097741043484" lon="12.100840959151181"><ele>481.0</ele><time>2026-04-17T16:01:09.001Z</time></trkpt><trkpt lat="42.64092923467486" lon="12.1006050231883"><ele>482.0</ele><time>2026-04-17T16:01:10.001Z</time></trkpt><trkpt lat="42.64087365404991" lon="12.10038545158313"><ele>483.0</ele><time>2026-04-17T16:01:11.001Z</time></trkpt><trkpt lat="42.64081824231052" lon="12.10018605664257"><ele>484.0</ele><time>2026-04-17T16:01:12.001Z</time></trkpt><trkpt lat="42.6407601730422" lon="12.099998802058598"><ele>484.6666666666667</ele><time>2026-04-17T16:01:13.001Z</time></trkpt><trkpt lat="42.6406889522953" lon="12.099812692376934"><ele>485.33333333333337</ele><time>2026-04-17T16:01:14.001Z</time></trkpt><trkpt lat="42.64060620159774" lon="12.09963164374869"><ele>486.0</ele><time>2026-04-17T16:01:15.001Z</time></trkpt><trkpt lat="42.64052370747025" lon="12.099464714145114"><ele>486.0</ele><time>2026-04-17T16:01:16.001Z</time></trkpt><trkpt lat="42.64044997202935" lon="12.099308656649658"><ele>486.0</ele><time>2026-04-17T16:01:17.001Z</time></trkpt><trkpt lat="42.64039152999093" lon="12.099149264962085"><ele>486.0</ele><time>2026-04-17T16:01:18.001Z</time></trkpt><trkpt lat="42.64034551311709" lon="12.098978430985058"><ele>486.0</ele><time>2026-04-17T16:01:19.001Z</time></trkpt><trkpt lat="42.64031601277135" lon="12.098796124448846"><ele>486.75</ele><time>2026-04-17T16:01:20.001Z</time></trkpt><trkpt lat="42.64031015148655" lon="12.098605514926211"><ele>487.5</ele><time>2026-04-17T16:01:21.001Z</time></trkpt><trkpt lat="42.64032653353674" lon="12.098435063270218"><ele>488.25</ele><time>2026-04-17T16:01:22.001Z</time></trkpt><trkpt lat="42.64035869566296" lon="12.09829803734139"><ele>489.0</ele><time>2026-04-17T16:01:23.001Z</time></trkpt><trkpt lat="42.64038994361625" lon="12.098184051662203"><ele>488.79999999999995</ele><time>2026-04-17T16:01:24.001Z</time></trkpt><trkpt lat="42.64044020057356" lon="12.098060979237026"><ele>488.59999999999997</ele><time>2026-04-17T16:01:26.001Z</time></trkpt><trkpt lat="42.640466310768595" lon="12.097954752728524"><ele>488.4</ele><time>2026-04-17T16:01:41.002Z</time></trkpt><trkpt lat="42.64038714645419" lon="12.097846299759881"><ele>488.2</ele><time>2026-04-17T16:01:43.002Z</time></trkpt><trkpt lat="42.64030275880421" lon="12.09779814584579"><ele>488.0</ele><time>2026-04-17T16:01:44.002Z</time></trkpt><trkpt lat="42.64022785607771" lon="12.09772936513346"><ele>488.0</ele><time>2026-04-17T16:01:45.002Z</time></trkpt><trkpt lat="42.64013177999631" lon="12.097651058502093"><ele>488.0</ele><time>2026-04-17T16:01:46.001Z</time></trkpt><trkpt lat="42.64002907117736" lon="12.097558539096674"><ele>488.0</ele><time>2026-04-17T16:01:47.001Z</time></trkpt><trkpt lat="42.63992568791259" lon="12.097462117774398"><ele>488.0</ele><time>2026-04-17T16:01:48.001Z</time></trkpt><trkpt lat="42.63981115681231" lon="12.097351714467752"><ele>489.0</ele><time>2026-04-17T16:01:49.001Z</time></trkpt><trkpt lat="42.63968179288755" lon="12.09723297357342"><ele>490.0</ele><time>2026-04-17T16:01:50.001Z</time></trkpt><trkpt lat="42.63954508918046" lon="12.09710968449574"><ele>491.0</ele><time>2026-04-17T16:01:51.001Z</time></trkpt><trkpt lat="42.63940057721026" lon="12.09697975661828"><ele>491.0</ele><time>2026-04-17T16:01:52.001Z</time></trkpt><trkpt lat="42.63924560814121" lon="12.096840413378159"><ele>491.0</ele><time>2026-04-17T16:01:53.001Z</time></trkpt><trkpt lat="42.639086608903206" lon="12.096698312353912"><ele>491.0</ele><time>2026-04-17T16:01:54.001Z</time></trkpt><trkpt lat="42.638923425752395" lon="12.096549108216825"><ele>492.0</ele><time>2026-04-17T16:01:55.001Z</time></trkpt><trkpt lat="42.638758771932714" lon="12.096402101253284"><ele>493.0</ele><time>2026-04-17T16:01:56.001Z</time></trkpt><trkpt lat="42.638591985843995" lon="12.096255836630313"><ele>494.0</ele><time>2026-04-17T16:01:57.001Z</time></trkpt><trkpt lat="42.63842812333151" lon="12.09610778817532"><ele>495.0</ele><time>2026-04-17T16:01:58.001Z</time></trkpt><trkpt lat="42.63827187035103" lon="12.095967725707627"><ele>496.0</ele><time>2026-04-17T16:01:59.001Z</time></trkpt><trkpt lat="42.638129093990734" lon="12.095840205605633"><ele>497.0</ele><time>2026-04-17T16:02:00.001Z</time></trkpt><trkpt lat="42.637986954079736" lon="12.095709327359918"><ele>497.3333333333333</ele><time>2026-04-17T16:02:01.001Z</time></trkpt><trkpt lat="42.63784187965239" lon="12.095576811194489"><ele>497.66666666666663</ele><time>2026-04-17T16:02:02.001Z</time></trkpt><trkpt lat="42.63770201110854" lon="12.095440670920958"><ele>498.0</ele><time>2026-04-17T16:02:03.001Z</time></trkpt><trkpt lat="42.63756660243354" lon="12.09528823472621"><ele>498.0</ele><time>2026-04-17T16:02:04.001Z</time></trkpt><trkpt lat="42.63743676405482" lon="12.095115887432964"><ele>498.0</ele><time>2026-04-17T16:02:05.001Z</time></trkpt><trkpt lat="42.63731022127907" lon="12.094942767803778"><ele>498.0</ele><time>2026-04-17T16:02:06.001Z</time></trkpt><trkpt lat="42.637187933569066" lon="12.09477632049606"><ele>498.33333333333337</ele><time>2026-04-17T16:02:07.001Z</time></trkpt><trkpt lat="42.63707247389576" lon="12.094618991238077"><ele>498.6666666666667</ele><time>2026-04-17T16:02:08.001Z</time></trkpt><trkpt lat="42.636961159674556" lon="12.094465276615173"><ele>499.0</ele><time>2026-04-17T16:02:09.001Z</time></trkpt><trkpt lat="42.63685855374321" lon="12.09432089877181"><ele>499.0</ele><time>2026-04-17T16:02:10.001Z</time></trkpt><trkpt lat="42.63676712217343" lon="12.094178930190328"><ele>499.0</ele><time>2026-04-17T16:02:11.001Z</time></trkpt><trkpt lat="42.63670235176395" lon="12.094041890331319"><ele>499.0</ele><time>2026-04-17T16:02:12.001Z</time></trkpt><trkpt lat="42.63667139839853" lon="12.093914980997177"><ele>499.0</ele><time>2026-04-17T16:02:13.001Z</time></trkpt><trkpt lat="42.63664631400612" lon="12.09382204606149"><ele>499.0</ele><time>2026-04-17T16:02:14.001Z</time></trkpt><trkpt lat="42.63672134719202" lon="12.093666290234081"><ele>499.5</ele><time>2026-04-17T16:02:15.001Z</time></trkpt><trkpt lat="42.63673799930748" lon="12.093526269161991"><ele>500.0</ele><time>2026-04-17T16:02:16.001Z</time></trkpt><trkpt lat="42.63687568346516" lon="12.093411083057674"><ele>500.5</ele><time>2026-04-17T16:02:17.001Z</time></trkpt><trkpt lat="42.636996555247734" lon="12.093282737882383"><ele>501.0</ele><time>2026-04-17T16:02:18.001Z</time></trkpt><trkpt lat="42.63713413480568" lon="12.093141609009223"><ele>503.0</ele><time>2026-04-17T16:02:19.001Z</time></trkpt><trkpt lat="42.63727543383213" lon="12.092996058939969"><ele>505.0</ele><time>2026-04-17T16:02:20.001Z</time></trkpt><trkpt lat="42.637414127815305" lon="12.092852672316218"><ele>507.0</ele><time>2026-04-17T16:02:21.001Z</time></trkpt><trkpt lat="42.637555997519584" lon="12.092709257584888"><ele>507.0</ele><time>2026-04-17T16:02:22.001Z</time></trkpt><trkpt lat="42.637701186027044" lon="12.092566538918721"><ele>507.0</ele><time>2026-04-17T16:02:23.001Z</time></trkpt><trkpt lat="42.63784373016371" lon="12.0924279804946"><ele>507.0</ele><time>2026-04-17T16:02:24.001Z</time></trkpt><trkpt lat="42.637976556102714" lon="12.092295922725988"><ele>507.66666666666663</ele><time>2026-04-17T16:02:25.001Z</time></trkpt><trkpt lat="42.63810203923962" lon="12.092168935380906"><ele>508.3333333333333</ele><time>2026-04-17T16:02:26.001Z</time></trkpt><trkpt lat="42.63823508017328" lon="12.092042319381054"><ele>509.0</ele><time>2026-04-17T16:02:27.001Z</time></trkpt><trkpt lat="42.6383778887434" lon="12.091922068186538"><ele>509.0</ele><time>2026-04-17T16:02:28.001Z</time></trkpt><trkpt lat="42.63852827990751" lon="12.091808135225568"><ele>509.0</ele><time>2026-04-17T16:02:29.001Z</time></trkpt><trkpt lat="42.63868498012248" lon="12.091689237095256"><ele>509.0</ele><time>2026-04-17T16:02:30.001Z</time></trkpt><trkpt lat="42.6388522611573" lon="12.091561404164382"><ele>508.66666666666663</ele><time>2026-04-17T16:02:31.001Z</time></trkpt><trkpt lat="42.639023689435255" lon="12.091427866871477"><ele>508.33333333333337</ele><time>2026-04-17T16:02:32.001Z</time></trkpt><trkpt lat="42.63918068914252" lon="12.09130477795064"><ele>508.0</ele><time>2026-04-17T16:02:33.001Z</time></trkpt><trkpt lat="42.63933679180821" lon="12.091182742466842"><ele>507.6666666666667</ele><time>2026-04-17T16:02:34.001Z</time></trkpt><trkpt lat="42.639485428988884" lon="12.0910704151757"><ele>507.33333333333337</ele><time>2026-04-17T16:02:35.001Z</time></trkpt><trkpt lat="42.63962672645859" lon="12.090966033325664"><ele>507.0</ele><time>2026-04-17T16:02:36.001Z</time></trkpt><trkpt lat="42.63976043451598" lon="12.09085779451787"><ele>506.66666666666663</ele><time>2026-04-17T16:02:37.001Z</time></trkpt><trkpt lat="42.639889012284236" lon="12.090728044917737"><ele>506.3333333333333</ele><time>2026-04-17T16:02:38.001Z</time></trkpt><trkpt lat="42.64001280155513" lon="12.090566537921198"><ele>506.0</ele><time>2026-04-17T16:02:39.001Z</time></trkpt><trkpt lat="42.640126949763996" lon="12.090380009308781"><ele>506.0</ele><time>2026-04-17T16:02:40.001Z</time></trkpt><trkpt lat="42.64021407749971" lon="12.090191584590958"><ele>506.0</ele><time>2026-04-17T16:02:41.001Z</time></trkpt><trkpt lat="42.640281942237515" lon="12.090012109868905"><ele>506.0</ele><time>2026-04-17T16:02:42.001Z</time></trkpt><trkpt lat="42.64033693273476" lon="12.089842171909925"><ele>506.0</ele><time>2026-04-17T16:02:43.001Z</time></trkpt><trkpt lat="42.640378816136504" lon="12.089662156965586"><ele>507.66666666666663</ele><time>2026-04-17T16:02:44.001Z</time></trkpt><trkpt lat="42.64040888183956" lon="12.089465908725789"><ele>509.33333333333337</ele><time>2026-04-17T16:02:45.001Z</time></trkpt><trkpt lat="42.64042891818297" lon="12.08924321382691"><ele>511.0</ele><time>2026-04-17T16:02:46.001Z</time></trkpt><trkpt lat="42.64044254071236" lon="12.08899531182371"><ele>511.0</ele><time>2026-04-17T16:02:47.001Z</time></trkpt><trkpt lat="42.6404555480732" lon="12.088740538662638"><ele>511.0</ele><time>2026-04-17T16:02:48.001Z</time></trkpt><trkpt lat="42.64046677596566" lon="12.08847485236018"><ele>511.0</ele><time>2026-04-17T16:02:49.001Z</time></trkpt><trkpt lat="42.6404940598082" lon="12.088199893913538"><ele>509.5</ele><time>2026-04-17T16:02:50.001Z</time></trkpt><trkpt lat="42.64048293114619" lon="12.087887066406768"><ele>508.0</ele><time>2026-04-17T16:02:51.001Z</time></trkpt><trkpt lat="42.64050712795" lon="12.08756984945685"><ele>509.0</ele><time>2026-04-17T16:02:52.001Z</time></trkpt><trkpt lat="42.6405404297152" lon="12.087264017147488"><ele>510.0</ele><time>2026-04-17T16:02:53.001Z</time></trkpt><trkpt lat="42.6405583962924" lon="12.086989318409783"><ele>511.0</ele><time>2026-04-17T16:02:54.001Z</time></trkpt><trkpt lat="42.640570431783054" lon="12.08671222202466"><ele>512.3333333333334</ele><time>2026-04-17T16:02:55.001Z</time></trkpt><trkpt lat="42.640579923028604" lon="12.08642046190754"><ele>513.6666666666666</ele><time>2026-04-17T16:02:56.001Z</time></trkpt><trkpt lat="42.64059488900971" lon="12.086120906381698"><ele>515.0</ele><time>2026-04-17T16:02:57.001Z</time></trkpt><trkpt lat="42.64061014429481" lon="12.085825559107175"><ele>515.3333333333333</ele><time>2026-04-17T16:02:58.001Z</time></trkpt><trkpt lat="42.64062619281681" lon="12.085546258222221"><ele>515.6666666666666</ele><time>2026-04-17T16:02:59.001Z</time></trkpt><trkpt lat="42.64063900964058" lon="12.08525886272851"><ele>516.0</ele><time>2026-04-17T16:03:00.001Z</time></trkpt><trkpt lat="42.640656649617775" lon="12.084998328078779"><ele>514.6666666666666</ele><time>2026-04-17T16:03:01.001Z</time></trkpt><trkpt lat="42.64067468515118" lon="12.084736317191918"><ele>513.3333333333333</ele><time>2026-04-17T16:03:02.001Z</time></trkpt><trkpt lat="42.6406867699291" lon="12.084475596689604"><ele>512.0</ele><time>2026-04-17T16:03:03.001Z</time></trkpt><trkpt lat="42.64070526739636" lon="12.084209609822532"><ele>510.66666666666663</ele><time>2026-04-17T16:03:04.001Z</time></trkpt><trkpt lat="42.640739831056955" lon="12.083938273148343"><ele>509.33333333333337</ele><time>2026-04-17T16:03:05.001Z</time></trkpt><trkpt lat="42.64079400794207" lon="12.083658400799568"><ele>508.0</ele><time>2026-04-17T16:03:06.001Z</time></trkpt><trkpt lat="42.64085446878893" lon="12.083384769891042"><ele>508.6666666666667</ele><time>2026-04-17T16:03:07.001Z</time></trkpt><trkpt lat="42.64091113435498" lon="12.08312884918186"><ele>509.33333333333337</ele><time>2026-04-17T16:03:08.001Z</time></trkpt><trkpt lat="42.64095673085775" lon="12.082877016186806"><ele>510.0</ele><time>2026-04-17T16:03:09.001Z</time></trkpt><trkpt lat="42.640992925537724" lon="12.082616535308619"><ele>510.33333333333337</ele><time>2026-04-17T16:03:10.001Z</time></trkpt><trkpt lat="42.64102546587014" lon="12.082350484126058"><ele>510.6666666666667</ele><time>2026-04-17T16:03:11.001Z</time></trkpt><trkpt lat="42.64105565838986" lon="12.082078923206508"><ele>511.0</ele><time>2026-04-17T16:03:12.001Z</time></trkpt><trkpt lat="42.641079842225835" lon="12.081800618793993"><ele>510.6666666666667</ele><time>2026-04-17T16:03:13.001Z</time></trkpt><trkpt lat="42.64109543425617" lon="12.08151628095427"><ele>510.33333333333337</ele><time>2026-04-17T16:03:14.001Z</time></trkpt><trkpt lat="42.641101224601215" lon="12.081231257832167"><ele>510.0</ele><time>2026-04-17T16:03:15.001Z</time></trkpt><trkpt lat="42.64110800707532" lon="12.080952564894318"><ele>510.0</ele><time>2026-04-17T16:03:16.001Z</time></trkpt><trkpt lat="42.64111866019432" lon="12.080684085010953"><ele>510.0</ele><time>2026-04-17T16:03:17.001Z</time></trkpt><trkpt lat="42.64112342956807" lon="12.080428280283938"><ele>510.0</ele><time>2026-04-17T16:03:18.001Z</time></trkpt><trkpt lat="42.64113234843526" lon="12.080186872488683"><ele>508.66666666666663</ele><time>2026-04-17T16:03:19.001Z</time></trkpt><trkpt lat="42.64115311508061" lon="12.079958305753156"><ele>507.3333333333333</ele><time>2026-04-17T16:03:20.001Z</time></trkpt><trkpt lat="42.64118857423644" lon="12.079720184430993"><ele>506.0</ele><time>2026-04-17T16:03:21.001Z</time></trkpt><trkpt lat="42.64123522459741" lon="12.07947110270301"><ele>506.0</ele><time>2026-04-17T16:03:22.001Z</time></trkpt><trkpt lat="42.64128984186868" lon="12.079222259992031"><ele>506.0</ele><time>2026-04-17T16:03:23.001Z</time></trkpt><trkpt lat="42.641349665522036" lon="12.078988361356881"><ele>506.0</ele><time>2026-04-17T16:03:24.001Z</time></trkpt><trkpt lat="42.64141512682096" lon="12.078760875320732"><ele>507.66666666666663</ele><time>2026-04-17T16:03:25.001Z</time></trkpt><trkpt lat="42.64148200225652" lon="12.078534361351611"><ele>509.33333333333337</ele><time>2026-04-17T16:03:26.001Z</time></trkpt><trkpt lat="42.641547583558136" lon="12.078312400976722"><ele>511.0</ele><time>2026-04-17T16:03:27.001Z</time></trkpt><trkpt lat="42.64161261653429" lon="12.078096532953998"><ele>511.6666666666667</ele><time>2026-04-17T16:03:28.001Z</time></trkpt><trkpt lat="42.641678857707575" lon="12.07788553087574"><ele>512.3333333333334</ele><time>2026-04-17T16:03:29.001Z</time></trkpt><trkpt lat="42.64175117972615" lon="12.077686356778138"><ele>513.0</ele><time>2026-04-17T16:03:30.001Z</time></trkpt><trkpt lat="42.641830547088055" lon="12.077505687147191"><ele>513.5</ele><time>2026-04-17T16:03:31.001Z</time></trkpt><trkpt lat="42.64190699042528" lon="12.077338851358627"><ele>514.0</ele><time>2026-04-17T16:03:32.001Z</time></trkpt><trkpt lat="42.6419835858541" lon="12.077178040644517"><ele>514.5</ele><time>2026-04-17T16:03:33.001Z</time></trkpt><trkpt lat="42.64205868064291" lon="12.077008613665555"><ele>515.0</ele><time>2026-04-17T16:03:34.001Z</time></trkpt><trkpt lat="42.642139829132525" lon="12.07683151125101"><ele>513.3333333333333</ele><time>2026-04-17T16:03:35.001Z</time></trkpt><trkpt lat="42.64222090899979" lon="12.076657670588727"><ele>511.66666666666663</ele><time>2026-04-17T16:03:36.001Z</time></trkpt><trkpt lat="42.64230130130769" lon="12.076483734412268"><ele>510.0</ele><time>2026-04-17T16:03:37.001Z</time></trkpt><trkpt lat="42.64238119003956" lon="12.076314597769104"><ele>510.0</ele><time>2026-04-17T16:03:38.001Z</time></trkpt><trkpt lat="42.64246007417828" lon="12.076149491794851"><ele>510.0</ele><time>2026-04-17T16:03:39.001Z</time></trkpt><trkpt lat="42.64254292838236" lon="12.075985448809728"><ele>510.0</ele><time>2026-04-17T16:03:40.001Z</time></trkpt><trkpt lat="42.6426284146558" lon="12.07583242312305"><ele>510.0</ele><time>2026-04-17T16:03:41.001Z</time></trkpt><trkpt lat="42.642717440885704" lon="12.075695286923398"><ele>509.5</ele><time>2026-04-17T16:03:42.001Z</time></trkpt><trkpt lat="42.64281065851431" lon="12.075570036984344"><ele>509.0</ele><time>2026-04-17T16:03:43.001Z</time></trkpt><trkpt lat="42.6429051439397" lon="12.075458642155432"><ele>508.5</ele><time>2026-04-17T16:03:44.001Z</time></trkpt><trkpt lat="42.64300012108026" lon="12.07535892254242"><ele>508.0</ele><time>2026-04-17T16:03:45.002Z</time></trkpt><trkpt lat="42.64309542084661" lon="12.075265415876785"><ele>508.0</ele><time>2026-04-17T16:03:46.002Z</time></trkpt><trkpt lat="42.643193724401414" lon="12.075173203807886"><ele>507.99999999999994</ele><time>2026-04-17T16:03:47.002Z</time></trkpt><trkpt lat="42.643290005118075" lon="12.075083291768092"><ele>507.99999999999994</ele><time>2026-04-17T16:03:48.002Z</time></trkpt><trkpt lat="42.64337384162978" lon="12.075006579369026"><ele>508.0</ele><time>2026-04-17T16:03:49.002Z</time></trkpt><trkpt lat="42.643448792681696" lon="12.074950692302519"><ele>508.0</ele><time>2026-04-17T16:03:50.002Z</time></trkpt><trkpt lat="42.643519112636966" lon="12.074928757099098"><ele>507.59999999999997</ele><time>2026-04-17T16:03:51.002Z</time></trkpt><trkpt lat="42.643591569607416" lon="12.074874135678542"><ele>507.19999999999993</ele><time>2026-04-17T16:03:53.001Z</time></trkpt><trkpt lat="42.64369412288102" lon="12.074965180421339"><ele>506.8</ele><time>2026-04-17T16:03:54.001Z</time></trkpt><trkpt lat="42.64375725952088" lon="12.07493950331288"><ele>506.4</ele><time>2026-04-17T16:03:55.001Z</time></trkpt><trkpt lat="42.64382882739179" lon="12.074878147764574"><ele>506.0</ele><time>2026-04-17T16:03:56.001Z</time></trkpt><trkpt lat="42.643914849713504" lon="12.074796100498439"><ele>507.20000000000005</ele><time>2026-04-17T16:03:57.001Z</time></trkpt><trkpt lat="42.644011690076475" lon="12.07470167359432"><ele>508.40000000000003</ele><time>2026-04-17T16:03:58.001Z</time></trkpt><trkpt lat="42.64411969422902" lon="12.074623808045782"><ele>509.6</ele><time>2026-04-17T16:03:59.001Z</time></trkpt><trkpt lat="42.64422116680043" lon="12.074568891296131"><ele>510.8</ele><time>2026-04-17T16:04:00.001Z</time></trkpt><trkpt lat="42.64431313695045" lon="12.074569883154915"><ele>512.0</ele><time>2026-04-17T16:04:01.001Z</time></trkpt><trkpt lat="42.6443893609966" lon="12.074534361662304"><ele>510.8333333333333</ele><time>2026-04-17T16:04:02.001Z</time></trkpt><trkpt lat="42.64446946101272" lon="12.0746029467482"><ele>509.66666666666663</ele><time>2026-04-17T16:04:03.001Z</time></trkpt><trkpt lat="42.64454450061137" lon="12.074609538039153"><ele>508.5</ele><time>2026-04-17T16:04:04.001Z</time></trkpt><trkpt lat="42.64461636083717" lon="12.074568278493869"><ele>507.33333333333337</ele><time>2026-04-17T16:04:05.001Z</time></trkpt><trkpt lat="42.64467423186271" lon="12.074463612464964"><ele>506.1666666666667</ele><time>2026-04-17T16:04:06.001Z</time></trkpt><trkpt lat="42.6447251611535" lon="12.074345744852018"><ele>505.0</ele><time>2026-04-17T16:04:07.001Z</time></trkpt><trkpt lat="42.64477722063748" lon="12.074224827311996"><ele>505.0</ele><time>2026-04-17T16:04:08.001Z</time></trkpt><trkpt lat="42.644787724148316" lon="12.074106712865754"><ele>505.0</ele><time>2026-04-17T16:04:09.001Z</time></trkpt><trkpt lat="42.64492561086853" lon="12.074107513995854"><ele>505.0</ele><time>2026-04-17T16:04:10.001Z</time></trkpt><trkpt lat="42.645011031292604" lon="12.07405815007235"><ele>505.0</ele><time>2026-04-17T16:04:11.001Z</time></trkpt><trkpt lat="42.64508824626186" lon="12.07402848060576"><ele>505.0</ele><time>2026-04-17T16:04:12.001Z</time></trkpt><trkpt lat="42.64515122117973" lon="12.074039959681658"><ele>507.25</ele><time>2026-04-17T16:04:13.001Z</time></trkpt><trkpt lat="42.645301271054194" lon="12.074120412780042"><ele>509.5</ele><time>2026-04-17T16:04:15.001Z</time></trkpt><trkpt lat="42.64541791688567" lon="12.074195876944858"><ele>511.75</ele><time>2026-04-17T16:04:16Z</time></trkpt><trkpt lat="42.64554274662681" lon="12.074261645215863"><ele>514.0</ele><time>2026-04-17T16:04:17Z</time></trkpt><trkpt lat="42.6456742543242" lon="12.074315333524671"><ele>514.0</ele><time>2026-04-17T16:04:18Z</time></trkpt><trkpt lat="42.64579258734911" lon="12.07437834124442"><ele>514.0</ele><time>2026-04-17T16:04:19.001Z</time></trkpt><trkpt lat="42.64588748989373" lon="12.074423766820182"><ele>514.0</ele><time>2026-04-17T16:04:20.001Z</time></trkpt><trkpt lat="42.64595914812683" lon="12.074442004124926"><ele>514.0</ele><time>2026-04-17T16:04:21.001Z</time></trkpt><trkpt lat="42.64607338210727" lon="12.074443414311448"><ele>514.0</ele><time>2026-04-17T16:04:23.001Z</time></trkpt><trkpt lat="42.64615146273551" lon="12.074347590975112"><ele>516.75</ele><time>2026-04-17T16:04:24.001Z</time></trkpt><trkpt lat="42.64624715270537" lon="12.074240172516207"><ele>519.5</ele><time>2026-04-17T16:04:25.001Z</time></trkpt><trkpt lat="42.64636642440787" lon="12.074101935619419"><ele>522.25</ele><time>2026-04-17T16:04:26.001Z</time></trkpt><trkpt lat="42.646471782198915" lon="12.073956331357826"><ele>525.0</ele><time>2026-04-17T16:04:27.001Z</time></trkpt><trkpt lat="42.64658022715862" lon="12.073827233108904"><ele>525.8</ele><time>2026-04-17T16:04:28.001Z</time></trkpt><trkpt lat="42.64665499738103" lon="12.073733446816945"><ele>526.6</ele><time>2026-04-17T16:04:29.001Z</time></trkpt><trkpt lat="42.64670481392419" lon="12.073646630006111"><ele>527.4</ele><time>2026-04-17T16:04:30.001Z</time></trkpt><trkpt lat="42.64672366074427" lon="12.07354799177132"><ele>528.2</ele><time>2026-04-17T16:04:31.001Z</time></trkpt><trkpt lat="42.64674316498254" lon="12.07341979300114"><ele>529.0</ele><time>2026-04-17T16:04:32.001Z</time></trkpt><trkpt lat="42.64675966724097" lon="12.073288560526931"><ele>528.1666666666667</ele><time>2026-04-17T16:04:33.001Z</time></trkpt><trkpt lat="42.64679563716015" lon="12.073185825037033"><ele>527.3333333333334</ele><time>2026-04-17T16:04:34.001Z</time></trkpt><trkpt lat="42.646844187727744" lon="12.073097170211055"><ele>526.5</ele><time>2026-04-17T16:04:35.001Z</time></trkpt><trkpt lat="42.64689349907624" lon="12.073021578675322"><ele>525.6666666666666</ele><time>2026-04-17T16:04:36.001Z</time></trkpt><trkpt lat="42.646971451610206" lon="12.072965019939687"><ele>524.8333333333333</ele><time>2026-04-17T16:04:37.001Z</time></trkpt><trkpt lat="42.64706315599747" lon="12.072902065618079"><ele>524.0</ele><time>2026-04-17T16:04:38.001Z</time></trkpt><trkpt lat="42.6471746887791" lon="12.072848309265877"><ele>527.5</ele><time>2026-04-17T16:04:39.001Z</time></trkpt><trkpt lat="42.64729009176257" lon="12.072791225045199"><ele>531.0</ele><time>2026-04-17T16:04:40.001Z</time></trkpt><trkpt lat="42.64742484766425" lon="12.072731276345017"><ele>534.5</ele><time>2026-04-17T16:04:41.001Z</time></trkpt><trkpt lat="42.64758499094688" lon="12.072664540959734"><ele>538.0</ele><time>2026-04-17T16:04:42.001Z</time></trkpt><trkpt lat="42.647730523621625" lon="12.072604825320347"><ele>537.5</ele><time>2026-04-17T16:04:43.001Z</time></trkpt><trkpt lat="42.6478551608673" lon="12.072549847966176"><ele>537.0</ele><time>2026-04-17T16:04:44.001Z</time></trkpt><trkpt lat="42.64796197346601" lon="12.072503382718784"><ele>536.5</ele><time>2026-04-17T16:04:45.001Z</time></trkpt><trkpt lat="42.6480698290869" lon="12.072452206854601"><ele>536.0</ele><time>2026-04-17T16:04:46.001Z</time></trkpt><trkpt lat="42.64819966179252" lon="12.072396170427105"><ele>536.0</ele><time>2026-04-17T16:04:47.001Z</time></trkpt><trkpt lat="42.648330653606465" lon="12.072358669360494"><ele>536.0</ele><time>2026-04-17T16:04:48.001Z</time></trkpt><trkpt lat="42.648457539899326" lon="12.07232409863249"><ele>536.0</ele><time>2026-04-17T16:04:49.001Z</time></trkpt><trkpt lat="42.648566127187216" lon="12.072257399896621"><ele>536.0</ele><time>2026-04-17T16:04:50.001Z</time></trkpt><trkpt lat="42.64867254266743" lon="12.072174520080232"><ele>537.25</ele><time>2026-04-17T16:04:51.001Z</time></trkpt><trkpt lat="42.64878812127867" lon="12.072064518282199"><ele>538.5</ele><time>2026-04-17T16:04:52.001Z</time></trkpt><trkpt lat="42.64891092893775" lon="12.071961522256245"><ele>539.75</ele><time>2026-04-17T16:04:53.001Z</time></trkpt><trkpt lat="42.64903188774966" lon="12.07187002354237"><ele>541.0</ele><time>2026-04-17T16:04:54.001Z</time></trkpt><trkpt lat="42.64915190682958" lon="12.071820530972678"><ele>541.0</ele><time>2026-04-17T16:04:55.001Z</time></trkpt><trkpt lat="42.64925875175848" lon="12.071774503948395"><ele>541.0</ele><time>2026-04-17T16:04:56.001Z</time></trkpt><trkpt lat="42.649349183430324" lon="12.071758362651131"><ele>541.0</ele><time>2026-04-17T16:04:57.001Z</time></trkpt><trkpt lat="42.649436098702495" lon="12.07175185864086"><ele>541.0</ele><time>2026-04-17T16:04:58.001Z</time></trkpt><trkpt lat="42.64951342655974" lon="12.071826205385404"><ele>541.0</ele><time>2026-04-17T16:04:59.001Z</time></trkpt><trkpt lat="42.649593775474514" lon="12.071890114360917"><ele>540.4</ele><time>2026-04-17T16:05:00.001Z</time></trkpt><trkpt lat="42.64967613239225" lon="12.071989695261614"><ele>539.8</ele><time>2026-04-17T16:05:01.001Z</time></trkpt><trkpt lat="42.64977076453037" lon="12.072060219877937"><ele>539.1999999999999</ele><time>2026-04-17T16:05:02.001Z</time></trkpt><trkpt lat="42.64985241215189" lon="12.072113283018426"><ele>538.6</ele><time>2026-04-17T16:05:03.001Z</time></trkpt><trkpt lat="42.64992903696413" lon="12.072124214222503"><ele>538.0</ele><time>2026-04-17T16:05:04.001Z</time></trkpt><trkpt lat="42.64999968068607" lon="12.072104987302176"><ele>538.0</ele><time>2026-04-17T16:05:05.001Z</time></trkpt><trkpt lat="42.65008261293743" lon="12.072039207521783"><ele>538.0</ele><time>2026-04-17T16:05:06.001Z</time></trkpt><trkpt lat="42.650181077587995" lon="12.07192921402018"><ele>538.0</ele><time>2026-04-17T16:05:07.001Z</time></trkpt><trkpt lat="42.65029190676913" lon="12.071824807673632"><ele>538.0</ele><time>2026-04-17T16:05:08.001Z</time></trkpt><trkpt lat="42.65042185967651" lon="12.071794195601049"><ele>537.5</ele><time>2026-04-17T16:05:09.001Z</time></trkpt><trkpt lat="42.65055397269995" lon="12.071773394685318"><ele>537.0</ele><time>2026-04-17T16:05:10.001Z</time></trkpt><trkpt lat="42.65067481943377" lon="12.07172401217789"><ele>536.5</ele><time>2026-04-17T16:05:11.001Z</time></trkpt><trkpt lat="42.650788086476595" lon="12.071729400798763"><ele>536.0</ele><time>2026-04-17T16:05:12.001Z</time></trkpt><trkpt lat="42.65089974714357" lon="12.071751600348774"><ele>536.0</ele><time>2026-04-17T16:05:13.001Z</time></trkpt><trkpt lat="42.65102028894391" lon="12.071781846627928"><ele>536.0</ele><time>2026-04-17T16:05:14.001Z</time></trkpt><trkpt lat="42.65113871688637" lon="12.071818446054959"><ele>536.0</ele><time>2026-04-17T16:05:15.001Z</time></trkpt><trkpt lat="42.65125974587354" lon="12.071863052286785"><ele>536.0</ele><time>2026-04-17T16:05:16.001Z</time></trkpt><trkpt lat="42.65137090363274" lon="12.071917422571712"><ele>535.25</ele><time>2026-04-17T16:05:17.001Z</time></trkpt><trkpt lat="42.65149347644625" lon="12.071988582466137"><ele>534.5</ele><time>2026-04-17T16:05:18.001Z</time></trkpt><trkpt lat="42.6516329507158" lon="12.072076901696011"><ele>533.75</ele><time>2026-04-17T16:05:19.001Z</time></trkpt><trkpt lat="42.65177161880426" lon="12.072160495199832"><ele>533.0</ele><time>2026-04-17T16:05:20.001Z</time></trkpt><trkpt lat="42.651901854387766" lon="12.072257075830876"><ele>533.25</ele><time>2026-04-17T16:05:21.001Z</time></trkpt><trkpt lat="42.65202802026039" lon="12.07234266482368"><ele>533.5</ele><time>2026-04-17T16:05:22.001Z</time></trkpt><trkpt lat="42.652144806619084" lon="12.072439804924114"><ele>533.75</ele><time>2026-04-17T16:05:23.001Z</time></trkpt><trkpt lat="42.652249239394074" lon="12.072495711635694"><ele>534.0</ele><time>2026-04-17T16:05:24.001Z</time></trkpt><trkpt lat="42.652323755893526" lon="12.072584430469131"><ele>534.0</ele><time>2026-04-17T16:05:25.001Z</time></trkpt><trkpt lat="42.6523913184198" lon="12.072646707229453"><ele>534.0</ele><time>2026-04-17T16:05:26.001Z</time></trkpt><trkpt lat="42.65248260163333" lon="12.072694121208485"><ele>534.0</ele><time>2026-04-17T16:05:28.001Z</time></trkpt><trkpt lat="42.65255340441621" lon="12.072599225367167"><ele>534.0</ele><time>2026-04-17T16:05:29.001Z</time></trkpt><trkpt lat="42.6526262320272" lon="12.07250809194308"><ele>534.0</ele><time>2026-04-17T16:05:30.001Z</time></trkpt><trkpt lat="42.65269797999014" lon="12.072394105565936"><ele>534.0</ele><time>2026-04-17T16:05:31.001Z</time></trkpt><trkpt lat="42.65273300085981" lon="12.072256729931313"><ele>534.0</ele><time>2026-04-17T16:05:32.001Z</time></trkpt><trkpt lat="42.652807949526434" lon="12.072164198684135"><ele>534.0</ele><time>2026-04-17T16:05:33.001Z</time></trkpt><trkpt lat="42.65288521470925" lon="12.07206419642154"><ele>534.0</ele><time>2026-04-17T16:05:34.001Z</time></trkpt><trkpt lat="42.652951513826935" lon="12.071958363572808"><ele>534.0</ele><time>2026-04-17T16:05:35.001Z</time></trkpt><trkpt lat="42.65300846420734" lon="12.071849529546633"><ele>533.25</ele><time>2026-04-17T16:05:36.001Z</time></trkpt><trkpt lat="42.65304784887159" lon="12.071757534450018"><ele>532.5</ele><time>2026-04-17T16:05:37.001Z</time></trkpt><trkpt lat="42.65308752804188" lon="12.071570301333333"><ele>531.75</ele><time>2026-04-17T16:05:39.001Z</time></trkpt><trkpt lat="42.653052671334066" lon="12.071402703826974"><ele>531.0</ele><time>2026-04-17T16:05:40.001Z</time></trkpt><trkpt lat="42.653064549351505" lon="12.071246622252598"><ele>531.0</ele><time>2026-04-17T16:05:41.001Z</time></trkpt><trkpt lat="42.65308934970402" lon="12.071145951228427"><ele>531.0</ele><time>2026-04-17T16:05:42.001Z</time></trkpt><trkpt lat="42.65316356835608" lon="12.071072529743684"><ele>531.0</ele><time>2026-04-17T16:05:43.001Z</time></trkpt><trkpt lat="42.653252638991475" lon="12.070962722092357"><ele>531.0</ele><time>2026-04-17T16:05:44.001Z</time></trkpt><trkpt lat="42.653331350468946" lon="12.070827459955138"><ele>531.0</ele><time>2026-04-17T16:05:45.001Z</time></trkpt><trkpt lat="42.65337863752338" lon="12.070741426204714"><ele>530.6</ele><time>2026-04-17T16:05:46.001Z</time></trkpt><trkpt lat="42.65341641755663" lon="12.070647518144478"><ele>530.2</ele><time>2026-04-17T16:05:47.001Z</time></trkpt><trkpt lat="42.65345601820557" lon="12.070541093489789"><ele>529.8</ele><time>2026-04-17T16:05:48.001Z</time></trkpt><trkpt lat="42.65348419531779" lon="12.070439972954771"><ele>529.4</ele><time>2026-04-17T16:05:49.001Z</time></trkpt><trkpt lat="42.65349368992234" lon="12.070316122308"><ele>529.0</ele><time>2026-04-17T16:05:50.001Z</time></trkpt><trkpt lat="42.65353149509955" lon="12.070147127178963"><ele>529.0</ele><time>2026-04-17T16:05:51.001Z</time></trkpt><trkpt lat="42.653556518939176" lon="12.069951066989315"><ele>529.0</ele><time>2026-04-17T16:05:52.001Z</time></trkpt><trkpt lat="42.65358381779929" lon="12.069805221420179"><ele>529.0</ele><time>2026-04-17T16:05:53.001Z</time></trkpt><trkpt lat="42.65361041741996" lon="12.069697482443463"><ele>529.0</ele><time>2026-04-17T16:05:54.001Z</time></trkpt><trkpt lat="42.65364146461302" lon="12.069586847093008"><ele>529.0</ele><time>2026-04-17T16:05:55.001Z</time></trkpt><trkpt lat="42.65367555945971" lon="12.069486142750316"><ele>528.8</ele><time>2026-04-17T16:05:56.001Z</time></trkpt><trkpt lat="42.653715011387796" lon="12.069393640419195"><ele>528.5999999999999</ele><time>2026-04-17T16:05:57.001Z</time></trkpt><trkpt lat="42.65376853321444" lon="12.06931922969126"><ele>528.4</ele><time>2026-04-17T16:05:58.001Z</time></trkpt><trkpt lat="42.65386078857126" lon="12.069214975331606"><ele>528.1999999999999</ele><time>2026-04-17T16:05:59.001Z</time></trkpt><trkpt lat="42.6539870032293" lon="12.069091674856574"><ele>528.0</ele><time>2026-04-17T16:06:00.001Z</time></trkpt><trkpt lat="42.65407972713508" lon="12.06899440609446"><ele>528.8</ele><time>2026-04-17T16:06:01.001Z</time></trkpt><trkpt lat="42.6541428092609" lon="12.068933540628322"><ele>529.5999999999999</ele><time>2026-04-17T16:06:02.001Z</time></trkpt><trkpt lat="42.65424510834651" lon="12.069007776766139"><ele>530.4000000000001</ele><time>2026-04-17T16:06:04.001Z</time></trkpt><trkpt lat="42.654346946567095" lon="12.069037751675538"><ele>531.2</ele><time>2026-04-17T16:06:05.001Z</time></trkpt><trkpt lat="42.654439262202125" lon="12.069052647159127"><ele>532.0</ele><time>2026-04-17T16:06:06.001Z</time></trkpt><trkpt lat="42.65453422649953" lon="12.069070196388411"><ele>532.5</ele><time>2026-04-17T16:06:07.001Z</time></trkpt><trkpt lat="42.654661914300064" lon="12.069110469464102"><ele>533.0</ele><time>2026-04-17T16:06:08.001Z</time></trkpt><trkpt lat="42.654821841997276" lon="12.069182891991854"><ele>533.5</ele><time>2026-04-17T16:06:09.001Z</time></trkpt><trkpt lat="42.654967004678454" lon="12.069206892932455"><ele>534.0</ele><time>2026-04-17T16:06:10.001Z</time></trkpt><trkpt lat="42.655070443146144" lon="12.06921790920489"><ele>534.0</ele><time>2026-04-17T16:06:11.001Z</time></trkpt><trkpt lat="42.655148523584174" lon="12.069219122618621"><ele>534.0</ele><time>2026-04-17T16:06:12.001Z</time></trkpt><trkpt lat="42.6552084950124" lon="12.069249406527803"><ele>534.0</ele><time>2026-04-17T16:06:13.001Z</time></trkpt><trkpt lat="42.65524127744221" lon="12.069331950961086"><ele>534.0</ele><time>2026-04-17T16:06:15.001Z</time></trkpt><trkpt lat="42.65524534366512" lon="12.069431850166032"><ele>534.0</ele><time>2026-04-17T16:06:16.001Z</time></trkpt><trkpt lat="42.6552734161715" lon="12.069523778800288"><ele>534.0</ele><time>2026-04-17T16:06:17Z</time></trkpt><trkpt lat="42.65530079648478" lon="12.06964376043322"><ele>535.4</ele><time>2026-04-17T16:06:18Z</time></trkpt><trkpt lat="42.65531105211702" lon="12.069751365661514"><ele>536.8</ele><time>2026-04-17T16:06:19Z</time></trkpt><trkpt lat="42.655289646494154" lon="12.06988862666179"><ele>538.2</ele><time>2026-04-17T16:06:20Z</time></trkpt><trkpt lat="42.655294793136235" lon="12.070007130923427"><ele>539.6</ele><time>2026-04-17T16:06:21Z</time></trkpt><trkpt lat="42.655319502993414" lon="12.070092138210288"><ele>541.0</ele><time>2026-04-17T16:06:22Z</time></trkpt><trkpt lat="42.65540665645466" lon="12.070194357636018"><ele>541.0</ele><time>2026-04-17T16:06:24Z</time></trkpt><trkpt lat="42.65549839539711" lon="12.07020664684356"><ele>541.0</ele><time>2026-04-17T16:06:25Z</time></trkpt><trkpt lat="42.655620200276" lon="12.070204488232584"><ele>541.0</ele><time>2026-04-17T16:06:26Z</time></trkpt><trkpt lat="42.65577947441174" lon="12.070217267235149"><ele>541.0</ele><time>2026-04-17T16:06:27.001Z</time></trkpt><trkpt lat="42.65592666898919" lon="12.070264556064634"><ele>541.0</ele><time>2026-04-17T16:06:28.001Z</time></trkpt><trkpt lat="42.65610170115143" lon="12.070299059824865"><ele>541.0</ele><time>2026-04-17T16:06:29.001Z</time></trkpt><trkpt lat="42.65628446718597" lon="12.070345171777285"><ele>541.0</ele><time>2026-04-17T16:06:30.001Z</time></trkpt><trkpt lat="42.65644769377969" lon="12.070398078945964"><ele>542.5</ele><time>2026-04-17T16:06:31.001Z</time></trkpt><trkpt lat="42.65660703395281" lon="12.07045691205212"><ele>544.0</ele><time>2026-04-17T16:06:32.001Z</time></trkpt><trkpt lat="42.65674260399632" lon="12.07050889749234"><ele>545.5</ele><time>2026-04-17T16:06:33.001Z</time></trkpt><trkpt lat="42.65684328712427" lon="12.07051734363011"><ele>547.0</ele><time>2026-04-17T16:06:34.001Z</time></trkpt><trkpt lat="42.65691186920161" lon="12.070527276925501"><ele>547.0</ele><time>2026-04-17T16:06:35.001Z</time></trkpt><trkpt lat="42.65701770562531" lon="12.070395464603942"><ele>547.0</ele><time>2026-04-17T16:06:37.001Z</time></trkpt><trkpt lat="42.6570771760512" lon="12.070251832907786"><ele>547.0</ele><time>2026-04-17T16:06:38.001Z</time></trkpt><trkpt lat="42.6571466196277" lon="12.070064315907862"><ele>547.0</ele><time>2026-04-17T16:06:39.001Z</time></trkpt><trkpt lat="42.65724729823485" lon="12.06988805416355"><ele>547.75</ele><time>2026-04-17T16:06:40.001Z</time></trkpt><trkpt lat="42.65734080222048" lon="12.069756196709072"><ele>548.5</ele><time>2026-04-17T16:06:41.001Z</time></trkpt><trkpt lat="42.65745613188241" lon="12.069618961717348"><ele>549.25</ele><time>2026-04-17T16:06:42.001Z</time></trkpt><trkpt lat="42.657586717829595" lon="12.0694906396471"><ele>550.0</ele><time>2026-04-17T16:06:43.001Z</time></trkpt><trkpt lat="42.65772480566584" lon="12.06939168381575"><ele>549.6</ele><time>2026-04-17T16:06:44.001Z</time></trkpt><trkpt lat="42.657842132006095" lon="12.069313776365528"><ele>549.2</ele><time>2026-04-17T16:06:45.001Z</time></trkpt><trkpt lat="42.657912533257395" lon="12.069249263860403"><ele>548.8</ele><time>2026-04-17T16:06:46.001Z</time></trkpt><trkpt lat="42.65793054882206" lon="12.069098269568979"><ele>548.4</ele><time>2026-04-17T16:06:48.001Z</time></trkpt><trkpt lat="42.65791112750706" lon="12.068974828051907"><ele>548.0</ele><time>2026-04-17T16:06:49.001Z</time></trkpt><trkpt lat="42.657884360234576" lon="12.068812453825693"><ele>548.6</ele><time>2026-04-17T16:06:50.001Z</time></trkpt><trkpt lat="42.657807171611985" lon="12.068693562464667"><ele>549.1999999999999</ele><time>2026-04-17T16:06:51.001Z</time></trkpt><trkpt lat="42.657748167584835" lon="12.068595215208404"><ele>549.8</ele><time>2026-04-17T16:06:52.001Z</time></trkpt><trkpt lat="42.65766285401838" lon="12.068494241583084"><ele>550.4</ele><time>2026-04-17T16:06:53.001Z</time></trkpt><trkpt lat="42.657565531100296" lon="12.068407614646649"><ele>551.0</ele><time>2026-04-17T16:06:54.001Z</time></trkpt><trkpt lat="42.6574699407635" lon="12.068335009784574"><ele>550.2</ele><time>2026-04-17T16:06:55.001Z</time></trkpt><trkpt lat="42.657376884375466" lon="12.068265916711404"><ele>549.4000000000001</ele><time>2026-04-17T16:06:56.001Z</time></trkpt><trkpt lat="42.657297429728985" lon="12.068204663871214"><ele>548.6</ele><time>2026-04-17T16:06:57.001Z</time></trkpt><trkpt lat="42.65721636920382" lon="12.068131495362657"><ele>547.8000000000001</ele><time>2026-04-17T16:06:58.001Z</time></trkpt><trkpt lat="42.657139232497165" lon="12.068031409461078"><ele>547.0</ele><time>2026-04-17T16:06:59.001Z</time></trkpt><trkpt lat="42.657058247240656" lon="12.067881391829951"><ele>547.0</ele><time>2026-04-17T16:07:00.001Z</time></trkpt><trkpt lat="42.65696916771655" lon="12.067680200276962"><ele>547.0</ele><time>2026-04-17T16:07:01.001Z</time></trkpt><trkpt lat="42.656900781962094" lon="12.067475332769845"><ele>547.0</ele><time>2026-04-17T16:07:02.001Z</time></trkpt><trkpt lat="42.65686308098894" lon="12.067273766833386"><ele>548.3333333333334</ele><time>2026-04-17T16:07:03.001Z</time></trkpt><trkpt lat="42.65682998241437" lon="12.067030067020177"><ele>549.6666666666666</ele><time>2026-04-17T16:07:04.001Z</time></trkpt><trkpt lat="42.65678795206447" lon="12.066764696318442"><ele>551.0</ele><time>2026-04-17T16:07:05.001Z</time></trkpt><trkpt lat="42.65674007082699" lon="12.066469397389145"><ele>551.0</ele><time>2026-04-17T16:07:06.001Z</time></trkpt><trkpt lat="42.65669509301876" lon="12.066203464799568"><ele>551.0</ele><time>2026-04-17T16:07:07.001Z</time></trkpt><trkpt lat="42.656647423746705" lon="12.065999917426058"><ele>551.0</ele><time>2026-04-17T16:07:08.001Z</time></trkpt><trkpt lat="42.656616263239265" lon="12.065823883840398"><ele>551.6</ele><time>2026-04-17T16:07:09.001Z</time></trkpt><trkpt lat="42.65661360663781" lon="12.065663365230112"><ele>552.2</ele><time>2026-04-17T16:07:10.001Z</time></trkpt><trkpt lat="42.65660961077544" lon="12.065531291551343"><ele>552.8</ele><time>2026-04-17T16:07:11.001Z</time></trkpt><trkpt lat="42.6566095079457" lon="12.06540590554222"><ele>553.4</ele><time>2026-04-17T16:07:12.001Z</time></trkpt><trkpt lat="42.656643626168005" lon="12.06528799186124"><ele>554.0</ele><time>2026-04-17T16:07:13.001Z</time></trkpt><trkpt lat="42.65669804279326" lon="12.06518845758276"><ele>554.0</ele><time>2026-04-17T16:07:14.001Z</time></trkpt><trkpt lat="42.65679094674284" lon="12.06507098442578"><ele>554.0</ele><time>2026-04-17T16:07:15.001Z</time></trkpt><trkpt lat="42.65690646702259" lon="12.064919484641441"><ele>554.0</ele><time>2026-04-17T16:07:16.001Z</time></trkpt><trkpt lat="42.65704327408879" lon="12.064725402227609"><ele>555.3333333333333</ele><time>2026-04-17T16:07:17.001Z</time></trkpt><trkpt lat="42.657189395472535" lon="12.064508445604243"><ele>556.6666666666666</ele><time>2026-04-17T16:07:18.001Z</time></trkpt><trkpt lat="42.65731068490767" lon="12.064332422237026"><ele>558.0</ele><time>2026-04-17T16:07:19.001Z</time></trkpt><trkpt lat="42.6574071083563" lon="12.064194816998787"><ele>558.6</ele><time>2026-04-17T16:07:20.001Z</time></trkpt><trkpt lat="42.65747985445926" lon="12.0640795331238"><ele>559.1999999999999</ele><time>2026-04-17T16:07:21.001Z</time></trkpt><trkpt lat="42.65754398698521" lon="12.063974876922055"><ele>559.8</ele><time>2026-04-17T16:07:22.001Z</time></trkpt><trkpt lat="42.6576191440098" lon="12.06389243270494"><ele>560.4</ele><time>2026-04-17T16:07:23.001Z</time></trkpt><trkpt lat="42.65766801861879" lon="12.063800694667433"><ele>561.0</ele><time>2026-04-17T16:07:24.001Z</time></trkpt><trkpt lat="42.657740610069226" lon="12.063727853017102"><ele>561.2</ele><time>2026-04-17T16:07:26.001Z</time></trkpt><trkpt lat="42.65783272660941" lon="12.063694112616275"><ele>561.4000000000001</ele><time>2026-04-17T16:07:28.001Z</time></trkpt><trkpt lat="42.65792321546753" lon="12.063664752641838"><ele>561.6</ele><time>2026-04-17T16:07:39.001Z</time></trkpt><trkpt lat="42.65799879430492" lon="12.063636856878245"><ele>561.8000000000001</ele><time>2026-04-17T16:07:40.001Z</time></trkpt><trkpt lat="42.65809087955835" lon="12.063601860064255"><ele>562.0</ele><time>2026-04-17T16:07:41.001Z</time></trkpt><trkpt lat="42.65819781740683" lon="12.063580014470956"><ele>562.0</ele><time>2026-04-17T16:07:42.001Z</time></trkpt><trkpt lat="42.65832978900334" lon="12.063560756742495"><ele>562.0</ele><time>2026-04-17T16:07:43.001Z</time></trkpt><trkpt lat="42.65845918294059" lon="12.063539750207273"><ele>562.0</ele><time>2026-04-17T16:07:44.001Z</time></trkpt><trkpt lat="42.65855649951196" lon="12.063527109157326"><ele>562.0</ele><time>2026-04-17T16:07:45.001Z</time></trkpt><trkpt lat="42.658642808449166" lon="12.063496146535448"><ele>562.0</ele><time>2026-04-17T16:07:46.001Z</time></trkpt><trkpt lat="42.65872653366212" lon="12.063454047925324"><ele>562.0</ele><time>2026-04-17T16:07:47.001Z</time></trkpt><trkpt lat="42.65880606245374" lon="12.06341016476055"><ele>562.0</ele><time>2026-04-17T16:07:48.001Z</time></trkpt><trkpt lat="42.65890124513242" lon="12.063357920445974"><ele>562.0</ele><time>2026-04-17T16:07:49.001Z</time></trkpt><trkpt lat="42.658999364989974" lon="12.063286175836197"><ele>562.0</ele><time>2026-04-17T16:07:50.001Z</time></trkpt><trkpt lat="42.65907323731006" lon="12.063230450578383"><ele>562.0</ele><time>2026-04-17T16:07:51.001Z</time></trkpt><trkpt lat="42.659180236731586" lon="12.06318792742068"><ele>562.0</ele><time>2026-04-17T16:07:53.001Z</time></trkpt><trkpt lat="42.65928313764549" lon="12.06324544331992"><ele>562.0</ele><time>2026-04-17T16:07:55.001Z</time></trkpt><trkpt lat="42.65940490371732" lon="12.063298286630804"><ele>562.0</ele><time>2026-04-17T16:07:57.001Z</time></trkpt><trkpt lat="42.65947139648702" lon="12.063349090274624"><ele>562.0</ele><time>2026-04-17T16:07:58.001Z</time></trkpt><trkpt lat="42.65953757668297" lon="12.063401868488885"><ele>560.2</ele><time>2026-04-17T16:07:59.001Z</time></trkpt><trkpt lat="42.65960300490872" lon="12.063448989385027"><ele>558.4000000000001</ele><time>2026-04-17T16:08:00.001Z</time></trkpt><trkpt lat="42.65967255406678" lon="12.063492292769151"><ele>556.5999999999999</ele><time>2026-04-17T16:08:01.001Z</time></trkpt><trkpt lat="42.65975912508848" lon="12.063545033242542"><ele>554.8</ele><time>2026-04-17T16:08:02.001Z</time></trkpt><trkpt lat="42.65986100356368" lon="12.06362234357789"><ele>553.0</ele><time>2026-04-17T16:08:03.001Z</time></trkpt><trkpt lat="42.65995775014028" lon="12.063684099961968"><ele>553.0</ele><time>2026-04-17T16:08:04.001Z</time></trkpt><trkpt lat="42.66004624695086" lon="12.063730093302775"><ele>553.0</ele><time>2026-04-17T16:08:05.001Z</time></trkpt><trkpt lat="42.66012917791933" lon="12.06378629221509"><ele>553.0</ele><time>2026-04-17T16:08:06.001Z</time></trkpt><trkpt lat="42.66021255833881" lon="12.063840957423377"><ele>553.0</ele><time>2026-04-17T16:08:07.001Z</time></trkpt><trkpt lat="42.66030397850148" lon="12.063895306857745"><ele>553.0</ele><time>2026-04-17T16:08:08.001Z</time></trkpt><trkpt lat="42.66039743381816" lon="12.063954806354655"><ele>551.8</ele><time>2026-04-17T16:08:09.001Z</time></trkpt><trkpt lat="42.66049697387828" lon="12.064029888758984"><ele>550.5999999999999</ele><time>2026-04-17T16:08:10.001Z</time></trkpt><trkpt lat="42.66060465490198" lon="12.06409801970344"><ele>549.4000000000001</ele><time>2026-04-17T16:08:11.001Z</time></trkpt><trkpt lat="42.660698824134656" lon="12.064148243735401"><ele>548.2</ele><time>2026-04-17T16:08:12.001Z</time></trkpt><trkpt lat="42.660775259640765" lon="12.06418685916955"><ele>547.0</ele><time>2026-04-17T16:08:13.001Z</time></trkpt><trkpt lat="42.66086267641339" lon="12.064216394846802"><ele>547.0</ele><time>2026-04-17T16:08:14.001Z</time></trkpt><trkpt lat="42.66098674911429" lon="12.064236322223135"><ele>547.0</ele><time>2026-04-17T16:08:15.001Z</time></trkpt><trkpt lat="42.66115225387414" lon="12.064254487635834"><ele>547.0</ele><time>2026-04-17T16:08:16.001Z</time></trkpt><trkpt lat="42.66130309352209" lon="12.06427344799719"><ele>547.0</ele><time>2026-04-17T16:08:17Z</time></trkpt><trkpt lat="42.66142296034106" lon="12.064275044550085"><ele>546.0</ele><time>2026-04-17T16:08:18Z</time></trkpt><trkpt lat="42.66152411809282" lon="12.064304420269458"><ele>545.0</ele><time>2026-04-17T16:08:19Z</time></trkpt><trkpt lat="42.66161144619974" lon="12.064324214566954"><ele>544.0</ele><time>2026-04-17T16:08:20Z</time></trkpt><trkpt lat="42.66169687624514" lon="12.064352826986513"><ele>543.0</ele><time>2026-04-17T16:08:21Z</time></trkpt><trkpt lat="42.66178663362044" lon="12.064372786888603"><ele>542.0</ele><time>2026-04-17T16:08:22Z</time></trkpt><trkpt lat="42.66187397829911" lon="12.064440565554959"><ele>541.0</ele><time>2026-04-17T16:08:23Z</time></trkpt><trkpt lat="42.66197208166487" lon="12.064509372859789"><ele>540.0</ele><time>2026-04-17T16:08:24Z</time></trkpt><trkpt lat="42.66206965645442" lon="12.064553784956338"><ele>539.0</ele><time>2026-04-17T16:08:25Z</time></trkpt><trkpt lat="42.66214715584189" lon="12.064573211053156"><ele>538.0</ele><time>2026-04-17T16:08:26Z</time></trkpt><trkpt lat="42.66221798186199" lon="12.064563825959459"><ele>537.0</ele><time>2026-04-17T16:08:27Z</time></trkpt><trkpt lat="42.662295740706725" lon="12.064544958778253"><ele>536.0</ele><time>2026-04-17T16:08:28Z</time></trkpt><trkpt lat="42.66242589374279" lon="12.064469952450528"><ele>536.0</ele><time>2026-04-17T16:08:29Z</time></trkpt><trkpt lat="42.662538788454505" lon="12.064378670610466"><ele>536.0</ele><time>2026-04-17T16:08:30Z</time></trkpt><trkpt lat="42.66260475434069" lon="12.06432466859999"><ele>536.0</ele><time>2026-04-17T16:08:31Z</time></trkpt><trkpt lat="42.662703502363556" lon="12.06433195033885"><ele>536.0</ele><time>2026-04-17T16:08:32Z</time></trkpt><trkpt lat="42.662828314273504" lon="12.064350231698933"><ele>536.0</ele><time>2026-04-17T16:08:33Z</time></trkpt><trkpt lat="42.66292525497214" lon="12.064389252944798"><ele>534.6</ele><time>2026-04-17T16:08:34Z</time></trkpt><trkpt lat="42.66300378564374" lon="12.064422579793765"><ele>533.2</ele><time>2026-04-17T16:08:35Z</time></trkpt><trkpt lat="42.663088036822934" lon="12.064466227950499"><ele>531.8</ele><time>2026-04-17T16:08:36Z</time></trkpt><trkpt lat="42.663188921987334" lon="12.064541587625627"><ele>530.4</ele><time>2026-04-17T16:08:37Z</time></trkpt><trkpt lat="42.66327174328812" lon="12.064626276888657"><ele>529.0</ele><time>2026-04-17T16:08:38Z</time></trkpt><trkpt lat="42.66334695997613" lon="12.064714159707462"><ele>529.0</ele><time>2026-04-17T16:08:39Z</time></trkpt><trkpt lat="42.663416582394966" lon="12.064793158226896"><ele>529.0</ele><time>2026-04-17T16:08:40Z</time></trkpt><trkpt lat="42.66348891091123" lon="12.064843815863664"><ele>529.0</ele><time>2026-04-17T16:08:41Z</time></trkpt><trkpt lat="42.66354882787747" lon="12.06489924865904"><ele>529.0</ele><time>2026-04-17T16:08:42Z</time></trkpt><trkpt lat="42.66363832028215" lon="12.064925368026104"><ele>529.0</ele><time>2026-04-17T16:08:43Z</time></trkpt><trkpt lat="42.66375488673146" lon="12.064874526233131"><ele>528.3333333333334</ele><time>2026-04-17T16:08:44Z</time></trkpt><trkpt lat="42.66390145458982" lon="12.064816845526618"><ele>527.6666666666666</ele><time>2026-04-17T16:08:45Z</time></trkpt><trkpt lat="42.664085614794296" lon="12.064802247689109"><ele>527.0</ele><time>2026-04-17T16:08:46Z</time></trkpt><trkpt lat="42.6643100993584" lon="12.064769286566932"><ele>529.0</ele><time>2026-04-17T16:08:47Z</time></trkpt><trkpt lat="42.66453248631982" lon="12.064734206991425"><ele>531.0</ele><time>2026-04-17T16:08:48Z</time></trkpt><trkpt lat="42.664720645521015" lon="12.064741176040345"><ele>533.0</ele><time>2026-04-17T16:08:49Z</time></trkpt><trkpt lat="42.66487850011399" lon="12.064723403236018"><ele>533.0</ele><time>2026-04-17T16:08:50Z</time></trkpt><trkpt lat="42.66499429549271" lon="12.064697246056324"><ele>533.0</ele><time>2026-04-17T16:08:51Z</time></trkpt><trkpt lat="42.665112180115536" lon="12.064670498616145"><ele>533.0</ele><time>2026-04-17T16:08:52Z</time></trkpt><trkpt lat="42.66523538869594" lon="12.064637387187346"><ele>533.0</ele><time>2026-04-17T16:08:53Z</time></trkpt><trkpt lat="42.66533883947553" lon="12.06464952268649"><ele>533.4</ele><time>2026-04-17T16:08:54Z</time></trkpt><trkpt lat="42.66539883551674" lon="12.06470244460619"><ele>533.8</ele><time>2026-04-17T16:08:55Z</time></trkpt><trkpt lat="42.665484011689" lon="12.064747047110286"><ele>534.2</ele><time>2026-04-17T16:08:56Z</time></trkpt><trkpt lat="42.66559653001453" lon="12.064842807721318"><ele>534.6</ele><time>2026-04-17T16:08:57Z</time></trkpt><trkpt lat="42.6657272176995" lon="12.064922718510353"><ele>535.0</ele><time>2026-04-17T16:08:58.001Z</time></trkpt><trkpt lat="42.665878583648194" lon="12.064968751408049"><ele>535.0</ele><time>2026-04-17T16:08:59.001Z</time></trkpt><trkpt lat="42.66605099393533" lon="12.06501705955674"><ele>535.0</ele><time>2026-04-17T16:09:00.001Z</time></trkpt><trkpt lat="42.666219463148096" lon="12.065060429680962"><ele>535.0</ele><time>2026-04-17T16:09:01.001Z</time></trkpt><trkpt lat="42.6663540768924" lon="12.065078023476433"><ele>535.0</ele><time>2026-04-17T16:09:02.001Z</time></trkpt><trkpt lat="42.66645371731982" lon="12.065120065103972"><ele>535.0</ele><time>2026-04-17T16:09:03.001Z</time></trkpt><trkpt lat="42.66653984062515" lon="12.065155874944347"><ele>535.0</ele><time>2026-04-17T16:09:04.001Z</time></trkpt><trkpt lat="42.666617621446285" lon="12.065187919116164"><ele>535.0</ele><time>2026-04-17T16:09:05.001Z</time></trkpt><trkpt lat="42.66671356329213" lon="12.065202242583798"><ele>535.0</ele><time>2026-04-17T16:09:06.001Z</time></trkpt><trkpt lat="42.666845951307344" lon="12.065219864840628"><ele>535.75</ele><time>2026-04-17T16:09:07.001Z</time></trkpt><trkpt lat="42.666998111464714" lon="12.06522187715604"><ele>536.5</ele><time>2026-04-17T16:09:08.001Z</time></trkpt><trkpt lat="42.66712093095211" lon="12.065215909775407"><ele>537.25</ele><time>2026-04-17T16:09:09.001Z</time></trkpt><trkpt lat="42.66721928919465" lon="12.065209257566796"><ele>538.0</ele><time>2026-04-17T16:09:10.001Z</time></trkpt><trkpt lat="42.66733090428862" lon="12.065180630153339"><ele>538.0</ele><time>2026-04-17T16:09:11.001Z</time></trkpt><trkpt lat="42.66745883643455" lon="12.065143920960137"><ele>538.0</ele><time>2026-04-17T16:09:12.001Z</time></trkpt><trkpt lat="42.66756644477271" lon="12.065120259825994"><ele>538.0</ele><time>2026-04-17T16:09:13.001Z</time></trkpt><trkpt lat="42.66765346162593" lon="12.06509546169674"><ele>538.0</ele><time>2026-04-17T16:09:14.001Z</time></trkpt><trkpt lat="42.667723410688765" lon="12.065065551347692"><ele>538.0</ele><time>2026-04-17T16:09:15.001Z</time></trkpt><trkpt lat="42.66778119789664" lon="12.065025010941149"><ele>537.6666666666667</ele><time>2026-04-17T16:09:16.001Z</time></trkpt><trkpt lat="42.66784260332359" lon="12.06498611431523"><ele>537.3333333333334</ele><time>2026-04-17T16:09:17.001Z</time></trkpt><trkpt lat="42.66790920288267" lon="12.06495643070631"><ele>537.0</ele><time>2026-04-17T16:09:18.001Z</time></trkpt><trkpt lat="42.66798002102528" lon="12.064927099212177"><ele>536.6666666666666</ele><time>2026-04-17T16:09:19.001Z</time></trkpt><trkpt lat="42.66806216658476" lon="12.064913705503377"><ele>536.3333333333333</ele><time>2026-04-17T16:09:20.001Z</time></trkpt><trkpt lat="42.66815182898885" lon="12.064916262542619"><ele>536.0</ele><time>2026-04-17T16:09:21.001Z</time></trkpt><trkpt lat="42.66824255551625" lon="12.064904314747539"><ele>535.0</ele><time>2026-04-17T16:09:22.001Z</time></trkpt><trkpt lat="42.66834018654542" lon="12.064903784113351"><ele>534.0</ele><time>2026-04-17T16:09:23.001Z</time></trkpt><trkpt lat="42.66843787194275" lon="12.064908947858786"><ele>533.0</ele><time>2026-04-17T16:09:24.001Z</time></trkpt><trkpt lat="42.668537867130155" lon="12.064896996664153"><ele>532.0</ele><time>2026-04-17T16:09:25.001Z</time></trkpt><trkpt lat="42.66863149513002" lon="12.064881249766499"><ele>531.0</ele><time>2026-04-17T16:09:26.001Z</time></trkpt><trkpt lat="42.66871617940951" lon="12.064855879501827"><ele>530.0</ele><time>2026-04-17T16:09:27.001Z</time></trkpt><trkpt lat="42.668794926394874" lon="12.064805324792244"><ele>529.0</ele><time>2026-04-17T16:09:28.001Z</time></trkpt><trkpt lat="42.66887770026733" lon="12.064742694213294"><ele>528.0</ele><time>2026-04-17T16:09:29.001Z</time></trkpt><trkpt lat="42.66897396608458" lon="12.064667418094075"><ele>527.0</ele><time>2026-04-17T16:09:30.001Z</time></trkpt><trkpt lat="42.66905532138841" lon="12.06458728074916"><ele>526.0</ele><time>2026-04-17T16:09:31.001Z</time></trkpt><trkpt lat="42.669134060257505" lon="12.064502722043406"><ele>526.0</ele><time>2026-04-17T16:09:32.001Z</time></trkpt><trkpt lat="42.66920704951998" lon="12.064420463979223"><ele>526.0</ele><time>2026-04-17T16:09:33.001Z</time></trkpt><trkpt lat="42.669273945494496" lon="12.064320584841731"><ele>526.0</ele><time>2026-04-17T16:09:34.001Z</time></trkpt><trkpt lat="42.669353433907354" lon="12.064246278791932"><ele>526.0</ele><time>2026-04-17T16:09:35.001Z</time></trkpt><trkpt lat="42.66942185592873" lon="12.064193169068549"><ele>526.0</ele><time>2026-04-17T16:09:36.001Z</time></trkpt><trkpt lat="42.6694859285109" lon="12.064137600277531"><ele>526.0</ele><time>2026-04-17T16:09:37.001Z</time></trkpt><trkpt lat="42.66955157724898" lon="12.064083580413952"><ele>524.5</ele><time>2026-04-17T16:09:38.001Z</time></trkpt><trkpt lat="42.669619249644306" lon="12.06402504251211"><ele>523.0</ele><time>2026-04-17T16:09:39.001Z</time></trkpt><trkpt lat="42.66968888233909" lon="12.06395801470044"><ele>521.5</ele><time>2026-04-17T16:09:40.001Z</time></trkpt><trkpt lat="42.66974466897071" lon="12.063877447733788"><ele>520.0</ele><time>2026-04-17T16:09:41.001Z</time></trkpt><trkpt lat="42.669814143979316" lon="12.063808335699822"><ele>518.5</ele><time>2026-04-17T16:09:42.001Z</time></trkpt><trkpt lat="42.66986610155563" lon="12.063724820931029"><ele>517.0</ele><time>2026-04-17T16:09:43.001Z</time></trkpt><trkpt lat="42.669907426428594" lon="12.063632576778236"><ele>517.0</ele><time>2026-04-17T16:09:44.001Z</time></trkpt><trkpt lat="42.66994593167628" lon="12.063514654517821"><ele>517.0</ele><time>2026-04-17T16:09:45.001Z</time></trkpt><trkpt lat="42.66998332355621" lon="12.063383358571285"><ele>517.0</ele><time>2026-04-17T16:09:46.001Z</time></trkpt><trkpt lat="42.669999940137195" lon="12.063245289879957"><ele>517.0</ele><time>2026-04-17T16:09:47.001Z</time></trkpt><trkpt lat="42.67000211308437" lon="12.063118054301157"><ele>517.0</ele><time>2026-04-17T16:09:48.001Z</time></trkpt><trkpt lat="42.67000087064564" lon="12.063007542328027"><ele>517.6</ele><time>2026-04-17T16:09:49.001Z</time></trkpt><trkpt lat="42.67000133534756" lon="12.062900255627655"><ele>518.2</ele><time>2026-04-17T16:09:50.001Z</time></trkpt><trkpt lat="42.669994969252016" lon="12.062810643557766"><ele>518.8</ele><time>2026-04-17T16:09:51.001Z</time></trkpt><trkpt lat="42.670057667893985" lon="12.062682757527599"><ele>519.4</ele><time>2026-04-17T16:09:53.001Z</time></trkpt><trkpt lat="42.67014445608261" lon="12.062626195319774"><ele>520.0</ele><time>2026-04-17T16:09:55.001Z</time></trkpt><trkpt lat="42.67024129829205" lon="12.062594144651397"><ele>520.6</ele><time>2026-04-17T16:09:57.001Z</time></trkpt><trkpt lat="42.67033604298791" lon="12.062589925677415"><ele>521.2</ele><time>2026-04-17T16:09:59.001Z</time></trkpt><trkpt lat="42.670431903651505" lon="12.062568958993442"><ele>521.8</ele><time>2026-04-17T16:10:01.001Z</time></trkpt><trkpt lat="42.670559616220004" lon="12.062583262876108"><ele>522.4</ele><time>2026-04-17T16:10:03.001Z</time></trkpt><trkpt lat="42.67067451654478" lon="12.0625814972879"><ele>523.0</ele><time>2026-04-17T16:10:05.001Z</time></trkpt><trkpt lat="42.67073648966063" lon="12.06261058415213"><ele>523.0</ele><time>2026-04-17T16:10:08.001Z</time></trkpt><trkpt lat="42.67079593550306" lon="12.062552377194955"><ele>523.0</ele><time>2026-04-17T16:10:10Z</time></trkpt><trkpt lat="42.67087397946493" lon="12.062496913286871"><ele>523.0</ele><time>2026-04-17T16:10:12Z</time></trkpt><trkpt lat="42.670941665832935" lon="12.062479111977677"><ele>523.0</ele><time>2026-04-17T16:10:15Z</time></trkpt><trkpt lat="42.670930142999765" lon="12.062390001774325"><ele>523.0</ele><time>2026-04-17T16:10:17Z</time></trkpt><trkpt lat="42.67089095605685" lon="12.062277941921893"><ele>523.0</ele><time>2026-04-17T16:14:16.001Z</time></trkpt><trkpt lat="42.67085638271123" lon="12.062171081423186"><ele>522.4</ele><time>2026-04-17T16:14:18.001Z</time></trkpt><trkpt lat="42.670762736455345" lon="12.062067007900945"><ele>521.8</ele><time>2026-04-17T16:14:20.001Z</time></trkpt><trkpt lat="42.67070032061059" lon="12.06201091943883"><ele>521.2</ele><time>2026-04-17T16:14:21.001Z</time></trkpt><trkpt lat="42.670617816143135" lon="12.06196259663622"><ele>520.6</ele><time>2026-04-17T16:14:22.001Z</time></trkpt><trkpt lat="42.67052142303103" lon="12.061918109784468"><ele>520.0</ele><time>2026-04-17T16:14:23.001Z</time></trkpt><trkpt lat="42.67041923551419" lon="12.061864026465184"><ele>520.0</ele><time>2026-04-17T16:14:24.001Z</time></trkpt><trkpt lat="42.670309304645414" lon="12.061810548822274"><ele>520.0</ele><time>2026-04-17T16:14:25.001Z</time></trkpt><trkpt lat="42.67019754481032" lon="12.061758642243355"><ele>520.0</ele><time>2026-04-17T16:14:26.001Z</time></trkpt><trkpt lat="42.67008283808454" lon="12.061702732362331"><ele>520.0</ele><time>2026-04-17T16:14:27.001Z</time></trkpt><trkpt lat="42.66996925071676" lon="12.061640764328281"><ele>520.0</ele><time>2026-04-17T16:14:28.001Z</time></trkpt><trkpt lat="42.66984866967885" lon="12.06157705830107"><ele>520.0</ele><time>2026-04-17T16:14:29.001Z</time></trkpt><trkpt lat="42.66973364315657" lon="12.061512493783079"><ele>520.0</ele><time>2026-04-17T16:14:30.001Z</time></trkpt><trkpt lat="42.66963165008503" lon="12.061449159503722"><ele>520.0</ele><time>2026-04-17T16:14:31.001Z</time></trkpt><trkpt lat="42.669536873315614" lon="12.061371837034805"><ele>520.0</ele><time>2026-04-17T16:14:32.001Z</time></trkpt><trkpt lat="42.669443799755925" lon="12.061274792873316"><ele>520.0</ele><time>2026-04-17T16:14:33.001Z</time></trkpt><trkpt lat="42.66934632777017" lon="12.061193692429216"><ele>520.0</ele><time>2026-04-17T16:14:34.001Z</time></trkpt><trkpt lat="42.66924875533588" lon="12.061098019788819"><ele>520.0</ele><time>2026-04-17T16:14:35.001Z</time></trkpt><trkpt lat="42.66913312773209" lon="12.061011676603579"><ele>520.3333333333334</ele><time>2026-04-17T16:14:36.001Z</time></trkpt><trkpt lat="42.66899365524711" lon="12.060933977375255"><ele>520.6666666666666</ele><time>2026-04-17T16:14:37.001Z</time></trkpt><trkpt lat="42.66884984988435" lon="12.060847850349209"><ele>521.0</ele><time>2026-04-17T16:14:38.001Z</time></trkpt><trkpt lat="42.66869276690356" lon="12.060754868592422"><ele>524.0</ele><time>2026-04-17T16:14:39.001Z</time></trkpt><trkpt lat="42.668530576676275" lon="12.060633555257551"><ele>527.0</ele><time>2026-04-17T16:14:40.001Z</time></trkpt><trkpt lat="42.66837394094292" lon="12.060553977024119"><ele>530.0</ele><time>2026-04-17T16:14:41.001Z</time></trkpt><trkpt lat="42.668233040507836" lon="12.060465614947088"><ele>530.0</ele><time>2026-04-17T16:14:42.001Z</time></trkpt><trkpt lat="42.668092304385745" lon="12.060375721961394"><ele>530.0</ele><time>2026-04-17T16:14:43.001Z</time></trkpt><trkpt lat="42.66795272600401" lon="12.060295469377653"><ele>530.0</ele><time>2026-04-17T16:14:44.001Z</time></trkpt><trkpt lat="42.667823480120724" lon="12.060201159273138"><ele>533.0</ele><time>2026-04-17T16:14:45.001Z</time></trkpt><trkpt lat="42.66771441982836" lon="12.060063310390738"><ele>536.0</ele><time>2026-04-17T16:14:46.001Z</time></trkpt><trkpt lat="42.66759710434185" lon="12.059941411714696"><ele>539.0</ele><time>2026-04-17T16:14:47.001Z</time></trkpt><trkpt lat="42.66748588188234" lon="12.059793959632671"><ele>539.0</ele><time>2026-04-17T16:14:48.001Z</time></trkpt><trkpt lat="42.66737666950578" lon="12.0596451356372"><ele>539.0</ele><time>2026-04-17T16:14:49.001Z</time></trkpt><trkpt lat="42.66727389518961" lon="12.059526739360154"><ele>539.0</ele><time>2026-04-17T16:14:50.001Z</time></trkpt><trkpt lat="42.66716620073006" lon="12.059425772910677"><ele>539.0</ele><time>2026-04-17T16:14:51.001Z</time></trkpt><trkpt lat="42.667035139150414" lon="12.05932874902341"><ele>539.3333333333333</ele><time>2026-04-17T16:14:52.001Z</time></trkpt><trkpt lat="42.66688671982293" lon="12.059240554333739"><ele>539.6666666666666</ele><time>2026-04-17T16:14:53.001Z</time></trkpt><trkpt lat="42.66672959104264" lon="12.059154674745383"><ele>540.0</ele><time>2026-04-17T16:14:54Z</time></trkpt><trkpt lat="42.66657148119726" lon="12.059063367093017"><ele>540.0</ele><time>2026-04-17T16:14:55Z</time></trkpt><trkpt lat="42.66642610892279" lon="12.05896110534851"><ele>540.0</ele><time>2026-04-17T16:14:56Z</time></trkpt><trkpt lat="42.666283252259845" lon="12.058848856543358"><ele>540.0</ele><time>2026-04-17T16:14:57Z</time></trkpt><trkpt lat="42.66613560327673" lon="12.058737667807328"><ele>542.3333333333334</ele><time>2026-04-17T16:14:58Z</time></trkpt><trkpt lat="42.66598856466729" lon="12.058629527304232"><ele>544.6666666666667</ele><time>2026-04-17T16:14:59Z</time></trkpt><trkpt lat="42.66584720747888" lon="12.058529054523309"><ele>547.0</ele><time>2026-04-17T16:15:00Z</time></trkpt><trkpt lat="42.66571175511779" lon="12.05844437093267"><ele>547.0</ele><time>2026-04-17T16:15:01Z</time></trkpt><trkpt lat="42.66557733597134" lon="12.05836604319533"><ele>547.0</ele><time>2026-04-17T16:15:02Z</time></trkpt><trkpt lat="42.665444807372054" lon="12.058308115504733"><ele>547.0</ele><time>2026-04-17T16:15:03Z</time></trkpt><trkpt lat="42.665312284454934" lon="12.058262091682401"><ele>547.0</ele><time>2026-04-17T16:15:04Z</time></trkpt><trkpt lat="42.66518479911172" lon="12.058206551562096"><ele>548.5</ele><time>2026-04-17T16:15:05Z</time></trkpt><trkpt lat="42.6650666872365" lon="12.058127350613411"><ele>550.0</ele><time>2026-04-17T16:15:06Z</time></trkpt><trkpt lat="42.66495751970431" lon="12.058025685485195"><ele>551.5</ele><time>2026-04-17T16:15:07Z</time></trkpt><trkpt lat="42.664854013827345" lon="12.057894374624292"><ele>553.0</ele><time>2026-04-17T16:15:08Z</time></trkpt><trkpt lat="42.664745985036774" lon="12.0577316836585"><ele>553.0</ele><time>2026-04-17T16:15:09Z</time></trkpt><trkpt lat="42.66463130524517" lon="12.057545548765656"><ele>553.0</ele><time>2026-04-17T16:15:10Z</time></trkpt><trkpt lat="42.6645167660608" lon="12.057343931708322"><ele>553.0</ele><time>2026-04-17T16:15:11Z</time></trkpt><trkpt lat="42.6644047160587" lon="12.057124007236666"><ele>554.6666666666667</ele><time>2026-04-17T16:15:12Z</time></trkpt><trkpt lat="42.66429103824802" lon="12.056891119696422"><ele>556.3333333333334</ele><time>2026-04-17T16:15:13Z</time></trkpt><trkpt lat="42.66417469810176" lon="12.056651185416492"><ele>558.0</ele><time>2026-04-17T16:15:14Z</time></trkpt><trkpt lat="42.66406554019082" lon="12.05642945991197"><ele>559.6666666666666</ele><time>2026-04-17T16:15:15Z</time></trkpt><trkpt lat="42.66396692086979" lon="12.05623161450742"><ele>561.3333333333333</ele><time>2026-04-17T16:15:16Z</time></trkpt><trkpt lat="42.66387441339761" lon="12.056047340920388"><ele>563.0</ele><time>2026-04-17T16:15:17Z</time></trkpt><trkpt lat="42.66379009642992" lon="12.055879350917238"><ele>563.0</ele><time>2026-04-17T16:15:18Z</time></trkpt><trkpt lat="42.66371387300914" lon="12.055715535590457"><ele>563.0</ele><time>2026-04-17T16:15:19Z</time></trkpt><trkpt lat="42.66362623536308" lon="12.055532331914414"><ele>563.0</ele><time>2026-04-17T16:15:20Z</time></trkpt><trkpt lat="42.663532537934486" lon="12.055328786784175"><ele>563.0</ele><time>2026-04-17T16:15:21Z</time></trkpt><trkpt lat="42.66343941655307" lon="12.055127225021888"><ele>563.0</ele><time>2026-04-17T16:15:22Z</time></trkpt><trkpt lat="42.663349481383854" lon="12.05493464389686"><ele>563.0</ele><time>2026-04-17T16:15:23Z</time></trkpt><trkpt lat="42.66325506698938" lon="12.05476356991095"><ele>564.6666666666666</ele><time>2026-04-17T16:15:24Z</time></trkpt><trkpt lat="42.663153589385296" lon="12.054595477591558"><ele>566.3333333333334</ele><time>2026-04-17T16:15:25Z</time></trkpt><trkpt lat="42.66304817280897" lon="12.054420045814826"><ele>568.0</ele><time>2026-04-17T16:15:26Z</time></trkpt><trkpt lat="42.6629350911661" lon="12.054240863286918"><ele>569.0</ele><time>2026-04-17T16:15:27Z</time></trkpt><trkpt lat="42.662821072891106" lon="12.054060486675489"><ele>570.0</ele><time>2026-04-17T16:15:28Z</time></trkpt><trkpt lat="42.662711724594686" lon="12.053885002837252"><ele>571.0</ele><time>2026-04-17T16:15:29Z</time></trkpt><trkpt lat="42.66260462912136" lon="12.053711054886517"><ele>572.0</ele><time>2026-04-17T16:15:30Z</time></trkpt><trkpt lat="42.6624982462743" lon="12.05354264653737"><ele>573.0</ele><time>2026-04-17T16:15:31Z</time></trkpt><trkpt lat="42.66240416557776" lon="12.053406216977022"><ele>574.0</ele><time>2026-04-17T16:15:32Z</time></trkpt><trkpt lat="42.66230805446455" lon="12.053251976073168"><ele>575.0</ele><time>2026-04-17T16:15:33Z</time></trkpt><trkpt lat="42.66221073330964" lon="12.053105925523864"><ele>575.25</ele><time>2026-04-17T16:15:34Z</time></trkpt><trkpt lat="42.662113896513155" lon="12.052954315899566"><ele>575.5</ele><time>2026-04-17T16:15:35Z</time></trkpt><trkpt lat="42.66204617439399" lon="12.052804539095703"><ele>575.75</ele><time>2026-04-17T16:15:36Z</time></trkpt><trkpt lat="42.661993646323346" lon="12.052637274990543"><ele>576.0</ele><time>2026-04-17T16:15:37Z</time></trkpt><trkpt lat="42.661939622490145" lon="12.052459932734868"><ele>576.6666666666666</ele><time>2026-04-17T16:15:38Z</time></trkpt><trkpt lat="42.66187453984434" lon="12.052280766372261"><ele>577.3333333333333</ele><time>2026-04-17T16:15:39Z</time></trkpt><trkpt lat="42.66178729132938" lon="12.052102134524945"><ele>578.0</ele><time>2026-04-17T16:15:40Z</time></trkpt><trkpt lat="42.661678267821586" lon="12.051913534385104"><ele>578.0</ele><time>2026-04-17T16:15:41Z</time></trkpt><trkpt lat="42.66155746540352" lon="12.051707814830642"><ele>578.0</ele><time>2026-04-17T16:15:42Z</time></trkpt><trkpt lat="42.661448209481065" lon="12.051507788854648"><ele>578.0</ele><time>2026-04-17T16:15:43Z</time></trkpt><trkpt lat="42.66134544739563" lon="12.051314752804053"><ele>578.0</ele><time>2026-04-17T16:15:44Z</time></trkpt><trkpt lat="42.66124614821681" lon="12.05112698492119"><ele>578.0</ele><time>2026-04-17T16:15:45Z</time></trkpt><trkpt lat="42.661151461868855" lon="12.050948840069145"><ele>578.0</ele><time>2026-04-17T16:15:46Z</time></trkpt><trkpt lat="42.661060163268814" lon="12.050779990649465"><ele>578.0</ele><time>2026-04-17T16:15:47Z</time></trkpt><trkpt lat="42.66097751898657" lon="12.050623309560796"><ele>578.0</ele><time>2026-04-17T16:15:48Z</time></trkpt><trkpt lat="42.66089718736724" lon="12.050466549879978"><ele>578.0</ele><time>2026-04-17T16:15:49Z</time></trkpt><trkpt lat="42.66079297687005" lon="12.050301067754695"><ele>578.0</ele><time>2026-04-17T16:15:50Z</time></trkpt><trkpt lat="42.6606693389486" lon="12.050138250571788"><ele>578.0</ele><time>2026-04-17T16:15:51Z</time></trkpt><trkpt lat="42.66054161660795" lon="12.049974179808581"><ele>578.0</ele><time>2026-04-17T16:15:52Z</time></trkpt><trkpt lat="42.66041902714997" lon="12.049820232085091"><ele>578.0</ele><time>2026-04-17T16:15:53Z</time></trkpt><trkpt lat="42.66030722134868" lon="12.049651050470846"><ele>578.0</ele><time>2026-04-17T16:15:54Z</time></trkpt><trkpt lat="42.66019865186211" lon="12.049473449979361"><ele>578.0</ele><time>2026-04-17T16:15:55Z</time></trkpt><trkpt lat="42.6600888166095" lon="12.049295942091819"><ele>578.0</ele><time>2026-04-17T16:15:56Z</time></trkpt><trkpt lat="42.65997990902065" lon="12.04912926883255"><ele>579.3333333333333</ele><time>2026-04-17T16:15:57Z</time></trkpt><trkpt lat="42.659875762379144" lon="12.048974807579402"><ele>580.6666666666666</ele><time>2026-04-17T16:15:58Z</time></trkpt><trkpt lat="42.659778459929534" lon="12.048811879370545"><ele>582.0</ele><time>2026-04-17T16:15:59Z</time></trkpt><trkpt lat="42.659686044845955" lon="12.048624126373836"><ele>582.0</ele><time>2026-04-17T16:16:00Z</time></trkpt><trkpt lat="42.65961076925143" lon="12.048415952207305"><ele>582.0</ele><time>2026-04-17T16:16:01Z</time></trkpt><trkpt lat="42.6595536147391" lon="12.04817755709558"><ele>582.0</ele><time>2026-04-17T16:16:02Z</time></trkpt><trkpt lat="42.65951905004305" lon="12.04790682541039"><ele>583.5</ele><time>2026-04-17T16:16:03Z</time></trkpt><trkpt lat="42.659498287140586" lon="12.047608199388945"><ele>585.0</ele><time>2026-04-17T16:16:04Z</time></trkpt><trkpt lat="42.65947425994713" lon="12.047298286115462"><ele>585.0</ele><time>2026-04-17T16:16:05Z</time></trkpt><trkpt lat="42.65945083868934" lon="12.046976930660124"><ele>585.0</ele><time>2026-04-17T16:16:06Z</time></trkpt><trkpt lat="42.6594243054741" lon="12.046671292591906"><ele>586.3333333333334</ele><time>2026-04-17T16:16:07Z</time></trkpt><trkpt lat="42.65939840102283" lon="12.046397166982656"><ele>587.6666666666667</ele><time>2026-04-17T16:16:08Z</time></trkpt><trkpt lat="42.65937595785294" lon="12.046131372381906"><ele>589.0</ele><time>2026-04-17T16:16:09Z</time></trkpt><trkpt lat="42.65935972596088" lon="12.045892436212743"><ele>588.6666666666667</ele><time>2026-04-17T16:16:10Z</time></trkpt><trkpt lat="42.65934735452566" lon="12.045662242433204"><ele>588.3333333333334</ele><time>2026-04-17T16:16:11Z</time></trkpt><trkpt lat="42.65932956554708" lon="12.04539893194251"><ele>588.0</ele><time>2026-04-17T16:16:12Z</time></trkpt><trkpt lat="42.65930765491893" lon="12.04510033336683"><ele>587.0</ele><time>2026-04-17T16:16:13Z</time></trkpt><trkpt lat="42.65928603134549" lon="12.044791910787664"><ele>586.0</ele><time>2026-04-17T16:16:14Z</time></trkpt><trkpt lat="42.65926673809819" lon="12.044507008307265"><ele>585.0</ele><time>2026-04-17T16:16:15Z</time></trkpt><trkpt lat="42.659248265163015" lon="12.04424285946837"><ele>584.6666666666666</ele><time>2026-04-17T16:16:16Z</time></trkpt><trkpt lat="42.65923227946094" lon="12.043991379339621"><ele>584.3333333333333</ele><time>2026-04-17T16:16:17Z</time></trkpt><trkpt lat="42.65921663003481" lon="12.043749462999555"><ele>584.0</ele><time>2026-04-17T16:16:18Z</time></trkpt><trkpt lat="42.65920122270699" lon="12.043514961630018"><ele>583.0</ele><time>2026-04-17T16:16:19Z</time></trkpt><trkpt lat="42.65918269900633" lon="12.043294945954576"><ele>582.0</ele><time>2026-04-17T16:16:20Z</time></trkpt><trkpt lat="42.65916525742973" lon="12.043078571095744"><ele>581.0</ele><time>2026-04-17T16:16:21Z</time></trkpt><trkpt lat="42.65915293609855" lon="12.042851115131725"><ele>581.0</ele><time>2026-04-17T16:16:22Z</time></trkpt><trkpt lat="42.6591537730475" lon="12.042620226094273"><ele>581.0</ele><time>2026-04-17T16:16:23Z</time></trkpt><trkpt lat="42.659171779617026" lon="12.042391493646885"><ele>581.0</ele><time>2026-04-17T16:16:24Z</time></trkpt><trkpt lat="42.65919075757844" lon="12.042169518600637"><ele>580.3333333333333</ele><time>2026-04-17T16:16:25Z</time></trkpt><trkpt lat="42.659207231034756" lon="12.041955868768483"><ele>579.6666666666666</ele><time>2026-04-17T16:16:26Z</time></trkpt><trkpt lat="42.659221760838705" lon="12.041741399104662"><ele>579.0</ele><time>2026-04-17T16:16:27Z</time></trkpt><trkpt lat="42.65923821460805" lon="12.04153740751523"><ele>578.25</ele><time>2026-04-17T16:16:28Z</time></trkpt><trkpt lat="42.65925413426508" lon="12.041341193049119"><ele>577.5</ele><time>2026-04-17T16:16:29Z</time></trkpt><trkpt lat="42.659268416337746" lon="12.041151340440388"><ele>576.75</ele><time>2026-04-17T16:16:30Z</time></trkpt><trkpt lat="42.65928197458173" lon="12.040966205227345"><ele>576.0</ele><time>2026-04-17T16:16:31Z</time></trkpt><trkpt lat="42.65929284051366" lon="12.040797201980567"><ele>575.6</ele><time>2026-04-17T16:16:32Z</time></trkpt><trkpt lat="42.65930655721572" lon="12.040643715076715"><ele>575.2</ele><time>2026-04-17T16:16:33Z</time></trkpt><trkpt lat="42.659339284446844" lon="12.04050850578981"><ele>574.8</ele><time>2026-04-17T16:16:34Z</time></trkpt><trkpt lat="42.659394809363" lon="12.040385579032655"><ele>574.4</ele><time>2026-04-17T16:16:35Z</time></trkpt><trkpt lat="42.65948463168038" lon="12.040292208472001"><ele>574.0</ele><time>2026-04-17T16:16:36Z</time></trkpt><trkpt lat="42.65961348094762" lon="12.040284377120495"><ele>574.0</ele><time>2026-04-17T16:16:37Z</time></trkpt><trkpt lat="42.65976308244966" lon="12.040263462876577"><ele>574.0</ele><time>2026-04-17T16:16:38Z</time></trkpt><trkpt lat="42.65991814206721" lon="12.040240372796449"><ele>574.0</ele><time>2026-04-17T16:16:39Z</time></trkpt><trkpt lat="42.66006466895975" lon="12.040195855253547"><ele>574.0</ele><time>2026-04-17T16:16:40Z</time></trkpt><trkpt lat="42.66019864701486" lon="12.04017959213251"><ele>574.0</ele><time>2026-04-17T16:16:41Z</time></trkpt><trkpt lat="42.66033548436287" lon="12.040164077462016"><ele>574.0</ele><time>2026-04-17T16:16:42Z</time></trkpt><trkpt lat="42.660479462175765" lon="12.040136238536158"><ele>574.0</ele><time>2026-04-17T16:16:43Z</time></trkpt><trkpt lat="42.66062321142743" lon="12.040124450087557"><ele>573.0</ele><time>2026-04-17T16:16:44Z</time></trkpt><trkpt lat="42.660756858540026" lon="12.040122069540836"><ele>572.0</ele><time>2026-04-17T16:16:45Z</time></trkpt><trkpt lat="42.66087869336798" lon="12.040186319096925"><ele>571.0</ele><time>2026-04-17T16:16:46Z</time></trkpt><trkpt lat="42.66099987564389" lon="12.040244979266589"><ele>570.0</ele><time>2026-04-17T16:16:47Z</time></trkpt><trkpt lat="42.661121380631585" lon="12.040301628137586"><ele>567.25</ele><time>2026-04-17T16:16:48Z</time></trkpt><trkpt lat="42.66123382532236" lon="12.040373188596389"><ele>564.5</ele><time>2026-04-17T16:16:49Z</time></trkpt><trkpt lat="42.66136122572132" lon="12.040445468331814"><ele>561.75</ele><time>2026-04-17T16:16:50Z</time></trkpt><trkpt lat="42.66148971649048" lon="12.040518650985678"><ele>559.0</ele><time>2026-04-17T16:16:51Z</time></trkpt><trkpt lat="42.661605255458475" lon="12.040593194612057"><ele>559.0</ele><time>2026-04-17T16:16:52Z</time></trkpt><trkpt lat="42.66171751376618" lon="12.040646386501797"><ele>559.0</ele><time>2026-04-17T16:16:53Z</time></trkpt><trkpt lat="42.66182465448708" lon="12.04064393107696"><ele>559.0</ele><time>2026-04-17T16:16:54Z</time></trkpt><trkpt lat="42.661929939208" lon="12.040564803283983"><ele>559.0</ele><time>2026-04-17T16:16:55Z</time></trkpt><trkpt lat="42.66201330972563" lon="12.040433757167072"><ele>559.75</ele><time>2026-04-17T16:16:56Z</time></trkpt><trkpt lat="42.66207567073772" lon="12.040236193877444"><ele>560.5</ele><time>2026-04-17T16:16:57Z</time></trkpt><trkpt lat="42.66210898001472" lon="12.040038926117031"><ele>561.25</ele><time>2026-04-17T16:16:58Z</time></trkpt><trkpt lat="42.66210473941384" lon="12.039859830223152"><ele>562.0</ele><time>2026-04-17T16:16:59Z</time></trkpt><trkpt lat="42.662072257970905" lon="12.039711021890145"><ele>563.0</ele><time>2026-04-17T16:17:00Z</time></trkpt><trkpt lat="42.66199803152715" lon="12.039578400165693"><ele>564.0</ele><time>2026-04-17T16:17:01Z</time></trkpt><trkpt lat="42.66187047173217" lon="12.039470014297134"><ele>565.0</ele><time>2026-04-17T16:17:02Z</time></trkpt><trkpt lat="42.661707589972295" lon="12.039383650040458"><ele>566.0</ele><time>2026-04-17T16:17:03Z</time></trkpt><trkpt lat="42.66157054264979" lon="12.039232477547674"><ele>562.3333333333333</ele><time>2026-04-17T16:17:04Z</time></trkpt><trkpt lat="42.6614405080951" lon="12.03905088688661"><ele>558.6666666666666</ele><time>2026-04-17T16:17:05Z</time></trkpt><trkpt lat="42.66131374684789" lon="12.038882456015498"><ele>555.0</ele><time>2026-04-17T16:17:06Z</time></trkpt><trkpt lat="42.661205400529866" lon="12.038711545137392"><ele>554.6666666666666</ele><time>2026-04-17T16:17:07Z</time></trkpt><trkpt lat="42.66110015255087" lon="12.038548032328366"><ele>554.3333333333333</ele><time>2026-04-17T16:17:08Z</time></trkpt><trkpt lat="42.66100830277607" lon="12.038376929330902"><ele>554.0</ele><time>2026-04-17T16:17:09Z</time></trkpt><trkpt lat="42.66089940552055" lon="12.038219564512476"><ele>552.0</ele><time>2026-04-17T16:17:10Z</time></trkpt><trkpt lat="42.660791210329116" lon="12.038066287960703"><ele>550.0</ele><time>2026-04-17T16:17:11Z</time></trkpt><trkpt lat="42.66068455779651" lon="12.03791519692354"><ele>548.0</ele><time>2026-04-17T16:17:12Z</time></trkpt><trkpt lat="42.66058932687914" lon="12.037763990456067"><ele>548.0</ele><time>2026-04-17T16:17:13Z</time></trkpt><trkpt lat="42.66053022588942" lon="12.037599847557335"><ele>548.0</ele><time>2026-04-17T16:17:14Z</time></trkpt><trkpt lat="42.66049425257229" lon="12.037429891633204"><ele>548.0</ele><time>2026-04-17T16:17:15Z</time></trkpt><trkpt lat="42.660543776496326" lon="12.037236280097696"><ele>548.0</ele><time>2026-04-17T16:17:16Z</time></trkpt><trkpt lat="42.66057278645317" lon="12.037027393169522"><ele>547.25</ele><time>2026-04-17T16:17:17Z</time></trkpt><trkpt lat="42.66060313295095" lon="12.036827113845959"><ele>546.5</ele><time>2026-04-17T16:17:18Z</time></trkpt><trkpt lat="42.66066270234912" lon="12.036650561747017"><ele>545.75</ele><time>2026-04-17T16:17:19Z</time></trkpt><trkpt lat="42.660733839183536" lon="12.036491560503535"><ele>545.0</ele><time>2026-04-17T16:17:20Z</time></trkpt><trkpt lat="42.660829685274365" lon="12.036369599177686"><ele>542.6666666666666</ele><time>2026-04-17T16:17:21Z</time></trkpt><trkpt lat="42.66094319437552" lon="12.036241966047113"><ele>540.3333333333334</ele><time>2026-04-17T16:17:22Z</time></trkpt><trkpt lat="42.661073997988595" lon="12.036099070919107"><ele>538.0</ele><time>2026-04-17T16:17:23Z</time></trkpt><trkpt lat="42.66120325751235" lon="12.035941779030388"><ele>537.3333333333334</ele><time>2026-04-17T16:17:24Z</time></trkpt><trkpt lat="42.661339652231455" lon="12.035798130014635"><ele>536.6666666666666</ele><time>2026-04-17T16:17:25Z</time></trkpt><trkpt lat="42.661472848612114" lon="12.035653869967872"><ele>536.0</ele><time>2026-04-17T16:17:26Z</time></trkpt><trkpt lat="42.66161394111424" lon="12.035501023122512"><ele>536.0</ele><time>2026-04-17T16:17:27Z</time></trkpt><trkpt lat="42.66176380316429" lon="12.035343217664371"><ele>536.0</ele><time>2026-04-17T16:17:28Z</time></trkpt><trkpt lat="42.66191304113896" lon="12.035187630932864"><ele>536.0</ele><time>2026-04-17T16:17:29Z</time></trkpt><trkpt lat="42.66204673348014" lon="12.035047610726616"><ele>535.5</ele><time>2026-04-17T16:17:30Z</time></trkpt><trkpt lat="42.66216470256733" lon="12.034923066455452"><ele>535.0</ele><time>2026-04-17T16:17:31Z</time></trkpt><trkpt lat="42.662264338948766" lon="12.034785298072268"><ele>534.5</ele><time>2026-04-17T16:17:32Z</time></trkpt><trkpt lat="42.66233277540637" lon="12.034611577617273"><ele>534.0</ele><time>2026-04-17T16:17:33Z</time></trkpt><trkpt lat="42.66236760549116" lon="12.03439621128619"><ele>534.0</ele><time>2026-04-17T16:17:34Z</time></trkpt><trkpt lat="42.66237253227597" lon="12.034150648875878"><ele>534.0</ele><time>2026-04-17T16:17:35Z</time></trkpt><trkpt lat="42.66237863656176" lon="12.033907496781728"><ele>534.0</ele><time>2026-04-17T16:17:36Z</time></trkpt><trkpt lat="42.66238984872942" lon="12.033681381017708"><ele>534.75</ele><time>2026-04-17T16:17:37Z</time></trkpt><trkpt lat="42.662401138811745" lon="12.033463845764974"><ele>535.5</ele><time>2026-04-17T16:17:38Z</time></trkpt><trkpt lat="42.66241580304872" lon="12.033261312311875"><ele>536.25</ele><time>2026-04-17T16:17:39Z</time></trkpt><trkpt lat="42.66243186018096" lon="12.033079082653172"><ele>537.0</ele><time>2026-04-17T16:17:40Z</time></trkpt><trkpt lat="42.66243922124671" lon="12.03291644402006"><ele>537.2</ele><time>2026-04-17T16:17:41Z</time></trkpt><trkpt lat="42.66243597958562" lon="12.032767717579208"><ele>537.4000000000001</ele><time>2026-04-17T16:17:42Z</time></trkpt><trkpt lat="42.662425632827215" lon="12.032623683921772"><ele>537.5999999999999</ele><time>2026-04-17T16:17:43Z</time></trkpt><trkpt lat="42.662414386571044" lon="12.032485096163953"><ele>537.8</ele><time>2026-04-17T16:17:44Z</time></trkpt><trkpt lat="42.662393989589646" lon="12.032358109643344"><ele>538.0</ele><time>2026-04-17T16:17:45Z</time></trkpt><trkpt lat="42.66235797972067" lon="12.03224477829144"><ele>538.5</ele><time>2026-04-17T16:17:46Z</time></trkpt><trkpt lat="42.662309542520745" lon="12.032145846604116"><ele>539.0</ele><time>2026-04-17T16:17:47Z</time></trkpt><trkpt lat="42.662250834725896" lon="12.03206385907695"><ele>539.5</ele><time>2026-04-17T16:17:48Z</time></trkpt><trkpt lat="42.66218815797375" lon="12.031997176612798"><ele>540.0</ele><time>2026-04-17T16:17:49Z</time></trkpt><trkpt lat="42.662138794052744" lon="12.031911918219038"><ele>540.5</ele><time>2026-04-17T16:17:50Z</time></trkpt><trkpt lat="42.66208696897923" lon="12.031860780972872"><ele>541.0</ele><time>2026-04-17T16:17:51Z</time></trkpt><trkpt lat="42.66202883092166" lon="12.031764722474259"><ele>541.0</ele><time>2026-04-17T16:17:53Z</time></trkpt><trkpt lat="42.662003107672334" lon="12.03167813905593"><ele>541.0</ele><time>2026-04-17T16:17:56Z</time></trkpt><trkpt lat="42.66189109148904" lon="12.031603888571281"><ele>541.0</ele><time>2026-04-17T16:17:58Z</time></trkpt><trkpt lat="42.66176780116168" lon="12.031510847976733"><ele>541.0</ele><time>2026-04-17T16:18:00Z</time></trkpt><trkpt lat="42.661700915611526" lon="12.031442871641802"><ele>541.0</ele><time>2026-04-17T16:18:01Z</time></trkpt><trkpt lat="42.661633005790186" lon="12.03137368681533"><ele>543.0</ele><time>2026-04-17T16:18:02Z</time></trkpt><trkpt lat="42.66156302446095" lon="12.031302018064954"><ele>545.0</ele><time>2026-04-17T16:18:03Z</time></trkpt><trkpt lat="42.66148058347031" lon="12.031215933179675"><ele>547.0</ele><time>2026-04-17T16:18:04Z</time></trkpt><trkpt lat="42.661387085082325" lon="12.031120953319036"><ele>549.0</ele><time>2026-04-17T16:18:05Z</time></trkpt><trkpt lat="42.66128592526178" lon="12.03102010165741"><ele>551.0</ele><time>2026-04-17T16:18:06Z</time></trkpt><trkpt lat="42.66117094529448" lon="12.030917812416007"><ele>551.3333333333333</ele><time>2026-04-17T16:18:07Z</time></trkpt><trkpt lat="42.661032342561455" lon="12.030830109932731"><ele>551.6666666666666</ele><time>2026-04-17T16:18:08Z</time></trkpt><trkpt lat="42.66085600875406" lon="12.030801182797026"><ele>552.0</ele><time>2026-04-17T16:18:09Z</time></trkpt><trkpt lat="42.660723428204705" lon="12.030791740230358"><ele>553.5</ele><time>2026-04-17T16:18:10Z</time></trkpt><trkpt lat="42.660629285052586" lon="12.03071752150513"><ele>555.0</ele><time>2026-04-17T16:18:11Z</time></trkpt><trkpt lat="42.66055889124184" lon="12.030603523912166"><ele>556.5</ele><time>2026-04-17T16:18:12Z</time></trkpt><trkpt lat="42.660515552098985" lon="12.030452682666422"><ele>558.0</ele><time>2026-04-17T16:18:13Z</time></trkpt><trkpt lat="42.660521570380034" lon="12.030256484629687"><ele>558.0</ele><time>2026-04-17T16:18:14Z</time></trkpt><trkpt lat="42.6605031027176" lon="12.030040568155288"><ele>558.0</ele><time>2026-04-17T16:18:15Z</time></trkpt><trkpt lat="42.66051410016437" lon="12.02978865574366"><ele>558.0</ele><time>2026-04-17T16:18:16Z</time></trkpt><trkpt lat="42.66048764037569" lon="12.029528826765453"><ele>558.0</ele><time>2026-04-17T16:18:17Z</time></trkpt><trkpt lat="42.660420046192236" lon="12.029307859808242"><ele>558.0</ele><time>2026-04-17T16:18:18Z</time></trkpt><trkpt lat="42.660328034459056" lon="12.029129384995572"><ele>558.0</ele><time>2026-04-17T16:18:19Z</time></trkpt><trkpt lat="42.66019975106918" lon="12.02900983839446"><ele>559.6666666666666</ele><time>2026-04-17T16:18:20Z</time></trkpt><trkpt lat="42.66002031088079" lon="12.02892527486961"><ele>561.3333333333333</ele><time>2026-04-17T16:18:21Z</time></trkpt><trkpt lat="42.659830129160234" lon="12.02887358765436"><ele>563.0</ele><time>2026-04-17T16:18:22Z</time></trkpt><trkpt lat="42.65966978589902" lon="12.028830360766529"><ele>563.0</ele><time>2026-04-17T16:18:23Z</time></trkpt><trkpt lat="42.65954741608032" lon="12.028743986754515"><ele>563.0</ele><time>2026-04-17T16:18:24Z</time></trkpt><trkpt lat="42.65946120043096" lon="12.02861339004087"><ele>563.0</ele><time>2026-04-17T16:18:25Z</time></trkpt><trkpt lat="42.65941778755891" lon="12.02841770225569"><ele>563.0</ele><time>2026-04-17T16:18:26Z</time></trkpt><trkpt lat="42.659379107042824" lon="12.028180280036906"><ele>563.0</ele><time>2026-04-17T16:18:27Z</time></trkpt><trkpt lat="42.65932159969545" lon="12.027912171781672"><ele>563.0</ele><time>2026-04-17T16:18:28Z</time></trkpt><trkpt lat="42.65926723254671" lon="12.027609084486079"><ele>563.0</ele><time>2026-04-17T16:18:29Z</time></trkpt><trkpt lat="42.65920008722398" lon="12.027318657994112"><ele>564.0</ele><time>2026-04-17T16:18:30Z</time></trkpt><trkpt lat="42.65913815794871" lon="12.027068992777314"><ele>565.0</ele><time>2026-04-17T16:18:31Z</time></trkpt><trkpt lat="42.659074357932845" lon="12.02682088115297"><ele>566.0</ele><time>2026-04-17T16:18:32Z</time></trkpt><trkpt lat="42.659013094568806" lon="12.026575260772287"><ele>567.0</ele><time>2026-04-17T16:18:33Z</time></trkpt><trkpt lat="42.65894037021881" lon="12.026357621651911"><ele>568.0</ele><time>2026-04-17T16:18:33.999Z</time></trkpt><trkpt lat="42.658843814121006" lon="12.026166042617545"><ele>569.0</ele><time>2026-04-17T16:18:34.999Z</time></trkpt><trkpt lat="42.65872832219288" lon="12.02598014487381"><ele>570.0</ele><time>2026-04-17T16:18:35.999Z</time></trkpt><trkpt lat="42.65861886111269" lon="12.025782273809256"><ele>571.0</ele><time>2026-04-17T16:18:36.999Z</time></trkpt><trkpt lat="42.658538672808454" lon="12.025560113325778"><ele>572.0</ele><time>2026-04-17T16:18:38Z</time></trkpt><trkpt lat="42.65846683641718" lon="12.025322356134833"><ele>572.0</ele><time>2026-04-17T16:18:39Z</time></trkpt><trkpt lat="42.65840148817581" lon="12.02509883992727"><ele>572.0</ele><time>2026-04-17T16:18:40Z</time></trkpt><trkpt lat="42.65835526089779" lon="12.024894789450036"><ele>572.0</ele><time>2026-04-17T16:18:41Z</time></trkpt><trkpt lat="42.65834898944682" lon="12.024705194847245"><ele>572.3333333333333</ele><time>2026-04-17T16:18:42Z</time></trkpt><trkpt lat="42.658401491868794" lon="12.024530676282517"><ele>572.6666666666666</ele><time>2026-04-17T16:18:43Z</time></trkpt><trkpt lat="42.658489012876494" lon="12.024356772604527"><ele>573.0</ele><time>2026-04-17T16:18:44Z</time></trkpt><trkpt lat="42.65859062676477" lon="12.024153914114214"><ele>576.0</ele><time>2026-04-17T16:18:45Z</time></trkpt><trkpt lat="42.65866560045824" lon="12.023973397102896"><ele>579.0</ele><time>2026-04-17T16:18:46Z</time></trkpt><trkpt lat="42.658705943086034" lon="12.023771064644908"><ele>582.0</ele><time>2026-04-17T16:18:47Z</time></trkpt><trkpt lat="42.65870423605707" lon="12.023532842872191"><ele>582.3333333333334</ele><time>2026-04-17T16:18:48Z</time></trkpt><trkpt lat="42.65866764335515" lon="12.023267383082455"><ele>582.6666666666667</ele><time>2026-04-17T16:18:49Z</time></trkpt><trkpt lat="42.658610205442386" lon="12.023007768987414"><ele>583.0</ele><time>2026-04-17T16:18:50Z</time></trkpt><trkpt lat="42.65853545694626" lon="12.022771770557945"><ele>583.0</ele><time>2026-04-17T16:18:51Z</time></trkpt><trkpt lat="42.65843538896051" lon="12.022570324288777"><ele>583.0</ele><time>2026-04-17T16:18:52Z</time></trkpt><trkpt lat="42.65830470600166" lon="12.022417366850211"><ele>583.0</ele><time>2026-04-17T16:18:53Z</time></trkpt><trkpt lat="42.6581418812629" lon="12.022323570260523"><ele>583.0</ele><time>2026-04-17T16:18:54Z</time></trkpt><trkpt lat="42.65796706687291" lon="12.022262537593816"><ele>583.0</ele><time>2026-04-17T16:18:55Z</time></trkpt><trkpt lat="42.65783173564021" lon="12.022165419991257"><ele>583.0</ele><time>2026-04-17T16:18:56Z</time></trkpt><trkpt lat="42.65773129517854" lon="12.021982342688302"><ele>582.0</ele><time>2026-04-17T16:18:57Z</time></trkpt><trkpt lat="42.65762547596304" lon="12.021762140559622"><ele>581.0</ele><time>2026-04-17T16:18:58Z</time></trkpt><trkpt lat="42.657524016847475" lon="12.021529460369246"><ele>580.0</ele><time>2026-04-17T16:18:59Z</time></trkpt><trkpt lat="42.657452223974275" lon="12.021335143592133"><ele>580.0</ele><time>2026-04-17T16:19:00Z</time></trkpt><trkpt lat="42.65741353331639" lon="12.021167460383493"><ele>580.0</ele><time>2026-04-17T16:19:01Z</time></trkpt><trkpt lat="42.65742147292145" lon="12.020996861419967"><ele>580.0</ele><time>2026-04-17T16:19:02Z</time></trkpt><trkpt lat="42.65745477548674" lon="12.020801701588784"><ele>580.0</ele><time>2026-04-17T16:19:03Z</time></trkpt><trkpt lat="42.65747252664046" lon="12.020535165459822"><ele>579.5</ele><time>2026-04-17T16:19:04Z</time></trkpt><trkpt lat="42.657425149763085" lon="12.020230694283445"><ele>579.0</ele><time>2026-04-17T16:19:05Z</time></trkpt><trkpt lat="42.657343816948114" lon="12.019938124304502"><ele>577.3333333333334</ele><time>2026-04-17T16:19:06Z</time></trkpt><trkpt lat="42.65722853218421" lon="12.019727772239996"><ele>575.6666666666667</ele><time>2026-04-17T16:19:07Z</time></trkpt><trkpt lat="42.65707268110284" lon="12.01959392058953"><ele>574.0</ele><time>2026-04-17T16:19:08Z</time></trkpt><trkpt lat="42.65690616773302" lon="12.019450587724828"><ele>574.0</ele><time>2026-04-17T16:19:09Z</time></trkpt><trkpt lat="42.65675164594711" lon="12.019326648805663"><ele>574.0</ele><time>2026-04-17T16:19:10Z</time></trkpt><trkpt lat="42.65664269215238" lon="12.019121318072866"><ele>574.0</ele><time>2026-04-17T16:19:11Z</time></trkpt><trkpt lat="42.656545520394594" lon="12.018899760861295"><ele>574.6666666666667</ele><time>2026-04-17T16:19:12Z</time></trkpt><trkpt lat="42.65643344236526" lon="12.01872108838966"><ele>575.3333333333334</ele><time>2026-04-17T16:19:13Z</time></trkpt><trkpt lat="42.656299854429065" lon="12.01857666092611"><ele>576.0</ele><time>2026-04-17T16:19:14Z</time></trkpt><trkpt lat="42.65612572575316" lon="12.018493266445384"><ele>574.6666666666666</ele><time>2026-04-17T16:19:15Z</time></trkpt><trkpt lat="42.65595424086032" lon="12.018464172789031"><ele>573.3333333333333</ele><time>2026-04-17T16:19:16Z</time></trkpt><trkpt lat="42.65580582002726" lon="12.01843213130079"><ele>572.0</ele><time>2026-04-17T16:19:17Z</time></trkpt><trkpt lat="42.65567301041154" lon="12.018379275876642"><ele>572.75</ele><time>2026-04-17T16:19:18Z</time></trkpt><trkpt lat="42.655555413395774" lon="12.018306622767355"><ele>573.5</ele><time>2026-04-17T16:19:19Z</time></trkpt><trkpt lat="42.65542976238952" lon="12.018220905390566"><ele>574.25</ele><time>2026-04-17T16:19:20Z</time></trkpt><trkpt lat="42.65528638695005" lon="12.018130824737042"><ele>575.0</ele><time>2026-04-17T16:19:21Z</time></trkpt><trkpt lat="42.6551281324354" lon="12.018057987128941"><ele>572.0</ele><time>2026-04-17T16:19:22Z</time></trkpt><trkpt lat="42.6549547003503" lon="12.018009868108992"><ele>569.0</ele><time>2026-04-17T16:19:23Z</time></trkpt><trkpt lat="42.65476687876644" lon="12.0179697183203"><ele>566.0</ele><time>2026-04-17T16:19:24Z</time></trkpt><trkpt lat="42.65457810483317" lon="12.01793347478292"><ele>564.3333333333333</ele><time>2026-04-17T16:19:25Z</time></trkpt><trkpt lat="42.65440890879469" lon="12.01789707508818"><ele>562.6666666666666</ele><time>2026-04-17T16:19:26Z</time></trkpt><trkpt lat="42.6542448852544" lon="12.017864719055668"><ele>561.0</ele><time>2026-04-17T16:19:27Z</time></trkpt><trkpt lat="42.65408724425292" lon="12.017866421945357"><ele>561.0</ele><time>2026-04-17T16:19:28Z</time></trkpt><trkpt lat="42.65392620410264" lon="12.017893822756353"><ele>561.0</ele><time>2026-04-17T16:19:29Z</time></trkpt><trkpt lat="42.653753666941604" lon="12.017935522350239"><ele>561.0</ele><time>2026-04-17T16:19:30Z</time></trkpt><trkpt lat="42.65357269436875" lon="12.017972937968434"><ele>559.6666666666666</ele><time>2026-04-17T16:19:31Z</time></trkpt><trkpt lat="42.65339458621936" lon="12.018006579413429"><ele>558.3333333333333</ele><time>2026-04-17T16:19:32Z</time></trkpt><trkpt lat="42.653226396946515" lon="12.018039736191392"><ele>557.0</ele><time>2026-04-17T16:19:33Z</time></trkpt><trkpt lat="42.65306657514036" lon="12.018055210607146"><ele>557.0</ele><time>2026-04-17T16:19:34Z</time></trkpt><trkpt lat="42.652907907896854" lon="12.018036141255916"><ele>557.0</ele><time>2026-04-17T16:19:35Z</time></trkpt><trkpt lat="42.65274293182921" lon="12.01797924950079"><ele>557.0</ele><time>2026-04-17T16:19:36Z</time></trkpt><trkpt lat="42.652570526077604" lon="12.017884095662895"><ele>556.0</ele><time>2026-04-17T16:19:37Z</time></trkpt><trkpt lat="42.65238780768202" lon="12.017780921698947"><ele>555.0</ele><time>2026-04-17T16:19:38Z</time></trkpt><trkpt lat="42.65219965953258" lon="12.01767356628507"><ele>554.0</ele><time>2026-04-17T16:19:39Z</time></trkpt><trkpt lat="42.65201812795554" lon="12.017573174768097"><ele>552.6666666666666</ele><time>2026-04-17T16:19:40Z</time></trkpt><trkpt lat="42.651848327722846" lon="12.017472265779643"><ele>551.3333333333334</ele><time>2026-04-17T16:19:41Z</time></trkpt><trkpt lat="42.65168356245838" lon="12.017367501846614"><ele>550.0</ele><time>2026-04-17T16:19:42Z</time></trkpt><trkpt lat="42.651519862185815" lon="12.01726102616365"><ele>550.0</ele><time>2026-04-17T16:19:43Z</time></trkpt><trkpt lat="42.65135295847659" lon="12.01714939389238"><ele>550.0</ele><time>2026-04-17T16:19:44Z</time></trkpt><trkpt lat="42.65118509940775" lon="12.017033707320719"><ele>550.0</ele><time>2026-04-17T16:19:45Z</time></trkpt><trkpt lat="42.651021108147184" lon="12.016916782735741"><ele>549.0</ele><time>2026-04-17T16:19:46Z</time></trkpt><trkpt lat="42.65086170188033" lon="12.016796413194806"><ele>548.0</ele><time>2026-04-17T16:19:47Z</time></trkpt><trkpt lat="42.650705286033116" lon="12.016649045663025"><ele>547.0</ele><time>2026-04-17T16:19:48Z</time></trkpt><trkpt lat="42.65056983410959" lon="12.0164838810378"><ele>546.6666666666667</ele><time>2026-04-17T16:19:49Z</time></trkpt><trkpt lat="42.65046846562227" lon="12.016274625228409"><ele>546.3333333333334</ele><time>2026-04-17T16:19:50Z</time></trkpt><trkpt lat="42.65041651710424" lon="12.016027431372871"><ele>546.0</ele><time>2026-04-17T16:19:51Z</time></trkpt><trkpt lat="42.650342222364074" lon="12.015781429333481"><ele>544.6666666666666</ele><time>2026-04-17T16:19:52Z</time></trkpt><trkpt lat="42.65027790892745" lon="12.01554899498353"><ele>543.3333333333333</ele><time>2026-04-17T16:19:53Z</time></trkpt><trkpt lat="42.65021888606997" lon="12.015341286861183"><ele>542.0</ele><time>2026-04-17T16:19:54Z</time></trkpt><trkpt lat="42.65017309988042" lon="12.015163342814663"><ele>542.0</ele><time>2026-04-17T16:19:55Z</time></trkpt><trkpt lat="42.65016332567355" lon="12.014999935574213"><ele>542.0</ele><time>2026-04-17T16:19:56Z</time></trkpt><trkpt lat="42.650196332267505" lon="12.014843669305247"><ele>542.0</ele><time>2026-04-17T16:19:57Z</time></trkpt><trkpt lat="42.65026256677191" lon="12.014685675229662"><ele>542.0</ele><time>2026-04-17T16:19:58Z</time></trkpt><trkpt lat="42.650338680531235" lon="12.014528086276655"><ele>542.75</ele><time>2026-04-17T16:19:59Z</time></trkpt><trkpt lat="42.65039596228494" lon="12.014372922499083"><ele>543.5</ele><time>2026-04-17T16:20:00Z</time></trkpt><trkpt lat="42.65041617896076" lon="12.014203004880052"><ele>544.25</ele><time>2026-04-17T16:20:01Z</time></trkpt><trkpt lat="42.65039544921838" lon="12.014005926643996"><ele>545.0</ele><time>2026-04-17T16:20:02Z</time></trkpt><trkpt lat="42.650353172957345" lon="12.013781587418697"><ele>546.6666666666666</ele><time>2026-04-17T16:20:03Z</time></trkpt><trkpt lat="42.65030384237214" lon="12.013547144681889"><ele>548.3333333333334</ele><time>2026-04-17T16:20:04Z</time></trkpt><trkpt lat="42.65025668793441" lon="12.013317070190064"><ele>550.0</ele><time>2026-04-17T16:20:05Z</time></trkpt><trkpt lat="42.65021234324004" lon="12.013101972403431"><ele>545.25</ele><time>2026-04-17T16:20:06Z</time></trkpt><trkpt lat="42.650173411621815" lon="12.012902490793957"><ele>540.5</ele><time>2026-04-17T16:20:07Z</time></trkpt><trkpt lat="42.650127044607544" lon="12.012723552464688"><ele>535.75</ele><time>2026-04-17T16:20:08Z</time></trkpt><trkpt lat="42.6500503482286" lon="12.012589821303477"><ele>531.0</ele><time>2026-04-17T16:20:09Z</time></trkpt><trkpt lat="42.64992831706018" lon="12.01249509804138"><ele>530.0</ele><time>2026-04-17T16:20:10Z</time></trkpt><trkpt lat="42.64977254964341" lon="12.012452376750208"><ele>529.0</ele><time>2026-04-17T16:20:11Z</time></trkpt><trkpt lat="42.64960256896382" lon="12.012434051778062"><ele>528.0</ele><time>2026-04-17T16:20:12Z</time></trkpt><trkpt lat="42.64940539942952" lon="12.012397660125057"><ele>524.3333333333334</ele><time>2026-04-17T16:20:13Z</time></trkpt><trkpt lat="42.64920259363722" lon="12.01233875726257"><ele>520.6666666666667</ele><time>2026-04-17T16:20:14Z</time></trkpt><trkpt lat="42.64901514203264" lon="12.012287877580011"><ele>517.0</ele><time>2026-04-17T16:20:15Z</time></trkpt><trkpt lat="42.648840843121214" lon="12.012232335119734"><ele>517.0</ele><time>2026-04-17T16:20:16Z</time></trkpt><trkpt lat="42.64867848959608" lon="12.012185107437023"><ele>517.0</ele><time>2026-04-17T16:20:17Z</time></trkpt><trkpt lat="42.64852195129627" lon="12.012142770645974"><ele>517.0</ele><time>2026-04-17T16:20:18Z</time></trkpt><trkpt lat="42.648367757167655" lon="12.012116055363935"><ele>516.25</ele><time>2026-04-17T16:20:19Z</time></trkpt><trkpt lat="42.64821663648798" lon="12.012115910799034"><ele>515.5</ele><time>2026-04-17T16:20:20Z</time></trkpt><trkpt lat="42.648084582226645" lon="12.012162075677958"><ele>514.75</ele><time>2026-04-17T16:20:21Z</time></trkpt><trkpt lat="42.647995917777045" lon="12.01229579565113"><ele>514.0</ele><time>2026-04-17T16:20:22Z</time></trkpt><trkpt lat="42.64792754989638" lon="12.012438069946333"><ele>514.0</ele><time>2026-04-17T16:20:23Z</time></trkpt><trkpt lat="42.647885527833225" lon="12.012608048620324"><ele>514.0</ele><time>2026-04-17T16:20:24Z</time></trkpt><trkpt lat="42.64784229222379" lon="12.012751162641194"><ele>514.0</ele><time>2026-04-17T16:20:25Z</time></trkpt><trkpt lat="42.64778405453177" lon="12.01286340677643"><ele>514.0</ele><time>2026-04-17T16:20:26Z</time></trkpt><trkpt lat="42.647714951474725" lon="12.012953218833168"><ele>514.0</ele><time>2026-04-17T16:20:27Z</time></trkpt><trkpt lat="42.64763192050225" lon="12.013025366347131"><ele>514.0</ele><time>2026-04-17T16:20:28Z</time></trkpt><trkpt lat="42.64753566093045" lon="12.013062514495397"><ele>514.0</ele><time>2026-04-17T16:20:29Z</time></trkpt><trkpt lat="42.64744014315539" lon="12.013057838235545"><ele>514.0</ele><time>2026-04-17T16:20:30Z</time></trkpt><trkpt lat="42.64734908872995" lon="12.01301388296851"><ele>514.0</ele><time>2026-04-17T16:20:31Z</time></trkpt><trkpt lat="42.647268405391515" lon="12.012940279814305"><ele>514.0</ele><time>2026-04-17T16:20:32Z</time></trkpt><trkpt lat="42.647195822298364" lon="12.012845945900606"><ele>514.0</ele><time>2026-04-17T16:20:33Z</time></trkpt><trkpt lat="42.6471274321899" lon="12.012744424926192"><ele>514.0</ele><time>2026-04-17T16:20:34Z</time></trkpt><trkpt lat="42.64706763078555" lon="12.012631470812646"><ele>514.0</ele><time>2026-04-17T16:20:35Z</time></trkpt><trkpt lat="42.64701193173854" lon="12.01252919170719"><ele>514.0</ele><time>2026-04-17T16:20:36Z</time></trkpt><trkpt lat="42.64694993297641" lon="12.012459834161996"><ele>514.0</ele><time>2026-04-17T16:20:37Z</time></trkpt><trkpt lat="42.64689322428198" lon="12.012411763371635"><ele>514.0</ele><time>2026-04-17T16:20:38Z</time></trkpt><trkpt lat="42.64687450655737" lon="12.012288885809149"><ele>512.6666666666667</ele><time>2026-04-17T16:20:39Z</time></trkpt><trkpt lat="42.646834320657746" lon="12.012221946344855"><ele>511.33333333333337</ele><time>2026-04-17T16:20:40Z</time></trkpt><trkpt lat="42.64676788167833" lon="12.01209321596192"><ele>510.0</ele><time>2026-04-17T16:20:42Z</time></trkpt><trkpt lat="42.646708107671884" lon="12.01197666019809"><ele>508.66666666666663</ele><time>2026-04-17T16:20:44Z</time></trkpt><trkpt lat="42.646665260463614" lon="12.011907482653543"><ele>507.3333333333333</ele><time>2026-04-17T16:20:45Z</time></trkpt><trkpt lat="42.64661478845205" lon="12.011823785018645"><ele>506.0</ele><time>2026-04-17T16:20:46Z</time></trkpt><trkpt lat="42.64654276010501" lon="12.011704559674518"><ele>508.0</ele><time>2026-04-17T16:20:47Z</time></trkpt><trkpt lat="42.64645935166212" lon="12.011550290557224"><ele>510.0</ele><time>2026-04-17T16:20:48Z</time></trkpt><trkpt lat="42.64634652495752" lon="12.011403657545957"><ele>512.0</ele><time>2026-04-17T16:20:49Z</time></trkpt><trkpt lat="42.64618303498818" lon="12.011300982446143"><ele>511.66666666666663</ele><time>2026-04-17T16:20:50Z</time></trkpt><trkpt lat="42.64597183966224" lon="12.01124598594398"><ele>511.33333333333337</ele><time>2026-04-17T16:20:51Z</time></trkpt><trkpt lat="42.645746865609055" lon="12.01124815880151"><ele>511.0</ele><time>2026-04-17T16:20:52Z</time></trkpt><trkpt lat="42.64553851895426" lon="12.01124493835321"><ele>511.0</ele><time>2026-04-17T16:20:53Z</time></trkpt><trkpt lat="42.64536055028592" lon="12.011241999114171"><ele>511.0</ele><time>2026-04-17T16:20:54Z</time></trkpt><trkpt lat="42.64520603901272" lon="12.01117881092165"><ele>511.0</ele><time>2026-04-17T16:20:55Z</time></trkpt><trkpt lat="42.645069022359046" lon="12.011067217005914"><ele>509.6666666666667</ele><time>2026-04-17T16:20:56Z</time></trkpt><trkpt lat="42.64492392793233" lon="12.010898823587203"><ele>508.33333333333337</ele><time>2026-04-17T16:20:57Z</time></trkpt><trkpt lat="42.644758737534254" lon="12.010711746389543"><ele>507.0</ele><time>2026-04-17T16:20:58Z</time></trkpt><trkpt lat="42.6446009757107" lon="12.010525890024452"><ele>507.0</ele><time>2026-04-17T16:20:59Z</time></trkpt><trkpt lat="42.64446369694507" lon="12.010344741191357"><ele>507.0</ele><time>2026-04-17T16:21:00Z</time></trkpt><trkpt lat="42.644347492410105" lon="12.010147248936216"><ele>507.0</ele><time>2026-04-17T16:21:01Z</time></trkpt><trkpt lat="42.644254880262295" lon="12.009926156669293"><ele>501.66666666666663</ele><time>2026-04-17T16:21:02Z</time></trkpt><trkpt lat="42.6442001727505" lon="12.009693641912076"><ele>496.3333333333333</ele><time>2026-04-17T16:21:03Z</time></trkpt><trkpt lat="42.64419935249156" lon="12.009442884070763"><ele>491.0</ele><time>2026-04-17T16:21:04Z</time></trkpt><trkpt lat="42.64420849812251" lon="12.00916254284525"><ele>488.5</ele><time>2026-04-17T16:21:05Z</time></trkpt><trkpt lat="42.64425621886374" lon="12.00885101108733"><ele>486.0</ele><time>2026-04-17T16:21:06Z</time></trkpt><trkpt lat="42.64430534000433" lon="12.008508482767935"><ele>485.0</ele><time>2026-04-17T16:21:07Z</time></trkpt><trkpt lat="42.644355826781904" lon="12.008147490631972"><ele>484.0</ele><time>2026-04-17T16:21:08Z</time></trkpt><trkpt lat="42.64440651842411" lon="12.007809474885832"><ele>482.5</ele><time>2026-04-17T16:21:09Z</time></trkpt><trkpt lat="42.644455046227776" lon="12.007485456753933"><ele>481.0</ele><time>2026-04-17T16:21:10Z</time></trkpt><trkpt lat="42.644501174340405" lon="12.007178408178182"><ele>481.0</ele><time>2026-04-17T16:21:11Z</time></trkpt><trkpt lat="42.64454796968759" lon="12.006900240105146"><ele>481.0</ele><time>2026-04-17T16:21:12Z</time></trkpt><trkpt lat="42.64459014033519" lon="12.006650898518677"><ele>481.0</ele><time>2026-04-17T16:21:13Z</time></trkpt><trkpt lat="42.64464398620511" lon="12.006427039376884"><ele>481.0</ele><time>2026-04-17T16:21:14Z</time></trkpt><trkpt lat="42.64472675232974" lon="12.006220245355243"><ele>481.0</ele><time>2026-04-17T16:21:15Z</time></trkpt><trkpt lat="42.64483522318713" lon="12.006036416492307"><ele>481.0</ele><time>2026-04-17T16:21:16Z</time></trkpt><trkpt lat="42.64496305568635" lon="12.005866911715126"><ele>479.6666666666667</ele><time>2026-04-17T16:21:17Z</time></trkpt><trkpt lat="42.645118297352504" lon="12.005714819313317"><ele>478.33333333333337</ele><time>2026-04-17T16:21:18Z</time></trkpt><trkpt lat="42.64528560630702" lon="12.005567997085292"><ele>477.0</ele><time>2026-04-17T16:21:19Z</time></trkpt><trkpt lat="42.64545268116643" lon="12.005411676724533"><ele>477.0</ele><time>2026-04-17T16:21:20Z</time></trkpt><trkpt lat="42.64562087627555" lon="12.005250889597228"><ele>477.0</ele><time>2026-04-17T16:21:21Z</time></trkpt><trkpt lat="42.64579027074851" lon="12.00508943818405"><ele>477.0</ele><time>2026-04-17T16:21:22Z</time></trkpt><trkpt lat="42.64595418050804" lon="12.004943056629363"><ele>480.33333333333337</ele><time>2026-04-17T16:21:23Z</time></trkpt><trkpt lat="42.64611614546783" lon="12.004816046038062"><ele>483.6666666666667</ele><time>2026-04-17T16:21:24Z</time></trkpt><trkpt lat="42.646269244106804" lon="12.00470713457705"><ele>487.0</ele><time>2026-04-17T16:21:25Z</time></trkpt><trkpt lat="42.64640465738453" lon="12.00461573163001"><ele>487.0</ele><time>2026-04-17T16:21:26Z</time></trkpt><trkpt lat="42.646509112337625" lon="12.004515221927555"><ele>487.0</ele><time>2026-04-17T16:21:27Z</time></trkpt><trkpt lat="42.646560435692024" lon="12.004359848857899"><ele>487.0</ele><time>2026-04-17T16:21:28Z</time></trkpt><trkpt lat="42.64657551557954" lon="12.004138621079095"><ele>487.0</ele><time>2026-04-17T16:21:29Z</time></trkpt><trkpt lat="42.64658183019029" lon="12.003887681167067"><ele>484.33333333333337</ele><time>2026-04-17T16:21:30Z</time></trkpt><trkpt lat="42.64658982412225" lon="12.003637329004805"><ele>481.66666666666663</ele><time>2026-04-17T16:21:31Z</time></trkpt><trkpt lat="42.64660027580622" lon="12.003409972641412"><ele>479.0</ele><time>2026-04-17T16:21:32Z</time></trkpt><trkpt lat="42.64660030986108" lon="12.00319619933921"><ele>476.66666666666663</ele><time>2026-04-17T16:21:33Z</time></trkpt><trkpt lat="42.646614571250275" lon="12.002970074044608"><ele>474.33333333333337</ele><time>2026-04-17T16:21:34Z</time></trkpt><trkpt lat="42.64663781991515" lon="12.002752800912086"><ele>472.0</ele><time>2026-04-17T16:21:35Z</time></trkpt><trkpt lat="42.646663689778755" lon="12.002544524749945"><ele>469.0</ele><time>2026-04-17T16:21:36Z</time></trkpt><trkpt lat="42.646694173479275" lon="12.002342576676043"><ele>466.0</ele><time>2026-04-17T16:21:37Z</time></trkpt><trkpt lat="42.64674687061304" lon="12.002138918649333"><ele>463.0</ele><time>2026-04-17T16:21:38Z</time></trkpt><trkpt lat="42.64681855180867" lon="12.001930026761478"><ele>463.0</ele><time>2026-04-17T16:21:39Z</time></trkpt><trkpt lat="42.64690323840711" lon="12.00171855908488"><ele>463.0</ele><time>2026-04-17T16:21:40Z</time></trkpt><trkpt lat="42.646990968798924" lon="12.001501322184964"><ele>463.0</ele><time>2026-04-17T16:21:41Z</time></trkpt><trkpt lat="42.647072937669336" lon="12.00129579306408"><ele>465.5</ele><time>2026-04-17T16:21:42Z</time></trkpt><trkpt lat="42.64714653296732" lon="12.001113609615722"><ele>468.0</ele><time>2026-04-17T16:21:43Z</time></trkpt><trkpt lat="42.64721242188412" lon="12.000949094730755"><ele>470.5</ele><time>2026-04-17T16:21:44Z</time></trkpt><trkpt lat="42.64726033057313" lon="12.000789925663753"><ele>473.0</ele><time>2026-04-17T16:21:45Z</time></trkpt><trkpt lat="42.64726212107663" lon="12.000622959579319"><ele>473.0</ele><time>2026-04-17T16:21:46Z</time></trkpt><trkpt lat="42.647202414524735" lon="12.000445930465228"><ele>473.0</ele><time>2026-04-17T16:21:47Z</time></trkpt><trkpt lat="42.64708465073105" lon="12.000290706373644"><ele>473.0</ele><time>2026-04-17T16:21:48Z</time></trkpt><trkpt lat="42.64692198611226" lon="12.000174036215617"><ele>470.0</ele><time>2026-04-17T16:21:49Z</time></trkpt><trkpt lat="42.646766778242714" lon="12.000072009193076"><ele>467.0</ele><time>2026-04-17T16:21:50Z</time></trkpt><trkpt lat="42.646650318073334" lon="11.999978327674947"><ele>464.0</ele><time>2026-04-17T16:21:51Z</time></trkpt><trkpt lat="42.64655045247139" lon="11.999866781653196"><ele>461.0</ele><time>2026-04-17T16:21:52Z</time></trkpt><trkpt lat="42.64647859639246" lon="11.999735860053988"><ele>461.0</ele><time>2026-04-17T16:21:53Z</time></trkpt><trkpt lat="42.646472044583575" lon="11.999568755365404"><ele>461.0</ele><time>2026-04-17T16:21:54Z</time></trkpt><trkpt lat="42.6464938034023" lon="11.999406971558258"><ele>461.0</ele><time>2026-04-17T16:21:55Z</time></trkpt><trkpt lat="42.646558937632044" lon="11.999269285040068"><ele>461.0</ele><time>2026-04-17T16:21:56Z</time></trkpt><trkpt lat="42.64666273888729" lon="11.999139806222319"><ele>460.66666666666663</ele><time>2026-04-17T16:21:57Z</time></trkpt><trkpt lat="42.6467912689946" lon="11.998971107230647"><ele>460.33333333333337</ele><time>2026-04-17T16:21:58Z</time></trkpt><trkpt lat="42.64691886690445" lon="11.99878686611776"><ele>460.0</ele><time>2026-04-17T16:21:59Z</time></trkpt><trkpt lat="42.647041474446944" lon="11.998633227938992"><ele>458.6666666666667</ele><time>2026-04-17T16:22:00Z</time></trkpt><trkpt lat="42.64715558183758" lon="11.99848118302621"><ele>457.33333333333337</ele><time>2026-04-17T16:22:01Z</time></trkpt><trkpt lat="42.64727351236189" lon="11.99832799837641"><ele>456.0</ele><time>2026-04-17T16:22:02Z</time></trkpt><trkpt lat="42.647398965996" lon="11.998184169504576"><ele>456.0</ele><time>2026-04-17T16:22:03Z</time></trkpt><trkpt lat="42.64752924608143" lon="11.998058040006882"><ele>456.0</ele><time>2026-04-17T16:22:04Z</time></trkpt><trkpt lat="42.64768192810433" lon="11.998007097996158"><ele>456.0</ele><time>2026-04-17T16:22:05Z</time></trkpt><trkpt lat="42.64783245380923" lon="11.997999976690814"><ele>456.33333333333337</ele><time>2026-04-17T16:22:06Z</time></trkpt><trkpt lat="42.64799393995368" lon="11.998040873836754"><ele>456.6666666666667</ele><time>2026-04-17T16:22:07Z</time></trkpt><trkpt lat="42.64818111243632" lon="11.99811368784226"><ele>457.0</ele><time>2026-04-17T16:22:08Z</time></trkpt><trkpt lat="42.64836053173424" lon="11.998170930912732"><ele>457.0</ele><time>2026-04-17T16:22:09Z</time></trkpt><trkpt lat="42.64852241210197" lon="11.998238254393579"><ele>457.0</ele><time>2026-04-17T16:22:10Z</time></trkpt><trkpt lat="42.64867716972541" lon="11.99828614729258"><ele>457.0</ele><time>2026-04-17T16:22:11Z</time></trkpt><trkpt lat="42.64883269511295" lon="11.99831807504137"><ele>457.0</ele><time>2026-04-17T16:22:12Z</time></trkpt><trkpt lat="42.64896421873096" lon="11.998309512699546"><ele>457.0</ele><time>2026-04-17T16:22:13Z</time></trkpt><trkpt lat="42.649075266112916" lon="11.99825419339291"><ele>457.0</ele><time>2026-04-17T16:22:14Z</time></trkpt><trkpt lat="42.64918062424131" lon="11.998124925708703"><ele>457.0</ele><time>2026-04-17T16:22:15Z</time></trkpt><trkpt lat="42.64925135519845" lon="11.997958218944719"><ele>457.0</ele><time>2026-04-17T16:22:16Z</time></trkpt><trkpt lat="42.64928425789595" lon="11.997764753349887"><ele>457.0</ele><time>2026-04-17T16:22:17Z</time></trkpt><trkpt lat="42.649271676053075" lon="11.997533294262926"><ele>457.0</ele><time>2026-04-17T16:22:18Z</time></trkpt><trkpt lat="42.64922880697882" lon="11.997287734365845"><ele>453.33333333333337</ele><time>2026-04-17T16:22:19Z</time></trkpt><trkpt lat="42.649193199850025" lon="11.997075399036477"><ele>449.66666666666663</ele><time>2026-04-17T16:22:20Z</time></trkpt><trkpt lat="42.64914956052552" lon="11.99687018445731"><ele>446.0</ele><time>2026-04-17T16:22:21Z</time></trkpt><trkpt lat="42.64907917870274" lon="11.996672046043967"><ele>445.0</ele><time>2026-04-17T16:22:22Z</time></trkpt><trkpt lat="42.64899354782739" lon="11.996497517612292"><ele>444.0</ele><time>2026-04-17T16:22:23Z</time></trkpt><trkpt lat="42.64891040635581" lon="11.996342729020558"><ele>443.0</ele><time>2026-04-17T16:22:24Z</time></trkpt><trkpt lat="42.64886317784311" lon="11.996185253877053"><ele>442.0</ele><time>2026-04-17T16:22:25Z</time></trkpt><trkpt lat="42.64884176543187" lon="11.996012007088838"><ele>441.33333333333337</ele><time>2026-04-17T16:22:26Z</time></trkpt><trkpt lat="42.648849507088634" lon="11.995819805355113"><ele>440.66666666666663</ele><time>2026-04-17T16:22:27Z</time></trkpt><trkpt lat="42.648887519717526" lon="11.995624014957441"><ele>440.0</ele><time>2026-04-17T16:22:28Z</time></trkpt><trkpt lat="42.64894405149412" lon="11.995408058546198"><ele>440.0</ele><time>2026-04-17T16:22:29Z</time></trkpt><trkpt lat="42.64899741115475" lon="11.995171264083597"><ele>440.0</ele><time>2026-04-17T16:22:30Z</time></trkpt><trkpt lat="42.649049998016466" lon="11.994932136634556"><ele>440.0</ele><time>2026-04-17T16:22:31Z</time></trkpt><trkpt lat="42.649100323143934" lon="11.994690951127529"><ele>437.66666666666663</ele><time>2026-04-17T16:22:32Z</time></trkpt><trkpt lat="42.649148221639834" lon="11.994465996793151"><ele>435.33333333333337</ele><time>2026-04-17T16:22:33Z</time></trkpt><trkpt lat="42.64919802028192" lon="11.994244476409598"><ele>433.0</ele><time>2026-04-17T16:22:34Z</time></trkpt><trkpt lat="42.64924763865925" lon="11.994021039159264"><ele>431.6666666666667</ele><time>2026-04-17T16:22:35Z</time></trkpt><trkpt lat="42.64929174625389" lon="11.993804325714976"><ele>430.33333333333337</ele><time>2026-04-17T16:22:36Z</time></trkpt><trkpt lat="42.64933566607219" lon="11.993596583621489"><ele>429.0</ele><time>2026-04-17T16:22:37Z</time></trkpt><trkpt lat="42.64937803953394" lon="11.99340055901493"><ele>429.75</ele><time>2026-04-17T16:22:38Z</time></trkpt><trkpt lat="42.6494230104652" lon="11.9932247385372"><ele>430.5</ele><time>2026-04-17T16:22:39Z</time></trkpt><trkpt lat="42.649471304669134" lon="11.993061687576855"><ele>431.25</ele><time>2026-04-17T16:22:40Z</time></trkpt><trkpt lat="42.64953394580727" lon="11.992936876567555"><ele>432.0</ele><time>2026-04-17T16:22:41Z</time></trkpt><trkpt lat="42.649622700593866" lon="11.992857249395014"><ele>432.0</ele><time>2026-04-17T16:22:42Z</time></trkpt><trkpt lat="42.649729694106135" lon="11.992828457442718"><ele>432.0</ele><time>2026-04-17T16:22:43Z</time></trkpt><trkpt lat="42.649846360446524" lon="11.992830562166004"><ele>432.0</ele><time>2026-04-17T16:22:44Z</time></trkpt><trkpt lat="42.64996587952925" lon="11.992844360531018"><ele>432.0</ele><time>2026-04-17T16:22:45Z</time></trkpt><trkpt lat="42.65008438156705" lon="11.992849227329312"><ele>432.0</ele><time>2026-04-17T16:22:45.999Z</time></trkpt><trkpt lat="42.65020626863313" lon="11.992848859371197"><ele>432.0</ele><time>2026-04-17T16:22:46.999Z</time></trkpt><trkpt lat="42.65032064579342" lon="11.992857459210905"><ele>432.0</ele><time>2026-04-17T16:22:47.999Z</time></trkpt><trkpt lat="42.65043563108536" lon="11.9928515481592"><ele>432.0</ele><time>2026-04-17T16:22:48.999Z</time></trkpt><trkpt lat="42.65054249260022" lon="11.992816740417947"><ele>433.0</ele><time>2026-04-17T16:22:49.999Z</time></trkpt><trkpt lat="42.650636871826734" lon="11.992748621990543"><ele>434.00000000000006</ele><time>2026-04-17T16:22:50.999Z</time></trkpt><trkpt lat="42.65070301549767" lon="11.992644503270338"><ele>435.00000000000006</ele><time>2026-04-17T16:22:51.999Z</time></trkpt><trkpt lat="42.65073670926239" lon="11.992517588478535"><ele>436.0</ele><time>2026-04-17T16:22:52.999Z</time></trkpt><trkpt lat="42.650740253106655" lon="11.992389399429877"><ele>437.0</ele><time>2026-04-17T16:22:53.999Z</time></trkpt><trkpt lat="42.65070981397498" lon="11.992268295697727"><ele>434.8</ele><time>2026-04-17T16:22:54.999Z</time></trkpt><trkpt lat="42.650654928869876" lon="11.99215523401539"><ele>432.6</ele><time>2026-04-17T16:22:55.999Z</time></trkpt><trkpt lat="42.65057418392563" lon="11.992065050101832"><ele>430.40000000000003</ele><time>2026-04-17T16:22:56.999Z</time></trkpt><trkpt lat="42.65047720839327" lon="11.992015573657508"><ele>428.20000000000005</ele><time>2026-04-17T16:22:57.999Z</time></trkpt><trkpt lat="42.65037127082617" lon="11.992020740000353"><ele>426.0</ele><time>2026-04-17T16:22:58.999Z</time></trkpt><trkpt lat="42.650265698022935" lon="11.992053078464874"><ele>424.8</ele><time>2026-04-17T16:22:59.999Z</time></trkpt><trkpt lat="42.650162925806846" lon="11.992068403417258"><ele>423.6</ele><time>2026-04-17T16:23:01Z</time></trkpt><trkpt lat="42.65006090616978" lon="11.9920447909109"><ele>422.4</ele><time>2026-04-17T16:23:02Z</time></trkpt><trkpt lat="42.64995397793328" lon="11.991994717804259"><ele>421.2</ele><time>2026-04-17T16:23:03Z</time></trkpt><trkpt lat="42.6498474329649" lon="11.99191982203033"><ele>420.0</ele><time>2026-04-17T16:23:04Z</time></trkpt><trkpt lat="42.6497400289659" lon="11.991821992880213"><ele>420.0</ele><time>2026-04-17T16:23:05Z</time></trkpt><trkpt lat="42.64963595804059" lon="11.991722353798833"><ele>420.0</ele><time>2026-04-17T16:23:06Z</time></trkpt><trkpt lat="42.64953782939194" lon="11.991626272921422"><ele>420.0</ele><time>2026-04-17T16:23:07Z</time></trkpt><trkpt lat="42.649445026202415" lon="11.99153018885644"><ele>420.0</ele><time>2026-04-17T16:23:08Z</time></trkpt><trkpt lat="42.6493646591454" lon="11.991420026306777"><ele>416.5</ele><time>2026-04-17T16:23:09Z</time></trkpt><trkpt lat="42.649294122308966" lon="11.991292394653847"><ele>413.0</ele><time>2026-04-17T16:23:10Z</time></trkpt><trkpt lat="42.649252572789166" lon="11.991131365419044"><ele>409.5</ele><time>2026-04-17T16:23:11Z</time></trkpt><trkpt lat="42.649183398338685" lon="11.99097894375846"><ele>406.0</ele><time>2026-04-17T16:23:12Z</time></trkpt><trkpt lat="42.64912089164653" lon="11.990835548812381"><ele>406.0</ele><time>2026-04-17T16:23:13Z</time></trkpt><trkpt lat="42.64903729628969" lon="11.99073172395642"><ele>406.0</ele><time>2026-04-17T16:23:14Z</time></trkpt><trkpt lat="42.648947260403126" lon="11.990652708286472"><ele>406.0</ele><time>2026-04-17T16:23:15Z</time></trkpt><trkpt lat="42.64888667972953" lon="11.990554424206243"><ele>406.0</ele><time>2026-04-17T16:23:16Z</time></trkpt><trkpt lat="42.64886549966778" lon="11.990424279624577"><ele>406.0</ele><time>2026-04-17T16:23:17Z</time></trkpt><trkpt lat="42.64887370531423" lon="11.990285901430457"><ele>406.0</ele><time>2026-04-17T16:23:18Z</time></trkpt><trkpt lat="42.64893004894175" lon="11.990146191891636"><ele>406.0</ele><time>2026-04-17T16:23:19Z</time></trkpt><trkpt lat="42.64898230764041" lon="11.989989858721955"><ele>406.0</ele><time>2026-04-17T16:23:20Z</time></trkpt><trkpt lat="42.649024565078165" lon="11.989833160042204"><ele>406.0</ele><time>2026-04-17T16:23:21Z</time></trkpt><trkpt lat="42.64908027802565" lon="11.989690719944095"><ele>406.5</ele><time>2026-04-17T16:23:22Z</time></trkpt><trkpt lat="42.64914325687317" lon="11.98955824122313"><ele>407.0</ele><time>2026-04-17T16:23:23Z</time></trkpt><trkpt lat="42.64923423529861" lon="11.989444091952134"><ele>407.5</ele><time>2026-04-17T16:23:24Z</time></trkpt><trkpt lat="42.64931333880427" lon="11.98930375588471"><ele>408.0</ele><time>2026-04-17T16:23:25Z</time></trkpt><trkpt lat="42.649407522345975" lon="11.989181791652543"><ele>407.75</ele><time>2026-04-17T16:23:26Z</time></trkpt><trkpt lat="42.64950340875512" lon="11.98905762570316"><ele>407.5</ele><time>2026-04-17T16:23:27Z</time></trkpt><trkpt lat="42.64960089090073" lon="11.988923967373426"><ele>407.25</ele><time>2026-04-17T16:23:28Z</time></trkpt><trkpt lat="42.649692076725565" lon="11.988795726759397"><ele>407.0</ele><time>2026-04-17T16:23:29Z</time></trkpt><trkpt lat="42.649780695253405" lon="11.98866790326292"><ele>407.0</ele><time>2026-04-17T16:23:30Z</time></trkpt><trkpt lat="42.64986917613992" lon="11.988541269944156"><ele>407.0</ele><time>2026-04-17T16:23:31Z</time></trkpt><trkpt lat="42.649958343859055" lon="11.988424694584625"><ele>407.0</ele><time>2026-04-17T16:23:32Z</time></trkpt><trkpt lat="42.650044188242525" lon="11.988309649023877"><ele>407.0</ele><time>2026-04-17T16:23:33Z</time></trkpt><trkpt lat="42.65012435467783" lon="11.988196404533362"><ele>407.6</ele><time>2026-04-17T16:23:34Z</time></trkpt><trkpt lat="42.65020018249916" lon="11.988086328146363"><ele>408.20000000000005</ele><time>2026-04-17T16:23:35Z</time></trkpt><trkpt lat="42.65027155238277" lon="11.987976280386881"><ele>408.8</ele><time>2026-04-17T16:23:36Z</time></trkpt><trkpt lat="42.650326883427006" lon="11.987856860611139"><ele>409.4</ele><time>2026-04-17T16:23:37Z</time></trkpt><trkpt lat="42.65035290856497" lon="11.987703079008359"><ele>410.0</ele><time>2026-04-17T16:23:38Z</time></trkpt><trkpt lat="42.650346635289296" lon="11.987526943997208"><ele>409.0</ele><time>2026-04-17T16:23:39Z</time></trkpt><trkpt lat="42.65031136450769" lon="11.98734977271584"><ele>408.0</ele><time>2026-04-17T16:23:40Z</time></trkpt><trkpt lat="42.6502720823566" lon="11.987178487073885"><ele>407.0</ele><time>2026-04-17T16:23:41Z</time></trkpt><trkpt lat="42.65022223305858" lon="11.98700473271016"><ele>406.0</ele><time>2026-04-17T16:23:42Z</time></trkpt><trkpt lat="42.650173339667795" lon="11.986831293634717"><ele>402.0</ele><time>2026-04-17T16:23:43Z</time></trkpt><trkpt lat="42.65012925061301" lon="11.986674944412492"><ele>398.0</ele><time>2026-04-17T16:23:44Z</time></trkpt><trkpt lat="42.65008926470071" lon="11.98652750116282"><ele>394.0</ele><time>2026-04-17T16:23:45Z</time></trkpt><trkpt lat="42.6500572404675" lon="11.98639284106512"><ele>390.0</ele><time>2026-04-17T16:23:46Z</time></trkpt><trkpt lat="42.65006445009937" lon="11.986240611777854"><ele>390.0</ele><time>2026-04-17T16:23:47Z</time></trkpt><trkpt lat="42.650113512593094" lon="11.986098203349222"><ele>390.0</ele><time>2026-04-17T16:23:48Z</time></trkpt><trkpt lat="42.65020985794713" lon="11.985982175173866"><ele>390.0</ele><time>2026-04-17T16:23:49Z</time></trkpt><trkpt lat="42.65028650524875" lon="11.98585203484687"><ele>390.0</ele><time>2026-04-17T16:23:50Z</time></trkpt><trkpt lat="42.650372408196645" lon="11.985736051777941"><ele>390.5</ele><time>2026-04-17T16:23:51Z</time></trkpt><trkpt lat="42.65046444260411" lon="11.985608621198885"><ele>391.0</ele><time>2026-04-17T16:23:52Z</time></trkpt><trkpt lat="42.65056177378145" lon="11.9854684117612"><ele>391.5</ele><time>2026-04-17T16:23:53Z</time></trkpt><trkpt lat="42.65066183768212" lon="11.985328424295155"><ele>392.0</ele><time>2026-04-17T16:23:54Z</time></trkpt><trkpt lat="42.65076191740472" lon="11.985192528442118"><ele>392.0</ele><time>2026-04-17T16:23:55Z</time></trkpt><trkpt lat="42.65085247232588" lon="11.985066239637161"><ele>392.0</ele><time>2026-04-17T16:23:56Z</time></trkpt><trkpt lat="42.65092784371245" lon="11.984947814422503"><ele>392.0</ele><time>2026-04-17T16:23:57Z</time></trkpt><trkpt lat="42.650991042973104" lon="11.984831047823983"><ele>392.0</ele><time>2026-04-17T16:23:58Z</time></trkpt><trkpt lat="42.651025367396215" lon="11.984687828849012"><ele>390.6</ele><time>2026-04-17T16:23:59Z</time></trkpt><trkpt lat="42.651012738862555" lon="11.984546355628858"><ele>389.20000000000005</ele><time>2026-04-17T16:24:00Z</time></trkpt><trkpt lat="42.65097036849057" lon="11.984416860848446"><ele>387.8</ele><time>2026-04-17T16:24:01Z</time></trkpt><trkpt lat="42.65089148268961" lon="11.984327712373748"><ele>386.4</ele><time>2026-04-17T16:24:02Z</time></trkpt><trkpt lat="42.650783895209884" lon="11.984290585334998"><ele>385.0</ele><time>2026-04-17T16:24:03Z</time></trkpt><trkpt lat="42.6506717062129" lon="11.98430295338823"><ele>385.0</ele><time>2026-04-17T16:24:04Z</time></trkpt><trkpt lat="42.650570097913324" lon="11.984368437168193"><ele>385.0</ele><time>2026-04-17T16:24:05Z</time></trkpt><trkpt lat="42.65047912895364" lon="11.984480893032947"><ele>385.0</ele><time>2026-04-17T16:24:06Z</time></trkpt><trkpt lat="42.65039114403292" lon="11.984602809574762"><ele>385.0</ele><time>2026-04-17T16:24:07Z</time></trkpt><trkpt lat="42.65029438372215" lon="11.9846920954682"><ele>385.00000000000006</ele><time>2026-04-17T16:24:08Z</time></trkpt><trkpt lat="42.65022070021949" lon="11.984780235488486"><ele>385.0</ele><time>2026-04-17T16:24:09Z</time></trkpt><trkpt lat="42.65017152846391" lon="11.984839054325997"><ele>385.0</ele><time>2026-04-17T16:24:10Z</time></trkpt><trkpt lat="42.65021128229997" lon="11.98472187674508"><ele>385.0</ele><time>2026-04-17T16:24:14Z</time></trkpt><trkpt lat="42.65026330704853" lon="11.984637088980508"><ele>385.00000000000006</ele><time>2026-04-17T16:24:15Z</time></trkpt><trkpt lat="42.650309732920725" lon="11.984541026093563"><ele>385.0</ele><time>2026-04-17T16:24:16Z</time></trkpt><trkpt lat="42.65037166460941" lon="11.984451644398861"><ele>385.00000000000006</ele><time>2026-04-17T16:24:17Z</time></trkpt><trkpt lat="42.650445514036875" lon="11.9843799285459"><ele>385.0</ele><time>2026-04-17T16:24:18Z</time></trkpt><trkpt lat="42.65050557924039" lon="11.984309920399907"><ele>385.0</ele><time>2026-04-17T16:24:19Z</time></trkpt><trkpt lat="42.65055403854541" lon="11.984241873224775"><ele>385.0</ele><time>2026-04-17T16:24:20Z</time></trkpt><trkpt lat="42.650625001489395" lon="11.984188315518866"><ele>385.00000000000006</ele><time>2026-04-17T16:24:21Z</time></trkpt><trkpt lat="42.65070513668791" lon="11.984172316830344"><ele>385.0</ele><time>2026-04-17T16:24:22Z</time></trkpt><trkpt lat="42.6508021448655" lon="11.984138289410327"><ele>385.0</ele><time>2026-04-17T16:24:23Z</time></trkpt><trkpt lat="42.65090037818718" lon="11.984101504745063"><ele>385.0</ele><time>2026-04-17T16:24:24Z</time></trkpt><trkpt lat="42.650982681703454" lon="11.984119308994382"><ele>385.0</ele><time>2026-04-17T16:24:25Z</time></trkpt><trkpt lat="42.651039946379" lon="11.984201748839379"><ele>385.0</ele><time>2026-04-17T16:24:26Z</time></trkpt><trkpt lat="42.651118189191" lon="11.98426829482973"><ele>385.0</ele><time>2026-04-17T16:24:27Z</time></trkpt><trkpt lat="42.6512217125599" lon="11.984356762677224"><ele>385.0</ele><time>2026-04-17T16:24:28Z</time></trkpt><trkpt lat="42.65133705320017" lon="11.984487525518208"><ele>385.0</ele><time>2026-04-17T16:24:29Z</time></trkpt><trkpt lat="42.651415961667986" lon="11.984589345634596"><ele>385.0</ele><time>2026-04-17T16:24:30Z</time></trkpt><trkpt lat="42.651491674275654" lon="11.984680861032848"><ele>385.0</ele><time>2026-04-17T16:24:31Z</time></trkpt><trkpt lat="42.65155780042378" lon="11.984761102867026"><ele>385.0</ele><time>2026-04-17T16:24:32Z</time></trkpt><trkpt lat="42.65167282686602" lon="11.984811558618322"><ele>385.00000000000006</ele><time>2026-04-17T16:24:34Z</time></trkpt><trkpt lat="42.65173361768209" lon="11.984757470112571"><ele>385.0</ele><time>2026-04-17T16:24:35Z</time></trkpt><trkpt lat="42.65178899363259" lon="11.984707648801132"><ele>385.0</ele><time>2026-04-17T16:24:36Z</time></trkpt><trkpt lat="42.65177360203083" lon="11.98456390161121"><ele>385.0</ele><time>2026-04-17T16:24:37Z</time></trkpt><trkpt lat="42.65178136628886" lon="11.984435960079034"><ele>385.00000000000006</ele><time>2026-04-17T16:24:38Z</time></trkpt><trkpt lat="42.65178767207267" lon="11.98429474117923"><ele>385.0</ele><time>2026-04-17T16:24:40Z</time></trkpt><trkpt lat="42.65180833523877" lon="11.984202939740452"><ele>385.0</ele><time>2026-04-17T16:24:42Z</time></trkpt><trkpt lat="42.651890094593256" lon="11.984216207852091"><ele>385.0</ele><time>2026-04-17T16:24:43Z</time></trkpt><trkpt lat="42.65202190895052" lon="11.984258075591251"><ele>385.0</ele><time>2026-04-17T16:24:45Z</time></trkpt><trkpt lat="42.65207357432976" lon="11.984351930706897"><ele>385.0</ele><time>2026-04-17T16:24:46Z</time></trkpt><trkpt lat="42.65211849116082" lon="11.984485144138189"><ele>385.0</ele><time>2026-04-17T16:24:47Z</time></trkpt><trkpt lat="42.65214144397287" lon="11.984617128661638"><ele>387.0</ele><time>2026-04-17T16:24:48Z</time></trkpt><trkpt lat="42.65217182845145" lon="11.984734401319914"><ele>389.0</ele><time>2026-04-17T16:24:49Z</time></trkpt><trkpt lat="42.65222162421529" lon="11.98484974016583"><ele>391.0</ele><time>2026-04-17T16:24:50Z</time></trkpt><trkpt lat="42.652289768553125" lon="11.984965864787025"><ele>393.0</ele><time>2026-04-17T16:24:51Z</time></trkpt><trkpt lat="42.65237155441506" lon="11.985093322239976"><ele>395.0</ele><time>2026-04-17T16:24:51.999Z</time></trkpt><trkpt lat="42.65243806258429" lon="11.985208031109433"><ele>394.99999999999994</ele><time>2026-04-17T16:24:52.999Z</time></trkpt><trkpt lat="42.652493967796865" lon="11.985324261344784"><ele>395.0</ele><time>2026-04-17T16:24:53.999Z</time></trkpt><trkpt lat="42.652539976775515" lon="11.985441372293906"><ele>395.0</ele><time>2026-04-17T16:24:54.999Z</time></trkpt><trkpt lat="42.652591968538566" lon="11.985529483487213"><ele>395.0</ele><time>2026-04-17T16:24:55.999Z</time></trkpt><trkpt lat="42.65265353138101" lon="11.985590930733844"><ele>394.99999999999994</ele><time>2026-04-17T16:24:56.999Z</time></trkpt><trkpt lat="42.652733618413336" lon="11.985617920761202"><ele>395.0</ele><time>2026-04-17T16:24:57.999Z</time></trkpt><trkpt lat="42.652822160980634" lon="11.985604973998745"><ele>395.75</ele><time>2026-04-17T16:24:58.999Z</time></trkpt><trkpt lat="42.65293600144802" lon="11.985552335857143"><ele>396.5</ele><time>2026-04-17T16:24:59.999Z</time></trkpt><trkpt lat="42.653057769699494" lon="11.985469195490984"><ele>397.25</ele><time>2026-04-17T16:25:00.999Z</time></trkpt><trkpt lat="42.65318744296463" lon="11.985373905845506"><ele>398.0</ele><time>2026-04-17T16:25:01.999Z</time></trkpt><trkpt lat="42.65333523665694" lon="11.985261606278216"><ele>398.0</ele><time>2026-04-17T16:25:02.999Z</time></trkpt><trkpt lat="42.653466385485785" lon="11.985170308831796"><ele>398.0</ele><time>2026-04-17T16:25:03.999Z</time></trkpt><trkpt lat="42.65359440822871" lon="11.985141924880963"><ele>398.0</ele><time>2026-04-17T16:25:04.999Z</time></trkpt><trkpt lat="42.65372700900683" lon="11.98508942750392"><ele>398.0</ele><time>2026-04-17T16:25:05.999Z</time></trkpt><trkpt lat="42.65387231833799" lon="11.985027809957032"><ele>402.0</ele><time>2026-04-17T16:25:06.999Z</time></trkpt><trkpt lat="42.65400975618891" lon="11.984940895499111"><ele>406.0</ele><time>2026-04-17T16:25:07.999Z</time></trkpt><trkpt lat="42.654140607700505" lon="11.984857962412676"><ele>410.0</ele><time>2026-04-17T16:25:08.999Z</time></trkpt><trkpt lat="42.654260612653765" lon="11.98478847278632"><ele>414.0</ele><time>2026-04-17T16:25:09.999Z</time></trkpt><trkpt lat="42.65438877279927" lon="11.984714323307232"><ele>416.6</ele><time>2026-04-17T16:25:10.999Z</time></trkpt><trkpt lat="42.654486067796846" lon="11.984646613900376"><ele>419.2</ele><time>2026-04-17T16:25:12Z</time></trkpt><trkpt lat="42.65456246959944" lon="11.984553800345976"><ele>421.80000000000007</ele><time>2026-04-17T16:25:13Z</time></trkpt><trkpt lat="42.65462686256768" lon="11.98443735523169"><ele>424.40000000000003</ele><time>2026-04-17T16:25:14Z</time></trkpt><trkpt lat="42.65469872281178" lon="11.984335032523047"><ele>427.0</ele><time>2026-04-17T16:25:15Z</time></trkpt><trkpt lat="42.65476241235747" lon="11.98427769395209"><ele>427.00000000000006</ele><time>2026-04-17T16:25:16Z</time></trkpt><trkpt lat="42.65484103266555" lon="11.984300232803383"><ele>427.0</ele><time>2026-04-17T16:25:17Z</time></trkpt><trkpt lat="42.65491203729481" lon="11.984295550328326"><ele>427.0</ele><time>2026-04-17T16:25:18Z</time></trkpt><trkpt lat="42.65498175194068" lon="11.984305139049566"><ele>427.0</ele><time>2026-04-17T16:25:19Z</time></trkpt><trkpt lat="42.655076967419184" lon="11.984325429919128"><ele>427.00000000000006</ele><time>2026-04-17T16:25:20Z</time></trkpt><trkpt lat="42.65519835276443" lon="11.984330274082227"><ele>427.0</ele><time>2026-04-17T16:25:21Z</time></trkpt><trkpt lat="42.65533667910838" lon="11.984359520086036"><ele>429.0</ele><time>2026-04-17T16:25:22Z</time></trkpt><trkpt lat="42.65546460708894" lon="11.984374255758361"><ele>431.00000000000006</ele><time>2026-04-17T16:25:23Z</time></trkpt><trkpt lat="42.65556065294314" lon="11.984355340742209"><ele>433.00000000000006</ele><time>2026-04-17T16:25:24Z</time></trkpt><trkpt lat="42.655647855692905" lon="11.98432121043072"><ele>435.0</ele><time>2026-04-17T16:25:25Z</time></trkpt><trkpt lat="42.65573833153491" lon="11.984251677685068"><ele>437.0</ele><time>2026-04-17T16:25:26Z</time></trkpt><trkpt lat="42.65582984188579" lon="11.984162969499337"><ele>437.8</ele><time>2026-04-17T16:25:27Z</time></trkpt><trkpt lat="42.65592945633041" lon="11.984085897727136"><ele>438.6</ele><time>2026-04-17T16:25:28Z</time></trkpt><trkpt lat="42.65602623526567" lon="11.983998880640216"><ele>439.40000000000003</ele><time>2026-04-17T16:25:29Z</time></trkpt><trkpt lat="42.65612774056394" lon="11.983930534651893"><ele>440.20000000000005</ele><time>2026-04-17T16:25:30Z</time></trkpt><trkpt lat="42.65622250919194" lon="11.983870376042084"><ele>441.0</ele><time>2026-04-17T16:25:31Z</time></trkpt><trkpt lat="42.656320970723634" lon="11.98383266662706"><ele>442.0</ele><time>2026-04-17T16:25:32Z</time></trkpt><trkpt lat="42.65642685873528" lon="11.98376826959113"><ele>443.0</ele><time>2026-04-17T16:25:33Z</time></trkpt><trkpt lat="42.6565290518948" lon="11.98367326882424"><ele>444.0</ele><time>2026-04-17T16:25:34Z</time></trkpt><trkpt lat="42.656648361075824" lon="11.983609033586317"><ele>445.0</ele><time>2026-04-17T16:25:35Z</time></trkpt><trkpt lat="42.656762143826164" lon="11.983531946279696"><ele>445.0</ele><time>2026-04-17T16:25:36Z</time></trkpt><trkpt lat="42.65685999975655" lon="11.98344171340915"><ele>445.0</ele><time>2026-04-17T16:25:37Z</time></trkpt><trkpt lat="42.65694806483879" lon="11.983379811589959"><ele>445.0</ele><time>2026-04-17T16:25:38Z</time></trkpt><trkpt lat="42.657039185504246" lon="11.983307574263181"><ele>445.0</ele><time>2026-04-17T16:25:39Z</time></trkpt><trkpt lat="42.657136812251665" lon="11.983226698627917"><ele>445.0</ele><time>2026-04-17T16:25:40Z</time></trkpt><trkpt lat="42.65722661726436" lon="11.983150244114261"><ele>446.00000000000006</ele><time>2026-04-17T16:25:41Z</time></trkpt><trkpt lat="42.65730239899513" lon="11.983070794275402"><ele>447.0</ele><time>2026-04-17T16:25:42Z</time></trkpt><trkpt lat="42.657378322886586" lon="11.982994816659527"><ele>448.0</ele><time>2026-04-17T16:25:43Z</time></trkpt><trkpt lat="42.657440400640624" lon="11.982924424630461"><ele>449.0</ele><time>2026-04-17T16:25:44Z</time></trkpt><trkpt lat="42.657499720746614" lon="11.982854738143532"><ele>450.00000000000006</ele><time>2026-04-17T16:25:45Z</time></trkpt><trkpt lat="42.65756840404873" lon="11.982787944080748"><ele>451.0</ele><time>2026-04-17T16:25:46Z</time></trkpt><trkpt lat="42.657652067282505" lon="11.982723038652052"><ele>451.0</ele><time>2026-04-17T16:25:47Z</time></trkpt><trkpt lat="42.65774194762644" lon="11.98267132914942"><ele>451.0</ele><time>2026-04-17T16:25:48Z</time></trkpt><trkpt lat="42.65783055435378" lon="11.982661209227269"><ele>451.0</ele><time>2026-04-17T16:25:49Z</time></trkpt><trkpt lat="42.6579152376247" lon="11.982650537217602"><ele>451.0</ele><time>2026-04-17T16:25:50Z</time></trkpt><trkpt lat="42.65800786905209" lon="11.982648574921111"><ele>451.0</ele><time>2026-04-17T16:25:51Z</time></trkpt><trkpt lat="42.65809992298094" lon="11.982653809164132"><ele>450.00000000000006</ele><time>2026-04-17T16:25:52Z</time></trkpt><trkpt lat="42.658178253076436" lon="11.982636738282617"><ele>449.0</ele><time>2026-04-17T16:25:53Z</time></trkpt><trkpt lat="42.658264985196546" lon="11.982636483861626"><ele>448.0</ele><time>2026-04-17T16:25:54Z</time></trkpt><trkpt lat="42.658356077371366" lon="11.982625372564396"><ele>447.0</ele><time>2026-04-17T16:25:55Z</time></trkpt><trkpt lat="42.65845063734487" lon="11.982611536652968"><ele>446.00000000000006</ele><time>2026-04-17T16:25:56Z</time></trkpt><trkpt lat="42.65853550061485" lon="11.982567558111246"><ele>445.0</ele><time>2026-04-17T16:25:57Z</time></trkpt><trkpt lat="42.65861241732984" lon="11.982526806309329"><ele>444.6</ele><time>2026-04-17T16:25:58Z</time></trkpt><trkpt lat="42.658700546105614" lon="11.98251609237248"><ele>444.2</ele><time>2026-04-17T16:25:59Z</time></trkpt><trkpt lat="42.658787056179875" lon="11.982486884936353"><ele>443.79999999999995</ele><time>2026-04-17T16:26:00Z</time></trkpt><trkpt lat="42.65887420406522" lon="11.98244977380542"><ele>443.4</ele><time>2026-04-17T16:26:01Z</time></trkpt><trkpt lat="42.658957770484754" lon="11.982481857901275"><ele>443.0</ele><time>2026-04-17T16:26:02Z</time></trkpt><trkpt lat="42.65905007435291" lon="11.982507388303516"><ele>442.99999999999994</ele><time>2026-04-17T16:26:03Z</time></trkpt><trkpt lat="42.65914136585102" lon="11.982534845755438"><ele>443.0</ele><time>2026-04-17T16:26:04Z</time></trkpt><trkpt lat="42.659236942553264" lon="11.98255349669477"><ele>443.0</ele><time>2026-04-17T16:26:05Z</time></trkpt><trkpt lat="42.65932973190139" lon="11.98257550510571"><ele>443.0</ele><time>2026-04-17T16:26:06Z</time></trkpt><trkpt lat="42.65940946210493" lon="11.982615705191892"><ele>442.99999999999994</ele><time>2026-04-17T16:26:07Z</time></trkpt><trkpt lat="42.65948538703912" lon="11.98263706621457"><ele>443.0</ele><time>2026-04-17T16:26:08Z</time></trkpt><trkpt lat="42.65956329820746" lon="11.982654189814104"><ele>444.4</ele><time>2026-04-17T16:26:09Z</time></trkpt><trkpt lat="42.65963730785355" lon="11.982667797746043"><ele>445.79999999999995</ele><time>2026-04-17T16:26:10Z</time></trkpt><trkpt lat="42.65970478549012" lon="11.982675883869845"><ele>447.2</ele><time>2026-04-17T16:26:11Z</time></trkpt><trkpt lat="42.65978949898974" lon="11.982709915468533"><ele>448.6</ele><time>2026-04-17T16:26:13Z</time></trkpt><trkpt lat="42.65983521445249" lon="11.982530865103925"><ele>450.0</ele><time>2026-04-17T16:26:14Z</time></trkpt><trkpt lat="42.65987793255191" lon="11.982426794336872"><ele>452.2</ele><time>2026-04-17T16:26:15Z</time></trkpt><trkpt lat="42.65989658200293" lon="11.982266759104311"><ele>454.4</ele><time>2026-04-17T16:26:16Z</time></trkpt><trkpt lat="42.659935624632865" lon="11.98211931911633"><ele>456.6</ele><time>2026-04-17T16:26:17Z</time></trkpt><trkpt lat="42.6599716151042" lon="11.981977927990316"><ele>458.8</ele><time>2026-04-17T16:26:18Z</time></trkpt><trkpt lat="42.659998278327365" lon="11.981873179664419"><ele>461.0</ele><time>2026-04-17T16:26:19Z</time></trkpt><trkpt lat="42.66002910450228" lon="11.98175329257892"><ele>460.49999999999994</ele><time>2026-04-17T16:26:21Z</time></trkpt><trkpt lat="42.66004135550358" lon="11.981650511819096"><ele>460.0</ele><time>2026-04-17T16:26:24Z</time></trkpt><trkpt lat="42.65989974230406" lon="11.981548262273355"><ele>459.5</ele><time>2026-04-17T16:26:26Z</time></trkpt><trkpt lat="42.65988147042137" lon="11.981453565537166"><ele>459.0</ele><time>2026-04-17T16:36:24Z</time></trkpt><trkpt lat="42.659893006240615" lon="11.98136540655518"><ele>458.49999999999994</ele><time>2026-04-17T16:36:31Z</time></trkpt><trkpt lat="42.65989605846898" lon="11.981274516352185"><ele>458.0</ele><time>2026-04-17T16:36:38Z</time></trkpt><trkpt lat="42.6599047757292" lon="11.981189593531774"><ele>458.0</ele><time>2026-04-17T16:36:45Z</time></trkpt><trkpt lat="42.65992415113518" lon="11.981095704710603"><ele>458.0</ele><time>2026-04-17T16:36:51Z</time></trkpt><trkpt lat="42.659954971431695" lon="11.98101609686474"><ele>458.0</ele><time>2026-04-17T16:36:55Z</time></trkpt><trkpt lat="42.659973703842105" lon="11.980933241904106"><ele>458.0</ele><time>2026-04-17T16:36:59.999Z</time></trkpt><trkpt lat="42.65995580622185" lon="11.980848920799014"><ele>458.0</ele><time>2026-04-17T16:37:06.999Z</time></trkpt><trkpt lat="42.6599995820758" lon="11.980915106413015"><ele>458.0</ele><time>2026-04-17T16:38:11Z</time></trkpt><trkpt lat="42.66004776663938" lon="11.980981211701799"><ele>458.0</ele><time>2026-04-17T16:38:22Z</time></trkpt><trkpt lat="42.66006075212034" lon="11.980890778058386"><ele>458.0</ele><time>2026-04-17T16:40:02Z</time></trkpt><trkpt lat="42.660018078145676" lon="11.980968072327137"><ele>458.0</ele><time>2026-04-17T16:41:56Z</time></trkpt><trkpt lat="42.659957496198174" lon="11.981018162400847"><ele>458.0</ele><time>2026-04-17T16:42:05Z</time></trkpt><trkpt lat="42.659918894994206" lon="11.981105552973007"><ele>458.0</ele><time>2026-04-17T16:42:14Z</time></trkpt><trkpt lat="42.65988213487976" lon="11.98121500101156"><ele>458.0</ele><time>2026-04-17T16:43:06.999Z</time></trkpt></trkseg></trk></gpx>